<?xml version='1.0' encoding='UTF-8'?><gpx version="1.1" creator="JPX - https://github.com/jenetics/jpx" xmlns="http://www.topografix.com/GPX/1/1"><trk><trkseg><trkpt lat="42.557185" lon="13.849502"><ele>493.00000000000006</ele><time>2026-03-22T09:13:29.641Z</time></trkpt><trkpt lat="42.557219" lon="13.8494204"><ele>493.0</ele><time>2026-03-22T09:13:31.641Z</time></trkpt><trkpt lat="42.5572602" lon="13.8493462"><ele>493.0</ele><time>2026-03-22T09:13:33.641Z</time></trkpt><trkpt lat="42.5573176" lon="13.8492716"><ele>493.0</ele><time>2026-03-22T09:13:36.641Z</time></trkpt><trkpt lat="42.5573801" lon="13.8491846"><ele>493.00000000000006</ele><time>2026-03-22T09:13:39.641Z</time></trkpt><trkpt lat="42.5574412" lon="13.8490893"><ele>493.0</ele><time>2026-03-22T09:13:42.642Z</time></trkpt><trkpt lat="42.5574855" lon="13.8490249"><ele>492.42857142857144</ele><time>2026-03-22T09:13:44.641Z</time></trkpt><trkpt lat="42.5575298" lon="13.8489569"><ele>491.8571428571429</ele><time>2026-03-22T09:13:46.641Z</time></trkpt><trkpt lat="42.5575753" lon="13.8488911"><ele>491.28571428571433</ele><time>2026-03-22T09:13:48.642Z</time></trkpt><trkpt lat="42.5576175" lon="13.8488169"><ele>490.7142857142857</ele><time>2026-03-22T09:13:50.642Z</time></trkpt><trkpt lat="42.5576669" lon="13.8487395"><ele>490.1428571428572</ele><time>2026-03-22T09:13:52.642Z</time></trkpt><trkpt lat="42.5577186" lon="13.8486667"><ele>489.5714285714286</ele><time>2026-03-22T09:13:54.641Z</time></trkpt><trkpt lat="42.5577644" lon="13.8485863"><ele>489.0</ele><time>2026-03-22T09:13:56.641Z</time></trkpt><trkpt lat="42.5577912" lon="13.8484792"><ele>489.1666666666667</ele><time>2026-03-22T09:13:59.641Z</time></trkpt><trkpt lat="42.5578" lon="13.8483893"><ele>489.33333333333337</ele><time>2026-03-22T09:14:01.642Z</time></trkpt><trkpt lat="42.5578379" lon="13.8482809"><ele>489.5</ele><time>2026-03-22T09:14:03.641Z</time></trkpt><trkpt lat="42.5578737" lon="13.8481682"><ele>489.6666666666667</ele><time>2026-03-22T09:14:05.642Z</time></trkpt><trkpt lat="42.5579014" lon="13.8480648"><ele>489.83333333333337</ele><time>2026-03-22T09:14:07.642Z</time></trkpt><trkpt lat="42.5579317" lon="13.8479577"><ele>490.0</ele><time>2026-03-22T09:14:09.641Z</time></trkpt><trkpt lat="42.5579566" lon="13.8478451"><ele>490.00000000000006</ele><time>2026-03-22T09:14:11.642Z</time></trkpt><trkpt lat="42.5579822" lon="13.8477292"><ele>490.0</ele><time>2026-03-22T09:14:13.641Z</time></trkpt><trkpt lat="42.5580044" lon="13.8476092"><ele>490.0</ele><time>2026-03-22T09:14:15.642Z</time></trkpt><trkpt lat="42.5580234" lon="13.8474916"><ele>490.0</ele><time>2026-03-22T09:14:17.642Z</time></trkpt><trkpt lat="42.5580402" lon="13.8473793"><ele>490.00000000000006</ele><time>2026-03-22T09:14:19.641Z</time></trkpt><trkpt lat="42.5580601" lon="13.847263"><ele>490.0</ele><time>2026-03-22T09:14:21.64Z</time></trkpt><trkpt lat="42.5580817" lon="13.8471413"><ele>490.8</ele><time>2026-03-22T09:14:23.641Z</time></trkpt><trkpt lat="42.5581029" lon="13.8470103"><ele>491.6</ele><time>2026-03-22T09:14:25.64Z</time></trkpt><trkpt lat="42.5581227" lon="13.8468744"><ele>492.4</ele><time>2026-03-22T09:14:27.64Z</time></trkpt><trkpt lat="42.5581487" lon="13.8467341"><ele>493.2</ele><time>2026-03-22T09:14:29.64Z</time></trkpt><trkpt lat="42.5581742" lon="13.8465826"><ele>494.0</ele><time>2026-03-22T09:14:31.639Z</time></trkpt><trkpt lat="42.5581991" lon="13.8464573"><ele>494.0</ele><time>2026-03-22T09:14:33.641Z</time></trkpt><trkpt lat="42.5582202" lon="13.8463396"><ele>494.0</ele><time>2026-03-22T09:14:35.64Z</time></trkpt><trkpt lat="42.5582434" lon="13.8462178"><ele>494.0</ele><time>2026-03-22T09:14:37.64Z</time></trkpt><trkpt lat="42.558263" lon="13.8460808"><ele>494.0</ele><time>2026-03-22T09:14:39.641Z</time></trkpt><trkpt lat="42.5582787" lon="13.8459506"><ele>494.0</ele><time>2026-03-22T09:14:41.639Z</time></trkpt><trkpt lat="42.5582935" lon="13.8458222"><ele>493.49999999999994</ele><time>2026-03-22T09:14:43.641Z</time></trkpt><trkpt lat="42.5582988" lon="13.8456939"><ele>493.0</ele><time>2026-03-22T09:14:45.641Z</time></trkpt><trkpt lat="42.5583024" lon="13.8455653"><ele>492.5</ele><time>2026-03-22T09:14:47.64Z</time></trkpt><trkpt lat="42.5583002" lon="13.8454463"><ele>492.0</ele><time>2026-03-22T09:14:49.641Z</time></trkpt><trkpt lat="42.5582966" lon="13.8453437"><ele>491.49999999999994</ele><time>2026-03-22T09:14:51.64Z</time></trkpt><trkpt lat="42.5582905" lon="13.8452498"><ele>491.0</ele><time>2026-03-22T09:14:53.641Z</time></trkpt><trkpt lat="42.5582816" lon="13.8451501"><ele>491.0</ele><time>2026-03-22T09:14:55.64Z</time></trkpt><trkpt lat="42.5582755" lon="13.8450537"><ele>490.99999999999994</ele><time>2026-03-22T09:14:57.641Z</time></trkpt><trkpt lat="42.5582597" lon="13.8449696"><ele>491.0</ele><time>2026-03-22T09:15:00.64Z</time></trkpt><trkpt lat="42.5582433" lon="13.8450576"><ele>491.0</ele><time>2026-03-22T09:15:04.641Z</time></trkpt><trkpt lat="42.558261" lon="13.8451709"><ele>490.99999999999994</ele><time>2026-03-22T09:15:07.641Z</time></trkpt><trkpt lat="42.5582738" lon="13.845263"><ele>491.0</ele><time>2026-03-22T09:15:10.641Z</time></trkpt><trkpt lat="42.5582924" lon="13.8453719"><ele>491.0</ele><time>2026-03-22T09:15:13.641Z</time></trkpt><trkpt lat="42.5583001" lon="13.8454824"><ele>490.99999999999994</ele><time>2026-03-22T09:15:16.641Z</time></trkpt><trkpt lat="42.558301" lon="13.8455911"><ele>491.0</ele><time>2026-03-22T09:15:19.64Z</time></trkpt><trkpt lat="42.558297" lon="13.8457025"><ele>491.0</ele><time>2026-03-22T09:15:22.639Z</time></trkpt><trkpt lat="42.5582988" lon="13.8458181"><ele>491.0</ele><time>2026-03-22T09:15:25.64Z</time></trkpt><trkpt lat="42.5582851" lon="13.8459294"><ele>490.99999999999994</ele><time>2026-03-22T09:15:28.64Z</time></trkpt><trkpt lat="42.5582714" lon="13.8460431"><ele>491.0</ele><time>2026-03-22T09:15:31.641Z</time></trkpt><trkpt lat="42.5582522" lon="13.8461536"><ele>491.49999999999994</ele><time>2026-03-22T09:15:34.64Z</time></trkpt><trkpt lat="42.5582432" lon="13.8462599"><ele>492.0</ele><time>2026-03-22T09:15:37.641Z</time></trkpt><trkpt lat="42.5582235" lon="13.8463678"><ele>492.5</ele><time>2026-03-22T09:15:40.64Z</time></trkpt><trkpt lat="42.5581993" lon="13.8464782"><ele>493.0</ele><time>2026-03-22T09:15:43.641Z</time></trkpt><trkpt lat="42.5581838" lon="13.8465702"><ele>493.49999999999994</ele><time>2026-03-22T09:15:46.64Z</time></trkpt><trkpt lat="42.558166" lon="13.8466876"><ele>494.0</ele><time>2026-03-22T09:15:49.64Z</time></trkpt><trkpt lat="42.5581558" lon="13.8467941"><ele>494.16666666666663</ele><time>2026-03-22T09:15:51.64Z</time></trkpt><trkpt lat="42.5581395" lon="13.8468893"><ele>494.3333333333333</ele><time>2026-03-22T09:15:53.641Z</time></trkpt><trkpt lat="42.5581303" lon="13.8470061"><ele>494.5</ele><time>2026-03-22T09:15:55.64Z</time></trkpt><trkpt lat="42.5581093" lon="13.8470921"><ele>494.66666666666663</ele><time>2026-03-22T09:15:57.641Z</time></trkpt><trkpt lat="42.5581031" lon="13.8471819"><ele>494.8333333333333</ele><time>2026-03-22T09:16:00.641Z</time></trkpt><trkpt lat="42.558076" lon="13.847288"><ele>495.0</ele><time>2026-03-22T09:16:04.641Z</time></trkpt><trkpt lat="42.5580424" lon="13.8473839"><ele>495.0</ele><time>2026-03-22T09:16:07.64Z</time></trkpt><trkpt lat="42.5580316" lon="13.8474819"><ele>495.0</ele><time>2026-03-22T09:16:10.64Z</time></trkpt><trkpt lat="42.558013" lon="13.8475667"><ele>495.0</ele><time>2026-03-22T09:16:12.64Z</time></trkpt><trkpt lat="42.5579855" lon="13.8476884"><ele>495.0</ele><time>2026-03-22T09:16:15.64Z</time></trkpt><trkpt lat="42.557961" lon="13.8478045"><ele>495.0</ele><time>2026-03-22T09:16:18.64Z</time></trkpt><trkpt lat="42.5579363" lon="13.8479236"><ele>495.0</ele><time>2026-03-22T09:16:21.64Z</time></trkpt><trkpt lat="42.5579107" lon="13.8480349"><ele>494.1666666666667</ele><time>2026-03-22T09:16:24.641Z</time></trkpt><trkpt lat="42.5578765" lon="13.848147"><ele>493.33333333333337</ele><time>2026-03-22T09:16:27.641Z</time></trkpt><trkpt lat="42.5578424" lon="13.8482628"><ele>492.5</ele><time>2026-03-22T09:16:30.64Z</time></trkpt><trkpt lat="42.5578066" lon="13.8483694"><ele>491.6666666666667</ele><time>2026-03-22T09:16:33.641Z</time></trkpt><trkpt lat="42.5577745" lon="13.8484794"><ele>490.83333333333337</ele><time>2026-03-22T09:16:36.64Z</time></trkpt><trkpt lat="42.5577417" lon="13.8485964"><ele>490.0</ele><time>2026-03-22T09:16:39.641Z</time></trkpt><trkpt lat="42.5576943" lon="13.8487112"><ele>489.8571428571429</ele><time>2026-03-22T09:16:42.64Z</time></trkpt><trkpt lat="42.5576509" lon="13.8487838"><ele>489.7142857142857</ele><time>2026-03-22T09:16:44.64Z</time></trkpt><trkpt lat="42.557609" lon="13.8488489"><ele>489.57142857142856</ele><time>2026-03-22T09:16:46.641Z</time></trkpt><trkpt lat="42.5575599" lon="13.848913"><ele>489.42857142857144</ele><time>2026-03-22T09:16:48.64Z</time></trkpt><trkpt lat="42.5575067" lon="13.8489825"><ele>489.28571428571433</ele><time>2026-03-22T09:16:50.641Z</time></trkpt><trkpt lat="42.5574527" lon="13.8490478"><ele>489.14285714285717</ele><time>2026-03-22T09:16:52.641Z</time></trkpt><trkpt lat="42.5574033" lon="13.8491096"><ele>489.0</ele><time>2026-03-22T09:16:54.64Z</time></trkpt><trkpt lat="42.5573463" lon="13.8491824"><ele>489.0</ele><time>2026-03-22T09:16:56.64Z</time></trkpt><trkpt lat="42.5572927" lon="13.8492472"><ele>489.0</ele><time>2026-03-22T09:16:58.64Z</time></trkpt><trkpt lat="42.5572417" lon="13.8493112"><ele>489.0</ele><time>2026-03-22T09:17:00.64Z</time></trkpt><trkpt lat="42.5571928" lon="13.8493938"><ele>489.0</ele><time>2026-03-22T09:17:02.641Z</time></trkpt><trkpt lat="42.5571637" lon="13.8494957"><ele>489.0</ele><time>2026-03-22T09:17:04.64Z</time></trkpt><trkpt lat="42.5571547" lon="13.8496129"><ele>489.0</ele><time>2026-03-22T09:17:06.641Z</time></trkpt><trkpt lat="42.5571626" lon="13.849747"><ele>489.79999999999995</ele><time>2026-03-22T09:17:08.64Z</time></trkpt><trkpt lat="42.5571677" lon="13.8498826"><ele>490.59999999999997</ele><time>2026-03-22T09:17:10.64Z</time></trkpt><trkpt lat="42.5571688" lon="13.85004"><ele>491.4</ele><time>2026-03-22T09:17:12.64Z</time></trkpt><trkpt lat="42.5571449" lon="13.8501978"><ele>492.2</ele><time>2026-03-22T09:17:14.641Z</time></trkpt><trkpt lat="42.5571103" lon="13.8502694"><ele>493.0</ele><time>2026-03-22T09:17:15.639Z</time></trkpt><trkpt lat="42.5570589" lon="13.8503258"><ele>491.4</ele><time>2026-03-22T09:17:16.641Z</time></trkpt><trkpt lat="42.5569951" lon="13.8503643"><ele>489.79999999999995</ele><time>2026-03-22T09:17:17.641Z</time></trkpt><trkpt lat="42.5568728" lon="13.8503773"><ele>488.2</ele><time>2026-03-22T09:17:19.64Z</time></trkpt><trkpt lat="42.5567613" lon="13.8504422"><ele>486.6</ele><time>2026-03-22T09:17:21.641Z</time></trkpt><trkpt lat="42.5567138" lon="13.8505926"><ele>485.0</ele><time>2026-03-22T09:17:23.641Z</time></trkpt><trkpt lat="42.556734" lon="13.8507648"><ele>484.99999999999994</ele><time>2026-03-22T09:17:25.641Z</time></trkpt><trkpt lat="42.5567422" lon="13.8508611"><ele>485.0</ele><time>2026-03-22T09:17:26.64Z</time></trkpt><trkpt lat="42.5567406" lon="13.850961"><ele>485.0</ele><time>2026-03-22T09:17:27.641Z</time></trkpt><trkpt lat="42.5567227" lon="13.8510595"><ele>485.0</ele><time>2026-03-22T09:17:28.641Z</time></trkpt><trkpt lat="42.5566872" lon="13.8511496"><ele>484.99999999999994</ele><time>2026-03-22T09:17:29.64Z</time></trkpt><trkpt lat="42.5566348" lon="13.8512295"><ele>485.0</ele><time>2026-03-22T09:17:30.641Z</time></trkpt><trkpt lat="42.556578" lon="13.8513046"><ele>484.8333333333333</ele><time>2026-03-22T09:17:31.641Z</time></trkpt><trkpt lat="42.5565134" lon="13.8513744"><ele>484.66666666666663</ele><time>2026-03-22T09:17:32.641Z</time></trkpt><trkpt lat="42.5564684" lon="13.8514618"><ele>484.5</ele><time>2026-03-22T09:17:33.641Z</time></trkpt><trkpt lat="42.5564389" lon="13.8515594"><ele>484.33333333333337</ele><time>2026-03-22T09:17:34.64Z</time></trkpt><trkpt lat="42.5564288" lon="13.8516658"><ele>484.1666666666667</ele><time>2026-03-22T09:17:35.64Z</time></trkpt><trkpt lat="42.5564388" lon="13.8517678"><ele>484.0</ele><time>2026-03-22T09:17:36.64Z</time></trkpt><trkpt lat="42.5564653" lon="13.8518729"><ele>482.00000000000006</ele><time>2026-03-22T09:17:37.64Z</time></trkpt><trkpt lat="42.5565005" lon="13.8519715"><ele>480.0</ele><time>2026-03-22T09:17:38.64Z</time></trkpt><trkpt lat="42.5565567" lon="13.8520613"><ele>478.0</ele><time>2026-03-22T09:17:39.64Z</time></trkpt><trkpt lat="42.5566065" lon="13.8521557"><ele>476.0</ele><time>2026-03-22T09:17:40.641Z</time></trkpt><trkpt lat="42.5566574" lon="13.8522471"><ele>474.00000000000006</ele><time>2026-03-22T09:17:41.64Z</time></trkpt><trkpt lat="42.5567201" lon="13.8523259"><ele>472.0</ele><time>2026-03-22T09:17:42.64Z</time></trkpt><trkpt lat="42.5567642" lon="13.8524188"><ele>472.00000000000006</ele><time>2026-03-22T09:17:43.64Z</time></trkpt><trkpt lat="42.5568138" lon="13.8525102"><ele>472.0</ele><time>2026-03-22T09:17:44.641Z</time></trkpt><trkpt lat="42.5568511" lon="13.8526102"><ele>472.0</ele><time>2026-03-22T09:17:45.64Z</time></trkpt><trkpt lat="42.5568743" lon="13.8527184"><ele>472.0</ele><time>2026-03-22T09:17:46.64Z</time></trkpt><trkpt lat="42.5568986" lon="13.8528282"><ele>472.00000000000006</ele><time>2026-03-22T09:17:47.641Z</time></trkpt><trkpt lat="42.5569128" lon="13.8529434"><ele>472.0</ele><time>2026-03-22T09:17:48.641Z</time></trkpt><trkpt lat="42.556923" lon="13.8530575"><ele>470.1666666666667</ele><time>2026-03-22T09:17:49.64Z</time></trkpt><trkpt lat="42.5569354" lon="13.8531728"><ele>468.33333333333337</ele><time>2026-03-22T09:17:50.64Z</time></trkpt><trkpt lat="42.5569452" lon="13.8532882"><ele>466.5</ele><time>2026-03-22T09:17:51.64Z</time></trkpt><trkpt lat="42.5569588" lon="13.8534045"><ele>464.66666666666663</ele><time>2026-03-22T09:17:52.641Z</time></trkpt><trkpt lat="42.5569691" lon="13.853517"><ele>462.8333333333333</ele><time>2026-03-22T09:17:53.64Z</time></trkpt><trkpt lat="42.5569887" lon="13.8536287"><ele>461.0</ele><time>2026-03-22T09:17:54.64Z</time></trkpt><trkpt lat="42.5570103" lon="13.8537399"><ele>461.3333333333333</ele><time>2026-03-22T09:17:55.641Z</time></trkpt><trkpt lat="42.5570292" lon="13.8538552"><ele>461.66666666666663</ele><time>2026-03-22T09:17:56.64Z</time></trkpt><trkpt lat="42.5570486" lon="13.8539712"><ele>462.0</ele><time>2026-03-22T09:17:57.641Z</time></trkpt><trkpt lat="42.5570637" lon="13.8540908"><ele>462.33333333333337</ele><time>2026-03-22T09:17:58.64Z</time></trkpt><trkpt lat="42.5570778" lon="13.8542128"><ele>462.6666666666667</ele><time>2026-03-22T09:17:59.641Z</time></trkpt><trkpt lat="42.5570923" lon="13.8543354"><ele>463.0</ele><time>2026-03-22T09:18:00.64Z</time></trkpt><trkpt lat="42.5571027" lon="13.854458"><ele>462.2</ele><time>2026-03-22T09:18:01.641Z</time></trkpt><trkpt lat="42.5571077" lon="13.8545821"><ele>461.4</ele><time>2026-03-22T09:18:02.64Z</time></trkpt><trkpt lat="42.5571075" lon="13.8547079"><ele>460.59999999999997</ele><time>2026-03-22T09:18:03.641Z</time></trkpt><trkpt lat="42.5571051" lon="13.8548305"><ele>459.79999999999995</ele><time>2026-03-22T09:18:04.64Z</time></trkpt><trkpt lat="42.5570977" lon="13.8549528"><ele>459.0</ele><time>2026-03-22T09:18:05.641Z</time></trkpt><trkpt lat="42.5570879" lon="13.8550731"><ele>457.8333333333333</ele><time>2026-03-22T09:18:06.64Z</time></trkpt><trkpt lat="42.5570757" lon="13.8551923"><ele>456.66666666666663</ele><time>2026-03-22T09:18:07.64Z</time></trkpt><trkpt lat="42.5570618" lon="13.8553129"><ele>455.5</ele><time>2026-03-22T09:18:08.64Z</time></trkpt><trkpt lat="42.5570485" lon="13.8554317"><ele>454.3333333333333</ele><time>2026-03-22T09:18:09.64Z</time></trkpt><trkpt lat="42.5570333" lon="13.8555497"><ele>453.16666666666663</ele><time>2026-03-22T09:18:10.641Z</time></trkpt><trkpt lat="42.5570205" lon="13.8556683"><ele>452.0</ele><time>2026-03-22T09:18:11.641Z</time></trkpt><trkpt lat="42.5570098" lon="13.8557889"><ele>452.0</ele><time>2026-03-22T09:18:12.641Z</time></trkpt><trkpt lat="42.5570003" lon="13.8559097"><ele>452.00000000000006</ele><time>2026-03-22T09:18:13.641Z</time></trkpt><trkpt lat="42.5569942" lon="13.8560327"><ele>452.00000000000006</ele><time>2026-03-22T09:18:14.64Z</time></trkpt><trkpt lat="42.556984" lon="13.856155"><ele>452.0</ele><time>2026-03-22T09:18:15.641Z</time></trkpt><trkpt lat="42.556977" lon="13.8562795"><ele>452.0</ele><time>2026-03-22T09:18:16.64Z</time></trkpt><trkpt lat="42.5569674" lon="13.8564029"><ele>451.40000000000003</ele><time>2026-03-22T09:18:17.641Z</time></trkpt><trkpt lat="42.5569548" lon="13.8565269"><ele>450.80000000000007</ele><time>2026-03-22T09:18:18.641Z</time></trkpt><trkpt lat="42.5569417" lon="13.8566519"><ele>450.2</ele><time>2026-03-22T09:18:19.639Z</time></trkpt><trkpt lat="42.5569339" lon="13.8567775"><ele>449.6</ele><time>2026-03-22T09:18:20.64Z</time></trkpt><trkpt lat="42.5569235" lon="13.8568976"><ele>449.0</ele><time>2026-03-22T09:18:21.641Z</time></trkpt><trkpt lat="42.556911" lon="13.857018"><ele>448.99999999999994</ele><time>2026-03-22T09:18:22.641Z</time></trkpt><trkpt lat="42.5569015" lon="13.8571318"><ele>449.0</ele><time>2026-03-22T09:18:23.641Z</time></trkpt><trkpt lat="42.5568908" lon="13.857241"><ele>449.0</ele><time>2026-03-22T09:18:24.64Z</time></trkpt><trkpt lat="42.556882" lon="13.8573489"><ele>449.0</ele><time>2026-03-22T09:18:25.641Z</time></trkpt><trkpt lat="42.556866" lon="13.8574497"><ele>448.99999999999994</ele><time>2026-03-22T09:18:26.64Z</time></trkpt><trkpt lat="42.5568416" lon="13.8575484"><ele>449.0</ele><time>2026-03-22T09:18:27.64Z</time></trkpt><trkpt lat="42.5568106" lon="13.8576468"><ele>449.99999999999994</ele><time>2026-03-22T09:18:28.641Z</time></trkpt><trkpt lat="42.5567744" lon="13.8577412"><ele>451.0</ele><time>2026-03-22T09:18:29.639Z</time></trkpt><trkpt lat="42.5567387" lon="13.8578341"><ele>452.0</ele><time>2026-03-22T09:18:30.64Z</time></trkpt><trkpt lat="42.5566957" lon="13.8579253"><ele>453.0</ele><time>2026-03-22T09:18:31.64Z</time></trkpt><trkpt lat="42.5566572" lon="13.8580193"><ele>453.99999999999994</ele><time>2026-03-22T09:18:32.639Z</time></trkpt><trkpt lat="42.5566235" lon="13.8581165"><ele>455.0</ele><time>2026-03-22T09:18:33.64Z</time></trkpt><trkpt lat="42.5566013" lon="13.8582137"><ele>454.99999999999994</ele><time>2026-03-22T09:18:34.64Z</time></trkpt><trkpt lat="42.5566" lon="13.8583145"><ele>455.0</ele><time>2026-03-22T09:18:35.638Z</time></trkpt><trkpt lat="42.5566033" lon="13.858419"><ele>455.0</ele><time>2026-03-22T09:18:36.639Z</time></trkpt><trkpt lat="42.5566138" lon="13.8585226"><ele>455.0</ele><time>2026-03-22T09:18:37.64Z</time></trkpt><trkpt lat="42.5566324" lon="13.8586265"><ele>454.99999999999994</ele><time>2026-03-22T09:18:38.64Z</time></trkpt><trkpt lat="42.5566554" lon="13.858734"><ele>455.0</ele><time>2026-03-22T09:18:39.639Z</time></trkpt><trkpt lat="42.5566799" lon="13.8588405"><ele>454.3333333333333</ele><time>2026-03-22T09:18:40.64Z</time></trkpt><trkpt lat="42.5566922" lon="13.8589516"><ele>453.66666666666663</ele><time>2026-03-22T09:18:41.639Z</time></trkpt><trkpt lat="42.5566949" lon="13.8590632"><ele>453.0</ele><time>2026-03-22T09:18:42.639Z</time></trkpt><trkpt lat="42.5566919" lon="13.8591755"><ele>452.33333333333337</ele><time>2026-03-22T09:18:43.638Z</time></trkpt><trkpt lat="42.5566853" lon="13.8592852"><ele>451.6666666666667</ele><time>2026-03-22T09:18:44.64Z</time></trkpt><trkpt lat="42.556671" lon="13.8593963"><ele>451.0</ele><time>2026-03-22T09:18:45.64Z</time></trkpt><trkpt lat="42.5566601" lon="13.8595005"><ele>450.6666666666667</ele><time>2026-03-22T09:18:46.64Z</time></trkpt><trkpt lat="42.556653" lon="13.8596038"><ele>450.33333333333337</ele><time>2026-03-22T09:18:47.64Z</time></trkpt><trkpt lat="42.5566439" lon="13.8597102"><ele>450.0</ele><time>2026-03-22T09:18:48.639Z</time></trkpt><trkpt lat="42.5566438" lon="13.8598132"><ele>449.66666666666663</ele><time>2026-03-22T09:18:49.639Z</time></trkpt><trkpt lat="42.5566409" lon="13.859914"><ele>449.3333333333333</ele><time>2026-03-22T09:18:50.639Z</time></trkpt><trkpt lat="42.5566351" lon="13.8600046"><ele>449.0</ele><time>2026-03-22T09:18:51.639Z</time></trkpt><trkpt lat="42.5566328" lon="13.8601522"><ele>448.79999999999995</ele><time>2026-03-22T09:18:53.64Z</time></trkpt><trkpt lat="42.5566121" lon="13.8602422"><ele>448.59999999999997</ele><time>2026-03-22T09:18:55.639Z</time></trkpt><trkpt lat="42.5565868" lon="13.8603236"><ele>448.4</ele><time>2026-03-22T09:18:57.639Z</time></trkpt><trkpt lat="42.5565494" lon="13.8604589"><ele>448.2</ele><time>2026-03-22T09:18:59.639Z</time></trkpt><trkpt lat="42.5565314" lon="13.8606809"><ele>448.0</ele><time>2026-03-22T09:19:01.64Z</time></trkpt><trkpt lat="42.5565275" lon="13.8607885"><ele>448.00000000000006</ele><time>2026-03-22T09:19:02.639Z</time></trkpt><trkpt lat="42.5565208" lon="13.8608776"><ele>448.0</ele><time>2026-03-22T09:19:03.64Z</time></trkpt><trkpt lat="42.5564604" lon="13.8610339"><ele>448.0</ele><time>2026-03-22T09:19:05.64Z</time></trkpt><trkpt lat="42.5564091" lon="13.8610927"><ele>448.0</ele><time>2026-03-22T09:19:06.639Z</time></trkpt><trkpt lat="42.5563526" lon="13.8611487"><ele>448.00000000000006</ele><time>2026-03-22T09:19:07.639Z</time></trkpt><trkpt lat="42.5562916" lon="13.8612213"><ele>448.0</ele><time>2026-03-22T09:19:08.64Z</time></trkpt><trkpt lat="42.5562346" lon="13.8613021"><ele>443.33333333333337</ele><time>2026-03-22T09:19:09.639Z</time></trkpt><trkpt lat="42.5561691" lon="13.8613832"><ele>438.6666666666667</ele><time>2026-03-22T09:19:10.64Z</time></trkpt><trkpt lat="42.5560954" lon="13.8614641"><ele>434.0</ele><time>2026-03-22T09:19:11.639Z</time></trkpt><trkpt lat="42.5560268" lon="13.8615359"><ele>429.33333333333337</ele><time>2026-03-22T09:19:12.64Z</time></trkpt><trkpt lat="42.5559566" lon="13.8616083"><ele>424.6666666666667</ele><time>2026-03-22T09:19:13.64Z</time></trkpt><trkpt lat="42.5558842" lon="13.8616837"><ele>420.0</ele><time>2026-03-22T09:19:14.64Z</time></trkpt><trkpt lat="42.5558145" lon="13.861753"><ele>419.6666666666667</ele><time>2026-03-22T09:19:15.639Z</time></trkpt><trkpt lat="42.5557407" lon="13.8618135"><ele>419.33333333333337</ele><time>2026-03-22T09:19:16.64Z</time></trkpt><trkpt lat="42.5556715" lon="13.8618585"><ele>419.0</ele><time>2026-03-22T09:19:17.64Z</time></trkpt><trkpt lat="42.5555973" lon="13.8618969"><ele>418.6666666666667</ele><time>2026-03-22T09:19:18.639Z</time></trkpt><trkpt lat="42.555518" lon="13.8619355"><ele>418.33333333333337</ele><time>2026-03-22T09:19:19.64Z</time></trkpt><trkpt lat="42.5554505" lon="13.8619688"><ele>418.0</ele><time>2026-03-22T09:19:20.64Z</time></trkpt><trkpt lat="42.5553423" lon="13.8620133"><ele>413.33333333333337</ele><time>2026-03-22T09:19:22.64Z</time></trkpt><trkpt lat="42.5552452" lon="13.862025"><ele>408.6666666666667</ele><time>2026-03-22T09:19:24.64Z</time></trkpt><trkpt lat="42.5551821" lon="13.8619969"><ele>404.0</ele><time>2026-03-22T09:19:25.639Z</time></trkpt><trkpt lat="42.5551246" lon="13.861951"><ele>399.33333333333337</ele><time>2026-03-22T09:19:26.639Z</time></trkpt><trkpt lat="42.5550617" lon="13.8618989"><ele>394.6666666666667</ele><time>2026-03-22T09:19:27.639Z</time></trkpt><trkpt lat="42.5549957" lon="13.8618417"><ele>390.0</ele><time>2026-03-22T09:19:28.639Z</time></trkpt><trkpt lat="42.5549268" lon="13.8617891"><ele>391.1666666666667</ele><time>2026-03-22T09:19:29.639Z</time></trkpt><trkpt lat="42.5548573" lon="13.8617414"><ele>392.33333333333337</ele><time>2026-03-22T09:19:30.64Z</time></trkpt><trkpt lat="42.5547816" lon="13.8616897"><ele>393.5</ele><time>2026-03-22T09:19:31.639Z</time></trkpt><trkpt lat="42.5547093" lon="13.8616378"><ele>394.6666666666667</ele><time>2026-03-22T09:19:32.64Z</time></trkpt><trkpt lat="42.5546391" lon="13.8615885"><ele>395.83333333333337</ele><time>2026-03-22T09:19:33.64Z</time></trkpt><trkpt lat="42.5545787" lon="13.8615507"><ele>397.0</ele><time>2026-03-22T09:19:34.64Z</time></trkpt><trkpt lat="42.5545179" lon="13.8615162"><ele>392.20000000000005</ele><time>2026-03-22T09:19:35.64Z</time></trkpt><trkpt lat="42.554453" lon="13.8614834"><ele>387.4</ele><time>2026-03-22T09:19:36.64Z</time></trkpt><trkpt lat="42.55439" lon="13.8614445"><ele>382.6</ele><time>2026-03-22T09:19:37.64Z</time></trkpt><trkpt lat="42.5542832" lon="13.8613816"><ele>377.79999999999995</ele><time>2026-03-22T09:19:39.639Z</time></trkpt><trkpt lat="42.5541563" lon="13.8613743"><ele>373.0</ele><time>2026-03-22T09:19:41.64Z</time></trkpt><trkpt lat="42.5540887" lon="13.8613808"><ele>373.0</ele><time>2026-03-22T09:19:42.64Z</time></trkpt><trkpt lat="42.5540254" lon="13.8613575"><ele>373.0</ele><time>2026-03-22T09:19:43.639Z</time></trkpt><trkpt lat="42.5539066" lon="13.8613299"><ele>373.0</ele><time>2026-03-22T09:19:45.64Z</time></trkpt><trkpt lat="42.5537785" lon="13.8613796"><ele>373.0</ele><time>2026-03-22T09:19:47.639Z</time></trkpt><trkpt lat="42.5537022" lon="13.8614046"><ele>373.0</ele><time>2026-03-22T09:19:48.64Z</time></trkpt><trkpt lat="42.5536292" lon="13.8614141"><ele>370.3333333333333</ele><time>2026-03-22T09:19:49.639Z</time></trkpt><trkpt lat="42.5535546" lon="13.8614249"><ele>367.66666666666663</ele><time>2026-03-22T09:19:50.639Z</time></trkpt><trkpt lat="42.5534887" lon="13.8614238"><ele>365.0</ele><time>2026-03-22T09:19:51.639Z</time></trkpt><trkpt lat="42.5533817" lon="13.861418"><ele>362.3333333333333</ele><time>2026-03-22T09:19:53.64Z</time></trkpt><trkpt lat="42.553286" lon="13.8614583"><ele>359.6666666666667</ele><time>2026-03-22T09:19:55.64Z</time></trkpt><trkpt lat="42.553211" lon="13.8615161"><ele>357.0</ele><time>2026-03-22T09:19:57.639Z</time></trkpt><trkpt lat="42.5531466" lon="13.8616224"><ele>357.0</ele><time>2026-03-22T09:19:59.64Z</time></trkpt><trkpt lat="42.5530917" lon="13.8617466"><ele>357.0</ele><time>2026-03-22T09:20:01.639Z</time></trkpt><trkpt lat="42.5530232" lon="13.8618656"><ele>357.0</ele><time>2026-03-22T09:20:03.64Z</time></trkpt><trkpt lat="42.5529228" lon="13.8619556"><ele>357.0</ele><time>2026-03-22T09:20:05.639Z</time></trkpt><trkpt lat="42.5528331" lon="13.8620486"><ele>350.8</ele><time>2026-03-22T09:20:07.639Z</time></trkpt><trkpt lat="42.5527384" lon="13.8621192"><ele>344.6</ele><time>2026-03-22T09:20:09.639Z</time></trkpt><trkpt lat="42.5526365" lon="13.862169"><ele>338.40000000000003</ele><time>2026-03-22T09:20:11.639Z</time></trkpt><trkpt lat="42.5525361" lon="13.86216"><ele>332.20000000000005</ele><time>2026-03-22T09:20:13.639Z</time></trkpt><trkpt lat="42.5524415" lon="13.8621771"><ele>326.0</ele><time>2026-03-22T09:20:15.64Z</time></trkpt><trkpt lat="42.55235" lon="13.8622474"><ele>326.0</ele><time>2026-03-22T09:20:17.64Z</time></trkpt><trkpt lat="42.5523039" lon="13.862351"><ele>326.0</ele><time>2026-03-22T09:20:19.639Z</time></trkpt><trkpt lat="42.5523274" lon="13.8624673"><ele>326.0</ele><time>2026-03-22T09:20:21.639Z</time></trkpt><trkpt lat="42.5522833" lon="13.8625827"><ele>326.0</ele><time>2026-03-22T09:20:23.639Z</time></trkpt><trkpt lat="42.5521913" lon="13.8626746"><ele>326.0</ele><time>2026-03-22T09:20:25.64Z</time></trkpt><trkpt lat="42.5520983" lon="13.8627488"><ele>321.0</ele><time>2026-03-22T09:20:27.638Z</time></trkpt><trkpt lat="42.5520264" lon="13.8628138"><ele>316.0</ele><time>2026-03-22T09:20:29.64Z</time></trkpt><trkpt lat="42.5519589" lon="13.8629189"><ele>311.0</ele><time>2026-03-22T09:20:31.64Z</time></trkpt><trkpt lat="42.5519692" lon="13.8630058"><ele>306.0</ele><time>2026-03-22T09:20:32.64Z</time></trkpt><trkpt lat="42.5519707" lon="13.8631032"><ele>301.0</ele><time>2026-03-22T09:20:33.64Z</time></trkpt><trkpt lat="42.5519672" lon="13.8631939"><ele>296.0</ele><time>2026-03-22T09:20:34.64Z</time></trkpt><trkpt lat="42.5519522" lon="13.8632796"><ele>296.0</ele><time>2026-03-22T09:20:35.639Z</time></trkpt><trkpt lat="42.5519274" lon="13.8633637"><ele>296.0</ele><time>2026-03-22T09:20:36.639Z</time></trkpt><trkpt lat="42.551886" lon="13.8635061"><ele>296.0</ele><time>2026-03-22T09:20:38.639Z</time></trkpt><trkpt lat="42.5518794" lon="13.86365"><ele>296.0</ele><time>2026-03-22T09:20:40.639Z</time></trkpt><trkpt lat="42.5518668" lon="13.8638012"><ele>296.0</ele><time>2026-03-22T09:20:42.64Z</time></trkpt><trkpt lat="42.551839" lon="13.863945"><ele>295.5</ele><time>2026-03-22T09:20:44.639Z</time></trkpt><trkpt lat="42.551811" lon="13.8640473"><ele>295.0</ele><time>2026-03-22T09:20:46.639Z</time></trkpt><trkpt lat="42.5517866" lon="13.8641389"><ele>294.5</ele><time>2026-03-22T09:20:48.64Z</time></trkpt><trkpt lat="42.5517408" lon="13.8642492"><ele>294.0</ele><time>2026-03-22T09:20:50.64Z</time></trkpt><trkpt lat="42.5516475" lon="13.8643218"><ele>293.5</ele><time>2026-03-22T09:20:52.639Z</time></trkpt><trkpt lat="42.5515707" lon="13.8643304"><ele>293.0</ele><time>2026-03-22T09:20:54.64Z</time></trkpt><trkpt lat="42.5514983" lon="13.8642846"><ele>293.0</ele><time>2026-03-22T09:20:58.639Z</time></trkpt><trkpt lat="42.5514405" lon="13.8642354"><ele>293.0</ele><time>2026-03-22T09:21:01.64Z</time></trkpt><trkpt lat="42.5513843" lon="13.864169"><ele>293.0</ele><time>2026-03-22T09:21:04.64Z</time></trkpt><trkpt lat="42.5513477" lon="13.8640787"><ele>293.0</ele><time>2026-03-22T09:21:07.64Z</time></trkpt><trkpt lat="42.5513015" lon="13.8639975"><ele>293.0</ele><time>2026-03-22T09:21:10.64Z</time></trkpt><trkpt lat="42.5512648" lon="13.8639047"><ele>293.0</ele><time>2026-03-22T09:21:12.64Z</time></trkpt><trkpt lat="42.5512322" lon="13.8638032"><ele>291.1666666666667</ele><time>2026-03-22T09:21:14.639Z</time></trkpt><trkpt lat="42.5511817" lon="13.8636988"><ele>289.33333333333337</ele><time>2026-03-22T09:21:16.639Z</time></trkpt><trkpt lat="42.5511405" lon="13.8636164"><ele>287.5</ele><time>2026-03-22T09:21:18.64Z</time></trkpt><trkpt lat="42.551064" lon="13.8635984"><ele>285.6666666666667</ele><time>2026-03-22T09:21:20.639Z</time></trkpt><trkpt lat="42.5509911" lon="13.8635954"><ele>283.8333333333333</ele><time>2026-03-22T09:21:22.64Z</time></trkpt><trkpt lat="42.5509231" lon="13.863594"><ele>282.0</ele><time>2026-03-22T09:21:24.64Z</time></trkpt><trkpt lat="42.5508354" lon="13.863604"><ele>282.0</ele><time>2026-03-22T09:21:27.639Z</time></trkpt><trkpt lat="42.5507718" lon="13.863608"><ele>282.0</ele><time>2026-03-22T09:21:29.639Z</time></trkpt><trkpt lat="42.5506854" lon="13.8636434"><ele>282.0</ele><time>2026-03-22T09:21:32.639Z</time></trkpt><trkpt lat="42.5506207" lon="13.8637144"><ele>282.0</ele><time>2026-03-22T09:21:35.639Z</time></trkpt><trkpt lat="42.5505626" lon="13.8637711"><ele>282.0</ele><time>2026-03-22T09:21:37.639Z</time></trkpt><trkpt lat="42.5505076" lon="13.863847"><ele>282.0</ele><time>2026-03-22T09:21:39.639Z</time></trkpt><trkpt lat="42.5504363" lon="13.8639378"><ele>279.6666666666667</ele><time>2026-03-22T09:21:41.64Z</time></trkpt><trkpt lat="42.5503523" lon="13.8640512"><ele>277.3333333333333</ele><time>2026-03-22T09:21:43.64Z</time></trkpt><trkpt lat="42.5503091" lon="13.8641206"><ele>275.0</ele><time>2026-03-22T09:21:44.64Z</time></trkpt><trkpt lat="42.5502604" lon="13.864188"><ele>272.66666666666663</ele><time>2026-03-22T09:21:45.639Z</time></trkpt><trkpt lat="42.5502049" lon="13.864261"><ele>270.3333333333333</ele><time>2026-03-22T09:21:46.639Z</time></trkpt><trkpt lat="42.5501482" lon="13.8643378"><ele>268.0</ele><time>2026-03-22T09:21:47.639Z</time></trkpt><trkpt lat="42.5500911" lon="13.8644217"><ele>268.0</ele><time>2026-03-22T09:21:48.639Z</time></trkpt><trkpt lat="42.5500464" lon="13.8645068"><ele>268.0</ele><time>2026-03-22T09:21:49.639Z</time></trkpt><trkpt lat="42.5500069" lon="13.8645888"><ele>268.0</ele><time>2026-03-22T09:21:50.639Z</time></trkpt><trkpt lat="42.549967" lon="13.8646675"><ele>268.0</ele><time>2026-03-22T09:21:51.64Z</time></trkpt><trkpt lat="42.5499189" lon="13.8647496"><ele>268.0</ele><time>2026-03-22T09:21:52.639Z</time></trkpt><trkpt lat="42.5498605" lon="13.8648258"><ele>268.0</ele><time>2026-03-22T09:21:53.64Z</time></trkpt><trkpt lat="42.5498061" lon="13.8648986"><ele>268.0</ele><time>2026-03-22T09:21:54.639Z</time></trkpt><trkpt lat="42.5497604" lon="13.8649711"><ele>268.0</ele><time>2026-03-22T09:21:55.639Z</time></trkpt><trkpt lat="42.5497257" lon="13.8650568"><ele>268.0</ele><time>2026-03-22T09:21:56.639Z</time></trkpt><trkpt lat="42.5497041" lon="13.8651546"><ele>268.0</ele><time>2026-03-22T09:21:57.64Z</time></trkpt><trkpt lat="42.5496804" lon="13.8652648"><ele>268.0</ele><time>2026-03-22T09:21:58.639Z</time></trkpt><trkpt lat="42.5496575" lon="13.8653677"><ele>268.0</ele><time>2026-03-22T09:21:59.64Z</time></trkpt><trkpt lat="42.5496266" lon="13.8654814"><ele>267.66666666666663</ele><time>2026-03-22T09:22:00.639Z</time></trkpt><trkpt lat="42.5495829" lon="13.8655881"><ele>267.3333333333333</ele><time>2026-03-22T09:22:01.64Z</time></trkpt><trkpt lat="42.5495288" lon="13.8656742"><ele>267.0</ele><time>2026-03-22T09:22:02.638Z</time></trkpt><trkpt lat="42.549469" lon="13.8657435"><ele>266.6666666666667</ele><time>2026-03-22T09:22:03.639Z</time></trkpt><trkpt lat="42.5494145" lon="13.8658214"><ele>266.33333333333337</ele><time>2026-03-22T09:22:04.639Z</time></trkpt><trkpt lat="42.5493573" lon="13.8659142"><ele>266.0</ele><time>2026-03-22T09:22:05.639Z</time></trkpt><trkpt lat="42.5492941" lon="13.8660051"><ele>263.1666666666667</ele><time>2026-03-22T09:22:06.639Z</time></trkpt><trkpt lat="42.5492399" lon="13.8660912"><ele>260.33333333333337</ele><time>2026-03-22T09:22:07.639Z</time></trkpt><trkpt lat="42.549184" lon="13.8661715"><ele>257.5</ele><time>2026-03-22T09:22:08.64Z</time></trkpt><trkpt lat="42.549121" lon="13.8662531"><ele>254.66666666666669</ele><time>2026-03-22T09:22:09.639Z</time></trkpt><trkpt lat="42.5490555" lon="13.8663282"><ele>251.83333333333334</ele><time>2026-03-22T09:22:10.639Z</time></trkpt><trkpt lat="42.5489835" lon="13.8664"><ele>249.0</ele><time>2026-03-22T09:22:11.64Z</time></trkpt><trkpt lat="42.5489139" lon="13.8664617"><ele>249.0</ele><time>2026-03-22T09:22:12.639Z</time></trkpt><trkpt lat="42.5488522" lon="13.8665164"><ele>249.0</ele><time>2026-03-22T09:22:13.639Z</time></trkpt><trkpt lat="42.5487938" lon="13.8665628"><ele>249.0</ele><time>2026-03-22T09:22:14.638Z</time></trkpt><trkpt lat="42.5487253" lon="13.8665899"><ele>249.0</ele><time>2026-03-22T09:22:15.64Z</time></trkpt><trkpt lat="42.5486542" lon="13.8666111"><ele>249.0</ele><time>2026-03-22T09:22:16.639Z</time></trkpt><trkpt lat="42.5485408" lon="13.8666465"><ele>249.0</ele><time>2026-03-22T09:22:18.639Z</time></trkpt><trkpt lat="42.548422" lon="13.8666618"><ele>246.0</ele><time>2026-03-22T09:22:20.64Z</time></trkpt><trkpt lat="42.548309" lon="13.8666683"><ele>242.99999999999997</ele><time>2026-03-22T09:22:22.639Z</time></trkpt><trkpt lat="42.5481938" lon="13.8666466"><ele>239.99999999999997</ele><time>2026-03-22T09:22:24.64Z</time></trkpt><trkpt lat="42.5481285" lon="13.8666069"><ele>237.0</ele><time>2026-03-22T09:22:25.64Z</time></trkpt><trkpt lat="42.5480617" lon="13.8665734"><ele>234.0</ele><time>2026-03-22T09:22:26.639Z</time></trkpt><trkpt lat="42.5479863" lon="13.8665143"><ele>234.0</ele><time>2026-03-22T09:22:27.639Z</time></trkpt><trkpt lat="42.5479079" lon="13.8664162"><ele>234.0</ele><time>2026-03-22T09:22:29.639Z</time></trkpt><trkpt lat="42.5478443" lon="13.8664622"><ele>234.0</ele><time>2026-03-22T09:22:30.639Z</time></trkpt><trkpt lat="42.547765" lon="13.8665512"><ele>234.0</ele><time>2026-03-22T09:22:32.64Z</time></trkpt><trkpt lat="42.5476876" lon="13.8666202"><ele>234.0</ele><time>2026-03-22T09:22:34.64Z</time></trkpt><trkpt lat="42.5476231" lon="13.8666422"><ele>234.0</ele><time>2026-03-22T09:22:35.64Z</time></trkpt><trkpt lat="42.5475481" lon="13.8666475"><ele>231.16666666666666</ele><time>2026-03-22T09:22:36.64Z</time></trkpt><trkpt lat="42.547472" lon="13.8666663"><ele>228.33333333333331</ele><time>2026-03-22T09:22:37.639Z</time></trkpt><trkpt lat="42.5473839" lon="13.8666976"><ele>225.5</ele><time>2026-03-22T09:22:38.64Z</time></trkpt><trkpt lat="42.5473036" lon="13.8667355"><ele>222.66666666666666</ele><time>2026-03-22T09:22:39.638Z</time></trkpt><trkpt lat="42.5472271" lon="13.8667767"><ele>219.83333333333331</ele><time>2026-03-22T09:22:40.64Z</time></trkpt><trkpt lat="42.5471523" lon="13.8668052"><ele>217.0</ele><time>2026-03-22T09:22:41.64Z</time></trkpt><trkpt lat="42.5470711" lon="13.8668206"><ele>213.99999999999997</ele><time>2026-03-22T09:22:42.64Z</time></trkpt><trkpt lat="42.5469842" lon="13.8668318"><ele>211.0</ele><time>2026-03-22T09:22:43.639Z</time></trkpt><trkpt lat="42.5468914" lon="13.8668381"><ele>208.0</ele><time>2026-03-22T09:22:44.639Z</time></trkpt><trkpt lat="42.5468047" lon="13.8668538"><ele>205.0</ele><time>2026-03-22T09:22:45.64Z</time></trkpt><trkpt lat="42.5467142" lon="13.8668636"><ele>201.99999999999997</ele><time>2026-03-22T09:22:46.64Z</time></trkpt><trkpt lat="42.5466301" lon="13.866883"><ele>199.0</ele><time>2026-03-22T09:22:47.64Z</time></trkpt><trkpt lat="42.5465505" lon="13.8669024"><ele>198.99999999999997</ele><time>2026-03-22T09:22:48.639Z</time></trkpt><trkpt lat="42.546483" lon="13.8669219"><ele>199.0</ele><time>2026-03-22T09:22:49.639Z</time></trkpt><trkpt lat="42.5464016" lon="13.8669355"><ele>199.0</ele><time>2026-03-22T09:22:50.639Z</time></trkpt><trkpt lat="42.5463119" lon="13.8669057"><ele>199.0</ele><time>2026-03-22T09:22:51.64Z</time></trkpt><trkpt lat="42.546227" lon="13.8668609"><ele>198.99999999999997</ele><time>2026-03-22T09:22:52.639Z</time></trkpt><trkpt lat="42.5461568" lon="13.8668049"><ele>199.0</ele><time>2026-03-22T09:22:53.64Z</time></trkpt><trkpt lat="42.546093" lon="13.8667543"><ele>197.7142857142857</ele><time>2026-03-22T09:22:54.639Z</time></trkpt><trkpt lat="42.5460344" lon="13.8667099"><ele>196.42857142857142</ele><time>2026-03-22T09:22:55.64Z</time></trkpt><trkpt lat="42.5459737" lon="13.8666663"><ele>195.14285714285714</ele><time>2026-03-22T09:22:56.64Z</time></trkpt><trkpt lat="42.5459098" lon="13.8666245"><ele>193.85714285714283</ele><time>2026-03-22T09:22:57.64Z</time></trkpt><trkpt lat="42.5458391" lon="13.8666097"><ele>192.57142857142858</ele><time>2026-03-22T09:22:58.639Z</time></trkpt><trkpt lat="42.5457632" lon="13.8666217"><ele>191.28571428571428</ele><time>2026-03-22T09:22:59.639Z</time></trkpt><trkpt lat="42.5456974" lon="13.8666299"><ele>190.0</ele><time>2026-03-22T09:23:00.64Z</time></trkpt><trkpt lat="42.545619" lon="13.8666274"><ele>190.0</ele><time>2026-03-22T09:23:01.64Z</time></trkpt><trkpt lat="42.5455474" lon="13.8666071"><ele>190.0</ele><time>2026-03-22T09:23:02.64Z</time></trkpt><trkpt lat="42.5454427" lon="13.8665709"><ele>190.0</ele><time>2026-03-22T09:23:04.639Z</time></trkpt><trkpt lat="42.545337" lon="13.8665735"><ele>190.0</ele><time>2026-03-22T09:23:06.639Z</time></trkpt><trkpt lat="42.5452455" lon="13.866665"><ele>190.0</ele><time>2026-03-22T09:23:08.64Z</time></trkpt><trkpt lat="42.5451624" lon="13.8667726"><ele>188.5</ele><time>2026-03-22T09:23:10.64Z</time></trkpt><trkpt lat="42.5450984" lon="13.8668936"><ele>187.0</ele><time>2026-03-22T09:23:12.639Z</time></trkpt><trkpt lat="42.5450626" lon="13.8669976"><ele>185.5</ele><time>2026-03-22T09:23:14.639Z</time></trkpt><trkpt lat="42.5450281" lon="13.8670933"><ele>184.0</ele><time>2026-03-22T09:23:16.64Z</time></trkpt><trkpt lat="42.5449877" lon="13.8671985"><ele>182.5</ele><time>2026-03-22T09:23:18.64Z</time></trkpt><trkpt lat="42.5449509" lon="13.8673049"><ele>181.0</ele><time>2026-03-22T09:23:20.639Z</time></trkpt><trkpt lat="42.5449149" lon="13.8673968"><ele>181.0</ele><time>2026-03-22T09:23:22.64Z</time></trkpt><trkpt lat="42.5448786" lon="13.8675146"><ele>181.0</ele><time>2026-03-22T09:23:24.639Z</time></trkpt><trkpt lat="42.544885" lon="13.8676609"><ele>181.0</ele><time>2026-03-22T09:23:26.639Z</time></trkpt><trkpt lat="42.5449485" lon="13.8678003"><ele>181.0</ele><time>2026-03-22T09:23:28.638Z</time></trkpt><trkpt lat="42.5450445" lon="13.8678975"><ele>181.0</ele><time>2026-03-22T09:23:30.637Z</time></trkpt><trkpt lat="42.5451479" lon="13.8679818"><ele>181.4</ele><time>2026-03-22T09:23:32.639Z</time></trkpt><trkpt lat="42.54524" lon="13.8680476"><ele>181.8</ele><time>2026-03-22T09:23:34.639Z</time></trkpt><trkpt lat="42.545328" lon="13.8680937"><ele>182.20000000000002</ele><time>2026-03-22T09:23:36.639Z</time></trkpt><trkpt lat="42.545413" lon="13.868138"><ele>182.60000000000002</ele><time>2026-03-22T09:23:38.638Z</time></trkpt><trkpt lat="42.5455003" lon="13.8681729"><ele>183.0</ele><time>2026-03-22T09:23:40.639Z</time></trkpt><trkpt lat="42.5455897" lon="13.8682144"><ele>183.0</ele><time>2026-03-22T09:23:42.639Z</time></trkpt><trkpt lat="42.5456781" lon="13.8682585"><ele>183.0</ele><time>2026-03-22T09:23:44.638Z</time></trkpt><trkpt lat="42.5457678" lon="13.8683037"><ele>183.0</ele><time>2026-03-22T09:23:46.639Z</time></trkpt><trkpt lat="42.5458448" lon="13.868378"><ele>183.0</ele><time>2026-03-22T09:23:48.638Z</time></trkpt><trkpt lat="42.5459111" lon="13.8684749"><ele>183.0</ele><time>2026-03-22T09:23:50.639Z</time></trkpt><trkpt lat="42.5459698" lon="13.8685752"><ele>183.16666666666666</ele><time>2026-03-22T09:23:52.639Z</time></trkpt><trkpt lat="42.5460085" lon="13.8686822"><ele>183.33333333333334</ele><time>2026-03-22T09:23:54.639Z</time></trkpt><trkpt lat="42.5460357" lon="13.8687891"><ele>183.5</ele><time>2026-03-22T09:23:56.639Z</time></trkpt><trkpt lat="42.5460489" lon="13.8689059"><ele>183.66666666666669</ele><time>2026-03-22T09:23:58.639Z</time></trkpt><trkpt lat="42.5460434" lon="13.8690324"><ele>183.83333333333334</ele><time>2026-03-22T09:24:00.639Z</time></trkpt><trkpt lat="42.5460237" lon="13.8691598"><ele>184.0</ele><time>2026-03-22T09:24:02.637Z</time></trkpt><trkpt lat="42.5459846" lon="13.8692875"><ele>187.2</ele><time>2026-03-22T09:24:04.639Z</time></trkpt><trkpt lat="42.5459266" lon="13.8694054"><ele>190.39999999999998</ele><time>2026-03-22T09:24:06.638Z</time></trkpt><trkpt lat="42.5458466" lon="13.8694941"><ele>193.6</ele><time>2026-03-22T09:24:08.639Z</time></trkpt><trkpt lat="42.5457727" lon="13.8695806"><ele>196.8</ele><time>2026-03-22T09:24:10.638Z</time></trkpt><trkpt lat="42.5456954" lon="13.8696606"><ele>200.0</ele><time>2026-03-22T09:24:12.638Z</time></trkpt><trkpt lat="42.5456204" lon="13.8697452"><ele>200.00000000000003</ele><time>2026-03-22T09:24:14.638Z</time></trkpt><trkpt lat="42.5455468" lon="13.8698257"><ele>200.0</ele><time>2026-03-22T09:24:16.639Z</time></trkpt><trkpt lat="42.5454824" lon="13.8699049"><ele>200.0</ele><time>2026-03-22T09:24:18.639Z</time></trkpt><trkpt lat="42.545414" lon="13.8699701"><ele>200.0</ele><time>2026-03-22T09:24:20.638Z</time></trkpt><trkpt lat="42.5453591" lon="13.8700499"><ele>200.00000000000003</ele><time>2026-03-22T09:24:22.639Z</time></trkpt><trkpt lat="42.5452967" lon="13.8701349"><ele>200.0</ele><time>2026-03-22T09:24:24.638Z</time></trkpt><trkpt lat="42.5452332" lon="13.8702218"><ele>197.2</ele><time>2026-03-22T09:24:26.638Z</time></trkpt><trkpt lat="42.5451654" lon="13.8703245"><ele>194.4</ele><time>2026-03-22T09:24:28.638Z</time></trkpt><trkpt lat="42.5450973" lon="13.8704326"><ele>191.60000000000002</ele><time>2026-03-22T09:24:30.638Z</time></trkpt><trkpt lat="42.5450255" lon="13.8705372"><ele>188.8</ele><time>2026-03-22T09:24:32.637Z</time></trkpt><trkpt lat="42.544954" lon="13.870638"><ele>186.0</ele><time>2026-03-22T09:24:34.639Z</time></trkpt><trkpt lat="42.5448852" lon="13.8707412"><ele>186.0</ele><time>2026-03-22T09:24:36.638Z</time></trkpt><trkpt lat="42.5448229" lon="13.8708372"><ele>186.0</ele><time>2026-03-22T09:24:38.639Z</time></trkpt><trkpt lat="42.5447698" lon="13.8709216"><ele>186.0</ele><time>2026-03-22T09:24:40.638Z</time></trkpt><trkpt lat="42.5447089" lon="13.871003"><ele>186.0</ele><time>2026-03-22T09:24:42.639Z</time></trkpt><trkpt lat="42.5446527" lon="13.8710795"><ele>186.0</ele><time>2026-03-22T09:24:44.639Z</time></trkpt><trkpt lat="42.5445946" lon="13.8711626"><ele>186.0</ele><time>2026-03-22T09:24:46.638Z</time></trkpt><trkpt lat="42.5445465" lon="13.8712445"><ele>185.5</ele><time>2026-03-22T09:24:48.638Z</time></trkpt><trkpt lat="42.5444914" lon="13.8713077"><ele>185.0</ele><time>2026-03-22T09:24:50.638Z</time></trkpt><trkpt lat="42.5444359" lon="13.8713744"><ele>184.5</ele><time>2026-03-22T09:24:52.639Z</time></trkpt><trkpt lat="42.5443803" lon="13.8714456"><ele>184.0</ele><time>2026-03-22T09:24:54.638Z</time></trkpt><trkpt lat="42.5443125" lon="13.8715014"><ele>183.5</ele><time>2026-03-22T09:24:56.638Z</time></trkpt><trkpt lat="42.5442572" lon="13.8715587"><ele>183.0</ele><time>2026-03-22T09:25:04.639Z</time></trkpt><trkpt lat="42.5441834" lon="13.8716607"><ele>183.0</ele><time>2026-03-22T09:25:07.638Z</time></trkpt><trkpt lat="42.5440991" lon="13.8717428"><ele>183.0</ele><time>2026-03-22T09:25:09.639Z</time></trkpt><trkpt lat="42.5439997" lon="13.8718427"><ele>183.0</ele><time>2026-03-22T09:25:11.639Z</time></trkpt><trkpt lat="42.5438946" lon="13.871946"><ele>183.0</ele><time>2026-03-22T09:25:13.638Z</time></trkpt><trkpt lat="42.543842" lon="13.8719989"><ele>183.0</ele><time>2026-03-22T09:25:14.639Z</time></trkpt><trkpt lat="42.5437863" lon="13.8720493"><ele>182.2</ele><time>2026-03-22T09:25:15.638Z</time></trkpt><trkpt lat="42.5437328" lon="13.8720955"><ele>181.4</ele><time>2026-03-22T09:25:16.638Z</time></trkpt><trkpt lat="42.543629" lon="13.8721911"><ele>180.6</ele><time>2026-03-22T09:25:18.639Z</time></trkpt><trkpt lat="42.5435768" lon="13.8722393"><ele>179.79999999999998</ele><time>2026-03-22T09:25:19.638Z</time></trkpt><trkpt lat="42.5434788" lon="13.8723237"><ele>179.0</ele><time>2026-03-22T09:25:21.639Z</time></trkpt><trkpt lat="42.5433808" lon="13.8724058"><ele>179.0</ele><time>2026-03-22T09:25:23.639Z</time></trkpt><trkpt lat="42.5433256" lon="13.872454"><ele>179.0</ele><time>2026-03-22T09:25:24.637Z</time></trkpt><trkpt lat="42.5432533" lon="13.8725761"><ele>179.0</ele><time>2026-03-22T09:25:26.639Z</time></trkpt><trkpt lat="42.5432262" lon="13.8727173"><ele>179.0</ele><time>2026-03-22T09:25:28.639Z</time></trkpt><trkpt lat="42.543235" lon="13.8728374"><ele>179.0</ele><time>2026-03-22T09:25:30.639Z</time></trkpt><trkpt lat="42.5432434" lon="13.872959"><ele>180.16666666666666</ele><time>2026-03-22T09:25:33.638Z</time></trkpt><trkpt lat="42.5432637" lon="13.8730729"><ele>181.33333333333331</ele><time>2026-03-22T09:25:36.638Z</time></trkpt><trkpt lat="42.5432778" lon="13.8731952"><ele>182.5</ele><time>2026-03-22T09:25:39.638Z</time></trkpt><trkpt lat="42.5432907" lon="13.8733031"><ele>183.66666666666666</ele><time>2026-03-22T09:25:42.638Z</time></trkpt><trkpt lat="42.5433257" lon="13.8734045"><ele>184.83333333333334</ele><time>2026-03-22T09:25:45.637Z</time></trkpt><trkpt lat="42.5433778" lon="13.8734984"><ele>186.0</ele><time>2026-03-22T09:25:48.639Z</time></trkpt><trkpt lat="42.543434" lon="13.8736003"><ele>186.42857142857144</ele><time>2026-03-22T09:25:51.638Z</time></trkpt><trkpt lat="42.5434786" lon="13.8736632"><ele>186.85714285714286</ele><time>2026-03-22T09:25:53.638Z</time></trkpt><trkpt lat="42.5435087" lon="13.8737463"><ele>187.28571428571428</ele><time>2026-03-22T09:25:55.639Z</time></trkpt><trkpt lat="42.5435284" lon="13.8738578"><ele>187.71428571428572</ele><time>2026-03-22T09:25:58.639Z</time></trkpt><trkpt lat="42.543545" lon="13.8739723"><ele>188.14285714285714</ele><time>2026-03-22T09:26:01.639Z</time></trkpt><trkpt lat="42.5435357" lon="13.8740635"><ele>188.57142857142858</ele><time>2026-03-22T09:26:03.638Z</time></trkpt><trkpt lat="42.5435174" lon="13.8741465"><ele>189.0</ele><time>2026-03-22T09:26:05.638Z</time></trkpt><trkpt lat="42.5434895" lon="13.8742694"><ele>189.5</ele><time>2026-03-22T09:26:08.638Z</time></trkpt><trkpt lat="42.543462" lon="13.8743873"><ele>190.0</ele><time>2026-03-22T09:26:11.638Z</time></trkpt><trkpt lat="42.5434246" lon="13.8744921"><ele>190.5</ele><time>2026-03-22T09:26:14.638Z</time></trkpt><trkpt lat="42.5433879" lon="13.874593"><ele>191.0</ele><time>2026-03-22T09:26:17.638Z</time></trkpt><trkpt lat="42.5433612" lon="13.8747033"><ele>191.5</ele><time>2026-03-22T09:26:20.639Z</time></trkpt><trkpt lat="42.543332" lon="13.8748029"><ele>192.0</ele><time>2026-03-22T09:26:23.638Z</time></trkpt><trkpt lat="42.5433024" lon="13.8749039"><ele>192.0</ele><time>2026-03-22T09:26:26.639Z</time></trkpt><trkpt lat="42.5432679" lon="13.8750113"><ele>192.0</ele><time>2026-03-22T09:26:29.639Z</time></trkpt><trkpt lat="42.5432418" lon="13.8751001"><ele>192.0</ele><time>2026-03-22T09:26:32.639Z</time></trkpt><trkpt lat="42.5431913" lon="13.8751911"><ele>192.0</ele><time>2026-03-22T09:26:35.638Z</time></trkpt><trkpt lat="42.5431411" lon="13.8752513"><ele>192.0</ele><time>2026-03-22T09:26:38.638Z</time></trkpt><trkpt lat="42.5430689" lon="13.8752971"><ele>192.0</ele><time>2026-03-22T09:26:41.638Z</time></trkpt><trkpt lat="42.5429909" lon="13.8753487"><ele>191.66666666666666</ele><time>2026-03-22T09:26:44.638Z</time></trkpt><trkpt lat="42.5429284" lon="13.8753816"><ele>191.33333333333334</ele><time>2026-03-22T09:26:46.637Z</time></trkpt><trkpt lat="42.5428601" lon="13.87542"><ele>191.0</ele><time>2026-03-22T09:26:48.638Z</time></trkpt><trkpt lat="42.5427878" lon="13.8754425"><ele>190.66666666666669</ele><time>2026-03-22T09:26:50.638Z</time></trkpt><trkpt lat="42.5426974" lon="13.8754546"><ele>190.33333333333334</ele><time>2026-03-22T09:26:52.639Z</time></trkpt><trkpt lat="42.5425888" lon="13.8754795"><ele>190.0</ele><time>2026-03-22T09:26:54.638Z</time></trkpt><trkpt lat="42.5424714" lon="13.8754914"><ele>190.0</ele><time>2026-03-22T09:26:56.639Z</time></trkpt><trkpt lat="42.5424076" lon="13.87551"><ele>190.0</ele><time>2026-03-22T09:26:57.639Z</time></trkpt><trkpt lat="42.5423428" lon="13.8755271"><ele>190.0</ele><time>2026-03-22T09:26:58.638Z</time></trkpt><trkpt lat="42.5422803" lon="13.8755635"><ele>190.0</ele><time>2026-03-22T09:26:59.638Z</time></trkpt><trkpt lat="42.5422279" lon="13.8756186"><ele>190.0</ele><time>2026-03-22T09:27:00.639Z</time></trkpt><trkpt lat="42.5421789" lon="13.8756783"><ele>190.0</ele><time>2026-03-22T09:27:01.638Z</time></trkpt><trkpt lat="42.5421278" lon="13.8757425"><ele>190.0</ele><time>2026-03-22T09:27:02.638Z</time></trkpt><trkpt lat="42.5420842" lon="13.8758071"><ele>188.66666666666669</ele><time>2026-03-22T09:27:03.638Z</time></trkpt><trkpt lat="42.542038" lon="13.8758784"><ele>187.33333333333334</ele><time>2026-03-22T09:27:04.638Z</time></trkpt><trkpt lat="42.5419821" lon="13.8759443"><ele>186.0</ele><time>2026-03-22T09:27:05.639Z</time></trkpt><trkpt lat="42.5419298" lon="13.8760128"><ele>184.66666666666666</ele><time>2026-03-22T09:27:06.639Z</time></trkpt><trkpt lat="42.5418651" lon="13.8760766"><ele>183.33333333333331</ele><time>2026-03-22T09:27:07.639Z</time></trkpt><trkpt lat="42.5417986" lon="13.876147"><ele>182.0</ele><time>2026-03-22T09:27:08.639Z</time></trkpt><trkpt lat="42.5417288" lon="13.8762107"><ele>182.0</ele><time>2026-03-22T09:27:09.638Z</time></trkpt><trkpt lat="42.541664" lon="13.8762773"><ele>182.0</ele><time>2026-03-22T09:27:10.638Z</time></trkpt><trkpt lat="42.5416072" lon="13.8763491"><ele>182.0</ele><time>2026-03-22T09:27:11.638Z</time></trkpt><trkpt lat="42.5415568" lon="13.8764143"><ele>182.0</ele><time>2026-03-22T09:27:12.638Z</time></trkpt><trkpt lat="42.5415067" lon="13.8764873"><ele>182.0</ele><time>2026-03-22T09:27:13.638Z</time></trkpt><trkpt lat="42.5414554" lon="13.8765569"><ele>182.0</ele><time>2026-03-22T09:27:14.638Z</time></trkpt><trkpt lat="42.5414025" lon="13.876633"><ele>182.0</ele><time>2026-03-22T09:27:15.639Z</time></trkpt><trkpt lat="42.5413556" lon="13.8767103"><ele>182.0</ele><time>2026-03-22T09:27:16.638Z</time></trkpt><trkpt lat="42.5412924" lon="13.8767751"><ele>182.0</ele><time>2026-03-22T09:27:17.638Z</time></trkpt><trkpt lat="42.5412168" lon="13.8768255"><ele>182.0</ele><time>2026-03-22T09:27:18.637Z</time></trkpt><trkpt lat="42.54114" lon="13.8768543"><ele>182.0</ele><time>2026-03-22T09:27:19.639Z</time></trkpt><trkpt lat="42.5410606" lon="13.8768628"><ele>182.0</ele><time>2026-03-22T09:27:20.637Z</time></trkpt><trkpt lat="42.5409769" lon="13.8768585"><ele>180.5</ele><time>2026-03-22T09:27:21.639Z</time></trkpt><trkpt lat="42.5408976" lon="13.8768278"><ele>179.0</ele><time>2026-03-22T09:27:22.638Z</time></trkpt><trkpt lat="42.5408187" lon="13.8767856"><ele>177.5</ele><time>2026-03-22T09:27:23.639Z</time></trkpt><trkpt lat="42.540737" lon="13.8767442"><ele>176.0</ele><time>2026-03-22T09:27:24.638Z</time></trkpt><trkpt lat="42.5406584" lon="13.8767054"><ele>174.5</ele><time>2026-03-22T09:27:25.638Z</time></trkpt><trkpt lat="42.5405792" lon="13.8766845"><ele>173.0</ele><time>2026-03-22T09:27:26.638Z</time></trkpt><trkpt lat="42.5405028" lon="13.8766565"><ele>173.0</ele><time>2026-03-22T09:27:27.638Z</time></trkpt><trkpt lat="42.5404098" lon="13.8767041"><ele>173.0</ele><time>2026-03-22T09:27:28.639Z</time></trkpt><trkpt lat="42.5403249" lon="13.8767148"><ele>173.0</ele><time>2026-03-22T09:27:29.638Z</time></trkpt><trkpt lat="42.5402367" lon="13.8767632"><ele>173.0</ele><time>2026-03-22T09:27:30.638Z</time></trkpt><trkpt lat="42.5401532" lon="13.8768209"><ele>173.0</ele><time>2026-03-22T09:27:31.638Z</time></trkpt><trkpt lat="42.54007" lon="13.8768684"><ele>172.33333333333331</ele><time>2026-03-22T09:27:32.639Z</time></trkpt><trkpt lat="42.5399962" lon="13.8769432"><ele>171.66666666666666</ele><time>2026-03-22T09:27:33.638Z</time></trkpt><trkpt lat="42.5399373" lon="13.8770302"><ele>171.0</ele><time>2026-03-22T09:27:34.638Z</time></trkpt><trkpt lat="42.5398907" lon="13.8771237"><ele>170.33333333333334</ele><time>2026-03-22T09:27:35.638Z</time></trkpt><trkpt lat="42.5398508" lon="13.8772198"><ele>169.66666666666669</ele><time>2026-03-22T09:27:36.638Z</time></trkpt><trkpt lat="42.5398228" lon="13.8773233"><ele>169.0</ele><time>2026-03-22T09:27:37.639Z</time></trkpt><trkpt lat="42.5397972" lon="13.8774242"><ele>169.0</ele><time>2026-03-22T09:27:38.638Z</time></trkpt><trkpt lat="42.5397706" lon="13.8775209"><ele>169.0</ele><time>2026-03-22T09:27:39.639Z</time></trkpt><trkpt lat="42.539748" lon="13.8776162"><ele>169.0</ele><time>2026-03-22T09:27:40.638Z</time></trkpt><trkpt lat="42.5397254" lon="13.8777104"><ele>169.0</ele><time>2026-03-22T09:27:41.638Z</time></trkpt><trkpt lat="42.5397057" lon="13.8778068"><ele>169.0</ele><time>2026-03-22T09:27:42.639Z</time></trkpt><trkpt lat="42.5396849" lon="13.877901"><ele>169.0</ele><time>2026-03-22T09:27:43.638Z</time></trkpt><trkpt lat="42.5396624" lon="13.8779946"><ele>169.0</ele><time>2026-03-22T09:27:44.638Z</time></trkpt><trkpt lat="42.5396427" lon="13.8780892"><ele>168.83333333333334</ele><time>2026-03-22T09:27:45.638Z</time></trkpt><trkpt lat="42.5396213" lon="13.8781804"><ele>168.66666666666669</ele><time>2026-03-22T09:27:46.638Z</time></trkpt><trkpt lat="42.539601" lon="13.8782722"><ele>168.5</ele><time>2026-03-22T09:27:47.639Z</time></trkpt><trkpt lat="42.5395893" lon="13.878364"><ele>168.33333333333334</ele><time>2026-03-22T09:27:48.638Z</time></trkpt><trkpt lat="42.5395814" lon="13.8784506"><ele>168.16666666666666</ele><time>2026-03-22T09:27:49.639Z</time></trkpt><trkpt lat="42.5395668" lon="13.8785993"><ele>168.0</ele><time>2026-03-22T09:27:51.637Z</time></trkpt><trkpt lat="42.5395708" lon="13.8787563"><ele>168.0</ele><time>2026-03-22T09:27:53.638Z</time></trkpt><trkpt lat="42.5395668" lon="13.8789126"><ele>168.0</ele><time>2026-03-22T09:27:55.639Z</time></trkpt><trkpt lat="42.5395566" lon="13.8790717"><ele>168.0</ele><time>2026-03-22T09:27:57.639Z</time></trkpt><trkpt lat="42.5395296" lon="13.8792181"><ele>168.0</ele><time>2026-03-22T09:27:59.638Z</time></trkpt><trkpt lat="42.5394948" lon="13.879358"><ele>168.0</ele><time>2026-03-22T09:28:01.639Z</time></trkpt><trkpt lat="42.5394543" lon="13.8794896"><ele>168.0</ele><time>2026-03-22T09:28:03.638Z</time></trkpt><trkpt lat="42.5394101" lon="13.8796112"><ele>168.0</ele><time>2026-03-22T09:28:05.637Z</time></trkpt><trkpt lat="42.5393684" lon="13.8797345"><ele>168.0</ele><time>2026-03-22T09:28:07.638Z</time></trkpt><trkpt lat="42.5393275" lon="13.8798655"><ele>168.0</ele><time>2026-03-22T09:28:09.638Z</time></trkpt><trkpt lat="42.5392785" lon="13.8799936"><ele>167.4</ele><time>2026-03-22T09:28:11.638Z</time></trkpt><trkpt lat="42.5392338" lon="13.8801202"><ele>166.8</ele><time>2026-03-22T09:28:13.638Z</time></trkpt><trkpt lat="42.5391885" lon="13.8802367"><ele>166.2</ele><time>2026-03-22T09:28:15.638Z</time></trkpt><trkpt lat="42.539142" lon="13.8803659"><ele>165.6</ele><time>2026-03-22T09:28:17.638Z</time></trkpt><trkpt lat="42.539096" lon="13.8805041"><ele>165.0</ele><time>2026-03-22T09:28:19.638Z</time></trkpt><trkpt lat="42.5390387" lon="13.8806374"><ele>165.0</ele><time>2026-03-22T09:28:21.638Z</time></trkpt><trkpt lat="42.5389831" lon="13.8807807"><ele>165.0</ele><time>2026-03-22T09:28:23.638Z</time></trkpt><trkpt lat="42.5389276" lon="13.8809157"><ele>165.0</ele><time>2026-03-22T09:28:25.637Z</time></trkpt><trkpt lat="42.5388607" lon="13.8810388"><ele>165.0</ele><time>2026-03-22T09:28:27.638Z</time></trkpt><trkpt lat="42.5388032" lon="13.8811541"><ele>165.0</ele><time>2026-03-22T09:28:29.638Z</time></trkpt><trkpt lat="42.5387454" lon="13.8812545"><ele>165.16666666666666</ele><time>2026-03-22T09:28:31.638Z</time></trkpt><trkpt lat="42.5386878" lon="13.8813601"><ele>165.33333333333334</ele><time>2026-03-22T09:28:33.637Z</time></trkpt><trkpt lat="42.5386358" lon="13.8814331"><ele>165.5</ele><time>2026-03-22T09:28:35.637Z</time></trkpt><trkpt lat="42.538578" lon="13.8815167"><ele>165.66666666666669</ele><time>2026-03-22T09:28:37.638Z</time></trkpt><trkpt lat="42.5385175" lon="13.8816105"><ele>165.83333333333334</ele><time>2026-03-22T09:28:39.638Z</time></trkpt><trkpt lat="42.5384506" lon="13.8817"><ele>166.0</ele><time>2026-03-22T09:28:41.637Z</time></trkpt><trkpt lat="42.5383902" lon="13.8817834"><ele>168.0</ele><time>2026-03-22T09:28:43.637Z</time></trkpt><trkpt lat="42.5383399" lon="13.8818607"><ele>170.0</ele><time>2026-03-22T09:28:45.637Z</time></trkpt><trkpt lat="42.5382872" lon="13.8819344"><ele>172.0</ele><time>2026-03-22T09:28:47.638Z</time></trkpt><trkpt lat="42.5382352" lon="13.8820128"><ele>174.0</ele><time>2026-03-22T09:28:49.637Z</time></trkpt><trkpt lat="42.5381848" lon="13.8820911"><ele>176.0</ele><time>2026-03-22T09:28:51.638Z</time></trkpt><trkpt lat="42.5381423" lon="13.8821554"><ele>178.0</ele><time>2026-03-22T09:28:53.637Z</time></trkpt><trkpt lat="42.5380845" lon="13.8822515"><ele>178.0</ele><time>2026-03-22T09:28:56.638Z</time></trkpt><trkpt lat="42.5380249" lon="13.8823436"><ele>178.0</ele><time>2026-03-22T09:28:59.638Z</time></trkpt><trkpt lat="42.5379774" lon="13.8824098"><ele>178.0</ele><time>2026-03-22T09:29:01.637Z</time></trkpt><trkpt lat="42.5379345" lon="13.88249"><ele>178.0</ele><time>2026-03-22T09:29:03.638Z</time></trkpt><trkpt lat="42.5378903" lon="13.8825652"><ele>178.0</ele><time>2026-03-22T09:29:05.636Z</time></trkpt><trkpt lat="42.5378474" lon="13.8826278"><ele>178.0</ele><time>2026-03-22T09:29:07.638Z</time></trkpt><trkpt lat="42.5377798" lon="13.882702"><ele>179.33333333333334</ele><time>2026-03-22T09:29:10.637Z</time></trkpt><trkpt lat="42.5377244" lon="13.8827707"><ele>180.66666666666669</ele><time>2026-03-22T09:29:13.638Z</time></trkpt><trkpt lat="42.5376627" lon="13.8828306"><ele>182.0</ele><time>2026-03-22T09:29:16.638Z</time></trkpt><trkpt lat="42.537596" lon="13.8828833"><ele>183.33333333333334</ele><time>2026-03-22T09:29:19.637Z</time></trkpt><trkpt lat="42.5375209" lon="13.8829116"><ele>184.66666666666666</ele><time>2026-03-22T09:29:22.638Z</time></trkpt><trkpt lat="42.5374355" lon="13.882926"><ele>186.0</ele><time>2026-03-22T09:29:25.637Z</time></trkpt><trkpt lat="42.5373457" lon="13.8829396"><ele>186.0</ele><time>2026-03-22T09:29:28.637Z</time></trkpt><trkpt lat="42.5372545" lon="13.8829572"><ele>186.0</ele><time>2026-03-22T09:29:31.637Z</time></trkpt><trkpt lat="42.5371656" lon="13.8829776"><ele>186.0</ele><time>2026-03-22T09:29:34.637Z</time></trkpt><trkpt lat="42.5370794" lon="13.883003"><ele>186.0</ele><time>2026-03-22T09:29:37.637Z</time></trkpt><trkpt lat="42.5369957" lon="13.8830307"><ele>186.0</ele><time>2026-03-22T09:29:40.637Z</time></trkpt><trkpt lat="42.536918" lon="13.883071"><ele>186.0</ele><time>2026-03-22T09:29:43.638Z</time></trkpt><trkpt lat="42.5368475" lon="13.8831318"><ele>185.5</ele><time>2026-03-22T09:29:46.638Z</time></trkpt><trkpt lat="42.5367792" lon="13.883216"><ele>185.0</ele><time>2026-03-22T09:29:49.637Z</time></trkpt><trkpt lat="42.5367301" lon="13.8832866"><ele>184.5</ele><time>2026-03-22T09:29:51.637Z</time></trkpt><trkpt lat="42.5366803" lon="13.8833615"><ele>184.0</ele><time>2026-03-22T09:29:53.637Z</time></trkpt><trkpt lat="42.5366309" lon="13.8834384"><ele>183.5</ele><time>2026-03-22T09:29:55.637Z</time></trkpt><trkpt lat="42.5365785" lon="13.8835169"><ele>183.0</ele><time>2026-03-22T09:29:57.638Z</time></trkpt><trkpt lat="42.5365376" lon="13.8836045"><ele>183.0</ele><time>2026-03-22T09:29:59.638Z</time></trkpt><trkpt lat="42.5365121" lon="13.8837005"><ele>183.0</ele><time>2026-03-22T09:30:01.637Z</time></trkpt><trkpt lat="42.536515" lon="13.8838083"><ele>183.0</ele><time>2026-03-22T09:30:03.637Z</time></trkpt><trkpt lat="42.5365332" lon="13.8839115"><ele>183.0</ele><time>2026-03-22T09:30:05.637Z</time></trkpt><trkpt lat="42.5365623" lon="13.8840129"><ele>183.0</ele><time>2026-03-22T09:30:07.638Z</time></trkpt><trkpt lat="42.5366212" lon="13.8841019"><ele>183.0</ele><time>2026-03-22T09:30:09.638Z</time></trkpt><trkpt lat="42.5367116" lon="13.8841259"><ele>183.0</ele><time>2026-03-22T09:30:11.637Z</time></trkpt><trkpt lat="42.536798" lon="13.884105"><ele>183.0</ele><time>2026-03-22T09:30:13.637Z</time></trkpt><trkpt lat="42.5368794" lon="13.8841001"><ele>183.0</ele><time>2026-03-22T09:30:15.637Z</time></trkpt><trkpt lat="42.5369555" lon="13.8841019"><ele>183.0</ele><time>2026-03-22T09:30:17.637Z</time></trkpt><trkpt lat="42.5370195" lon="13.8841077"><ele>183.0</ele><time>2026-03-22T09:30:19.637Z</time></trkpt><trkpt lat="42.537109" lon="13.8841266"><ele>183.0</ele><time>2026-03-22T09:30:22.638Z</time></trkpt><trkpt lat="42.5371779" lon="13.8841224"><ele>184.0</ele><time>2026-03-22T09:30:25.638Z</time></trkpt><trkpt lat="42.5372457" lon="13.8841083"><ele>185.0</ele><time>2026-03-22T09:30:28.638Z</time></trkpt><trkpt lat="42.5373361" lon="13.8840697"><ele>186.0</ele><time>2026-03-22T09:30:31.638Z</time></trkpt><trkpt lat="42.537401" lon="13.8840234"><ele>187.0</ele><time>2026-03-22T09:30:33.637Z</time></trkpt><trkpt lat="42.5374556" lon="13.8839755"><ele>188.0</ele><time>2026-03-22T09:30:35.637Z</time></trkpt><trkpt lat="42.5375334" lon="13.8839089"><ele>189.0</ele><time>2026-03-22T09:30:38.636Z</time></trkpt><trkpt lat="42.5376126" lon="13.8838452"><ele>189.0</ele><time>2026-03-22T09:30:41.638Z</time></trkpt><trkpt lat="42.5376828" lon="13.8837753"><ele>189.0</ele><time>2026-03-22T09:30:44.637Z</time></trkpt><trkpt lat="42.5377575" lon="13.8837045"><ele>189.0</ele><time>2026-03-22T09:30:47.638Z</time></trkpt><trkpt lat="42.5378114" lon="13.8836577"><ele>189.0</ele><time>2026-03-22T09:30:49.638Z</time></trkpt><trkpt lat="42.5378648" lon="13.8836094"><ele>189.0</ele><time>2026-03-22T09:30:51.637Z</time></trkpt><trkpt lat="42.5379374" lon="13.8835411"><ele>189.0</ele><time>2026-03-22T09:30:54.638Z</time></trkpt><trkpt lat="42.5380082" lon="13.8834801"><ele>190.5</ele><time>2026-03-22T09:30:57.638Z</time></trkpt><trkpt lat="42.5380831" lon="13.8834139"><ele>192.0</ele><time>2026-03-22T09:31:00.637Z</time></trkpt><trkpt lat="42.5381343" lon="13.8833625"><ele>193.5</ele><time>2026-03-22T09:31:02.637Z</time></trkpt><trkpt lat="42.5382035" lon="13.8832771"><ele>195.0</ele><time>2026-03-22T09:31:05.638Z</time></trkpt><trkpt lat="42.5382898" lon="13.8832362"><ele>196.5</ele><time>2026-03-22T09:31:08.638Z</time></trkpt><trkpt lat="42.5383647" lon="13.8832962"><ele>198.0</ele><time>2026-03-22T09:31:11.637Z</time></trkpt><trkpt lat="42.5383877" lon="13.8834103"><ele>199.5</ele><time>2026-03-22T09:31:14.637Z</time></trkpt><trkpt lat="42.5383946" lon="13.8835297"><ele>201.0</ele><time>2026-03-22T09:31:17.637Z</time></trkpt><trkpt lat="42.5383861" lon="13.8836344"><ele>202.5</ele><time>2026-03-22T09:31:20.638Z</time></trkpt><trkpt lat="42.5383841" lon="13.8837397"><ele>204.0</ele><time>2026-03-22T09:31:23.638Z</time></trkpt><trkpt lat="42.538383" lon="13.8838483"><ele>205.5</ele><time>2026-03-22T09:31:26.637Z</time></trkpt><trkpt lat="42.538378" lon="13.8839493"><ele>207.0</ele><time>2026-03-22T09:31:29.636Z</time></trkpt><trkpt lat="42.5383712" lon="13.8840567"><ele>207.0</ele><time>2026-03-22T09:31:32.637Z</time></trkpt><trkpt lat="42.5383722" lon="13.8841605"><ele>207.0</ele><time>2026-03-22T09:31:35.638Z</time></trkpt><trkpt lat="42.5383745" lon="13.8842667"><ele>207.0</ele><time>2026-03-22T09:31:38.637Z</time></trkpt><trkpt lat="42.5383729" lon="13.8843722"><ele>207.0</ele><time>2026-03-22T09:31:41.638Z</time></trkpt><trkpt lat="42.5383738" lon="13.8844751"><ele>207.0</ele><time>2026-03-22T09:31:44.637Z</time></trkpt><trkpt lat="42.538377" lon="13.8845783"><ele>207.0</ele><time>2026-03-22T09:31:47.637Z</time></trkpt><trkpt lat="42.5383709" lon="13.8846803"><ele>206.2857142857143</ele><time>2026-03-22T09:31:50.638Z</time></trkpt><trkpt lat="42.5383685" lon="13.8847861"><ele>205.57142857142858</ele><time>2026-03-22T09:31:53.636Z</time></trkpt><trkpt lat="42.5383634" lon="13.8848894"><ele>204.85714285714286</ele><time>2026-03-22T09:31:56.638Z</time></trkpt><trkpt lat="42.5383552" lon="13.8849908"><ele>204.14285714285717</ele><time>2026-03-22T09:31:59.638Z</time></trkpt><trkpt lat="42.5383566" lon="13.8850874"><ele>203.42857142857142</ele><time>2026-03-22T09:32:02.637Z</time></trkpt><trkpt lat="42.5383646" lon="13.8851749"><ele>202.71428571428572</ele><time>2026-03-22T09:32:05.637Z</time></trkpt><trkpt lat="42.538381" lon="13.8852642"><ele>202.0</ele><time>2026-03-22T09:32:08.638Z</time></trkpt><trkpt lat="42.5384231" lon="13.885348"><ele>201.99999999999997</ele><time>2026-03-22T09:32:11.638Z</time></trkpt><trkpt lat="42.538486" lon="13.8854117"><ele>202.0</ele><time>2026-03-22T09:32:14.637Z</time></trkpt><trkpt lat="42.5385542" lon="13.8854621"><ele>202.0</ele><time>2026-03-22T09:32:17.638Z</time></trkpt><trkpt lat="42.538628" lon="13.8855096"><ele>202.0</ele><time>2026-03-22T09:32:20.637Z</time></trkpt><trkpt lat="42.5387011" lon="13.8855609"><ele>201.99999999999997</ele><time>2026-03-22T09:32:23.637Z</time></trkpt><trkpt lat="42.5387733" lon="13.8856135"><ele>202.0</ele><time>2026-03-22T09:32:26.638Z</time></trkpt><trkpt lat="42.5388504" lon="13.8856616"><ele>206.66666666666666</ele><time>2026-03-22T09:32:29.638Z</time></trkpt><trkpt lat="42.5389236" lon="13.8857106"><ele>211.33333333333331</ele><time>2026-03-22T09:32:32.636Z</time></trkpt><trkpt lat="42.5390007" lon="13.8857567"><ele>216.0</ele><time>2026-03-22T09:32:35.637Z</time></trkpt><trkpt lat="42.5390794" lon="13.8857904"><ele>220.66666666666669</ele><time>2026-03-22T09:32:38.636Z</time></trkpt><trkpt lat="42.5391569" lon="13.8858188"><ele>225.33333333333334</ele><time>2026-03-22T09:32:41.637Z</time></trkpt><trkpt lat="42.5392292" lon="13.8858515"><ele>230.0</ele><time>2026-03-22T09:32:44.635Z</time></trkpt><trkpt lat="42.539307" lon="13.885893"><ele>228.66666666666669</ele><time>2026-03-22T09:32:47.637Z</time></trkpt><trkpt lat="42.539379" lon="13.8859468"><ele>227.33333333333334</ele><time>2026-03-22T09:32:50.635Z</time></trkpt><trkpt lat="42.5394454" lon="13.8860024"><ele>226.0</ele><time>2026-03-22T09:32:53.636Z</time></trkpt><trkpt lat="42.5395117" lon="13.886068"><ele>224.66666666666669</ele><time>2026-03-22T09:32:56.637Z</time></trkpt><trkpt lat="42.5395693" lon="13.8861432"><ele>223.33333333333334</ele><time>2026-03-22T09:32:59.636Z</time></trkpt><trkpt lat="42.5396253" lon="13.8862158"><ele>222.0</ele><time>2026-03-22T09:33:02.637Z</time></trkpt><trkpt lat="42.5396772" lon="13.8862837"><ele>222.0</ele><time>2026-03-22T09:33:05.636Z</time></trkpt><trkpt lat="42.5397298" lon="13.8863495"><ele>222.0</ele><time>2026-03-22T09:33:08.637Z</time></trkpt><trkpt lat="42.5397931" lon="13.8864147"><ele>222.0</ele><time>2026-03-22T09:33:11.637Z</time></trkpt><trkpt lat="42.5398628" lon="13.8864674"><ele>222.0</ele><time>2026-03-22T09:33:14.636Z</time></trkpt><trkpt lat="42.5399339" lon="13.8865036"><ele>222.0</ele><time>2026-03-22T09:33:17.636Z</time></trkpt><trkpt lat="42.5400152" lon="13.8865258"><ele>222.0</ele><time>2026-03-22T09:33:20.637Z</time></trkpt><trkpt lat="42.5400951" lon="13.8865252"><ele>222.0</ele><time>2026-03-22T09:33:23.637Z</time></trkpt><trkpt lat="42.5401726" lon="13.8865118"><ele>222.0</ele><time>2026-03-22T09:33:26.637Z</time></trkpt><trkpt lat="42.5402449" lon="13.8865053"><ele>222.0</ele><time>2026-03-22T09:33:29.637Z</time></trkpt><trkpt lat="42.540309" lon="13.8864917"><ele>222.0</ele><time>2026-03-22T09:33:32.637Z</time></trkpt><trkpt lat="42.5403853" lon="13.886462"><ele>222.0</ele><time>2026-03-22T09:33:36.636Z</time></trkpt><trkpt lat="42.5404476" lon="13.886476"><ele>222.0</ele><time>2026-03-22T09:33:39.636Z</time></trkpt><trkpt lat="42.5405123" lon="13.8864857"><ele>222.0</ele><time>2026-03-22T09:33:42.636Z</time></trkpt><trkpt lat="42.5405848" lon="13.8865116"><ele>225.16666666666666</ele><time>2026-03-22T09:33:45.636Z</time></trkpt><trkpt lat="42.5406567" lon="13.8865489"><ele>228.33333333333331</ele><time>2026-03-22T09:33:48.636Z</time></trkpt><trkpt lat="42.5407363" lon="13.8865952"><ele>231.5</ele><time>2026-03-22T09:33:51.636Z</time></trkpt><trkpt lat="42.5408244" lon="13.886636"><ele>234.66666666666666</ele><time>2026-03-22T09:33:54.636Z</time></trkpt><trkpt lat="42.5408877" lon="13.8866552"><ele>237.83333333333331</ele><time>2026-03-22T09:33:56.637Z</time></trkpt><trkpt lat="42.5409727" lon="13.8866648"><ele>241.0</ele><time>2026-03-22T09:33:59.636Z</time></trkpt><trkpt lat="42.5410517" lon="13.8866731"><ele>240.99999999999997</ele><time>2026-03-22T09:34:02.637Z</time></trkpt><trkpt lat="42.5411286" lon="13.8866668"><ele>241.0</ele><time>2026-03-22T09:34:05.636Z</time></trkpt><trkpt lat="42.5412044" lon="13.8866603"><ele>241.0</ele><time>2026-03-22T09:34:08.637Z</time></trkpt><trkpt lat="42.541278" lon="13.8866581"><ele>241.0</ele><time>2026-03-22T09:34:11.637Z</time></trkpt><trkpt lat="42.5413507" lon="13.8866604"><ele>240.99999999999997</ele><time>2026-03-22T09:34:14.636Z</time></trkpt><trkpt lat="42.54143" lon="13.8866886"><ele>241.0</ele><time>2026-03-22T09:34:17.637Z</time></trkpt><trkpt lat="42.5415065" lon="13.8867402"><ele>240.83333333333331</ele><time>2026-03-22T09:34:20.635Z</time></trkpt><trkpt lat="42.5415703" lon="13.886828"><ele>240.66666666666666</ele><time>2026-03-22T09:34:23.635Z</time></trkpt><trkpt lat="42.541621" lon="13.8869254"><ele>240.5</ele><time>2026-03-22T09:34:26.636Z</time></trkpt><trkpt lat="42.5416583" lon="13.8870317"><ele>240.33333333333331</ele><time>2026-03-22T09:34:29.637Z</time></trkpt><trkpt lat="42.5416966" lon="13.8871285"><ele>240.16666666666666</ele><time>2026-03-22T09:34:32.636Z</time></trkpt><trkpt lat="42.541735" lon="13.8872254"><ele>240.0</ele><time>2026-03-22T09:34:35.636Z</time></trkpt><trkpt lat="42.5417751" lon="13.887312"><ele>240.0</ele><time>2026-03-22T09:34:38.637Z</time></trkpt><trkpt lat="42.54183" lon="13.8873856"><ele>240.0</ele><time>2026-03-22T09:34:41.636Z</time></trkpt><trkpt lat="42.5418784" lon="13.8874642"><ele>240.0</ele><time>2026-03-22T09:34:44.637Z</time></trkpt><trkpt lat="42.5419296" lon="13.8875275"><ele>240.0</ele><time>2026-03-22T09:34:47.637Z</time></trkpt><trkpt lat="42.5419852" lon="13.8875904"><ele>240.0</ele><time>2026-03-22T09:34:50.637Z</time></trkpt><trkpt lat="42.5420385" lon="13.8876561"><ele>240.0</ele><time>2026-03-22T09:34:53.637Z</time></trkpt><trkpt lat="42.5420893" lon="13.8877239"><ele>240.0</ele><time>2026-03-22T09:34:56.636Z</time></trkpt><trkpt lat="42.54215" lon="13.8877912"><ele>241.66666666666666</ele><time>2026-03-22T09:34:59.636Z</time></trkpt><trkpt lat="42.5422166" lon="13.8878594"><ele>243.33333333333331</ele><time>2026-03-22T09:35:02.636Z</time></trkpt><trkpt lat="42.54228" lon="13.8879254"><ele>245.0</ele><time>2026-03-22T09:35:05.636Z</time></trkpt><trkpt lat="42.5423449" lon="13.8879938"><ele>246.66666666666666</ele><time>2026-03-22T09:35:08.637Z</time></trkpt><trkpt lat="42.5424091" lon="13.8880631"><ele>248.33333333333331</ele><time>2026-03-22T09:35:11.637Z</time></trkpt><trkpt lat="42.5424786" lon="13.888118"><ele>250.0</ele><time>2026-03-22T09:35:14.637Z</time></trkpt><trkpt lat="42.5425501" lon="13.8881484"><ele>249.99999999999997</ele><time>2026-03-22T09:35:17.636Z</time></trkpt><trkpt lat="42.5426145" lon="13.8881295"><ele>250.0</ele><time>2026-03-22T09:35:20.637Z</time></trkpt><trkpt lat="42.5426676" lon="13.8880674"><ele>250.0</ele><time>2026-03-22T09:35:23.636Z</time></trkpt><trkpt lat="42.5426966" lon="13.8879694"><ele>250.0</ele><time>2026-03-22T09:35:26.636Z</time></trkpt><trkpt lat="42.5426768" lon="13.8878585"><ele>249.99999999999997</ele><time>2026-03-22T09:35:29.637Z</time></trkpt><trkpt lat="42.5426285" lon="13.8877566"><ele>250.0</ele><time>2026-03-22T09:35:32.636Z</time></trkpt><trkpt lat="42.5425773" lon="13.8876632"><ele>251.83333333333331</ele><time>2026-03-22T09:35:35.637Z</time></trkpt><trkpt lat="42.5425334" lon="13.8875558"><ele>253.66666666666666</ele><time>2026-03-22T09:35:38.636Z</time></trkpt><trkpt lat="42.5425066" lon="13.8874352"><ele>255.5</ele><time>2026-03-22T09:35:41.636Z</time></trkpt><trkpt lat="42.5424917" lon="13.8873504"><ele>257.3333333333333</ele><time>2026-03-22T09:35:43.637Z</time></trkpt><trkpt lat="42.5424607" lon="13.8872369"><ele>259.1666666666667</ele><time>2026-03-22T09:35:46.637Z</time></trkpt><trkpt lat="42.5424136" lon="13.887127"><ele>261.0</ele><time>2026-03-22T09:35:49.636Z</time></trkpt><trkpt lat="42.5423637" lon="13.8870304"><ele>261.0</ele><time>2026-03-22T09:35:52.636Z</time></trkpt><trkpt lat="42.5422959" lon="13.8869477"><ele>261.0</ele><time>2026-03-22T09:35:55.636Z</time></trkpt><trkpt lat="42.5422283" lon="13.8868721"><ele>261.0</ele><time>2026-03-22T09:35:58.636Z</time></trkpt><trkpt lat="42.5421547" lon="13.8867974"><ele>261.0</ele><time>2026-03-22T09:36:01.636Z</time></trkpt><trkpt lat="42.5421042" lon="13.8867431"><ele>261.0</ele><time>2026-03-22T09:36:03.636Z</time></trkpt><trkpt lat="42.5420569" lon="13.8866846"><ele>261.0</ele><time>2026-03-22T09:36:05.637Z</time></trkpt><trkpt lat="42.542012" lon="13.8866213"><ele>260.8571428571429</ele><time>2026-03-22T09:36:07.636Z</time></trkpt><trkpt lat="42.5419866" lon="13.8865419"><ele>260.7142857142857</ele><time>2026-03-22T09:36:09.636Z</time></trkpt><trkpt lat="42.5419407" lon="13.8864378"><ele>260.57142857142856</ele><time>2026-03-22T09:36:12.636Z</time></trkpt><trkpt lat="42.5419066" lon="13.8863647"><ele>260.42857142857144</ele><time>2026-03-22T09:36:14.635Z</time></trkpt><trkpt lat="42.5418643" lon="13.8862988"><ele>260.2857142857143</ele><time>2026-03-22T09:36:16.637Z</time></trkpt><trkpt lat="42.5418211" lon="13.8862365"><ele>260.14285714285717</ele><time>2026-03-22T09:36:18.635Z</time></trkpt><trkpt lat="42.5417555" lon="13.8861471"><ele>260.0</ele><time>2026-03-22T09:36:21.636Z</time></trkpt><trkpt lat="42.541684" lon="13.8860686"><ele>260.00000000000006</ele><time>2026-03-22T09:36:24.636Z</time></trkpt><trkpt lat="42.5416055" lon="13.8860078"><ele>260.0</ele><time>2026-03-22T09:36:27.635Z</time></trkpt><trkpt lat="42.5415485" lon="13.8859691"><ele>260.0</ele><time>2026-03-22T09:36:29.635Z</time></trkpt><trkpt lat="42.5414857" lon="13.885957"><ele>260.0</ele><time>2026-03-22T09:36:31.635Z</time></trkpt><trkpt lat="42.5414221" lon="13.8859568"><ele>260.0</ele><time>2026-03-22T09:36:33.635Z</time></trkpt><trkpt lat="42.5413266" lon="13.8859621"><ele>260.00000000000006</ele><time>2026-03-22T09:36:36.636Z</time></trkpt><trkpt lat="42.5412604" lon="13.8859505"><ele>260.0</ele><time>2026-03-22T09:36:38.634Z</time></trkpt><trkpt lat="42.5411911" lon="13.885932"><ele>261.00000000000006</ele><time>2026-03-22T09:36:40.636Z</time></trkpt><trkpt lat="42.5411287" lon="13.8858881"><ele>262.0</ele><time>2026-03-22T09:36:42.636Z</time></trkpt><trkpt lat="42.5410673" lon="13.8858436"><ele>263.0</ele><time>2026-03-22T09:36:44.635Z</time></trkpt><trkpt lat="42.5410063" lon="13.8857965"><ele>264.0</ele><time>2026-03-22T09:36:46.635Z</time></trkpt><trkpt lat="42.5409403" lon="13.8857542"><ele>265.0</ele><time>2026-03-22T09:36:48.635Z</time></trkpt><trkpt lat="42.5408801" lon="13.8857051"><ele>266.00000000000006</ele><time>2026-03-22T09:36:50.636Z</time></trkpt><trkpt lat="42.5408281" lon="13.8856474"><ele>267.0</ele><time>2026-03-22T09:36:52.636Z</time></trkpt><trkpt lat="42.5407794" lon="13.8855839"><ele>267.0</ele><time>2026-03-22T09:36:54.635Z</time></trkpt><trkpt lat="42.5407314" lon="13.8855242"><ele>267.0</ele><time>2026-03-22T09:36:56.635Z</time></trkpt><trkpt lat="42.540681" lon="13.8854653"><ele>267.0</ele><time>2026-03-22T09:36:58.636Z</time></trkpt><trkpt lat="42.5406049" lon="13.885398"><ele>267.0</ele><time>2026-03-22T09:37:01.635Z</time></trkpt><trkpt lat="42.5405244" lon="13.885341"><ele>267.0</ele><time>2026-03-22T09:37:04.635Z</time></trkpt><trkpt lat="42.5404387" lon="13.8852872"><ele>267.0</ele><time>2026-03-22T09:37:07.636Z</time></trkpt><trkpt lat="42.5403533" lon="13.8852416"><ele>267.8571428571429</ele><time>2026-03-22T09:37:10.636Z</time></trkpt><trkpt lat="42.5402654" lon="13.8851982"><ele>268.7142857142857</ele><time>2026-03-22T09:37:13.635Z</time></trkpt><trkpt lat="42.5402053" lon="13.8851593"><ele>269.57142857142856</ele><time>2026-03-22T09:37:15.635Z</time></trkpt><trkpt lat="42.5401476" lon="13.8851135"><ele>270.42857142857144</ele><time>2026-03-22T09:37:17.635Z</time></trkpt><trkpt lat="42.5400948" lon="13.8850648"><ele>271.2857142857143</ele><time>2026-03-22T09:37:19.636Z</time></trkpt><trkpt lat="42.540046" lon="13.8850102"><ele>272.14285714285717</ele><time>2026-03-22T09:37:21.635Z</time></trkpt><trkpt lat="42.5400054" lon="13.884943"><ele>273.0</ele><time>2026-03-22T09:37:23.636Z</time></trkpt><trkpt lat="42.5399662" lon="13.884865"><ele>273.0</ele><time>2026-03-22T09:37:25.636Z</time></trkpt><trkpt lat="42.5399273" lon="13.8847515"><ele>273.0</ele><time>2026-03-22T09:37:28.635Z</time></trkpt><trkpt lat="42.5399151" lon="13.8846281"><ele>273.0</ele><time>2026-03-22T09:37:31.635Z</time></trkpt><trkpt lat="42.5399399" lon="13.8845072"><ele>273.0</ele><time>2026-03-22T09:37:34.636Z</time></trkpt><trkpt lat="42.5399594" lon="13.8844249"><ele>273.0</ele><time>2026-03-22T09:37:36.635Z</time></trkpt><trkpt lat="42.5399917" lon="13.8843492"><ele>273.0</ele><time>2026-03-22T09:37:38.635Z</time></trkpt><trkpt lat="42.540045" lon="13.884285"><ele>273.14285714285717</ele><time>2026-03-22T09:37:40.635Z</time></trkpt><trkpt lat="42.5401043" lon="13.8842354"><ele>273.2857142857143</ele><time>2026-03-22T09:37:42.635Z</time></trkpt><trkpt lat="42.5401793" lon="13.8841976"><ele>273.42857142857144</ele><time>2026-03-22T09:37:44.635Z</time></trkpt><trkpt lat="42.5402517" lon="13.8841527"><ele>273.57142857142856</ele><time>2026-03-22T09:37:46.635Z</time></trkpt><trkpt lat="42.5403193" lon="13.8841147"><ele>273.7142857142857</ele><time>2026-03-22T09:37:48.636Z</time></trkpt><trkpt lat="42.5403827" lon="13.8840776"><ele>273.8571428571429</ele><time>2026-03-22T09:37:50.635Z</time></trkpt><trkpt lat="42.5404456" lon="13.8840458"><ele>274.0</ele><time>2026-03-22T09:37:52.635Z</time></trkpt><trkpt lat="42.5405085" lon="13.8840112"><ele>276.66666666666663</ele><time>2026-03-22T09:37:54.635Z</time></trkpt><trkpt lat="42.540595" lon="13.8839648"><ele>279.3333333333333</ele><time>2026-03-22T09:37:57.635Z</time></trkpt><trkpt lat="42.54068" lon="13.8839281"><ele>282.0</ele><time>2026-03-22T09:38:00.635Z</time></trkpt><trkpt lat="42.5407673" lon="13.8839038"><ele>284.6666666666667</ele><time>2026-03-22T09:38:03.636Z</time></trkpt><trkpt lat="42.5408576" lon="13.8838929"><ele>287.33333333333337</ele><time>2026-03-22T09:38:06.636Z</time></trkpt><trkpt lat="42.5409428" lon="13.8838936"><ele>290.0</ele><time>2026-03-22T09:38:09.635Z</time></trkpt><trkpt lat="42.5410326" lon="13.8839049"><ele>290.0</ele><time>2026-03-22T09:38:12.634Z</time></trkpt><trkpt lat="42.5411198" lon="13.8839263"><ele>290.0</ele><time>2026-03-22T09:38:15.635Z</time></trkpt><trkpt lat="42.5412084" lon="13.8839553"><ele>290.0</ele><time>2026-03-22T09:38:18.635Z</time></trkpt><trkpt lat="42.5412989" lon="13.8839847"><ele>290.0</ele><time>2026-03-22T09:38:21.635Z</time></trkpt><trkpt lat="42.5413903" lon="13.8840186"><ele>290.0</ele><time>2026-03-22T09:38:24.635Z</time></trkpt><trkpt lat="42.541479" lon="13.8840562"><ele>290.83333333333337</ele><time>2026-03-22T09:38:27.635Z</time></trkpt><trkpt lat="42.5415709" lon="13.8840864"><ele>291.6666666666667</ele><time>2026-03-22T09:38:30.635Z</time></trkpt><trkpt lat="42.5416345" lon="13.884102"><ele>292.5</ele><time>2026-03-22T09:38:32.635Z</time></trkpt><trkpt lat="42.5417255" lon="13.8841334"><ele>293.3333333333333</ele><time>2026-03-22T09:38:35.635Z</time></trkpt><trkpt lat="42.5418155" lon="13.8841562"><ele>294.16666666666663</ele><time>2026-03-22T09:38:38.635Z</time></trkpt><trkpt lat="42.541908" lon="13.8841774"><ele>295.0</ele><time>2026-03-22T09:38:41.635Z</time></trkpt><trkpt lat="42.5419938" lon="13.8841989"><ele>296.8333333333333</ele><time>2026-03-22T09:38:44.636Z</time></trkpt><trkpt lat="42.5420779" lon="13.8842178"><ele>298.66666666666663</ele><time>2026-03-22T09:38:47.635Z</time></trkpt><trkpt lat="42.5421643" lon="13.8842436"><ele>300.5</ele><time>2026-03-22T09:38:50.635Z</time></trkpt><trkpt lat="42.5422474" lon="13.8842643"><ele>302.3333333333333</ele><time>2026-03-22T09:38:53.635Z</time></trkpt><trkpt lat="42.5423308" lon="13.8842857"><ele>304.1666666666667</ele><time>2026-03-22T09:38:56.635Z</time></trkpt><trkpt lat="42.5424142" lon="13.8843003"><ele>306.0</ele><time>2026-03-22T09:38:59.635Z</time></trkpt><trkpt lat="42.5424923" lon="13.884313"><ele>306.0</ele><time>2026-03-22T09:39:02.635Z</time></trkpt><trkpt lat="42.5425772" lon="13.8843028"><ele>306.0</ele><time>2026-03-22T09:39:05.635Z</time></trkpt><trkpt lat="42.5426381" lon="13.8842781"><ele>306.0</ele><time>2026-03-22T09:39:07.635Z</time></trkpt><trkpt lat="42.5426955" lon="13.884232"><ele>306.0</ele><time>2026-03-22T09:39:09.636Z</time></trkpt><trkpt lat="42.5427392" lon="13.8841697"><ele>306.0</ele><time>2026-03-22T09:39:11.636Z</time></trkpt><trkpt lat="42.5427663" lon="13.8840858"><ele>306.0</ele><time>2026-03-22T09:39:13.636Z</time></trkpt><trkpt lat="42.5427907" lon="13.8839909"><ele>306.0</ele><time>2026-03-22T09:39:15.636Z</time></trkpt><trkpt lat="42.5427867" lon="13.8838838"><ele>306.0</ele><time>2026-03-22T09:39:17.636Z</time></trkpt><trkpt lat="42.5427707" lon="13.8837832"><ele>306.0</ele><time>2026-03-22T09:39:19.635Z</time></trkpt><trkpt lat="42.5427488" lon="13.8836847"><ele>306.0</ele><time>2026-03-22T09:39:21.636Z</time></trkpt><trkpt lat="42.5427182" lon="13.8835918"><ele>306.0</ele><time>2026-03-22T09:39:23.635Z</time></trkpt><trkpt lat="42.542689" lon="13.8835012"><ele>306.0</ele><time>2026-03-22T09:39:25.635Z</time></trkpt><trkpt lat="42.5426583" lon="13.8834174"><ele>306.0</ele><time>2026-03-22T09:39:27.635Z</time></trkpt><trkpt lat="42.5426289" lon="13.8833322"><ele>306.0</ele><time>2026-03-22T09:39:29.634Z</time></trkpt><trkpt lat="42.5426003" lon="13.8832465"><ele>305.0</ele><time>2026-03-22T09:39:31.636Z</time></trkpt><trkpt lat="42.5425685" lon="13.8831684"><ele>304.0</ele><time>2026-03-22T09:39:33.636Z</time></trkpt><trkpt lat="42.5425257" lon="13.883056"><ele>303.0</ele><time>2026-03-22T09:39:36.635Z</time></trkpt><trkpt lat="42.5424783" lon="13.8829466"><ele>302.0</ele><time>2026-03-22T09:39:39.636Z</time></trkpt><trkpt lat="42.542444" lon="13.8828744"><ele>301.0</ele><time>2026-03-22T09:39:41.634Z</time></trkpt><trkpt lat="42.5423971" lon="13.8827668"><ele>300.0</ele><time>2026-03-22T09:39:44.635Z</time></trkpt><trkpt lat="42.5424422" lon="13.882678"><ele>299.99999999999994</ele><time>2026-03-22T09:39:47.636Z</time></trkpt><trkpt lat="42.5425045" lon="13.8826476"><ele>300.0</ele><time>2026-03-22T09:39:50.634Z</time></trkpt><trkpt lat="42.5425842" lon="13.8826711"><ele>300.0</ele><time>2026-03-22T09:39:53.634Z</time></trkpt><trkpt lat="42.5426378" lon="13.8827488"><ele>300.0</ele><time>2026-03-22T09:39:56.634Z</time></trkpt><trkpt lat="42.5426707" lon="13.8828245"><ele>300.0</ele><time>2026-03-22T09:39:59.634Z</time></trkpt><trkpt lat="42.5427196" lon="13.8828798"><ele>299.99999999999994</ele><time>2026-03-22T09:40:02.634Z</time></trkpt><trkpt lat="42.5427689" lon="13.8829457"><ele>300.0</ele><time>2026-03-22T09:40:05.633Z</time></trkpt><trkpt lat="42.5428235" lon="13.8830249"><ele>299.99999999999994</ele><time>2026-03-22T09:40:09.634Z</time></trkpt><trkpt lat="42.542874" lon="13.8831031"><ele>300.0</ele><time>2026-03-22T09:40:13.635Z</time></trkpt><trkpt lat="42.5429252" lon="13.8831838"><ele>300.0</ele><time>2026-03-22T09:40:18.634Z</time></trkpt><trkpt lat="42.5429723" lon="13.8832527"><ele>300.0</ele><time>2026-03-22T09:40:22.634Z</time></trkpt><trkpt lat="42.5430252" lon="13.8833291"><ele>300.0</ele><time>2026-03-22T09:40:26.635Z</time></trkpt><trkpt lat="42.5430894" lon="13.8833744"><ele>299.99999999999994</ele><time>2026-03-22T09:40:30.634Z</time></trkpt><trkpt lat="42.5431458" lon="13.8834156"><ele>300.0</ele><time>2026-03-22T09:40:34.634Z</time></trkpt><trkpt lat="42.5432269" lon="13.883441"><ele>303.6666666666667</ele><time>2026-03-22T09:40:38.635Z</time></trkpt><trkpt lat="42.5432891" lon="13.8834677"><ele>307.3333333333333</ele><time>2026-03-22T09:40:41.634Z</time></trkpt><trkpt lat="42.5433522" lon="13.8834596"><ele>311.0</ele><time>2026-03-22T09:40:46.635Z</time></trkpt><trkpt lat="42.5432918" lon="13.8834886"><ele>314.66666666666663</ele><time>2026-03-22T09:40:50.634Z</time></trkpt><trkpt lat="42.5432373" lon="13.8834401"><ele>318.3333333333333</ele><time>2026-03-22T09:40:52.634Z</time></trkpt><trkpt lat="42.5431444" lon="13.8834158"><ele>322.0</ele><time>2026-03-22T09:40:54.633Z</time></trkpt><trkpt lat="42.5430378" lon="13.8833337"><ele>322.0</ele><time>2026-03-22T09:40:56.634Z</time></trkpt><trkpt lat="42.542981" lon="13.8832707"><ele>322.0</ele><time>2026-03-22T09:40:57.634Z</time></trkpt><trkpt lat="42.5429288" lon="13.8831985"><ele>322.0</ele><time>2026-03-22T09:40:58.634Z</time></trkpt><trkpt lat="42.542884" lon="13.8831317"><ele>322.0</ele><time>2026-03-22T09:40:59.634Z</time></trkpt><trkpt lat="42.542837" lon="13.8830579"><ele>322.0</ele><time>2026-03-22T09:41:00.634Z</time></trkpt><trkpt lat="42.5427913" lon="13.8829912"><ele>322.0</ele><time>2026-03-22T09:41:01.634Z</time></trkpt><trkpt lat="42.5427556" lon="13.8829183"><ele>322.0</ele><time>2026-03-22T09:41:02.634Z</time></trkpt><trkpt lat="42.5427144" lon="13.8828509"><ele>317.6</ele><time>2026-03-22T09:41:03.635Z</time></trkpt><trkpt lat="42.542637" lon="13.8827348"><ele>313.20000000000005</ele><time>2026-03-22T09:41:05.635Z</time></trkpt><trkpt lat="42.5425758" lon="13.8826485"><ele>308.8</ele><time>2026-03-22T09:41:07.634Z</time></trkpt><trkpt lat="42.5425017" lon="13.8826326"><ele>304.4</ele><time>2026-03-22T09:41:09.635Z</time></trkpt><trkpt lat="42.5425354" lon="13.8827461"><ele>300.0</ele><time>2026-03-22T09:41:11.634Z</time></trkpt><trkpt lat="42.5425738" lon="13.8828608"><ele>300.0</ele><time>2026-03-22T09:41:14.635Z</time></trkpt><trkpt lat="42.542619" lon="13.8829638"><ele>300.0</ele><time>2026-03-22T09:41:17.634Z</time></trkpt><trkpt lat="42.5426589" lon="13.8830673"><ele>300.0</ele><time>2026-03-22T09:41:20.634Z</time></trkpt><trkpt lat="42.5427082" lon="13.883168"><ele>300.0</ele><time>2026-03-22T09:41:23.635Z</time></trkpt><trkpt lat="42.542744" lon="13.8832422"><ele>300.0</ele><time>2026-03-22T09:41:25.634Z</time></trkpt><trkpt lat="42.5427784" lon="13.8833149"><ele>300.0</ele><time>2026-03-22T09:41:27.633Z</time></trkpt><trkpt lat="42.5428266" lon="13.8834226"><ele>301.0</ele><time>2026-03-22T09:41:30.634Z</time></trkpt><trkpt lat="42.5428545" lon="13.8835003"><ele>302.0</ele><time>2026-03-22T09:41:32.635Z</time></trkpt><trkpt lat="42.5428898" lon="13.8836112"><ele>303.0</ele><time>2026-03-22T09:41:35.633Z</time></trkpt><trkpt lat="42.5429154" lon="13.8837169"><ele>304.0</ele><time>2026-03-22T09:41:38.635Z</time></trkpt><trkpt lat="42.5429418" lon="13.8838179"><ele>305.0</ele><time>2026-03-22T09:41:41.635Z</time></trkpt><trkpt lat="42.5429602" lon="13.8839224"><ele>306.0</ele><time>2026-03-22T09:41:44.634Z</time></trkpt><trkpt lat="42.5429709" lon="13.8840383"><ele>309.1666666666667</ele><time>2026-03-22T09:41:47.634Z</time></trkpt><trkpt lat="42.5429734" lon="13.8841608"><ele>312.3333333333333</ele><time>2026-03-22T09:41:50.634Z</time></trkpt><trkpt lat="42.5429702" lon="13.8842718"><ele>315.5</ele><time>2026-03-22T09:41:53.635Z</time></trkpt><trkpt lat="42.5429477" lon="13.8843817"><ele>318.66666666666663</ele><time>2026-03-22T09:41:56.634Z</time></trkpt><trkpt lat="42.5429015" lon="13.8844786"><ele>321.8333333333333</ele><time>2026-03-22T09:41:59.635Z</time></trkpt><trkpt lat="42.5428425" lon="13.8845578"><ele>325.0</ele><time>2026-03-22T09:42:02.635Z</time></trkpt><trkpt lat="42.5427667" lon="13.884606"><ele>325.0</ele><time>2026-03-22T09:42:05.634Z</time></trkpt><trkpt lat="42.5426894" lon="13.8846288"><ele>325.0</ele><time>2026-03-22T09:42:08.635Z</time></trkpt><trkpt lat="42.542606" lon="13.8846337"><ele>325.0</ele><time>2026-03-22T09:42:11.635Z</time></trkpt><trkpt lat="42.5425301" lon="13.884655"><ele>325.0</ele><time>2026-03-22T09:42:14.634Z</time></trkpt><trkpt lat="42.5424436" lon="13.8846727"><ele>325.0</ele><time>2026-03-22T09:42:17.634Z</time></trkpt><trkpt lat="42.542365" lon="13.884699"><ele>325.0</ele><time>2026-03-22T09:42:20.634Z</time></trkpt><trkpt lat="42.5422862" lon="13.8847505"><ele>325.0</ele><time>2026-03-22T09:42:23.635Z</time></trkpt><trkpt lat="42.5422492" lon="13.88482"><ele>325.0</ele><time>2026-03-22T09:42:25.635Z</time></trkpt><trkpt lat="42.5422551" lon="13.8849206"><ele>325.0</ele><time>2026-03-22T09:42:28.635Z</time></trkpt><trkpt lat="42.5423358" lon="13.884935"><ele>325.0</ele><time>2026-03-22T09:42:31.635Z</time></trkpt><trkpt lat="42.5424007" lon="13.8848898"><ele>325.0</ele><time>2026-03-22T09:42:34.634Z</time></trkpt><trkpt lat="42.5424755" lon="13.8848847"><ele>325.0</ele><time>2026-03-22T09:42:37.634Z</time></trkpt><trkpt lat="42.5425452" lon="13.8848871"><ele>325.0</ele><time>2026-03-22T09:42:40.634Z</time></trkpt><trkpt lat="42.5426278" lon="13.8849007"><ele>325.0</ele><time>2026-03-22T09:42:43.634Z</time></trkpt><trkpt lat="42.5427082" lon="13.8849128"><ele>325.0</ele><time>2026-03-22T09:42:46.634Z</time></trkpt><trkpt lat="42.5427805" lon="13.8849128"><ele>325.0</ele><time>2026-03-22T09:42:49.635Z</time></trkpt><trkpt lat="42.5428535" lon="13.8848976"><ele>325.0</ele><time>2026-03-22T09:42:52.633Z</time></trkpt><trkpt lat="42.5429247" lon="13.8848829"><ele>325.0</ele><time>2026-03-22T09:42:55.634Z</time></trkpt><trkpt lat="42.5430036" lon="13.8848593"><ele>325.0</ele><time>2026-03-22T09:42:59.634Z</time></trkpt><trkpt lat="42.5430747" lon="13.8848277"><ele>329.66666666666663</ele><time>2026-03-22T09:43:03.635Z</time></trkpt><trkpt lat="42.5431376" lon="13.8847682"><ele>334.3333333333333</ele><time>2026-03-22T09:43:07.634Z</time></trkpt><trkpt lat="42.543191" lon="13.8847131"><ele>339.0</ele><time>2026-03-22T09:43:11.635Z</time></trkpt><trkpt lat="42.5432423" lon="13.8846418"><ele>343.6666666666667</ele><time>2026-03-22T09:43:15.634Z</time></trkpt><trkpt lat="42.5432943" lon="13.8845686"><ele>348.33333333333337</ele><time>2026-03-22T09:43:19.635Z</time></trkpt><trkpt lat="42.5433397" lon="13.8844778"><ele>353.0</ele><time>2026-03-22T09:43:23.634Z</time></trkpt><trkpt lat="42.5433726" lon="13.8843782"><ele>353.0</ele><time>2026-03-22T09:43:27.634Z</time></trkpt><trkpt lat="42.5434082" lon="13.8842888"><ele>353.0</ele><time>2026-03-22T09:43:31.634Z</time></trkpt><trkpt lat="42.5434731" lon="13.8842427"><ele>353.0</ele><time>2026-03-22T09:43:36.635Z</time></trkpt><trkpt lat="42.5435473" lon="13.8842013"><ele>353.0</ele><time>2026-03-22T09:43:40.633Z</time></trkpt><trkpt lat="42.5436209" lon="13.8842046"><ele>353.0</ele><time>2026-03-22T09:43:44.634Z</time></trkpt><trkpt lat="42.5436978" lon="13.8841842"><ele>353.0</ele><time>2026-03-22T09:43:48.634Z</time></trkpt><trkpt lat="42.5437748" lon="13.8841899"><ele>355.2857142857143</ele><time>2026-03-22T09:43:52.633Z</time></trkpt><trkpt lat="42.5438545" lon="13.8842046"><ele>357.5714285714286</ele><time>2026-03-22T09:43:56.634Z</time></trkpt><trkpt lat="42.543918" lon="13.8842057"><ele>359.8571428571429</ele><time>2026-03-22T09:44:00.634Z</time></trkpt><trkpt lat="42.5439902" lon="13.8841926"><ele>362.1428571428571</ele><time>2026-03-22T09:44:04.633Z</time></trkpt><trkpt lat="42.5440674" lon="13.8841795"><ele>364.42857142857144</ele><time>2026-03-22T09:44:08.633Z</time></trkpt><trkpt lat="42.5441448" lon="13.8841629"><ele>366.7142857142857</ele><time>2026-03-22T09:44:11.634Z</time></trkpt><trkpt lat="42.5441987" lon="13.8841166"><ele>369.0</ele><time>2026-03-22T09:44:15.633Z</time></trkpt><trkpt lat="42.544257" lon="13.8840808"><ele>369.0</ele><time>2026-03-22T09:44:21.634Z</time></trkpt><trkpt lat="42.5442635" lon="13.884168"><ele>369.0</ele><time>2026-03-22T09:44:31.634Z</time></trkpt><trkpt lat="42.5442045" lon="13.8842216"><ele>369.0</ele><time>2026-03-22T09:44:34.634Z</time></trkpt><trkpt lat="42.5441502" lon="13.8842693"><ele>369.0</ele><time>2026-03-22T09:44:37.634Z</time></trkpt><trkpt lat="42.5440985" lon="13.8843272"><ele>369.0</ele><time>2026-03-22T09:44:40.634Z</time></trkpt><trkpt lat="42.5440482" lon="13.8844116"><ele>369.0</ele><time>2026-03-22T09:44:44.634Z</time></trkpt><trkpt lat="42.5439854" lon="13.884468"><ele>369.0</ele><time>2026-03-22T09:44:48.634Z</time></trkpt><trkpt lat="42.5439205" lon="13.8844475"><ele>370.3333333333333</ele><time>2026-03-22T09:44:53.633Z</time></trkpt><trkpt lat="42.5439609" lon="13.8845503"><ele>371.6666666666667</ele><time>2026-03-22T09:44:59.634Z</time></trkpt><trkpt lat="42.5440086" lon="13.8846092"><ele>373.0</ele><time>2026-03-22T09:45:04.633Z</time></trkpt><trkpt lat="42.5440284" lon="13.8847178"><ele>374.33333333333337</ele><time>2026-03-22T09:45:12.633Z</time></trkpt><trkpt lat="42.5440742" lon="13.8848064"><ele>375.6666666666667</ele><time>2026-03-22T09:45:15.633Z</time></trkpt><trkpt lat="42.5441039" lon="13.8849222"><ele>377.0</ele><time>2026-03-22T09:45:38.633Z</time></trkpt><trkpt lat="42.5440398" lon="13.8849929"><ele>376.99999999999994</ele><time>2026-03-22T09:45:42.633Z</time></trkpt><trkpt lat="42.5439776" lon="13.8850161"><ele>377.0</ele><time>2026-03-22T09:45:50.634Z</time></trkpt><trkpt lat="42.5439183" lon="13.8850464"><ele>377.0</ele><time>2026-03-22T09:45:56.633Z</time></trkpt><trkpt lat="42.5438682" lon="13.8851132"><ele>377.0</ele><time>2026-03-22T09:46:09.633Z</time></trkpt><trkpt lat="42.5438037" lon="13.8850836"><ele>377.0</ele><time>2026-03-22T09:46:14.633Z</time></trkpt><trkpt lat="42.5438674" lon="13.8850709"><ele>376.99999999999994</ele><time>2026-03-22T09:46:47.633Z</time></trkpt><trkpt lat="42.5439013" lon="13.884992"><ele>377.0</ele><time>2026-03-22T09:47:03.633Z</time></trkpt><trkpt lat="42.5439627" lon="13.8850121"><ele>377.0</ele><time>2026-03-22T09:47:16.634Z</time></trkpt><trkpt lat="42.5440272" lon="13.885006"><ele>377.0</ele><time>2026-03-22T09:47:23.633Z</time></trkpt><trkpt lat="42.5440954" lon="13.8848929"><ele>377.0</ele><time>2026-03-22T09:47:49.632Z</time></trkpt><trkpt lat="42.5440565" lon="13.8848118"><ele>377.0</ele><time>2026-03-22T09:47:56.633Z</time></trkpt><trkpt lat="42.5439927" lon="13.8847386"><ele>377.0</ele><time>2026-03-22T09:48:00.632Z</time></trkpt><trkpt lat="42.5439637" lon="13.8846542"><ele>377.0</ele><time>2026-03-22T09:48:04.633Z</time></trkpt><trkpt lat="42.5439493" lon="13.8845651"><ele>377.0</ele><time>2026-03-22T09:48:09.633Z</time></trkpt><trkpt lat="42.5439075" lon="13.8844741"><ele>377.0</ele><time>2026-03-22T09:48:13.632Z</time></trkpt><trkpt lat="42.5439236" lon="13.8843798"><ele>377.0</ele><time>2026-03-22T09:48:15.632Z</time></trkpt><trkpt lat="42.5439821" lon="13.8842915"><ele>377.0</ele><time>2026-03-22T09:48:17.633Z</time></trkpt><trkpt lat="42.5440501" lon="13.8842401"><ele>377.0</ele><time>2026-03-22T09:48:19.633Z</time></trkpt><trkpt lat="42.5441422" lon="13.8842164"><ele>377.0</ele><time>2026-03-22T09:48:21.633Z</time></trkpt><trkpt lat="42.5442604" lon="13.8841946"><ele>375.6666666666667</ele><time>2026-03-22T09:48:23.633Z</time></trkpt><trkpt lat="42.5443303" lon="13.8841353"><ele>374.33333333333337</ele><time>2026-03-22T09:48:25.632Z</time></trkpt><trkpt lat="42.5444118" lon="13.8840758"><ele>373.0</ele><time>2026-03-22T09:48:27.632Z</time></trkpt><trkpt lat="42.5444846" lon="13.8840385"><ele>371.6666666666667</ele><time>2026-03-22T09:48:29.632Z</time></trkpt><trkpt lat="42.5445509" lon="13.8840851"><ele>370.3333333333333</ele><time>2026-03-22T09:48:31.632Z</time></trkpt><trkpt lat="42.5446116" lon="13.8841164"><ele>369.0</ele><time>2026-03-22T09:48:33.632Z</time></trkpt><trkpt lat="42.5446649" lon="13.8841783"><ele>367.8333333333333</ele><time>2026-03-22T09:48:35.632Z</time></trkpt><trkpt lat="42.5447246" lon="13.8842449"><ele>366.6666666666667</ele><time>2026-03-22T09:48:37.632Z</time></trkpt><trkpt lat="42.544779" lon="13.8843107"><ele>365.5</ele><time>2026-03-22T09:48:39.632Z</time></trkpt><trkpt lat="42.544841" lon="13.8843595"><ele>364.33333333333337</ele><time>2026-03-22T09:48:41.633Z</time></trkpt><trkpt lat="42.5449214" lon="13.8843967"><ele>363.1666666666667</ele><time>2026-03-22T09:48:43.632Z</time></trkpt><trkpt lat="42.5450163" lon="13.8844283"><ele>362.0</ele><time>2026-03-22T09:48:45.632Z</time></trkpt><trkpt lat="42.5451254" lon="13.8844432"><ele>361.40000000000003</ele><time>2026-03-22T09:48:47.633Z</time></trkpt><trkpt lat="42.5452474" lon="13.8844547"><ele>360.8</ele><time>2026-03-22T09:48:49.631Z</time></trkpt><trkpt lat="42.5453719" lon="13.8844735"><ele>360.2</ele><time>2026-03-22T09:48:51.632Z</time></trkpt><trkpt lat="42.5454477" lon="13.8844756"><ele>359.6</ele><time>2026-03-22T09:48:52.633Z</time></trkpt><trkpt lat="42.5455734" lon="13.8844701"><ele>359.0</ele><time>2026-03-22T09:48:54.633Z</time></trkpt><trkpt lat="42.5456789" lon="13.8844872"><ele>359.0</ele><time>2026-03-22T09:48:56.632Z</time></trkpt><trkpt lat="42.5457778" lon="13.8845853"><ele>359.0</ele><time>2026-03-22T09:48:58.632Z</time></trkpt><trkpt lat="42.5458047" lon="13.884671"><ele>359.0</ele><time>2026-03-22T09:48:59.633Z</time></trkpt><trkpt lat="42.5458274" lon="13.8847604"><ele>359.0</ele><time>2026-03-22T09:49:00.633Z</time></trkpt><trkpt lat="42.5458424" lon="13.8848564"><ele>359.0</ele><time>2026-03-22T09:49:01.633Z</time></trkpt><trkpt lat="42.5458513" lon="13.8849603"><ele>359.0</ele><time>2026-03-22T09:49:02.632Z</time></trkpt><trkpt lat="42.5458554" lon="13.8850628"><ele>358.0</ele><time>2026-03-22T09:49:03.633Z</time></trkpt><trkpt lat="42.5458673" lon="13.8851671"><ele>357.0</ele><time>2026-03-22T09:49:04.632Z</time></trkpt><trkpt lat="42.5458815" lon="13.8852705"><ele>356.0</ele><time>2026-03-22T09:49:05.631Z</time></trkpt><trkpt lat="42.5458864" lon="13.8853759"><ele>355.0</ele><time>2026-03-22T09:49:06.633Z</time></trkpt><trkpt lat="42.5458751" lon="13.8854883"><ele>354.0</ele><time>2026-03-22T09:49:07.632Z</time></trkpt><trkpt lat="42.5458604" lon="13.8855947"><ele>353.0</ele><time>2026-03-22T09:49:08.632Z</time></trkpt><trkpt lat="42.5458462" lon="13.8857048"><ele>353.0</ele><time>2026-03-22T09:49:09.633Z</time></trkpt><trkpt lat="42.545824" lon="13.8858128"><ele>353.0</ele><time>2026-03-22T09:49:10.632Z</time></trkpt><trkpt lat="42.5457947" lon="13.8859194"><ele>353.0</ele><time>2026-03-22T09:49:11.632Z</time></trkpt><trkpt lat="42.5457735" lon="13.8860268"><ele>353.0</ele><time>2026-03-22T09:49:12.632Z</time></trkpt><trkpt lat="42.5457547" lon="13.8861398"><ele>353.0</ele><time>2026-03-22T09:49:13.632Z</time></trkpt><trkpt lat="42.5457394" lon="13.8862536"><ele>353.0</ele><time>2026-03-22T09:49:14.632Z</time></trkpt><trkpt lat="42.5457212" lon="13.8863683"><ele>351.79999999999995</ele><time>2026-03-22T09:49:15.633Z</time></trkpt><trkpt lat="42.545685" lon="13.8864795"><ele>350.6</ele><time>2026-03-22T09:49:16.632Z</time></trkpt><trkpt lat="42.5456164" lon="13.8865671"><ele>349.4</ele><time>2026-03-22T09:49:17.633Z</time></trkpt><trkpt lat="42.5455319" lon="13.8866046"><ele>348.20000000000005</ele><time>2026-03-22T09:49:18.633Z</time></trkpt><trkpt lat="42.5454432" lon="13.8865842"><ele>347.0</ele><time>2026-03-22T09:49:19.633Z</time></trkpt><trkpt lat="42.5453602" lon="13.8865446"><ele>347.0</ele><time>2026-03-22T09:49:20.632Z</time></trkpt><trkpt lat="42.5452796" lon="13.8865045"><ele>347.0</ele><time>2026-03-22T09:49:21.633Z</time></trkpt><trkpt lat="42.5452119" lon="13.8864597"><ele>347.0</ele><time>2026-03-22T09:49:22.632Z</time></trkpt><trkpt lat="42.545138" lon="13.8864193"><ele>347.0</ele><time>2026-03-22T09:49:23.633Z</time></trkpt><trkpt lat="42.5450662" lon="13.8863718"><ele>347.0</ele><time>2026-03-22T09:49:24.633Z</time></trkpt><trkpt lat="42.5449936" lon="13.8863246"><ele>347.0</ele><time>2026-03-22T09:49:25.632Z</time></trkpt><trkpt lat="42.5449209" lon="13.8862855"><ele>347.0</ele><time>2026-03-22T09:49:26.632Z</time></trkpt><trkpt lat="42.5448497" lon="13.8862434"><ele>347.0</ele><time>2026-03-22T09:49:27.632Z</time></trkpt><trkpt lat="42.5447824" lon="13.8862025"><ele>347.0</ele><time>2026-03-22T09:49:28.632Z</time></trkpt><trkpt lat="42.5447166" lon="13.8861767"><ele>347.0</ele><time>2026-03-22T09:49:29.633Z</time></trkpt><trkpt lat="42.5445927" lon="13.8861583"><ele>347.0</ele><time>2026-03-22T09:49:31.633Z</time></trkpt><trkpt lat="42.5444668" lon="13.8861483"><ele>347.0</ele><time>2026-03-22T09:49:33.632Z</time></trkpt><trkpt lat="42.5443918" lon="13.8862202"><ele>347.0</ele><time>2026-03-22T09:49:35.633Z</time></trkpt><trkpt lat="42.5443994" lon="13.8863394"><ele>347.0</ele><time>2026-03-22T09:49:37.631Z</time></trkpt><trkpt lat="42.5444831" lon="13.8864089"><ele>347.0</ele><time>2026-03-22T09:49:39.632Z</time></trkpt><trkpt lat="42.544575" lon="13.8864438"><ele>347.0</ele><time>2026-03-22T09:49:41.633Z</time></trkpt><trkpt lat="42.5446735" lon="13.8864909"><ele>347.0</ele><time>2026-03-22T09:49:43.632Z</time></trkpt><trkpt lat="42.5447694" lon="13.8865386"><ele>347.0</ele><time>2026-03-22T09:49:45.632Z</time></trkpt><trkpt lat="42.5448504" lon="13.8865806"><ele>347.0</ele><time>2026-03-22T09:49:47.632Z</time></trkpt><trkpt lat="42.5449372" lon="13.8866342"><ele>347.0</ele><time>2026-03-22T09:49:49.633Z</time></trkpt><trkpt lat="42.5450274" lon="13.8867048"><ele>347.0</ele><time>2026-03-22T09:49:51.633Z</time></trkpt><trkpt lat="42.5451171" lon="13.8867723"><ele>342.25</ele><time>2026-03-22T09:49:53.633Z</time></trkpt><trkpt lat="42.545209" lon="13.8868576"><ele>337.5</ele><time>2026-03-22T09:49:55.633Z</time></trkpt><trkpt lat="42.5452955" lon="13.8869598"><ele>332.75</ele><time>2026-03-22T09:49:57.631Z</time></trkpt><trkpt lat="42.5453827" lon="13.8870723"><ele>328.0</ele><time>2026-03-22T09:49:59.632Z</time></trkpt><trkpt lat="42.5454856" lon="13.8871651"><ele>327.99999999999994</ele><time>2026-03-22T09:50:01.633Z</time></trkpt><trkpt lat="42.5455437" lon="13.8872063"><ele>328.0</ele><time>2026-03-22T09:50:02.632Z</time></trkpt><trkpt lat="42.5456031" lon="13.8872451"><ele>328.0</ele><time>2026-03-22T09:50:03.633Z</time></trkpt><trkpt lat="42.5456654" lon="13.8872724"><ele>328.0</ele><time>2026-03-22T09:50:04.632Z</time></trkpt><trkpt lat="42.5457293" lon="13.887286"><ele>328.0</ele><time>2026-03-22T09:50:05.632Z</time></trkpt><trkpt lat="42.5457925" lon="13.8872866"><ele>327.99999999999994</ele><time>2026-03-22T09:50:06.633Z</time></trkpt><trkpt lat="42.5458572" lon="13.8872715"><ele>328.0</ele><time>2026-03-22T09:50:07.632Z</time></trkpt><trkpt lat="42.5459192" lon="13.8872404"><ele>327.99999999999994</ele><time>2026-03-22T09:50:08.633Z</time></trkpt><trkpt lat="42.5459766" lon="13.8871964"><ele>328.0</ele><time>2026-03-22T09:50:09.632Z</time></trkpt><trkpt lat="42.546026" lon="13.8871372"><ele>328.0</ele><time>2026-03-22T09:50:10.633Z</time></trkpt><trkpt lat="42.5460823" lon="13.8870687"><ele>328.0</ele><time>2026-03-22T09:50:11.632Z</time></trkpt><trkpt lat="42.546137" lon="13.8869948"><ele>328.0</ele><time>2026-03-22T09:50:12.633Z</time></trkpt><trkpt lat="42.5461834" lon="13.8869107"><ele>327.99999999999994</ele><time>2026-03-22T09:50:13.632Z</time></trkpt><trkpt lat="42.5462292" lon="13.8868239"><ele>328.0</ele><time>2026-03-22T09:50:14.632Z</time></trkpt><trkpt lat="42.5462764" lon="13.8867357"><ele>328.5</ele><time>2026-03-22T09:50:15.633Z</time></trkpt><trkpt lat="42.5463217" lon="13.8866475"><ele>329.0</ele><time>2026-03-22T09:50:16.633Z</time></trkpt><trkpt lat="42.5463703" lon="13.8865626"><ele>329.5</ele><time>2026-03-22T09:50:17.632Z</time></trkpt><trkpt lat="42.5464219" lon="13.8864768"><ele>330.0</ele><time>2026-03-22T09:50:18.633Z</time></trkpt><trkpt lat="42.5464737" lon="13.8863926"><ele>330.5</ele><time>2026-03-22T09:50:19.633Z</time></trkpt><trkpt lat="42.5465257" lon="13.8863099"><ele>331.0</ele><time>2026-03-22T09:50:20.633Z</time></trkpt><trkpt lat="42.5465803" lon="13.8862277"><ele>331.0</ele><time>2026-03-22T09:50:21.633Z</time></trkpt><trkpt lat="42.5466269" lon="13.8861414"><ele>331.0</ele><time>2026-03-22T09:50:22.633Z</time></trkpt><trkpt lat="42.5466781" lon="13.8860576"><ele>331.0</ele><time>2026-03-22T09:50:23.633Z</time></trkpt><trkpt lat="42.54673" lon="13.8859742"><ele>331.0</ele><time>2026-03-22T09:50:24.633Z</time></trkpt><trkpt lat="42.5467811" lon="13.8858935"><ele>331.0</ele><time>2026-03-22T09:50:25.633Z</time></trkpt><trkpt lat="42.5468304" lon="13.8858078"><ele>331.0</ele><time>2026-03-22T09:50:26.632Z</time></trkpt><trkpt lat="42.5468843" lon="13.8857343"><ele>331.2857142857143</ele><time>2026-03-22T09:50:27.633Z</time></trkpt><trkpt lat="42.5469438" lon="13.8856668"><ele>331.57142857142856</ele><time>2026-03-22T09:50:28.632Z</time></trkpt><trkpt lat="42.5470045" lon="13.8856119"><ele>331.8571428571429</ele><time>2026-03-22T09:50:29.632Z</time></trkpt><trkpt lat="42.5470686" lon="13.8855639"><ele>332.1428571428571</ele><time>2026-03-22T09:50:30.632Z</time></trkpt><trkpt lat="42.547135" lon="13.8855297"><ele>332.4285714285714</ele><time>2026-03-22T09:50:31.633Z</time></trkpt><trkpt lat="42.5471979" lon="13.8854977"><ele>332.7142857142857</ele><time>2026-03-22T09:50:32.632Z</time></trkpt><trkpt lat="42.547259" lon="13.8854675"><ele>333.0</ele><time>2026-03-22T09:50:33.632Z</time></trkpt><trkpt lat="42.5473683" lon="13.885412"><ele>333.0</ele><time>2026-03-22T09:50:35.632Z</time></trkpt><trkpt lat="42.5474606" lon="13.8853751"><ele>333.0</ele><time>2026-03-22T09:50:37.632Z</time></trkpt><trkpt lat="42.5475474" lon="13.8853323"><ele>333.0</ele><time>2026-03-22T09:50:39.633Z</time></trkpt><trkpt lat="42.5476332" lon="13.8852862"><ele>333.0</ele><time>2026-03-22T09:50:41.631Z</time></trkpt><trkpt lat="42.5477111" lon="13.8852322"><ele>333.0</ele><time>2026-03-22T09:50:43.632Z</time></trkpt><trkpt lat="42.5477689" lon="13.8851616"><ele>333.0</ele><time>2026-03-22T09:50:45.633Z</time></trkpt><trkpt lat="42.5478204" lon="13.8850858"><ele>332.6666666666667</ele><time>2026-03-22T09:50:47.633Z</time></trkpt><trkpt lat="42.5478716" lon="13.8849999"><ele>332.3333333333333</ele><time>2026-03-22T09:50:49.633Z</time></trkpt><trkpt lat="42.5479167" lon="13.8849047"><ele>332.0</ele><time>2026-03-22T09:50:51.633Z</time></trkpt><trkpt lat="42.5479551" lon="13.8848078"><ele>331.66666666666663</ele><time>2026-03-22T09:50:53.632Z</time></trkpt><trkpt lat="42.5479876" lon="13.884706"><ele>331.3333333333333</ele><time>2026-03-22T09:50:55.632Z</time></trkpt><trkpt lat="42.5480223" lon="13.88461"><ele>331.0</ele><time>2026-03-22T09:50:57.633Z</time></trkpt><trkpt lat="42.5480576" lon="13.8845204"><ele>332.0</ele><time>2026-03-22T09:50:59.633Z</time></trkpt><trkpt lat="42.5480994" lon="13.8844403"><ele>333.0</ele><time>2026-03-22T09:51:01.632Z</time></trkpt><trkpt lat="42.5481403" lon="13.8843563"><ele>334.0</ele><time>2026-03-22T09:51:03.632Z</time></trkpt><trkpt lat="42.5481884" lon="13.8842817"><ele>335.0</ele><time>2026-03-22T09:51:05.632Z</time></trkpt><trkpt lat="42.5482495" lon="13.8842222"><ele>336.0</ele><time>2026-03-22T09:51:07.632Z</time></trkpt><trkpt lat="42.5483157" lon="13.8841711"><ele>337.0</ele><time>2026-03-22T09:51:09.633Z</time></trkpt><trkpt lat="42.5483869" lon="13.8841349"><ele>338.0</ele><time>2026-03-22T09:51:11.633Z</time></trkpt><trkpt lat="42.5484567" lon="13.8841143"><ele>338.0</ele><time>2026-03-22T09:51:13.633Z</time></trkpt><trkpt lat="42.5485247" lon="13.8840962"><ele>338.0</ele><time>2026-03-22T09:51:15.632Z</time></trkpt><trkpt lat="42.5485947" lon="13.8840784"><ele>338.0</ele><time>2026-03-22T09:51:17.633Z</time></trkpt><trkpt lat="42.5486646" lon="13.8840655"><ele>338.0</ele><time>2026-03-22T09:51:19.632Z</time></trkpt><trkpt lat="42.5487347" lon="13.8840541"><ele>338.0</ele><time>2026-03-22T09:51:21.632Z</time></trkpt><trkpt lat="42.5488068" lon="13.8840491"><ele>338.0</ele><time>2026-03-22T09:51:23.633Z</time></trkpt><trkpt lat="42.548879" lon="13.8840345"><ele>338.0</ele><time>2026-03-22T09:51:25.632Z</time></trkpt><trkpt lat="42.548948" lon="13.8840282"><ele>339.57142857142856</ele><time>2026-03-22T09:51:27.633Z</time></trkpt><trkpt lat="42.5490154" lon="13.8840259"><ele>341.1428571428571</ele><time>2026-03-22T09:51:29.633Z</time></trkpt><trkpt lat="42.5490844" lon="13.8840242"><ele>342.71428571428567</ele><time>2026-03-22T09:51:31.631Z</time></trkpt><trkpt lat="42.5491554" lon="13.8840177"><ele>344.2857142857143</ele><time>2026-03-22T09:51:33.632Z</time></trkpt><trkpt lat="42.5492265" lon="13.8840181"><ele>345.85714285714283</ele><time>2026-03-22T09:51:35.632Z</time></trkpt><trkpt lat="42.549293" lon="13.8840099"><ele>347.4285714285714</ele><time>2026-03-22T09:51:37.633Z</time></trkpt><trkpt lat="42.5493578" lon="13.883983"><ele>349.0</ele><time>2026-03-22T09:51:39.633Z</time></trkpt><trkpt lat="42.5494238" lon="13.8839406"><ele>348.99999999999994</ele><time>2026-03-22T09:51:41.633Z</time></trkpt><trkpt lat="42.5494818" lon="13.8838749"><ele>349.0</ele><time>2026-03-22T09:51:43.632Z</time></trkpt><trkpt lat="42.5495286" lon="13.8838016"><ele>349.0</ele><time>2026-03-22T09:51:45.632Z</time></trkpt><trkpt lat="42.5495598" lon="13.8837153"><ele>349.0</ele><time>2026-03-22T09:51:47.632Z</time></trkpt><trkpt lat="42.5495742" lon="13.8836161"><ele>349.0</ele><time>2026-03-22T09:51:49.632Z</time></trkpt><trkpt lat="42.5495724" lon="13.8835104"><ele>348.99999999999994</ele><time>2026-03-22T09:51:51.633Z</time></trkpt><trkpt lat="42.5495625" lon="13.8834077"><ele>349.0</ele><time>2026-03-22T09:51:53.632Z</time></trkpt><trkpt lat="42.5495464" lon="13.8833022"><ele>346.8333333333333</ele><time>2026-03-22T09:51:55.633Z</time></trkpt><trkpt lat="42.5495377" lon="13.8831899"><ele>344.66666666666663</ele><time>2026-03-22T09:51:57.631Z</time></trkpt><trkpt lat="42.5495316" lon="13.8830786"><ele>342.5</ele><time>2026-03-22T09:51:59.631Z</time></trkpt><trkpt lat="42.5495267" lon="13.8829725"><ele>340.3333333333333</ele><time>2026-03-22T09:52:01.632Z</time></trkpt><trkpt lat="42.5495219" lon="13.882864"><ele>338.1666666666667</ele><time>2026-03-22T09:52:03.632Z</time></trkpt><trkpt lat="42.5495251" lon="13.8827626"><ele>336.0</ele><time>2026-03-22T09:52:05.632Z</time></trkpt><trkpt lat="42.549531" lon="13.8826634"><ele>336.1666666666667</ele><time>2026-03-22T09:52:07.632Z</time></trkpt><trkpt lat="42.5495364" lon="13.8825648"><ele>336.3333333333333</ele><time>2026-03-22T09:52:09.631Z</time></trkpt><trkpt lat="42.549542" lon="13.8824718"><ele>336.5</ele><time>2026-03-22T09:52:11.632Z</time></trkpt><trkpt lat="42.549547" lon="13.8823823"><ele>336.66666666666663</ele><time>2026-03-22T09:52:13.631Z</time></trkpt><trkpt lat="42.5495592" lon="13.8822533"><ele>336.8333333333333</ele><time>2026-03-22T09:52:16.631Z</time></trkpt><trkpt lat="42.549586" lon="13.8821561"><ele>337.0</ele><time>2026-03-22T09:52:18.632Z</time></trkpt><trkpt lat="42.5496235" lon="13.8820663"><ele>340.28571428571433</ele><time>2026-03-22T09:52:20.631Z</time></trkpt><trkpt lat="42.5496615" lon="13.8819934"><ele>343.57142857142856</ele><time>2026-03-22T09:52:22.631Z</time></trkpt><trkpt lat="42.5497099" lon="13.8819357"><ele>346.8571428571429</ele><time>2026-03-22T09:52:24.632Z</time></trkpt><trkpt lat="42.5497723" lon="13.8818872"><ele>350.14285714285717</ele><time>2026-03-22T09:52:26.631Z</time></trkpt><trkpt lat="42.5498416" lon="13.8818548"><ele>353.42857142857144</ele><time>2026-03-22T09:52:28.632Z</time></trkpt><trkpt lat="42.5499116" lon="13.8818379"><ele>356.7142857142857</ele><time>2026-03-22T09:52:30.631Z</time></trkpt><trkpt lat="42.5499803" lon="13.8818399"><ele>360.0</ele><time>2026-03-22T09:52:32.631Z</time></trkpt><trkpt lat="42.550053" lon="13.8818451"><ele>360.0</ele><time>2026-03-22T09:52:34.631Z</time></trkpt><trkpt lat="42.5501216" lon="13.8818774"><ele>360.0</ele><time>2026-03-22T09:52:36.631Z</time></trkpt><trkpt lat="42.5501849" lon="13.8819106"><ele>360.0</ele><time>2026-03-22T09:52:38.632Z</time></trkpt><trkpt lat="42.5502455" lon="13.8819449"><ele>360.0</ele><time>2026-03-22T09:52:40.631Z</time></trkpt><trkpt lat="42.5503072" lon="13.8819803"><ele>360.0</ele><time>2026-03-22T09:52:42.632Z</time></trkpt><trkpt lat="42.550369" lon="13.882013"><ele>360.0</ele><time>2026-03-22T09:52:44.63Z</time></trkpt><trkpt lat="42.5504334" lon="13.8820449"><ele>360.0</ele><time>2026-03-22T09:52:46.631Z</time></trkpt><trkpt lat="42.550501" lon="13.882077"><ele>360.4285714285714</ele><time>2026-03-22T09:52:48.631Z</time></trkpt><trkpt lat="42.5505655" lon="13.882112"><ele>360.8571428571429</ele><time>2026-03-22T09:52:50.632Z</time></trkpt><trkpt lat="42.5506269" lon="13.8821427"><ele>361.2857142857143</ele><time>2026-03-22T09:52:52.631Z</time></trkpt><trkpt lat="42.550687" lon="13.8821742"><ele>361.71428571428567</ele><time>2026-03-22T09:52:54.632Z</time></trkpt><trkpt lat="42.5507502" lon="13.882208"><ele>362.1428571428571</ele><time>2026-03-22T09:52:56.631Z</time></trkpt><trkpt lat="42.5508128" lon="13.8822395"><ele>362.57142857142856</ele><time>2026-03-22T09:52:58.632Z</time></trkpt><trkpt lat="42.550874" lon="13.8822719"><ele>363.0</ele><time>2026-03-22T09:53:00.631Z</time></trkpt><trkpt lat="42.5509338" lon="13.8823061"><ele>362.99999999999994</ele><time>2026-03-22T09:53:02.632Z</time></trkpt><trkpt lat="42.5509922" lon="13.8823419"><ele>363.0</ele><time>2026-03-22T09:53:04.632Z</time></trkpt><trkpt lat="42.5510482" lon="13.8823814"><ele>363.0</ele><time>2026-03-22T09:53:06.631Z</time></trkpt><trkpt lat="42.5511049" lon="13.8824268"><ele>363.0</ele><time>2026-03-22T09:53:08.632Z</time></trkpt><trkpt lat="42.5511655" lon="13.8824751"><ele>363.0</ele><time>2026-03-22T09:53:10.631Z</time></trkpt><trkpt lat="42.5512252" lon="13.8825297"><ele>362.99999999999994</ele><time>2026-03-22T09:53:12.632Z</time></trkpt><trkpt lat="42.5512864" lon="13.8825956"><ele>363.0</ele><time>2026-03-22T09:53:14.631Z</time></trkpt><trkpt lat="42.5513542" lon="13.8826831"><ele>362.6666666666667</ele><time>2026-03-22T09:53:16.632Z</time></trkpt><trkpt lat="42.5514041" lon="13.8827639"><ele>362.3333333333333</ele><time>2026-03-22T09:53:18.632Z</time></trkpt><trkpt lat="42.5514401" lon="13.8828433"><ele>362.0</ele><time>2026-03-22T09:53:20.632Z</time></trkpt><trkpt lat="42.5514701" lon="13.8829268"><ele>361.66666666666663</ele><time>2026-03-22T09:53:22.631Z</time></trkpt><trkpt lat="42.5515012" lon="13.8830455"><ele>361.3333333333333</ele><time>2026-03-22T09:53:25.632Z</time></trkpt><trkpt lat="42.551529" lon="13.8831388"><ele>361.0</ele><time>2026-03-22T09:53:27.632Z</time></trkpt><trkpt lat="42.5515479" lon="13.8832348"><ele>361.0</ele><time>2026-03-22T09:53:29.631Z</time></trkpt><trkpt lat="42.5515627" lon="13.8833314"><ele>361.0</ele><time>2026-03-22T09:53:31.632Z</time></trkpt><trkpt lat="42.5515805" lon="13.8834303"><ele>361.0</ele><time>2026-03-22T09:53:33.632Z</time></trkpt><trkpt lat="42.5515997" lon="13.883525"><ele>361.0</ele><time>2026-03-22T09:53:35.631Z</time></trkpt><trkpt lat="42.5516185" lon="13.8836207"><ele>361.0</ele><time>2026-03-22T09:53:37.631Z</time></trkpt><trkpt lat="42.5516374" lon="13.8837203"><ele>361.0</ele><time>2026-03-22T09:53:39.631Z</time></trkpt><trkpt lat="42.5516575" lon="13.883826"><ele>361.0</ele><time>2026-03-22T09:53:41.631Z</time></trkpt><trkpt lat="42.5516784" lon="13.8839233"><ele>361.7142857142857</ele><time>2026-03-22T09:53:43.632Z</time></trkpt><trkpt lat="42.5516923" lon="13.8840172"><ele>362.4285714285714</ele><time>2026-03-22T09:53:45.632Z</time></trkpt><trkpt lat="42.5517068" lon="13.8841131"><ele>363.1428571428571</ele><time>2026-03-22T09:53:47.632Z</time></trkpt><trkpt lat="42.551728" lon="13.8842107"><ele>363.8571428571429</ele><time>2026-03-22T09:53:49.632Z</time></trkpt><trkpt lat="42.5517512" lon="13.8843055"><ele>364.57142857142856</ele><time>2026-03-22T09:53:51.631Z</time></trkpt><trkpt lat="42.5517785" lon="13.8843988"><ele>365.2857142857143</ele><time>2026-03-22T09:53:53.632Z</time></trkpt><trkpt lat="42.5518078" lon="13.8844908"><ele>366.0</ele><time>2026-03-22T09:53:55.63Z</time></trkpt><trkpt lat="42.5518378" lon="13.8845843"><ele>365.14285714285717</ele><time>2026-03-22T09:53:57.631Z</time></trkpt><trkpt lat="42.5518699" lon="13.8846747"><ele>364.28571428571433</ele><time>2026-03-22T09:53:59.631Z</time></trkpt><trkpt lat="42.5519033" lon="13.8847627"><ele>363.42857142857144</ele><time>2026-03-22T09:54:01.632Z</time></trkpt><trkpt lat="42.5519357" lon="13.8848514"><ele>362.57142857142856</ele><time>2026-03-22T09:54:03.632Z</time></trkpt><trkpt lat="42.5519713" lon="13.8849409"><ele>361.7142857142857</ele><time>2026-03-22T09:54:05.631Z</time></trkpt><trkpt lat="42.5520008" lon="13.8850337"><ele>360.85714285714283</ele><time>2026-03-22T09:54:07.631Z</time></trkpt><trkpt lat="42.5520285" lon="13.8851236"><ele>360.0</ele><time>2026-03-22T09:54:09.632Z</time></trkpt><trkpt lat="42.552059" lon="13.885209"><ele>360.0</ele><time>2026-03-22T09:54:11.632Z</time></trkpt><trkpt lat="42.5520937" lon="13.8852947"><ele>360.0</ele><time>2026-03-22T09:54:13.632Z</time></trkpt><trkpt lat="42.5521285" lon="13.8853864"><ele>360.0</ele><time>2026-03-22T09:54:15.632Z</time></trkpt><trkpt lat="42.5521595" lon="13.8854822"><ele>360.0</ele><time>2026-03-22T09:54:17.632Z</time></trkpt><trkpt lat="42.5521928" lon="13.8855718"><ele>360.0</ele><time>2026-03-22T09:54:19.631Z</time></trkpt><trkpt lat="42.5522292" lon="13.8856619"><ele>360.0</ele><time>2026-03-22T09:54:21.631Z</time></trkpt><trkpt lat="42.5522589" lon="13.8857578"><ele>360.0</ele><time>2026-03-22T09:54:23.631Z</time></trkpt><trkpt lat="42.552294" lon="13.8858491"><ele>360.0</ele><time>2026-03-22T09:54:25.632Z</time></trkpt><trkpt lat="42.5523236" lon="13.8859422"><ele>360.0</ele><time>2026-03-22T09:54:27.631Z</time></trkpt><trkpt lat="42.5523521" lon="13.8860349"><ele>360.0</ele><time>2026-03-22T09:54:29.631Z</time></trkpt><trkpt lat="42.5523864" lon="13.8861258"><ele>360.0</ele><time>2026-03-22T09:54:31.632Z</time></trkpt><trkpt lat="42.5524194" lon="13.8862146"><ele>360.0</ele><time>2026-03-22T09:54:33.632Z</time></trkpt><trkpt lat="42.5524516" lon="13.886298"><ele>360.0</ele><time>2026-03-22T09:54:35.632Z</time></trkpt><trkpt lat="42.552483" lon="13.8863762"><ele>361.8333333333333</ele><time>2026-03-22T09:54:37.632Z</time></trkpt><trkpt lat="42.5525186" lon="13.8864603"><ele>363.6666666666667</ele><time>2026-03-22T09:54:39.632Z</time></trkpt><trkpt lat="42.5525549" lon="13.886545"><ele>365.5</ele><time>2026-03-22T09:54:41.631Z</time></trkpt><trkpt lat="42.5525931" lon="13.8866382"><ele>367.33333333333337</ele><time>2026-03-22T09:54:43.631Z</time></trkpt><trkpt lat="42.552642" lon="13.8867411"><ele>369.1666666666667</ele><time>2026-03-22T09:54:45.632Z</time></trkpt><trkpt lat="42.552691" lon="13.8868456"><ele>371.0</ele><time>2026-03-22T09:54:47.631Z</time></trkpt><trkpt lat="42.5527413" lon="13.8869409"><ele>370.6666666666667</ele><time>2026-03-22T09:54:49.631Z</time></trkpt><trkpt lat="42.5527871" lon="13.8870336"><ele>370.33333333333337</ele><time>2026-03-22T09:54:51.632Z</time></trkpt><trkpt lat="42.5528295" lon="13.8871307"><ele>370.0</ele><time>2026-03-22T09:54:53.631Z</time></trkpt><trkpt lat="42.5528755" lon="13.8872234"><ele>369.6666666666667</ele><time>2026-03-22T09:54:55.632Z</time></trkpt><trkpt lat="42.5529187" lon="13.8873082"><ele>369.3333333333333</ele><time>2026-03-22T09:54:57.63Z</time></trkpt><trkpt lat="42.552959" lon="13.887393"><ele>369.0</ele><time>2026-03-22T09:54:59.631Z</time></trkpt><trkpt lat="42.552997" lon="13.8874776"><ele>369.0</ele><time>2026-03-22T09:55:01.632Z</time></trkpt><trkpt lat="42.5530324" lon="13.8875597"><ele>369.0</ele><time>2026-03-22T09:55:03.632Z</time></trkpt><trkpt lat="42.5530731" lon="13.8876413"><ele>369.0</ele><time>2026-03-22T09:55:05.63Z</time></trkpt><trkpt lat="42.5531176" lon="13.8877193"><ele>369.0</ele><time>2026-03-22T09:55:07.63Z</time></trkpt><trkpt lat="42.5531737" lon="13.8877858"><ele>369.0</ele><time>2026-03-22T09:55:09.632Z</time></trkpt><trkpt lat="42.5532383" lon="13.8878374"><ele>369.0</ele><time>2026-03-22T09:55:11.631Z</time></trkpt><trkpt lat="42.5533108" lon="13.8878673"><ele>369.0</ele><time>2026-03-22T09:55:13.631Z</time></trkpt><trkpt lat="42.5533938" lon="13.887869"><ele>368.0</ele><time>2026-03-22T09:55:15.631Z</time></trkpt><trkpt lat="42.5534781" lon="13.8878684"><ele>367.0</ele><time>2026-03-22T09:55:17.631Z</time></trkpt><trkpt lat="42.5535628" lon="13.8878604"><ele>366.0</ele><time>2026-03-22T09:55:19.632Z</time></trkpt><trkpt lat="42.5536474" lon="13.8878587"><ele>365.0</ele><time>2026-03-22T09:55:21.632Z</time></trkpt><trkpt lat="42.5537416" lon="13.887856"><ele>364.0</ele><time>2026-03-22T09:55:23.631Z</time></trkpt><trkpt lat="42.5538297" lon="13.8878428"><ele>363.0</ele><time>2026-03-22T09:55:25.632Z</time></trkpt><trkpt lat="42.5539203" lon="13.8878442"><ele>362.8333333333333</ele><time>2026-03-22T09:55:27.631Z</time></trkpt><trkpt lat="42.5540001" lon="13.8878532"><ele>362.6666666666667</ele><time>2026-03-22T09:55:29.632Z</time></trkpt><trkpt lat="42.5540816" lon="13.8878592"><ele>362.5</ele><time>2026-03-22T09:55:31.631Z</time></trkpt><trkpt lat="42.554166" lon="13.8878682"><ele>362.33333333333337</ele><time>2026-03-22T09:55:33.631Z</time></trkpt><trkpt lat="42.5542543" lon="13.8878664"><ele>362.1666666666667</ele><time>2026-03-22T09:55:35.631Z</time></trkpt><trkpt lat="42.554352" lon="13.8878606"><ele>362.0</ele><time>2026-03-22T09:55:37.631Z</time></trkpt><trkpt lat="42.5544525" lon="13.8878587"><ele>361.25</ele><time>2026-03-22T09:55:39.633Z</time></trkpt><trkpt lat="42.5545578" lon="13.8878606"><ele>360.5</ele><time>2026-03-22T09:55:41.632Z</time></trkpt><trkpt lat="42.5546701" lon="13.8878533"><ele>359.75</ele><time>2026-03-22T09:55:43.631Z</time></trkpt><trkpt lat="42.5547933" lon="13.887847"><ele>359.0</ele><time>2026-03-22T09:55:45.631Z</time></trkpt><trkpt lat="42.5549161" lon="13.8878461"><ele>359.0</ele><time>2026-03-22T09:55:47.632Z</time></trkpt><trkpt lat="42.555038" lon="13.887836"><ele>359.0</ele><time>2026-03-22T09:55:49.632Z</time></trkpt><trkpt lat="42.5551615" lon="13.8878227"><ele>359.0</ele><time>2026-03-22T09:55:51.632Z</time></trkpt><trkpt lat="42.5552858" lon="13.8877881"><ele>359.0</ele><time>2026-03-22T09:55:53.632Z</time></trkpt><trkpt lat="42.5553469" lon="13.8877653"><ele>359.0</ele><time>2026-03-22T09:55:54.632Z</time></trkpt><trkpt lat="42.5554752" lon="13.8877533"><ele>359.0</ele><time>2026-03-22T09:55:56.631Z</time></trkpt><trkpt lat="42.5555466" lon="13.8877567"><ele>359.0</ele><time>2026-03-22T09:55:57.632Z</time></trkpt><trkpt lat="42.5556209" lon="13.8877777"><ele>359.0</ele><time>2026-03-22T09:55:58.631Z</time></trkpt><trkpt lat="42.555691" lon="13.8878216"><ele>359.0</ele><time>2026-03-22T09:55:59.631Z</time></trkpt><trkpt lat="42.5557576" lon="13.8878739"><ele>359.0</ele><time>2026-03-22T09:56:00.631Z</time></trkpt><trkpt lat="42.5558183" lon="13.8879421"><ele>359.0</ele><time>2026-03-22T09:56:01.632Z</time></trkpt><trkpt lat="42.555874" lon="13.8880144"><ele>359.0</ele><time>2026-03-22T09:56:02.631Z</time></trkpt><trkpt lat="42.5559235" lon="13.8880893"><ele>359.0</ele><time>2026-03-22T09:56:03.632Z</time></trkpt><trkpt lat="42.5559633" lon="13.888168"><ele>359.0</ele><time>2026-03-22T09:56:04.631Z</time></trkpt><trkpt lat="42.5559982" lon="13.8882459"><ele>359.0</ele><time>2026-03-22T09:56:05.632Z</time></trkpt><trkpt lat="42.5560482" lon="13.8883991"><ele>359.0</ele><time>2026-03-22T09:56:07.631Z</time></trkpt><trkpt lat="42.556086" lon="13.8885612"><ele>358.5</ele><time>2026-03-22T09:56:09.631Z</time></trkpt><trkpt lat="42.5561275" lon="13.8887172"><ele>358.0</ele><time>2026-03-22T09:56:11.632Z</time></trkpt><trkpt lat="42.5561743" lon="13.8888628"><ele>357.5</ele><time>2026-03-22T09:56:13.632Z</time></trkpt><trkpt lat="42.5562349" lon="13.8889875"><ele>357.0</ele><time>2026-03-22T09:56:15.631Z</time></trkpt><trkpt lat="42.5562968" lon="13.8891024"><ele>357.0</ele><time>2026-03-22T09:56:17.631Z</time></trkpt><trkpt lat="42.5563705" lon="13.8892078"><ele>357.0</ele><time>2026-03-22T09:56:19.632Z</time></trkpt><trkpt lat="42.5564581" lon="13.8893019"><ele>357.0</ele><time>2026-03-22T09:56:21.631Z</time></trkpt><trkpt lat="42.5565617" lon="13.8893834"><ele>357.0</ele><time>2026-03-22T09:56:23.631Z</time></trkpt><trkpt lat="42.5566676" lon="13.8894658"><ele>355.3333333333333</ele><time>2026-03-22T09:56:25.632Z</time></trkpt><trkpt lat="42.5567877" lon="13.8895297"><ele>353.6666666666667</ele><time>2026-03-22T09:56:27.631Z</time></trkpt><trkpt lat="42.5568495" lon="13.8895512"><ele>352.0</ele><time>2026-03-22T09:56:28.632Z</time></trkpt><trkpt lat="42.5569128" lon="13.8895522"><ele>350.33333333333337</ele><time>2026-03-22T09:56:29.631Z</time></trkpt><trkpt lat="42.5569771" lon="13.8895463"><ele>348.6666666666667</ele><time>2026-03-22T09:56:30.631Z</time></trkpt><trkpt lat="42.5570426" lon="13.8895273"><ele>347.0</ele><time>2026-03-22T09:56:31.632Z</time></trkpt><trkpt lat="42.5571009" lon="13.8894914"><ele>347.0</ele><time>2026-03-22T09:56:32.631Z</time></trkpt><trkpt lat="42.5571669" lon="13.8894825"><ele>347.0</ele><time>2026-03-22T09:56:33.632Z</time></trkpt><trkpt lat="42.5572366" lon="13.8894979"><ele>347.0</ele><time>2026-03-22T09:56:34.631Z</time></trkpt><trkpt lat="42.5573086" lon="13.8895213"><ele>347.0</ele><time>2026-03-22T09:56:35.632Z</time></trkpt><trkpt lat="42.5573782" lon="13.8895675"><ele>347.0</ele><time>2026-03-22T09:56:36.631Z</time></trkpt><trkpt lat="42.5574384" lon="13.8896313"><ele>347.0</ele><time>2026-03-22T09:56:37.631Z</time></trkpt><trkpt lat="42.5574877" lon="13.8897063"><ele>347.0</ele><time>2026-03-22T09:56:38.631Z</time></trkpt><trkpt lat="42.5575304" lon="13.8897922"><ele>347.0</ele><time>2026-03-22T09:56:39.631Z</time></trkpt><trkpt lat="42.557571" lon="13.8898782"><ele>347.0</ele><time>2026-03-22T09:56:40.632Z</time></trkpt><trkpt lat="42.5576061" lon="13.8899696"><ele>347.0</ele><time>2026-03-22T09:56:41.632Z</time></trkpt><trkpt lat="42.5576402" lon="13.8900614"><ele>347.0</ele><time>2026-03-22T09:56:42.632Z</time></trkpt><trkpt lat="42.557681" lon="13.8901509"><ele>347.0</ele><time>2026-03-22T09:56:43.631Z</time></trkpt><trkpt lat="42.5577225" lon="13.8902395"><ele>347.0</ele><time>2026-03-22T09:56:44.631Z</time></trkpt><trkpt lat="42.5577514" lon="13.8903397"><ele>346.1666666666667</ele><time>2026-03-22T09:56:45.63Z</time></trkpt><trkpt lat="42.5577659" lon="13.8904504"><ele>345.33333333333337</ele><time>2026-03-22T09:56:46.631Z</time></trkpt><trkpt lat="42.5577675" lon="13.8905656"><ele>344.5</ele><time>2026-03-22T09:56:47.631Z</time></trkpt><trkpt lat="42.5577556" lon="13.8906827"><ele>343.6666666666667</ele><time>2026-03-22T09:56:48.63Z</time></trkpt><trkpt lat="42.557734" lon="13.8907981"><ele>342.8333333333333</ele><time>2026-03-22T09:56:49.631Z</time></trkpt><trkpt lat="42.5577174" lon="13.8909175"><ele>342.0</ele><time>2026-03-22T09:56:50.631Z</time></trkpt><trkpt lat="42.5576959" lon="13.8910364"><ele>342.0</ele><time>2026-03-22T09:56:51.63Z</time></trkpt><trkpt lat="42.5576781" lon="13.8911596"><ele>342.0</ele><time>2026-03-22T09:56:52.631Z</time></trkpt><trkpt lat="42.557655" lon="13.891284"><ele>342.0</ele><time>2026-03-22T09:56:53.63Z</time></trkpt><trkpt lat="42.5576248" lon="13.8914088"><ele>342.0</ele><time>2026-03-22T09:56:54.63Z</time></trkpt><trkpt lat="42.5575881" lon="13.8915311"><ele>342.0</ele><time>2026-03-22T09:56:55.63Z</time></trkpt><trkpt lat="42.5575419" lon="13.8916462"><ele>342.0</ele><time>2026-03-22T09:56:56.631Z</time></trkpt><trkpt lat="42.5574953" lon="13.891765"><ele>342.0</ele><time>2026-03-22T09:56:57.63Z</time></trkpt><trkpt lat="42.5574434" lon="13.89188"><ele>342.0</ele><time>2026-03-22T09:56:58.63Z</time></trkpt><trkpt lat="42.5573943" lon="13.8919952"><ele>342.0</ele><time>2026-03-22T09:56:59.631Z</time></trkpt><trkpt lat="42.5573526" lon="13.8921168"><ele>342.0</ele><time>2026-03-22T09:57:00.63Z</time></trkpt><trkpt lat="42.5573234" lon="13.8922406"><ele>342.0</ele><time>2026-03-22T09:57:01.63Z</time></trkpt><trkpt lat="42.5573123" lon="13.8923717"><ele>342.0</ele><time>2026-03-22T09:57:02.631Z</time></trkpt><trkpt lat="42.557326" lon="13.8925052"><ele>342.0</ele><time>2026-03-22T09:57:03.631Z</time></trkpt><trkpt lat="42.5573346" lon="13.8926361"><ele>342.0</ele><time>2026-03-22T09:57:04.63Z</time></trkpt><trkpt lat="42.5573365" lon="13.8927689"><ele>342.0</ele><time>2026-03-22T09:57:05.631Z</time></trkpt><trkpt lat="42.5573547" lon="13.8928941"><ele>340.20000000000005</ele><time>2026-03-22T09:57:06.63Z</time></trkpt><trkpt lat="42.5573755" lon="13.8930164"><ele>338.4</ele><time>2026-03-22T09:57:07.631Z</time></trkpt><trkpt lat="42.5574" lon="13.8931378"><ele>336.6</ele><time>2026-03-22T09:57:08.63Z</time></trkpt><trkpt lat="42.5574053" lon="13.893262"><ele>334.79999999999995</ele><time>2026-03-22T09:57:09.63Z</time></trkpt><trkpt lat="42.5573933" lon="13.8933884"><ele>333.0</ele><time>2026-03-22T09:57:10.631Z</time></trkpt><trkpt lat="42.5573728" lon="13.8935115"><ele>331.8333333333333</ele><time>2026-03-22T09:57:11.63Z</time></trkpt><trkpt lat="42.5573476" lon="13.8936317"><ele>330.6666666666667</ele><time>2026-03-22T09:57:12.63Z</time></trkpt><trkpt lat="42.557312" lon="13.8937496"><ele>329.5</ele><time>2026-03-22T09:57:13.631Z</time></trkpt><trkpt lat="42.5572646" lon="13.8938572"><ele>328.33333333333337</ele><time>2026-03-22T09:57:14.631Z</time></trkpt><trkpt lat="42.5571988" lon="13.893939"><ele>327.1666666666667</ele><time>2026-03-22T09:57:15.63Z</time></trkpt><trkpt lat="42.5571348" lon="13.8940036"><ele>326.0</ele><time>2026-03-22T09:57:16.631Z</time></trkpt><trkpt lat="42.5570689" lon="13.8940473"><ele>328.4</ele><time>2026-03-22T09:57:17.63Z</time></trkpt><trkpt lat="42.5570039" lon="13.894076"><ele>330.8</ele><time>2026-03-22T09:57:18.631Z</time></trkpt><trkpt lat="42.556886" lon="13.8940937"><ele>333.2</ele><time>2026-03-22T09:57:20.631Z</time></trkpt><trkpt lat="42.5567844" lon="13.8940827"><ele>335.59999999999997</ele><time>2026-03-22T09:57:22.63Z</time></trkpt><trkpt lat="42.5566891" lon="13.8940729"><ele>338.0</ele><time>2026-03-22T09:57:24.631Z</time></trkpt><trkpt lat="42.5566003" lon="13.8940557"><ele>338.0</ele><time>2026-03-22T09:57:26.631Z</time></trkpt><trkpt lat="42.5565195" lon="13.8940405"><ele>338.0</ele><time>2026-03-22T09:57:28.63Z</time></trkpt><trkpt lat="42.5564407" lon="13.8940298"><ele>338.0</ele><time>2026-03-22T09:57:30.629Z</time></trkpt><trkpt lat="42.5563655" lon="13.8940256"><ele>338.0</ele><time>2026-03-22T09:57:32.63Z</time></trkpt><trkpt lat="42.5562884" lon="13.8940272"><ele>338.0</ele><time>2026-03-22T09:57:34.631Z</time></trkpt><trkpt lat="42.5562085" lon="13.8940491"><ele>338.0</ele><time>2026-03-22T09:57:36.631Z</time></trkpt><trkpt lat="42.5561295" lon="13.8940859"><ele>337.5</ele><time>2026-03-22T09:57:38.63Z</time></trkpt><trkpt lat="42.556053" lon="13.8941365"><ele>337.0</ele><time>2026-03-22T09:57:40.631Z</time></trkpt><trkpt lat="42.5559807" lon="13.8941971"><ele>336.5</ele><time>2026-03-22T09:57:42.63Z</time></trkpt><trkpt lat="42.5559093" lon="13.8942595"><ele>336.0</ele><time>2026-03-22T09:57:44.631Z</time></trkpt><trkpt lat="42.5558354" lon="13.8943139"><ele>335.5</ele><time>2026-03-22T09:57:46.63Z</time></trkpt><trkpt lat="42.555763" lon="13.8943608"><ele>335.0</ele><time>2026-03-22T09:57:48.63Z</time></trkpt><trkpt lat="42.5556895" lon="13.8944112"><ele>337.1666666666667</ele><time>2026-03-22T09:57:50.63Z</time></trkpt><trkpt lat="42.5556163" lon="13.8944526"><ele>339.33333333333337</ele><time>2026-03-22T09:57:52.629Z</time></trkpt><trkpt lat="42.5555447" lon="13.8944933"><ele>341.5</ele><time>2026-03-22T09:57:54.63Z</time></trkpt><trkpt lat="42.555485" lon="13.8945528"><ele>343.6666666666667</ele><time>2026-03-22T09:57:56.63Z</time></trkpt><trkpt lat="42.5554567" lon="13.8946459"><ele>345.8333333333333</ele><time>2026-03-22T09:57:58.63Z</time></trkpt><trkpt lat="42.55548" lon="13.8947435"><ele>348.0</ele><time>2026-03-22T09:58:00.631Z</time></trkpt><trkpt lat="42.5555407" lon="13.89481"><ele>348.0</ele><time>2026-03-22T09:58:02.631Z</time></trkpt><trkpt lat="42.5556197" lon="13.8948307"><ele>348.0</ele><time>2026-03-22T09:58:04.631Z</time></trkpt><trkpt lat="42.5556984" lon="13.8948114"><ele>348.0</ele><time>2026-03-22T09:58:06.63Z</time></trkpt><trkpt lat="42.5557741" lon="13.8947831"><ele>348.0</ele><time>2026-03-22T09:58:08.631Z</time></trkpt><trkpt lat="42.5558535" lon="13.8947547"><ele>348.0</ele><time>2026-03-22T09:58:10.63Z</time></trkpt><trkpt lat="42.5559347" lon="13.894738"><ele>348.0</ele><time>2026-03-22T09:58:12.63Z</time></trkpt><trkpt lat="42.5560115" lon="13.8947445"><ele>348.0</ele><time>2026-03-22T09:58:14.631Z</time></trkpt><trkpt lat="42.5560832" lon="13.8947772"><ele>348.0</ele><time>2026-03-22T09:58:16.631Z</time></trkpt><trkpt lat="42.5561485" lon="13.8948299"><ele>348.0</ele><time>2026-03-22T09:58:18.629Z</time></trkpt><trkpt lat="42.5562123" lon="13.8948865"><ele>348.0</ele><time>2026-03-22T09:58:20.63Z</time></trkpt><trkpt lat="42.5562719" lon="13.8949422"><ele>348.0</ele><time>2026-03-22T09:58:22.631Z</time></trkpt><trkpt lat="42.5563252" lon="13.8950007"><ele>348.0</ele><time>2026-03-22T09:58:24.63Z</time></trkpt><trkpt lat="42.5563823" lon="13.8950568"><ele>348.0</ele><time>2026-03-22T09:58:26.63Z</time></trkpt><trkpt lat="42.55644" lon="13.8951126"><ele>348.57142857142856</ele><time>2026-03-22T09:58:28.63Z</time></trkpt><trkpt lat="42.5564947" lon="13.8951684"><ele>349.14285714285717</ele><time>2026-03-22T09:58:30.631Z</time></trkpt><trkpt lat="42.5565506" lon="13.8952248"><ele>349.7142857142857</ele><time>2026-03-22T09:58:32.63Z</time></trkpt><trkpt lat="42.5566075" lon="13.895279"><ele>350.2857142857143</ele><time>2026-03-22T09:58:34.631Z</time></trkpt><trkpt lat="42.5566628" lon="13.8953373"><ele>350.85714285714283</ele><time>2026-03-22T09:58:36.629Z</time></trkpt><trkpt lat="42.5567196" lon="13.8953937"><ele>351.42857142857144</ele><time>2026-03-22T09:58:38.631Z</time></trkpt><trkpt lat="42.5567756" lon="13.8954549"><ele>352.0</ele><time>2026-03-22T09:58:40.631Z</time></trkpt><trkpt lat="42.5568194" lon="13.895528"><ele>352.0</ele><time>2026-03-22T09:58:42.631Z</time></trkpt><trkpt lat="42.5568438" lon="13.8956172"><ele>352.0</ele><time>2026-03-22T09:58:44.631Z</time></trkpt><trkpt lat="42.5568457" lon="13.8957134"><ele>352.0</ele><time>2026-03-22T09:58:46.631Z</time></trkpt><trkpt lat="42.5568259" lon="13.8958037"><ele>352.0</ele><time>2026-03-22T09:58:48.63Z</time></trkpt><trkpt lat="42.5567875" lon="13.8958809"><ele>352.0</ele><time>2026-03-22T09:58:50.63Z</time></trkpt><trkpt lat="42.556734" lon="13.8959435"><ele>352.0</ele><time>2026-03-22T09:58:52.63Z</time></trkpt><trkpt lat="42.5566665" lon="13.8959731"><ele>352.0</ele><time>2026-03-22T09:58:54.631Z</time></trkpt><trkpt lat="42.5565951" lon="13.8959819"><ele>352.0</ele><time>2026-03-22T09:58:56.631Z</time></trkpt><trkpt lat="42.5565227" lon="13.8959665"><ele>352.0</ele><time>2026-03-22T09:58:58.63Z</time></trkpt><trkpt lat="42.5564612" lon="13.8959212"><ele>352.0</ele><time>2026-03-22T09:59:00.631Z</time></trkpt><trkpt lat="42.5564016" lon="13.895876"><ele>352.0</ele><time>2026-03-22T09:59:02.63Z</time></trkpt><trkpt lat="42.556347" lon="13.8958325"><ele>352.0</ele><time>2026-03-22T09:59:04.629Z</time></trkpt><trkpt lat="42.5562877" lon="13.8957947"><ele>352.0</ele><time>2026-03-22T09:59:06.629Z</time></trkpt><trkpt lat="42.5562237" lon="13.8957533"><ele>352.0</ele><time>2026-03-22T09:59:08.63Z</time></trkpt><trkpt lat="42.5561551" lon="13.8957245"><ele>353.0</ele><time>2026-03-22T09:59:10.629Z</time></trkpt><trkpt lat="42.5560831" lon="13.8957"><ele>354.0</ele><time>2026-03-22T09:59:12.631Z</time></trkpt><trkpt lat="42.5560108" lon="13.8956841"><ele>355.0</ele><time>2026-03-22T09:59:14.63Z</time></trkpt><trkpt lat="42.5559409" lon="13.8956656"><ele>356.0</ele><time>2026-03-22T09:59:16.631Z</time></trkpt><trkpt lat="42.5558712" lon="13.8956556"><ele>357.0</ele><time>2026-03-22T09:59:18.63Z</time></trkpt><trkpt lat="42.5558008" lon="13.8956495"><ele>358.0</ele><time>2026-03-22T09:59:20.629Z</time></trkpt><trkpt lat="42.5557296" lon="13.8956493"><ele>359.0</ele><time>2026-03-22T09:59:22.631Z</time></trkpt><trkpt lat="42.5556591" lon="13.8956575"><ele>359.0</ele><time>2026-03-22T09:59:24.631Z</time></trkpt><trkpt lat="42.55559" lon="13.8956815"><ele>359.0</ele><time>2026-03-22T09:59:26.631Z</time></trkpt><trkpt lat="42.5555221" lon="13.8957178"><ele>359.0</ele><time>2026-03-22T09:59:28.63Z</time></trkpt><trkpt lat="42.555457" lon="13.8957576"><ele>359.0</ele><time>2026-03-22T09:59:30.631Z</time></trkpt><trkpt lat="42.5553977" lon="13.8957978"><ele>359.0</ele><time>2026-03-22T09:59:32.631Z</time></trkpt><trkpt lat="42.5553388" lon="13.8958397"><ele>359.0</ele><time>2026-03-22T09:59:34.63Z</time></trkpt><trkpt lat="42.5552834" lon="13.8958826"><ele>359.0</ele><time>2026-03-22T09:59:36.63Z</time></trkpt><trkpt lat="42.5552053" lon="13.8959483"><ele>360.5</ele><time>2026-03-22T09:59:39.63Z</time></trkpt><trkpt lat="42.5551225" lon="13.8960113"><ele>362.0</ele><time>2026-03-22T09:59:42.63Z</time></trkpt><trkpt lat="42.5550712" lon="13.8960629"><ele>363.5</ele><time>2026-03-22T09:59:44.631Z</time></trkpt><trkpt lat="42.5550007" lon="13.8961479"><ele>365.0</ele><time>2026-03-22T09:59:47.63Z</time></trkpt><trkpt lat="42.554953" lon="13.8962151"><ele>366.5</ele><time>2026-03-22T09:59:49.63Z</time></trkpt><trkpt lat="42.5549099" lon="13.8962966"><ele>368.0</ele><time>2026-03-22T09:59:51.631Z</time></trkpt><trkpt lat="42.5548764" lon="13.8963835"><ele>368.0</ele><time>2026-03-22T09:59:53.631Z</time></trkpt><trkpt lat="42.554855" lon="13.8964766"><ele>368.0</ele><time>2026-03-22T09:59:55.63Z</time></trkpt><trkpt lat="42.5548507" lon="13.8965719"><ele>368.0</ele><time>2026-03-22T09:59:57.63Z</time></trkpt><trkpt lat="42.5548474" lon="13.8966954"><ele>368.0</ele><time>2026-03-22T10:00:00.63Z</time></trkpt><trkpt lat="42.5548564" lon="13.8968242"><ele>368.0</ele><time>2026-03-22T10:00:03.631Z</time></trkpt><trkpt lat="42.554859" lon="13.8969115"><ele>368.0</ele><time>2026-03-22T10:00:05.63Z</time></trkpt><trkpt lat="42.5548669" lon="13.8970362"><ele>368.14285714285717</ele><time>2026-03-22T10:00:08.631Z</time></trkpt><trkpt lat="42.5548702" lon="13.8971559"><ele>368.2857142857143</ele><time>2026-03-22T10:00:11.63Z</time></trkpt><trkpt lat="42.5548739" lon="13.8972441"><ele>368.42857142857144</ele><time>2026-03-22T10:00:13.63Z</time></trkpt><trkpt lat="42.5548814" lon="13.8973696"><ele>368.57142857142856</ele><time>2026-03-22T10:00:16.63Z</time></trkpt><trkpt lat="42.5548889" lon="13.8974578"><ele>368.71428571428567</ele><time>2026-03-22T10:00:18.63Z</time></trkpt><trkpt lat="42.5548982" lon="13.8975432"><ele>368.85714285714283</ele><time>2026-03-22T10:00:20.63Z</time></trkpt><trkpt lat="42.5549135" lon="13.8976266"><ele>369.0</ele><time>2026-03-22T10:00:22.631Z</time></trkpt><trkpt lat="42.5549413" lon="13.8977127"><ele>368.0</ele><time>2026-03-22T10:00:24.629Z</time></trkpt><trkpt lat="42.5549766" lon="13.8978048"><ele>367.0</ele><time>2026-03-22T10:00:26.631Z</time></trkpt><trkpt lat="42.5550159" lon="13.8978912"><ele>366.0</ele><time>2026-03-22T10:00:28.63Z</time></trkpt><trkpt lat="42.5550601" lon="13.8979722"><ele>365.0</ele><time>2026-03-22T10:00:30.63Z</time></trkpt><trkpt lat="42.5551069" lon="13.8980474"><ele>364.0</ele><time>2026-03-22T10:00:32.631Z</time></trkpt><trkpt lat="42.5551571" lon="13.8981196"><ele>363.0</ele><time>2026-03-22T10:00:34.631Z</time></trkpt><trkpt lat="42.5552076" lon="13.8981977"><ele>362.0</ele><time>2026-03-22T10:00:36.631Z</time></trkpt><trkpt lat="42.5552546" lon="13.8982777"><ele>362.0</ele><time>2026-03-22T10:00:38.63Z</time></trkpt><trkpt lat="42.5552946" lon="13.8983644"><ele>362.0</ele><time>2026-03-22T10:00:40.631Z</time></trkpt><trkpt lat="42.5553321" lon="13.8984542"><ele>362.0</ele><time>2026-03-22T10:00:42.63Z</time></trkpt><trkpt lat="42.5553626" lon="13.8985463"><ele>362.0</ele><time>2026-03-22T10:00:44.631Z</time></trkpt><trkpt lat="42.5553915" lon="13.8986453"><ele>362.0</ele><time>2026-03-22T10:00:46.631Z</time></trkpt><trkpt lat="42.5554164" lon="13.8987505"><ele>362.0</ele><time>2026-03-22T10:00:48.63Z</time></trkpt><trkpt lat="42.5554363" lon="13.8988561"><ele>360.83333333333337</ele><time>2026-03-22T10:00:50.63Z</time></trkpt><trkpt lat="42.5554537" lon="13.8989622"><ele>359.6666666666667</ele><time>2026-03-22T10:00:52.63Z</time></trkpt><trkpt lat="42.5554741" lon="13.8990708"><ele>358.5</ele><time>2026-03-22T10:00:54.631Z</time></trkpt><trkpt lat="42.5554949" lon="13.899183"><ele>357.3333333333333</ele><time>2026-03-22T10:00:56.631Z</time></trkpt><trkpt lat="42.5555146" lon="13.8992946"><ele>356.16666666666663</ele><time>2026-03-22T10:00:58.63Z</time></trkpt><trkpt lat="42.5555303" lon="13.8994053"><ele>355.0</ele><time>2026-03-22T10:01:00.63Z</time></trkpt><trkpt lat="42.5555459" lon="13.8995167"><ele>355.0</ele><time>2026-03-22T10:01:02.631Z</time></trkpt><trkpt lat="42.5555591" lon="13.8996283"><ele>355.0</ele><time>2026-03-22T10:01:04.629Z</time></trkpt><trkpt lat="42.5555741" lon="13.8997396"><ele>355.0</ele><time>2026-03-22T10:01:06.631Z</time></trkpt><trkpt lat="42.5555908" lon="13.899851"><ele>355.0</ele><time>2026-03-22T10:01:08.631Z</time></trkpt><trkpt lat="42.5556108" lon="13.8999625"><ele>355.0</ele><time>2026-03-22T10:01:10.63Z</time></trkpt><trkpt lat="42.5556291" lon="13.9000746"><ele>355.0</ele><time>2026-03-22T10:01:12.63Z</time></trkpt><trkpt lat="42.5556446" lon="13.9001811"><ele>355.3333333333333</ele><time>2026-03-22T10:01:14.631Z</time></trkpt><trkpt lat="42.5556688" lon="13.9002867"><ele>355.66666666666663</ele><time>2026-03-22T10:01:16.631Z</time></trkpt><trkpt lat="42.5556889" lon="13.9003991"><ele>356.0</ele><time>2026-03-22T10:01:18.631Z</time></trkpt><trkpt lat="42.555708" lon="13.9005076"><ele>356.3333333333333</ele><time>2026-03-22T10:01:20.63Z</time></trkpt><trkpt lat="42.5557254" lon="13.9006146"><ele>356.6666666666667</ele><time>2026-03-22T10:01:22.631Z</time></trkpt><trkpt lat="42.5557387" lon="13.9007223"><ele>357.0</ele><time>2026-03-22T10:01:24.629Z</time></trkpt><trkpt lat="42.5557518" lon="13.9008345"><ele>358.3333333333333</ele><time>2026-03-22T10:01:26.63Z</time></trkpt><trkpt lat="42.5557588" lon="13.9009517"><ele>359.6666666666667</ele><time>2026-03-22T10:01:28.63Z</time></trkpt><trkpt lat="42.5557593" lon="13.9010704"><ele>361.0</ele><time>2026-03-22T10:01:30.63Z</time></trkpt><trkpt lat="42.5557618" lon="13.9011849"><ele>362.33333333333337</ele><time>2026-03-22T10:01:32.63Z</time></trkpt><trkpt lat="42.5557591" lon="13.9012976"><ele>363.6666666666667</ele><time>2026-03-22T10:01:34.631Z</time></trkpt><trkpt lat="42.5557541" lon="13.9014244"><ele>365.0</ele><time>2026-03-22T10:01:36.63Z</time></trkpt><trkpt lat="42.555749" lon="13.901559"><ele>365.0</ele><time>2026-03-22T10:01:38.629Z</time></trkpt><trkpt lat="42.5557455" lon="13.9016644"><ele>365.0</ele><time>2026-03-22T10:01:40.63Z</time></trkpt><trkpt lat="42.5557434" lon="13.9017699"><ele>365.0</ele><time>2026-03-22T10:01:42.63Z</time></trkpt><trkpt lat="42.5557485" lon="13.9018777"><ele>365.0</ele><time>2026-03-22T10:01:44.63Z</time></trkpt><trkpt lat="42.5557505" lon="13.9019861"><ele>365.0</ele><time>2026-03-22T10:01:46.63Z</time></trkpt><trkpt lat="42.5557625" lon="13.9020929"><ele>365.0</ele><time>2026-03-22T10:01:48.629Z</time></trkpt><trkpt lat="42.5557768" lon="13.902196"><ele>365.6666666666667</ele><time>2026-03-22T10:01:50.63Z</time></trkpt><trkpt lat="42.5557902" lon="13.9023016"><ele>366.33333333333337</ele><time>2026-03-22T10:01:52.629Z</time></trkpt><trkpt lat="42.5558078" lon="13.9024156"><ele>367.0</ele><time>2026-03-22T10:01:54.628Z</time></trkpt><trkpt lat="42.5558224" lon="13.9025325"><ele>367.6666666666667</ele><time>2026-03-22T10:01:56.63Z</time></trkpt><trkpt lat="42.5558351" lon="13.9026465"><ele>368.3333333333333</ele><time>2026-03-22T10:01:58.629Z</time></trkpt><trkpt lat="42.5558503" lon="13.9027573"><ele>369.0</ele><time>2026-03-22T10:02:00.63Z</time></trkpt><trkpt lat="42.555866" lon="13.9028664"><ele>369.1666666666667</ele><time>2026-03-22T10:02:02.629Z</time></trkpt><trkpt lat="42.5558796" lon="13.9029775"><ele>369.3333333333333</ele><time>2026-03-22T10:02:04.629Z</time></trkpt><trkpt lat="42.5558931" lon="13.9030888"><ele>369.5</ele><time>2026-03-22T10:02:06.628Z</time></trkpt><trkpt lat="42.5559082" lon="13.9031981"><ele>369.66666666666663</ele><time>2026-03-22T10:02:08.629Z</time></trkpt><trkpt lat="42.5559222" lon="13.9033075"><ele>369.8333333333333</ele><time>2026-03-22T10:02:10.629Z</time></trkpt><trkpt lat="42.5559414" lon="13.9034195"><ele>370.0</ele><time>2026-03-22T10:02:12.629Z</time></trkpt><trkpt lat="42.5559596" lon="13.9035364"><ele>369.0</ele><time>2026-03-22T10:02:14.629Z</time></trkpt><trkpt lat="42.5559769" lon="13.9036502"><ele>368.0</ele><time>2026-03-22T10:02:16.63Z</time></trkpt><trkpt lat="42.5560032" lon="13.9037623"><ele>367.0</ele><time>2026-03-22T10:02:18.629Z</time></trkpt><trkpt lat="42.5560338" lon="13.903878"><ele>366.0</ele><time>2026-03-22T10:02:20.63Z</time></trkpt><trkpt lat="42.5560635" lon="13.9039891"><ele>365.0</ele><time>2026-03-22T10:02:22.629Z</time></trkpt><trkpt lat="42.5560917" lon="13.9041178"><ele>364.0</ele><time>2026-03-22T10:02:24.63Z</time></trkpt><trkpt lat="42.5561223" lon="13.9042488"><ele>363.0</ele><time>2026-03-22T10:02:26.629Z</time></trkpt><trkpt lat="42.5561528" lon="13.9043711"><ele>362.0</ele><time>2026-03-22T10:02:28.629Z</time></trkpt><trkpt lat="42.5561867" lon="13.9044995"><ele>361.0</ele><time>2026-03-22T10:02:30.628Z</time></trkpt><trkpt lat="42.5562145" lon="13.9046318"><ele>360.0</ele><time>2026-03-22T10:02:32.629Z</time></trkpt><trkpt lat="42.5562256" lon="13.904758"><ele>359.0</ele><time>2026-03-22T10:02:34.63Z</time></trkpt><trkpt lat="42.5562343" lon="13.9048721"><ele>363.6</ele><time>2026-03-22T10:02:36.63Z</time></trkpt><trkpt lat="42.5562454" lon="13.9050047"><ele>368.2</ele><time>2026-03-22T10:02:38.629Z</time></trkpt><trkpt lat="42.5562524" lon="13.9051464"><ele>372.8</ele><time>2026-03-22T10:02:40.63Z</time></trkpt><trkpt lat="42.5562598" lon="13.9052951"><ele>377.40000000000003</ele><time>2026-03-22T10:02:42.629Z</time></trkpt><trkpt lat="42.5562642" lon="13.9054431"><ele>382.0</ele><time>2026-03-22T10:02:44.63Z</time></trkpt><trkpt lat="42.5562608" lon="13.9055944"><ele>382.0</ele><time>2026-03-22T10:02:46.63Z</time></trkpt><trkpt lat="42.5562499" lon="13.9057423"><ele>382.0</ele><time>2026-03-22T10:02:48.629Z</time></trkpt><trkpt lat="42.5562429" lon="13.9058968"><ele>382.0</ele><time>2026-03-22T10:02:50.63Z</time></trkpt><trkpt lat="42.5562342" lon="13.9060499"><ele>382.0</ele><time>2026-03-22T10:02:52.63Z</time></trkpt><trkpt lat="42.5562149" lon="13.9061946"><ele>382.0</ele><time>2026-03-22T10:02:54.63Z</time></trkpt><trkpt lat="42.5561905" lon="13.9063345"><ele>379.6</ele><time>2026-03-22T10:02:56.63Z</time></trkpt><trkpt lat="42.5561585" lon="13.9064718"><ele>377.20000000000005</ele><time>2026-03-22T10:02:58.63Z</time></trkpt><trkpt lat="42.5561432" lon="13.9066026"><ele>374.8</ele><time>2026-03-22T10:03:00.63Z</time></trkpt><trkpt lat="42.5561167" lon="13.9067316"><ele>372.4</ele><time>2026-03-22T10:03:02.629Z</time></trkpt><trkpt lat="42.5560776" lon="13.906861"><ele>370.0</ele><time>2026-03-22T10:03:04.63Z</time></trkpt><trkpt lat="42.5560471" lon="13.9069905"><ele>370.0</ele><time>2026-03-22T10:03:06.63Z</time></trkpt><trkpt lat="42.5560146" lon="13.9071179"><ele>370.0</ele><time>2026-03-22T10:03:08.629Z</time></trkpt><trkpt lat="42.5559872" lon="13.9072503"><ele>370.0</ele><time>2026-03-22T10:03:10.629Z</time></trkpt><trkpt lat="42.5559744" lon="13.9073751"><ele>370.0</ele><time>2026-03-22T10:03:12.629Z</time></trkpt><trkpt lat="42.5559648" lon="13.907489"><ele>370.0</ele><time>2026-03-22T10:03:14.628Z</time></trkpt><trkpt lat="42.5559577" lon="13.9076059"><ele>368.6</ele><time>2026-03-22T10:03:16.629Z</time></trkpt><trkpt lat="42.5559699" lon="13.9077403"><ele>367.2</ele><time>2026-03-22T10:03:18.63Z</time></trkpt><trkpt lat="42.5560005" lon="13.9078886"><ele>365.79999999999995</ele><time>2026-03-22T10:03:20.629Z</time></trkpt><trkpt lat="42.5560175" lon="13.9080314"><ele>364.4</ele><time>2026-03-22T10:03:22.629Z</time></trkpt><trkpt lat="42.5561126" lon="13.9080989"><ele>363.0</ele><time>2026-03-22T10:03:24.629Z</time></trkpt><trkpt lat="42.5561853" lon="13.9080252"><ele>361.5</ele><time>2026-03-22T10:03:26.629Z</time></trkpt><trkpt lat="42.5562327" lon="13.9079572"><ele>360.0</ele><time>2026-03-22T10:03:28.63Z</time></trkpt><trkpt lat="42.5562791" lon="13.9078776"><ele>358.5</ele><time>2026-03-22T10:03:30.629Z</time></trkpt><trkpt lat="42.5563239" lon="13.9078003"><ele>357.0</ele><time>2026-03-22T10:03:32.63Z</time></trkpt><trkpt lat="42.5563677" lon="13.9077256"><ele>355.5</ele><time>2026-03-22T10:03:34.63Z</time></trkpt><trkpt lat="42.5564251" lon="13.9076233"><ele>354.0</ele><time>2026-03-22T10:03:37.63Z</time></trkpt><trkpt lat="42.5564819" lon="13.9075299"><ele>357.0</ele><time>2026-03-22T10:03:40.63Z</time></trkpt><trkpt lat="42.5565391" lon="13.9074368"><ele>360.0</ele><time>2026-03-22T10:03:43.629Z</time></trkpt><trkpt lat="42.5566005" lon="13.9073402"><ele>363.0</ele><time>2026-03-22T10:03:46.63Z</time></trkpt><trkpt lat="42.5566485" lon="13.9072635"><ele>366.0</ele><time>2026-03-22T10:03:49.629Z</time></trkpt><trkpt lat="42.5567082" lon="13.9071885"><ele>369.0</ele><time>2026-03-22T10:03:52.629Z</time></trkpt><trkpt lat="42.5567925" lon="13.9071687"><ele>372.0</ele><time>2026-03-22T10:03:55.63Z</time></trkpt><trkpt lat="42.5568625" lon="13.9071699"><ele>372.0</ele><time>2026-03-22T10:03:57.63Z</time></trkpt><trkpt lat="42.556957" lon="13.9071706"><ele>372.0</ele><time>2026-03-22T10:03:59.63Z</time></trkpt><trkpt lat="42.5570758" lon="13.9072129"><ele>372.0</ele><time>2026-03-22T10:04:01.63Z</time></trkpt><trkpt lat="42.557137" lon="13.9072443"><ele>372.0</ele><time>2026-03-22T10:04:02.629Z</time></trkpt><trkpt lat="42.5572006" lon="13.9072842"><ele>372.0</ele><time>2026-03-22T10:04:03.629Z</time></trkpt><trkpt lat="42.5572604" lon="13.9073145"><ele>372.0</ele><time>2026-03-22T10:04:04.629Z</time></trkpt><trkpt lat="42.5573274" lon="13.9073426"><ele>370.5</ele><time>2026-03-22T10:04:05.629Z</time></trkpt><trkpt lat="42.5573975" lon="13.9073676"><ele>369.0</ele><time>2026-03-22T10:04:06.629Z</time></trkpt><trkpt lat="42.5574777" lon="13.9073876"><ele>367.5</ele><time>2026-03-22T10:04:07.629Z</time></trkpt><trkpt lat="42.5575624" lon="13.9073981"><ele>366.0</ele><time>2026-03-22T10:04:08.63Z</time></trkpt><trkpt lat="42.5576433" lon="13.9074052"><ele>364.5</ele><time>2026-03-22T10:04:09.629Z</time></trkpt><trkpt lat="42.5577272" lon="13.9073911"><ele>363.0</ele><time>2026-03-22T10:04:10.629Z</time></trkpt><trkpt lat="42.5578042" lon="13.9073448"><ele>360.0</ele><time>2026-03-22T10:04:11.63Z</time></trkpt><trkpt lat="42.5578746" lon="13.9072629"><ele>357.0</ele><time>2026-03-22T10:04:12.629Z</time></trkpt><trkpt lat="42.5579374" lon="13.9071758"><ele>354.0</ele><time>2026-03-22T10:04:13.628Z</time></trkpt><trkpt lat="42.5580072" lon="13.907102"><ele>351.0</ele><time>2026-03-22T10:04:14.63Z</time></trkpt><trkpt lat="42.5580827" lon="13.9070414"><ele>348.0</ele><time>2026-03-22T10:04:15.629Z</time></trkpt><trkpt lat="42.5581771" lon="13.907008"><ele>348.0</ele><time>2026-03-22T10:04:16.63Z</time></trkpt><trkpt lat="42.5582724" lon="13.9070065"><ele>348.0</ele><time>2026-03-22T10:04:17.63Z</time></trkpt><trkpt lat="42.5583544" lon="13.9070194"><ele>348.0</ele><time>2026-03-22T10:04:18.63Z</time></trkpt><trkpt lat="42.5584359" lon="13.9070354"><ele>348.0</ele><time>2026-03-22T10:04:19.63Z</time></trkpt><trkpt lat="42.5585185" lon="13.9070389"><ele>348.0</ele><time>2026-03-22T10:04:20.629Z</time></trkpt><trkpt lat="42.5586041" lon="13.9070101"><ele>348.0</ele><time>2026-03-22T10:04:21.63Z</time></trkpt><trkpt lat="42.558683" lon="13.9069618"><ele>346.2</ele><time>2026-03-22T10:04:22.63Z</time></trkpt><trkpt lat="42.55876" lon="13.906904"><ele>344.4</ele><time>2026-03-22T10:04:23.63Z</time></trkpt><trkpt lat="42.558836" lon="13.9068315"><ele>342.59999999999997</ele><time>2026-03-22T10:04:24.629Z</time></trkpt><trkpt lat="42.5589158" lon="13.9067546"><ele>340.79999999999995</ele><time>2026-03-22T10:04:25.629Z</time></trkpt><trkpt lat="42.5589958" lon="13.9066769"><ele>339.0</ele><time>2026-03-22T10:04:26.629Z</time></trkpt><trkpt lat="42.5590766" lon="13.9066039"><ele>339.0</ele><time>2026-03-22T10:04:27.629Z</time></trkpt><trkpt lat="42.5591569" lon="13.9065329"><ele>339.0</ele><time>2026-03-22T10:04:28.629Z</time></trkpt><trkpt lat="42.559226" lon="13.9064641"><ele>339.0</ele><time>2026-03-22T10:04:29.629Z</time></trkpt><trkpt lat="42.5592888" lon="13.9063894"><ele>339.0</ele><time>2026-03-22T10:04:30.629Z</time></trkpt><trkpt lat="42.5593377" lon="13.9062981"><ele>339.0</ele><time>2026-03-22T10:04:31.63Z</time></trkpt><trkpt lat="42.5593703" lon="13.9062064"><ele>339.0</ele><time>2026-03-22T10:04:32.629Z</time></trkpt><trkpt lat="42.5593904" lon="13.9061084"><ele>339.0</ele><time>2026-03-22T10:04:33.628Z</time></trkpt><trkpt lat="42.5593976" lon="13.9060158"><ele>339.0</ele><time>2026-03-22T10:04:34.629Z</time></trkpt><trkpt lat="42.5593936" lon="13.9058655"><ele>339.0</ele><time>2026-03-22T10:04:36.63Z</time></trkpt><trkpt lat="42.5594296" lon="13.9057778"><ele>339.0</ele><time>2026-03-22T10:04:38.63Z</time></trkpt><trkpt lat="42.5595172" lon="13.905807"><ele>339.0</ele><time>2026-03-22T10:04:40.63Z</time></trkpt><trkpt lat="42.5595588" lon="13.9058714"><ele>339.0</ele><time>2026-03-22T10:04:41.63Z</time></trkpt><trkpt lat="42.5596031" lon="13.9059417"><ele>335.6666666666667</ele><time>2026-03-22T10:04:42.629Z</time></trkpt><trkpt lat="42.5596393" lon="13.9060306"><ele>332.3333333333333</ele><time>2026-03-22T10:04:43.628Z</time></trkpt><trkpt lat="42.5596784" lon="13.9061277"><ele>329.0</ele><time>2026-03-22T10:04:44.63Z</time></trkpt><trkpt lat="42.5597127" lon="13.9062351"><ele>325.66666666666663</ele><time>2026-03-22T10:04:45.63Z</time></trkpt><trkpt lat="42.5597523" lon="13.906346"><ele>322.3333333333333</ele><time>2026-03-22T10:04:46.63Z</time></trkpt><trkpt lat="42.559785" lon="13.906464"><ele>319.0</ele><time>2026-03-22T10:04:47.629Z</time></trkpt><trkpt lat="42.5598153" lon="13.9065694"><ele>319.0</ele><time>2026-03-22T10:04:48.629Z</time></trkpt><trkpt lat="42.5598373" lon="13.9066604"><ele>319.0</ele><time>2026-03-22T10:04:49.629Z</time></trkpt><trkpt lat="42.5598628" lon="13.906814"><ele>319.0</ele><time>2026-03-22T10:04:51.629Z</time></trkpt><trkpt lat="42.5599305" lon="13.9069105"><ele>319.0</ele><time>2026-03-22T10:04:53.63Z</time></trkpt><trkpt lat="42.5600491" lon="13.906865"><ele>319.0</ele><time>2026-03-22T10:04:55.63Z</time></trkpt><trkpt lat="42.5601066" lon="13.9068006"><ele>319.0</ele><time>2026-03-22T10:04:56.629Z</time></trkpt><trkpt lat="42.5601963" lon="13.9067055"><ele>319.0</ele><time>2026-03-22T10:04:58.629Z</time></trkpt><trkpt lat="42.5603089" lon="13.9067318"><ele>319.0</ele><time>2026-03-22T10:05:00.629Z</time></trkpt><trkpt lat="42.5603514" lon="13.906802"><ele>319.0</ele><time>2026-03-22T10:05:01.629Z</time></trkpt><trkpt lat="42.5603783" lon="13.906888"><ele>319.0</ele><time>2026-03-22T10:05:02.629Z</time></trkpt><trkpt lat="42.5604057" lon="13.9069696"><ele>319.0</ele><time>2026-03-22T10:05:03.63Z</time></trkpt><trkpt lat="42.5604374" lon="13.907064"><ele>314.59999999999997</ele><time>2026-03-22T10:05:04.629Z</time></trkpt><trkpt lat="42.5604581" lon="13.9071574"><ele>310.2</ele><time>2026-03-22T10:05:05.629Z</time></trkpt><trkpt lat="42.560479" lon="13.9072449"><ele>305.79999999999995</ele><time>2026-03-22T10:05:06.63Z</time></trkpt><trkpt lat="42.5605289" lon="13.9073958"><ele>301.4</ele><time>2026-03-22T10:05:08.63Z</time></trkpt><trkpt lat="42.5606233" lon="13.9074731"><ele>297.0</ele><time>2026-03-22T10:05:10.629Z</time></trkpt><trkpt lat="42.5607436" lon="13.9074275"><ele>297.0</ele><time>2026-03-22T10:05:12.629Z</time></trkpt><trkpt lat="42.560801" lon="13.9073764"><ele>297.0</ele><time>2026-03-22T10:05:13.63Z</time></trkpt><trkpt lat="42.5608512" lon="13.9073214"><ele>297.0</ele><time>2026-03-22T10:05:14.628Z</time></trkpt><trkpt lat="42.5609343" lon="13.9072161"><ele>297.0</ele><time>2026-03-22T10:05:16.63Z</time></trkpt><trkpt lat="42.5610143" lon="13.907139"><ele>297.0</ele><time>2026-03-22T10:05:18.63Z</time></trkpt><trkpt lat="42.5611107" lon="13.9071825"><ele>297.0</ele><time>2026-03-22T10:05:20.629Z</time></trkpt><trkpt lat="42.5611734" lon="13.9073405"><ele>297.0</ele><time>2026-03-22T10:05:22.629Z</time></trkpt><trkpt lat="42.5611961" lon="13.9074449"><ele>297.0</ele><time>2026-03-22T10:05:23.63Z</time></trkpt><trkpt lat="42.5612115" lon="13.9075568"><ele>297.0</ele><time>2026-03-22T10:05:24.63Z</time></trkpt><trkpt lat="42.5612228" lon="13.9076596"><ele>297.0</ele><time>2026-03-22T10:05:25.63Z</time></trkpt><trkpt lat="42.5612285" lon="13.9077495"><ele>297.0</ele><time>2026-03-22T10:05:26.629Z</time></trkpt><trkpt lat="42.5612353" lon="13.9078355"><ele>297.0</ele><time>2026-03-22T10:05:27.629Z</time></trkpt><trkpt lat="42.5612374" lon="13.9079699"><ele>292.2</ele><time>2026-03-22T10:05:29.629Z</time></trkpt><trkpt lat="42.5612831" lon="13.9080456"><ele>287.4</ele><time>2026-03-22T10:05:31.63Z</time></trkpt><trkpt lat="42.5613542" lon="13.9079902"><ele>282.6</ele><time>2026-03-22T10:05:33.629Z</time></trkpt><trkpt lat="42.5613993" lon="13.9078529"><ele>277.8</ele><time>2026-03-22T10:05:35.629Z</time></trkpt><trkpt lat="42.5614539" lon="13.9077091"><ele>273.0</ele><time>2026-03-22T10:05:37.629Z</time></trkpt><trkpt lat="42.561512" lon="13.9075797"><ele>273.0</ele><time>2026-03-22T10:05:39.63Z</time></trkpt><trkpt lat="42.5616037" lon="13.9074756"><ele>273.0</ele><time>2026-03-22T10:05:41.63Z</time></trkpt><trkpt lat="42.5617303" lon="13.9074887"><ele>273.0</ele><time>2026-03-22T10:05:43.63Z</time></trkpt><trkpt lat="42.5617909" lon="13.9075561"><ele>273.0</ele><time>2026-03-22T10:05:44.629Z</time></trkpt><trkpt lat="42.5618366" lon="13.9076427"><ele>273.0</ele><time>2026-03-22T10:05:45.63Z</time></trkpt><trkpt lat="42.5618753" lon="13.9077269"><ele>273.0</ele><time>2026-03-22T10:05:46.629Z</time></trkpt><trkpt lat="42.5619091" lon="13.9078001"><ele>273.0</ele><time>2026-03-22T10:05:47.629Z</time></trkpt><trkpt lat="42.5619721" lon="13.90793"><ele>273.0</ele><time>2026-03-22T10:05:49.63Z</time></trkpt><trkpt lat="42.562083" lon="13.9079437"><ele>273.0</ele><time>2026-03-22T10:05:51.629Z</time></trkpt><trkpt lat="42.5621369" lon="13.9078981"><ele>273.0</ele><time>2026-03-22T10:05:52.63Z</time></trkpt><trkpt lat="42.5621851" lon="13.9078388"><ele>273.0</ele><time>2026-03-22T10:05:53.63Z</time></trkpt><trkpt lat="42.562248" lon="13.907786"><ele>271.1666666666667</ele><time>2026-03-22T10:05:54.628Z</time></trkpt><trkpt lat="42.5623179" lon="13.9077298"><ele>269.3333333333333</ele><time>2026-03-22T10:05:55.63Z</time></trkpt><trkpt lat="42.5623943" lon="13.9076796"><ele>267.5</ele><time>2026-03-22T10:05:56.629Z</time></trkpt><trkpt lat="42.5624739" lon="13.907626"><ele>265.66666666666663</ele><time>2026-03-22T10:05:57.629Z</time></trkpt><trkpt lat="42.5625596" lon="13.9075771"><ele>263.8333333333333</ele><time>2026-03-22T10:05:58.629Z</time></trkpt><trkpt lat="42.5626454" lon="13.9075288"><ele>262.0</ele><time>2026-03-22T10:05:59.629Z</time></trkpt><trkpt lat="42.5627324" lon="13.9074739"><ele>262.0</ele><time>2026-03-22T10:06:00.629Z</time></trkpt><trkpt lat="42.5628195" lon="13.9074209"><ele>262.0</ele><time>2026-03-22T10:06:01.629Z</time></trkpt><trkpt lat="42.5629065" lon="13.9073686"><ele>262.0</ele><time>2026-03-22T10:06:02.63Z</time></trkpt><trkpt lat="42.5629908" lon="13.9073089"><ele>262.0</ele><time>2026-03-22T10:06:03.63Z</time></trkpt><trkpt lat="42.563073" lon="13.9072412"><ele>262.0</ele><time>2026-03-22T10:06:04.629Z</time></trkpt><trkpt lat="42.5631518" lon="13.9071728"><ele>260.66666666666663</ele><time>2026-03-22T10:06:05.629Z</time></trkpt><trkpt lat="42.5632296" lon="13.9071154"><ele>259.3333333333333</ele><time>2026-03-22T10:06:06.629Z</time></trkpt><trkpt lat="42.5633078" lon="13.9070628"><ele>258.0</ele><time>2026-03-22T10:06:07.63Z</time></trkpt><trkpt lat="42.5633938" lon="13.9070315"><ele>256.6666666666667</ele><time>2026-03-22T10:06:08.63Z</time></trkpt><trkpt lat="42.5634822" lon="13.9070185"><ele>255.33333333333334</ele><time>2026-03-22T10:06:09.629Z</time></trkpt><trkpt lat="42.5635709" lon="13.9070405"><ele>254.0</ele><time>2026-03-22T10:06:10.629Z</time></trkpt><trkpt lat="42.5636564" lon="13.9070805"><ele>252.39999999999998</ele><time>2026-03-22T10:06:11.629Z</time></trkpt><trkpt lat="42.5637422" lon="13.9071148"><ele>250.79999999999998</ele><time>2026-03-22T10:06:12.628Z</time></trkpt><trkpt lat="42.5638341" lon="13.9071438"><ele>249.20000000000002</ele><time>2026-03-22T10:06:13.629Z</time></trkpt><trkpt lat="42.5639324" lon="13.9071543"><ele>247.60000000000002</ele><time>2026-03-22T10:06:14.63Z</time></trkpt><trkpt lat="42.5640312" lon="13.9071486"><ele>246.0</ele><time>2026-03-22T10:06:15.63Z</time></trkpt><trkpt lat="42.5641306" lon="13.9071378"><ele>246.0</ele><time>2026-03-22T10:06:16.63Z</time></trkpt><trkpt lat="42.5642286" lon="13.9071375"><ele>246.00000000000003</ele><time>2026-03-22T10:06:17.629Z</time></trkpt><trkpt lat="42.5643253" lon="13.9071264"><ele>246.00000000000003</ele><time>2026-03-22T10:06:18.63Z</time></trkpt><trkpt lat="42.5644222" lon="13.9071221"><ele>246.0</ele><time>2026-03-22T10:06:19.63Z</time></trkpt><trkpt lat="42.5645162" lon="13.907134"><ele>246.0</ele><time>2026-03-22T10:06:20.629Z</time></trkpt><trkpt lat="42.5646055" lon="13.9071433"><ele>245.8</ele><time>2026-03-22T10:06:21.629Z</time></trkpt><trkpt lat="42.564698" lon="13.9071382"><ele>245.60000000000002</ele><time>2026-03-22T10:06:22.63Z</time></trkpt><trkpt lat="42.5647919" lon="13.9071217"><ele>245.4</ele><time>2026-03-22T10:06:23.629Z</time></trkpt><trkpt lat="42.564885" lon="13.9071105"><ele>245.2</ele><time>2026-03-22T10:06:24.629Z</time></trkpt><trkpt lat="42.5649785" lon="13.9070937"><ele>245.0</ele><time>2026-03-22T10:06:25.629Z</time></trkpt><trkpt lat="42.5650677" lon="13.907061"><ele>245.0</ele><time>2026-03-22T10:06:26.63Z</time></trkpt><trkpt lat="42.565154" lon="13.9070209"><ele>245.0</ele><time>2026-03-22T10:06:27.629Z</time></trkpt><trkpt lat="42.5652358" lon="13.9069868"><ele>245.0</ele><time>2026-03-22T10:06:28.629Z</time></trkpt><trkpt lat="42.5653087" lon="13.9069687"><ele>245.0</ele><time>2026-03-22T10:06:29.63Z</time></trkpt><trkpt lat="42.5653722" lon="13.9069545"><ele>245.0</ele><time>2026-03-22T10:06:30.628Z</time></trkpt><trkpt lat="42.5654354" lon="13.9069323"><ele>245.0</ele><time>2026-03-22T10:06:31.628Z</time></trkpt><trkpt lat="42.5654989" lon="13.9069383"><ele>245.0</ele><time>2026-03-22T10:06:32.628Z</time></trkpt><trkpt lat="42.5655619" lon="13.9069589"><ele>243.66666666666669</ele><time>2026-03-22T10:06:33.629Z</time></trkpt><trkpt lat="42.5656219" lon="13.9069935"><ele>242.33333333333334</ele><time>2026-03-22T10:06:34.629Z</time></trkpt><trkpt lat="42.5656755" lon="13.9070547"><ele>241.0</ele><time>2026-03-22T10:06:35.628Z</time></trkpt><trkpt lat="42.5657275" lon="13.9071241"><ele>239.66666666666669</ele><time>2026-03-22T10:06:36.629Z</time></trkpt><trkpt lat="42.5657744" lon="13.9072119"><ele>238.33333333333334</ele><time>2026-03-22T10:06:37.628Z</time></trkpt><trkpt lat="42.5658031" lon="13.9073114"><ele>237.0</ele><time>2026-03-22T10:06:38.629Z</time></trkpt><trkpt lat="42.5658205" lon="13.9074225"><ele>237.0</ele><time>2026-03-22T10:06:39.628Z</time></trkpt><trkpt lat="42.5658234" lon="13.907525"><ele>237.0</ele><time>2026-03-22T10:06:40.629Z</time></trkpt><trkpt lat="42.5658201" lon="13.9076167"><ele>237.0</ele><time>2026-03-22T10:06:41.629Z</time></trkpt><trkpt lat="42.5658169" lon="13.9077666"><ele>237.0</ele><time>2026-03-22T10:06:43.628Z</time></trkpt><trkpt lat="42.5658992" lon="13.9078318"><ele>237.0</ele><time>2026-03-22T10:06:45.629Z</time></trkpt><trkpt lat="42.5660069" lon="13.9078126"><ele>234.6</ele><time>2026-03-22T10:06:47.628Z</time></trkpt><trkpt lat="42.5661246" lon="13.9077878"><ele>232.2</ele><time>2026-03-22T10:06:49.629Z</time></trkpt><trkpt lat="42.5661873" lon="13.907775"><ele>229.8</ele><time>2026-03-22T10:06:50.628Z</time></trkpt><trkpt lat="42.5663011" lon="13.9077214"><ele>227.4</ele><time>2026-03-22T10:06:52.628Z</time></trkpt><trkpt lat="42.5664028" lon="13.9076361"><ele>225.0</ele><time>2026-03-22T10:06:54.629Z</time></trkpt><trkpt lat="42.5664954" lon="13.9075179"><ele>224.5714285714286</ele><time>2026-03-22T10:06:56.629Z</time></trkpt><trkpt lat="42.5665373" lon="13.9074452"><ele>224.14285714285717</ele><time>2026-03-22T10:06:57.628Z</time></trkpt><trkpt lat="42.5665775" lon="13.9073633"><ele>223.71428571428572</ele><time>2026-03-22T10:06:58.628Z</time></trkpt><trkpt lat="42.5666265" lon="13.9072912"><ele>223.2857142857143</ele><time>2026-03-22T10:06:59.628Z</time></trkpt><trkpt lat="42.5666693" lon="13.9072137"><ele>222.8571428571429</ele><time>2026-03-22T10:07:00.629Z</time></trkpt><trkpt lat="42.5667155" lon="13.9071456"><ele>222.42857142857142</ele><time>2026-03-22T10:07:01.628Z</time></trkpt><trkpt lat="42.5667538" lon="13.9070733"><ele>222.0</ele><time>2026-03-22T10:07:02.629Z</time></trkpt><trkpt lat="42.5667966" lon="13.9069996"><ele>222.0</ele><time>2026-03-22T10:07:03.628Z</time></trkpt><trkpt lat="42.5668441" lon="13.9069259"><ele>222.0</ele><time>2026-03-22T10:07:04.628Z</time></trkpt><trkpt lat="42.5668887" lon="13.9068578"><ele>222.0</ele><time>2026-03-22T10:07:05.629Z</time></trkpt><trkpt lat="42.5669337" lon="13.9067894"><ele>222.0</ele><time>2026-03-22T10:07:06.629Z</time></trkpt><trkpt lat="42.5669806" lon="13.9067226"><ele>222.0</ele><time>2026-03-22T10:07:07.629Z</time></trkpt><trkpt lat="42.5670242" lon="13.9066599"><ele>222.0</ele><time>2026-03-22T10:07:08.629Z</time></trkpt><trkpt lat="42.567065" lon="13.9065901"><ele>222.0</ele><time>2026-03-22T10:07:09.628Z</time></trkpt><trkpt lat="42.5671034" lon="13.9065208"><ele>219.85714285714286</ele><time>2026-03-22T10:07:10.628Z</time></trkpt><trkpt lat="42.5671505" lon="13.9064569"><ele>217.71428571428572</ele><time>2026-03-22T10:07:11.628Z</time></trkpt><trkpt lat="42.567195" lon="13.9063923"><ele>215.57142857142858</ele><time>2026-03-22T10:07:12.628Z</time></trkpt><trkpt lat="42.567237" lon="13.9063197"><ele>213.42857142857144</ele><time>2026-03-22T10:07:13.629Z</time></trkpt><trkpt lat="42.5672792" lon="13.906251"><ele>211.28571428571428</ele><time>2026-03-22T10:07:14.628Z</time></trkpt><trkpt lat="42.56732" lon="13.9061825"><ele>209.14285714285717</ele><time>2026-03-22T10:07:15.628Z</time></trkpt><trkpt lat="42.5673664" lon="13.9061178"><ele>207.0</ele><time>2026-03-22T10:07:16.628Z</time></trkpt><trkpt lat="42.5674088" lon="13.9060461"><ele>207.00000000000003</ele><time>2026-03-22T10:07:17.629Z</time></trkpt><trkpt lat="42.5674418" lon="13.905972"><ele>207.0</ele><time>2026-03-22T10:07:18.628Z</time></trkpt><trkpt lat="42.5674925" lon="13.9059084"><ele>207.0</ele><time>2026-03-22T10:07:19.628Z</time></trkpt><trkpt lat="42.5675409" lon="13.9058417"><ele>207.0</ele><time>2026-03-22T10:07:20.629Z</time></trkpt><trkpt lat="42.5675851" lon="13.9057736"><ele>207.0</ele><time>2026-03-22T10:07:21.629Z</time></trkpt><trkpt lat="42.5676264" lon="13.9057018"><ele>207.00000000000003</ele><time>2026-03-22T10:07:22.628Z</time></trkpt><trkpt lat="42.5676663" lon="13.9056239"><ele>207.0</ele><time>2026-03-22T10:07:23.628Z</time></trkpt><trkpt lat="42.5677042" lon="13.9055399"><ele>205.0</ele><time>2026-03-22T10:07:24.629Z</time></trkpt><trkpt lat="42.5677472" lon="13.9054397"><ele>203.0</ele><time>2026-03-22T10:07:25.629Z</time></trkpt><trkpt lat="42.5677989" lon="13.9053431"><ele>201.0</ele><time>2026-03-22T10:07:26.628Z</time></trkpt><trkpt lat="42.56785" lon="13.9052362"><ele>199.0</ele><time>2026-03-22T10:07:27.628Z</time></trkpt><trkpt lat="42.5679043" lon="13.9051203"><ele>197.0</ele><time>2026-03-22T10:07:28.629Z</time></trkpt><trkpt lat="42.5679684" lon="13.905012"><ele>197.0</ele><time>2026-03-22T10:07:29.629Z</time></trkpt><trkpt lat="42.5680394" lon="13.9049055"><ele>197.0</ele><time>2026-03-22T10:07:30.628Z</time></trkpt><trkpt lat="42.5681055" lon="13.9047964"><ele>197.0</ele><time>2026-03-22T10:07:31.629Z</time></trkpt><trkpt lat="42.5681613" lon="13.9046942"><ele>197.0</ele><time>2026-03-22T10:07:32.629Z</time></trkpt><trkpt lat="42.5682243" lon="13.904607"><ele>197.0</ele><time>2026-03-22T10:07:33.629Z</time></trkpt><trkpt lat="42.5682856" lon="13.9045215"><ele>197.00000000000003</ele><time>2026-03-22T10:07:34.628Z</time></trkpt><trkpt lat="42.5683434" lon="13.904437"><ele>197.0</ele><time>2026-03-22T10:07:35.628Z</time></trkpt><trkpt lat="42.5683973" lon="13.9043516"><ele>197.0</ele><time>2026-03-22T10:07:36.629Z</time></trkpt><trkpt lat="42.5684532" lon="13.9042675"><ele>197.0</ele><time>2026-03-22T10:07:37.629Z</time></trkpt><trkpt lat="42.5685084" lon="13.9041812"><ele>197.00000000000003</ele><time>2026-03-22T10:07:38.629Z</time></trkpt><trkpt lat="42.5685651" lon="13.904092"><ele>197.0</ele><time>2026-03-22T10:07:39.629Z</time></trkpt><trkpt lat="42.5686198" lon="13.9039994"><ele>198.8</ele><time>2026-03-22T10:07:40.628Z</time></trkpt><trkpt lat="42.5686719" lon="13.9039025"><ele>200.6</ele><time>2026-03-22T10:07:41.628Z</time></trkpt><trkpt lat="42.5687247" lon="13.9038027"><ele>202.4</ele><time>2026-03-22T10:07:42.628Z</time></trkpt><trkpt lat="42.5687775" lon="13.9036933"><ele>204.20000000000002</ele><time>2026-03-22T10:07:43.628Z</time></trkpt><trkpt lat="42.5688266" lon="13.9035805"><ele>206.0</ele><time>2026-03-22T10:07:44.629Z</time></trkpt><trkpt lat="42.5688759" lon="13.9034624"><ele>203.0</ele><time>2026-03-22T10:07:45.628Z</time></trkpt><trkpt lat="42.5689245" lon="13.9033426"><ele>200.0</ele><time>2026-03-22T10:07:46.628Z</time></trkpt><trkpt lat="42.568974" lon="13.9032213"><ele>197.0</ele><time>2026-03-22T10:07:47.629Z</time></trkpt><trkpt lat="42.5690258" lon="13.9031008"><ele>194.0</ele><time>2026-03-22T10:07:48.628Z</time></trkpt><trkpt lat="42.569075" lon="13.9029852"><ele>191.0</ele><time>2026-03-22T10:07:49.629Z</time></trkpt><trkpt lat="42.5691383" lon="13.9028804"><ele>191.0</ele><time>2026-03-22T10:07:50.629Z</time></trkpt><trkpt lat="42.5692011" lon="13.9027775"><ele>191.0</ele><time>2026-03-22T10:07:51.628Z</time></trkpt><trkpt lat="42.569274" lon="13.9026791"><ele>191.0</ele><time>2026-03-22T10:07:52.627Z</time></trkpt><trkpt lat="42.5693465" lon="13.902588"><ele>191.0</ele><time>2026-03-22T10:07:53.629Z</time></trkpt><trkpt lat="42.5694207" lon="13.9024957"><ele>191.0</ele><time>2026-03-22T10:07:54.629Z</time></trkpt><trkpt lat="42.569492" lon="13.9024047"><ele>186.4</ele><time>2026-03-22T10:07:55.628Z</time></trkpt><trkpt lat="42.5695655" lon="13.9023139"><ele>181.8</ele><time>2026-03-22T10:07:56.628Z</time></trkpt><trkpt lat="42.5696304" lon="13.9022222"><ele>177.20000000000002</ele><time>2026-03-22T10:07:57.629Z</time></trkpt><trkpt lat="42.5696925" lon="13.9021323"><ele>172.60000000000002</ele><time>2026-03-22T10:07:58.629Z</time></trkpt><trkpt lat="42.5697466" lon="13.9020333"><ele>168.0</ele><time>2026-03-22T10:07:59.628Z</time></trkpt><trkpt lat="42.569792" lon="13.9019268"><ele>168.0</ele><time>2026-03-22T10:08:00.629Z</time></trkpt><trkpt lat="42.5698324" lon="13.9018137"><ele>168.0</ele><time>2026-03-22T10:08:01.628Z</time></trkpt><trkpt lat="42.5698618" lon="13.9016961"><ele>168.0</ele><time>2026-03-22T10:08:02.628Z</time></trkpt><trkpt lat="42.5698981" lon="13.9015781"><ele>168.0</ele><time>2026-03-22T10:08:03.628Z</time></trkpt><trkpt lat="42.5699282" lon="13.9014574"><ele>168.0</ele><time>2026-03-22T10:08:04.628Z</time></trkpt><trkpt lat="42.56994" lon="13.9013257"><ele>168.16666666666666</ele><time>2026-03-22T10:08:05.629Z</time></trkpt><trkpt lat="42.5699465" lon="13.9012121"><ele>168.33333333333334</ele><time>2026-03-22T10:08:06.629Z</time></trkpt><trkpt lat="42.5699472" lon="13.9010971"><ele>168.5</ele><time>2026-03-22T10:08:07.628Z</time></trkpt><trkpt lat="42.5699439" lon="13.9009857"><ele>168.66666666666669</ele><time>2026-03-22T10:08:08.629Z</time></trkpt><trkpt lat="42.5699515" lon="13.9008701"><ele>168.83333333333334</ele><time>2026-03-22T10:08:09.627Z</time></trkpt><trkpt lat="42.569989" lon="13.9007655"><ele>169.0</ele><time>2026-03-22T10:08:10.629Z</time></trkpt><trkpt lat="42.5700457" lon="13.9006755"><ele>169.0</ele><time>2026-03-22T10:08:11.629Z</time></trkpt><trkpt lat="42.5700904" lon="13.900595"><ele>169.0</ele><time>2026-03-22T10:08:12.629Z</time></trkpt><trkpt lat="42.570159" lon="13.9004839"><ele>169.0</ele><time>2026-03-22T10:08:14.629Z</time></trkpt><trkpt lat="42.5702112" lon="13.900378"><ele>169.0</ele><time>2026-03-22T10:08:16.629Z</time></trkpt><trkpt lat="42.5702737" lon="13.9004074"><ele>169.0</ele><time>2026-03-22T10:08:18.628Z</time></trkpt><trkpt lat="42.5703027" lon="13.9005756"><ele>169.0</ele><time>2026-03-22T10:08:20.629Z</time></trkpt><trkpt lat="42.5703005" lon="13.9006732"><ele>169.0</ele><time>2026-03-22T10:08:21.629Z</time></trkpt><trkpt lat="42.5702955" lon="13.9007756"><ele>169.0</ele><time>2026-03-22T10:08:22.629Z</time></trkpt><trkpt lat="42.5702984" lon="13.900879"><ele>169.0</ele><time>2026-03-22T10:08:23.628Z</time></trkpt><trkpt lat="42.5703067" lon="13.900982"><ele>169.0</ele><time>2026-03-22T10:08:24.628Z</time></trkpt><trkpt lat="42.5703182" lon="13.9010804"><ele>169.0</ele><time>2026-03-22T10:08:25.628Z</time></trkpt><trkpt lat="42.5703218" lon="13.901176"><ele>169.0</ele><time>2026-03-22T10:08:26.628Z</time></trkpt><trkpt lat="42.5703233" lon="13.9012716"><ele>169.0</ele><time>2026-03-22T10:08:27.629Z</time></trkpt><trkpt lat="42.570331" lon="13.9013664"><ele>169.0</ele><time>2026-03-22T10:08:28.628Z</time></trkpt><trkpt lat="42.5703282" lon="13.901463"><ele>169.0</ele><time>2026-03-22T10:08:29.628Z</time></trkpt><trkpt lat="42.5703314" lon="13.9015525"><ele>169.0</ele><time>2026-03-22T10:08:30.629Z</time></trkpt><trkpt lat="42.5703336" lon="13.9016462"><ele>169.0</ele><time>2026-03-22T10:08:31.628Z</time></trkpt><trkpt lat="42.5703383" lon="13.9017408"><ele>169.0</ele><time>2026-03-22T10:08:32.629Z</time></trkpt><trkpt lat="42.5703466" lon="13.901838"><ele>169.0</ele><time>2026-03-22T10:08:33.628Z</time></trkpt><trkpt lat="42.5703546" lon="13.901927"><ele>166.42857142857144</ele><time>2026-03-22T10:08:34.629Z</time></trkpt><trkpt lat="42.5703666" lon="13.902022"><ele>163.85714285714286</ele><time>2026-03-22T10:08:35.628Z</time></trkpt><trkpt lat="42.570379" lon="13.9021126"><ele>161.28571428571428</ele><time>2026-03-22T10:08:36.628Z</time></trkpt><trkpt lat="42.5703922" lon="13.9021978"><ele>158.71428571428572</ele><time>2026-03-22T10:08:37.629Z</time></trkpt><trkpt lat="42.5704041" lon="13.9022853"><ele>156.14285714285714</ele><time>2026-03-22T10:08:38.628Z</time></trkpt><trkpt lat="42.5704142" lon="13.9023721"><ele>153.57142857142858</ele><time>2026-03-22T10:08:39.627Z</time></trkpt><trkpt lat="42.5704278" lon="13.9024586"><ele>151.0</ele><time>2026-03-22T10:08:40.628Z</time></trkpt><trkpt lat="42.5704385" lon="13.9025459"><ele>150.42857142857144</ele><time>2026-03-22T10:08:41.628Z</time></trkpt><trkpt lat="42.5704576" lon="13.9026318"><ele>149.85714285714286</ele><time>2026-03-22T10:08:42.629Z</time></trkpt><trkpt lat="42.5704834" lon="13.9027159"><ele>149.28571428571428</ele><time>2026-03-22T10:08:43.629Z</time></trkpt><trkpt lat="42.5705081" lon="13.902797"><ele>148.71428571428572</ele><time>2026-03-22T10:08:44.628Z</time></trkpt><trkpt lat="42.5705276" lon="13.9028872"><ele>148.14285714285714</ele><time>2026-03-22T10:08:45.629Z</time></trkpt><trkpt lat="42.5705456" lon="13.9029813"><ele>147.57142857142858</ele><time>2026-03-22T10:08:46.628Z</time></trkpt><trkpt lat="42.570565" lon="13.9030782"><ele>147.0</ele><time>2026-03-22T10:08:47.628Z</time></trkpt><trkpt lat="42.5705819" lon="13.9031833"><ele>147.0</ele><time>2026-03-22T10:08:48.628Z</time></trkpt><trkpt lat="42.5705942" lon="13.903294"><ele>147.0</ele><time>2026-03-22T10:08:49.629Z</time></trkpt><trkpt lat="42.5706102" lon="13.9034065"><ele>147.0</ele><time>2026-03-22T10:08:50.627Z</time></trkpt><trkpt lat="42.5706315" lon="13.9035217"><ele>147.0</ele><time>2026-03-22T10:08:51.629Z</time></trkpt><trkpt lat="42.5706434" lon="13.9036502"><ele>147.0</ele><time>2026-03-22T10:08:52.628Z</time></trkpt><trkpt lat="42.5706552" lon="13.9037754"><ele>147.0</ele><time>2026-03-22T10:08:53.629Z</time></trkpt><trkpt lat="42.570672" lon="13.9038873"><ele>146.66666666666666</ele><time>2026-03-22T10:08:54.629Z</time></trkpt><trkpt lat="42.5706893" lon="13.9039949"><ele>146.33333333333334</ele><time>2026-03-22T10:08:55.628Z</time></trkpt><trkpt lat="42.5707053" lon="13.9041059"><ele>146.0</ele><time>2026-03-22T10:08:56.628Z</time></trkpt><trkpt lat="42.5707216" lon="13.9042068"><ele>145.66666666666669</ele><time>2026-03-22T10:08:57.629Z</time></trkpt><trkpt lat="42.570737" lon="13.9043049"><ele>145.33333333333334</ele><time>2026-03-22T10:08:58.629Z</time></trkpt><trkpt lat="42.5707536" lon="13.9043981"><ele>145.0</ele><time>2026-03-22T10:08:59.628Z</time></trkpt><trkpt lat="42.5707636" lon="13.9044954"><ele>145.0</ele><time>2026-03-22T10:09:00.628Z</time></trkpt><trkpt lat="42.5707624" lon="13.9045857"><ele>145.0</ele><time>2026-03-22T10:09:01.628Z</time></trkpt><trkpt lat="42.5707654" lon="13.9046755"><ele>145.0</ele><time>2026-03-22T10:09:02.629Z</time></trkpt><trkpt lat="42.5707724" lon="13.9047659"><ele>145.0</ele><time>2026-03-22T10:09:03.628Z</time></trkpt><trkpt lat="42.5707865" lon="13.9049392"><ele>145.0</ele><time>2026-03-22T10:09:05.629Z</time></trkpt><trkpt lat="42.5707967" lon="13.9050314"><ele>145.0</ele><time>2026-03-22T10:09:06.628Z</time></trkpt><trkpt lat="42.5708363" lon="13.9051533"><ele>145.5</ele><time>2026-03-22T10:09:08.627Z</time></trkpt><trkpt lat="42.5709015" lon="13.9052083"><ele>146.0</ele><time>2026-03-22T10:09:10.628Z</time></trkpt><trkpt lat="42.5709653" lon="13.9052037"><ele>146.5</ele><time>2026-03-22T10:09:11.628Z</time></trkpt><trkpt lat="42.571069" lon="13.9051668"><ele>147.0</ele><time>2026-03-22T10:09:13.629Z</time></trkpt><trkpt lat="42.5711531" lon="13.9051069"><ele>147.5</ele><time>2026-03-22T10:09:15.629Z</time></trkpt><trkpt lat="42.5712117" lon="13.9050419"><ele>148.0</ele><time>2026-03-22T10:09:17.628Z</time></trkpt><trkpt lat="42.5712771" lon="13.9049879"><ele>149.0</ele><time>2026-03-22T10:09:19.629Z</time></trkpt><trkpt lat="42.5713338" lon="13.9049306"><ele>150.0</ele><time>2026-03-22T10:09:21.628Z</time></trkpt><trkpt lat="42.5713984" lon="13.9048715"><ele>151.0</ele><time>2026-03-22T10:09:23.627Z</time></trkpt><trkpt lat="42.5714622" lon="13.9048102"><ele>152.0</ele><time>2026-03-22T10:09:25.628Z</time></trkpt><trkpt lat="42.5715212" lon="13.9047552"><ele>153.0</ele><time>2026-03-22T10:09:27.628Z</time></trkpt><trkpt lat="42.571576" lon="13.9046902"><ele>154.0</ele><time>2026-03-22T10:09:29.628Z</time></trkpt><trkpt lat="42.57162" lon="13.9046145"><ele>155.0</ele><time>2026-03-22T10:09:31.629Z</time></trkpt><trkpt lat="42.5716757" lon="13.9045136"><ele>155.0</ele><time>2026-03-22T10:09:34.628Z</time></trkpt><trkpt lat="42.5717199" lon="13.9044101"><ele>155.0</ele><time>2026-03-22T10:09:37.629Z</time></trkpt><trkpt lat="42.5717726" lon="13.9043255"><ele>155.0</ele><time>2026-03-22T10:09:40.628Z</time></trkpt><trkpt lat="42.5718345" lon="13.9042581"><ele>155.0</ele><time>2026-03-22T10:09:43.628Z</time></trkpt><trkpt lat="42.5719073" lon="13.9042148"><ele>155.0</ele><time>2026-03-22T10:09:47.628Z</time></trkpt><trkpt lat="42.5719848" lon="13.9042481"><ele>155.0</ele><time>2026-03-22T10:09:51.628Z</time></trkpt><trkpt lat="42.5719951" lon="13.9043401"><ele>155.0</ele><time>2026-03-22T10:09:53.628Z</time></trkpt><trkpt lat="42.5720053" lon="13.9044383"><ele>155.0</ele><time>2026-03-22T10:09:55.629Z</time></trkpt><trkpt lat="42.5720167" lon="13.9045256"><ele>155.0</ele><time>2026-03-22T10:09:57.629Z</time></trkpt><trkpt lat="42.5720093" lon="13.9046444"><ele>155.0</ele><time>2026-03-22T10:10:00.629Z</time></trkpt><trkpt lat="42.5719798" lon="13.9047203"><ele>155.0</ele><time>2026-03-22T10:10:02.628Z</time></trkpt><trkpt lat="42.5719319" lon="13.9048132"><ele>155.0</ele><time>2026-03-22T10:10:05.627Z</time></trkpt><trkpt lat="42.5718891" lon="13.9048866"><ele>155.0</ele><time>2026-03-22T10:10:08.628Z</time></trkpt><trkpt lat="42.5718447" lon="13.9049555"><ele>155.0</ele><time>2026-03-22T10:10:11.629Z</time></trkpt><trkpt lat="42.5718102" lon="13.9050326"><ele>155.0</ele><time>2026-03-22T10:10:14.628Z</time></trkpt><trkpt lat="42.5717655" lon="13.9051098"><ele>155.0</ele><time>2026-03-22T10:10:18.628Z</time></trkpt><trkpt lat="42.5717448" lon="13.9051936"><ele>155.0</ele><time>2026-03-22T10:10:21.629Z</time></trkpt><trkpt lat="42.571715" lon="13.9053"><ele>155.0</ele><time>2026-03-22T10:10:25.628Z</time></trkpt><trkpt lat="42.5716832" lon="13.9053994"><ele>155.0</ele><time>2026-03-22T10:10:29.629Z</time></trkpt><trkpt lat="42.5716615" lon="13.9054818"><ele>155.0</ele><time>2026-03-22T10:10:32.629Z</time></trkpt><trkpt lat="42.5716502" lon="13.9055733"><ele>156.42857142857144</ele><time>2026-03-22T10:10:35.628Z</time></trkpt><trkpt lat="42.5716422" lon="13.90566"><ele>157.85714285714286</ele><time>2026-03-22T10:10:38.629Z</time></trkpt><trkpt lat="42.5716692" lon="13.9057589"><ele>159.28571428571428</ele><time>2026-03-22T10:10:42.627Z</time></trkpt><trkpt lat="42.5717008" lon="13.9058531"><ele>160.71428571428572</ele><time>2026-03-22T10:10:46.628Z</time></trkpt><trkpt lat="42.5717307" lon="13.9059556"><ele>162.14285714285714</ele><time>2026-03-22T10:10:50.629Z</time></trkpt><trkpt lat="42.5717641" lon="13.9060545"><ele>163.57142857142858</ele><time>2026-03-22T10:10:54.629Z</time></trkpt><trkpt lat="42.5717963" lon="13.9061302"><ele>165.0</ele><time>2026-03-22T10:10:57.629Z</time></trkpt><trkpt lat="42.5718295" lon="13.9062055"><ele>166.14285714285717</ele><time>2026-03-22T10:11:00.629Z</time></trkpt><trkpt lat="42.5718727" lon="13.9062941"><ele>167.28571428571428</ele><time>2026-03-22T10:11:04.629Z</time></trkpt><trkpt lat="42.5719365" lon="13.9063483"><ele>168.42857142857144</ele><time>2026-03-22T10:11:08.627Z</time></trkpt><trkpt lat="42.5720057" lon="13.9063629"><ele>169.57142857142858</ele><time>2026-03-22T10:11:12.629Z</time></trkpt><trkpt lat="42.5720789" lon="13.9063744"><ele>170.71428571428572</ele><time>2026-03-22T10:11:16.628Z</time></trkpt><trkpt lat="42.5721504" lon="13.9063651"><ele>171.85714285714286</ele><time>2026-03-22T10:11:20.629Z</time></trkpt><trkpt lat="42.5722187" lon="13.906346"><ele>173.0</ele><time>2026-03-22T10:11:24.628Z</time></trkpt><trkpt lat="42.5722763" lon="13.9063069"><ele>175.7142857142857</ele><time>2026-03-22T10:11:28.629Z</time></trkpt><trkpt lat="42.5723295" lon="13.9062551"><ele>178.42857142857144</ele><time>2026-03-22T10:11:32.628Z</time></trkpt><trkpt lat="42.5723789" lon="13.9061924"><ele>181.14285714285714</ele><time>2026-03-22T10:11:36.629Z</time></trkpt><trkpt lat="42.572437" lon="13.9061285"><ele>183.85714285714283</ele><time>2026-03-22T10:11:40.627Z</time></trkpt><trkpt lat="42.5724792" lon="13.9060613"><ele>186.57142857142856</ele><time>2026-03-22T10:11:44.628Z</time></trkpt><trkpt lat="42.5725248" lon="13.9059982"><ele>189.28571428571428</ele><time>2026-03-22T10:11:48.628Z</time></trkpt><trkpt lat="42.5725693" lon="13.9059226"><ele>192.0</ele><time>2026-03-22T10:11:52.627Z</time></trkpt><trkpt lat="42.5726155" lon="13.905855"><ele>191.99999999999997</ele><time>2026-03-22T10:11:56.628Z</time></trkpt><trkpt lat="42.5726459" lon="13.9057733"><ele>192.0</ele><time>2026-03-22T10:12:00.627Z</time></trkpt><trkpt lat="42.5726886" lon="13.9057065"><ele>192.0</ele><time>2026-03-22T10:12:04.628Z</time></trkpt><trkpt lat="42.572751" lon="13.905672"><ele>192.0</ele><time>2026-03-22T10:12:08.627Z</time></trkpt><trkpt lat="42.5728244" lon="13.9056927"><ele>192.0</ele><time>2026-03-22T10:12:12.627Z</time></trkpt><trkpt lat="42.5728842" lon="13.9057236"><ele>191.99999999999997</ele><time>2026-03-22T10:12:15.627Z</time></trkpt><trkpt lat="42.5729445" lon="13.9057503"><ele>192.0</ele><time>2026-03-22T10:12:18.628Z</time></trkpt><trkpt lat="42.5730202" lon="13.9057935"><ele>193.42857142857142</ele><time>2026-03-22T10:12:22.627Z</time></trkpt><trkpt lat="42.5730802" lon="13.9058509"><ele>194.85714285714286</ele><time>2026-03-22T10:12:26.627Z</time></trkpt><trkpt lat="42.5731385" lon="13.9059001"><ele>196.28571428571428</ele><time>2026-03-22T10:12:30.628Z</time></trkpt><trkpt lat="42.5731978" lon="13.9059379"><ele>197.71428571428572</ele><time>2026-03-22T10:12:34.627Z</time></trkpt><trkpt lat="42.5732507" lon="13.9059915"><ele>199.14285714285714</ele><time>2026-03-22T10:12:38.628Z</time></trkpt><trkpt lat="42.5733059" lon="13.9060362"><ele>200.57142857142856</ele><time>2026-03-22T10:12:42.628Z</time></trkpt><trkpt lat="42.5733563" lon="13.906093"><ele>202.0</ele><time>2026-03-22T10:12:46.627Z</time></trkpt><trkpt lat="42.5734089" lon="13.9061475"><ele>204.28571428571428</ele><time>2026-03-22T10:12:50.627Z</time></trkpt><trkpt lat="42.5734651" lon="13.906198"><ele>206.57142857142856</ele><time>2026-03-22T10:12:54.628Z</time></trkpt><trkpt lat="42.573514" lon="13.9062676"><ele>208.85714285714286</ele><time>2026-03-22T10:12:58.627Z</time></trkpt><trkpt lat="42.5735517" lon="13.906354"><ele>211.14285714285714</ele><time>2026-03-22T10:14:08.627Z</time></trkpt><trkpt lat="42.5735825" lon="13.9064463"><ele>213.42857142857144</ele><time>2026-03-22T10:14:12.628Z</time></trkpt><trkpt lat="42.5736062" lon="13.9065495"><ele>215.71428571428572</ele><time>2026-03-22T10:14:16.628Z</time></trkpt><trkpt lat="42.5736189" lon="13.9066348"><ele>218.0</ele><time>2026-03-22T10:14:19.627Z</time></trkpt><trkpt lat="42.5736299" lon="13.906751"><ele>219.28571428571428</ele><time>2026-03-22T10:14:23.628Z</time></trkpt><trkpt lat="42.5736403" lon="13.9068414"><ele>220.57142857142858</ele><time>2026-03-22T10:14:26.626Z</time></trkpt><trkpt lat="42.5736402" lon="13.9069319"><ele>221.85714285714286</ele><time>2026-03-22T10:14:29.627Z</time></trkpt><trkpt lat="42.5736372" lon="13.9070316"><ele>223.14285714285717</ele><time>2026-03-22T10:14:33.627Z</time></trkpt><trkpt lat="42.5736287" lon="13.9071415"><ele>224.42857142857144</ele><time>2026-03-22T10:14:37.627Z</time></trkpt><trkpt lat="42.5736159" lon="13.9072329"><ele>225.71428571428572</ele><time>2026-03-22T10:14:40.628Z</time></trkpt><trkpt lat="42.5735939" lon="13.9073294"><ele>227.0</ele><time>2026-03-22T10:14:44.628Z</time></trkpt><trkpt lat="42.5735521" lon="13.9074116"><ele>227.00000000000003</ele><time>2026-03-22T10:14:48.628Z</time></trkpt><trkpt lat="42.5734866" lon="13.9074517"><ele>227.0</ele><time>2026-03-22T10:14:52.628Z</time></trkpt><trkpt lat="42.5734128" lon="13.9074223"><ele>227.0</ele><time>2026-03-22T10:14:56.628Z</time></trkpt><trkpt lat="42.5733491" lon="13.9073847"><ele>227.0</ele><time>2026-03-22T10:15:00.628Z</time></trkpt><trkpt lat="42.5732794" lon="13.9073247"><ele>227.00000000000003</ele><time>2026-03-22T10:15:04.627Z</time></trkpt><trkpt lat="42.5732115" lon="13.9072966"><ele>227.0</ele><time>2026-03-22T10:15:07.628Z</time></trkpt><trkpt lat="42.5731366" lon="13.9073252"><ele>227.0</ele><time>2026-03-22T10:15:10.627Z</time></trkpt><trkpt lat="42.5730921" lon="13.9074132"><ele>227.00000000000003</ele><time>2026-03-22T10:15:13.628Z</time></trkpt><trkpt lat="42.5730815" lon="13.9075127"><ele>227.0</ele><time>2026-03-22T10:15:16.628Z</time></trkpt><trkpt lat="42.5730936" lon="13.9076092"><ele>227.0</ele><time>2026-03-22T10:15:19.628Z</time></trkpt><trkpt lat="42.5731266" lon="13.9076953"><ele>227.00000000000003</ele><time>2026-03-22T10:15:22.627Z</time></trkpt><trkpt lat="42.5731578" lon="13.907783"><ele>227.0</ele><time>2026-03-22T10:15:25.627Z</time></trkpt><trkpt lat="42.5731868" lon="13.9078683"><ele>227.0</ele><time>2026-03-22T10:15:28.628Z</time></trkpt><trkpt lat="42.5732055" lon="13.9079589"><ele>226.83333333333334</ele><time>2026-03-22T10:15:31.628Z</time></trkpt><trkpt lat="42.5732206" lon="13.9080494"><ele>226.66666666666669</ele><time>2026-03-22T10:15:34.627Z</time></trkpt><trkpt lat="42.5732242" lon="13.9081392"><ele>226.5</ele><time>2026-03-22T10:15:37.627Z</time></trkpt><trkpt lat="42.5732264" lon="13.9082498"><ele>226.33333333333331</ele><time>2026-03-22T10:15:41.628Z</time></trkpt><trkpt lat="42.573233" lon="13.9083592"><ele>226.16666666666666</ele><time>2026-03-22T10:15:45.627Z</time></trkpt><trkpt lat="42.5732445" lon="13.9084565"><ele>226.0</ele><time>2026-03-22T10:15:49.626Z</time></trkpt><trkpt lat="42.5732612" lon="13.9085671"><ele>227.49999999999997</ele><time>2026-03-22T10:15:53.627Z</time></trkpt><trkpt lat="42.5732701" lon="13.9086921"><ele>229.0</ele><time>2026-03-22T10:15:56.626Z</time></trkpt><trkpt lat="42.573275" lon="13.9087822"><ele>230.5</ele><time>2026-03-22T10:15:58.626Z</time></trkpt><trkpt lat="42.5732828" lon="13.9088842"><ele>232.0</ele><time>2026-03-22T10:16:01.626Z</time></trkpt><trkpt lat="42.5732898" lon="13.9089817"><ele>233.49999999999997</ele><time>2026-03-22T10:16:04.627Z</time></trkpt><trkpt lat="42.5732982" lon="13.9090837"><ele>235.0</ele><time>2026-03-22T10:16:07.627Z</time></trkpt><trkpt lat="42.5733098" lon="13.9091766"><ele>236.33333333333331</ele><time>2026-03-22T10:16:10.626Z</time></trkpt><trkpt lat="42.5733265" lon="13.9092795"><ele>237.66666666666666</ele><time>2026-03-22T10:16:13.627Z</time></trkpt><trkpt lat="42.5733488" lon="13.9093739"><ele>239.0</ele><time>2026-03-22T10:16:16.626Z</time></trkpt><trkpt lat="42.5733671" lon="13.9094765"><ele>240.33333333333331</ele><time>2026-03-22T10:16:19.626Z</time></trkpt><trkpt lat="42.5733917" lon="13.9095783"><ele>241.66666666666666</ele><time>2026-03-22T10:16:22.626Z</time></trkpt><trkpt lat="42.5734231" lon="13.9096707"><ele>243.0</ele><time>2026-03-22T10:16:25.627Z</time></trkpt><trkpt lat="42.5734581" lon="13.9097643"><ele>243.0</ele><time>2026-03-22T10:16:28.627Z</time></trkpt><trkpt lat="42.5734847" lon="13.9098562"><ele>243.0</ele><time>2026-03-22T10:16:31.627Z</time></trkpt><trkpt lat="42.5735121" lon="13.9099633"><ele>243.0</ele><time>2026-03-22T10:16:34.626Z</time></trkpt><trkpt lat="42.5735417" lon="13.910059"><ele>243.0</ele><time>2026-03-22T10:16:37.627Z</time></trkpt><trkpt lat="42.5735566" lon="13.9101591"><ele>243.0</ele><time>2026-03-22T10:16:40.626Z</time></trkpt><trkpt lat="42.5735732" lon="13.9102566"><ele>243.0</ele><time>2026-03-22T10:16:43.626Z</time></trkpt><trkpt lat="42.5735862" lon="13.9103486"><ele>243.5</ele><time>2026-03-22T10:16:46.627Z</time></trkpt><trkpt lat="42.5735836" lon="13.9104493"><ele>244.0</ele><time>2026-03-22T10:16:49.627Z</time></trkpt><trkpt lat="42.573561" lon="13.9105445"><ele>244.5</ele><time>2026-03-22T10:16:52.626Z</time></trkpt><trkpt lat="42.5735245" lon="13.9106319"><ele>245.0</ele><time>2026-03-22T10:16:55.625Z</time></trkpt><trkpt lat="42.5734816" lon="13.9107181"><ele>245.5</ele><time>2026-03-22T10:16:58.626Z</time></trkpt><trkpt lat="42.5734344" lon="13.9108037"><ele>246.0</ele><time>2026-03-22T10:17:01.627Z</time></trkpt><trkpt lat="42.573408" lon="13.910909"><ele>246.0</ele><time>2026-03-22T10:17:04.627Z</time></trkpt><trkpt lat="42.573398" lon="13.9110086"><ele>246.0</ele><time>2026-03-22T10:17:07.626Z</time></trkpt><trkpt lat="42.5733833" lon="13.9111054"><ele>246.0</ele><time>2026-03-22T10:17:10.627Z</time></trkpt><trkpt lat="42.573365" lon="13.9112142"><ele>246.0</ele><time>2026-03-22T10:17:13.626Z</time></trkpt><trkpt lat="42.5733635" lon="13.911331"><ele>246.0</ele><time>2026-03-22T10:17:16.627Z</time></trkpt><trkpt lat="42.5733895" lon="13.9114368"><ele>246.0</ele><time>2026-03-22T10:17:18.626Z</time></trkpt><trkpt lat="42.5734285" lon="13.9115459"><ele>246.0</ele><time>2026-03-22T10:17:20.626Z</time></trkpt><trkpt lat="42.573471" lon="13.9116729"><ele>246.0</ele><time>2026-03-22T10:17:22.627Z</time></trkpt><trkpt lat="42.5735283" lon="13.9118115"><ele>246.0</ele><time>2026-03-22T10:17:24.626Z</time></trkpt><trkpt lat="42.5735872" lon="13.9119498"><ele>246.0</ele><time>2026-03-22T10:17:26.626Z</time></trkpt><trkpt lat="42.573658" lon="13.9120818"><ele>246.60000000000002</ele><time>2026-03-22T10:17:28.627Z</time></trkpt><trkpt lat="42.573737" lon="13.912198"><ele>247.20000000000002</ele><time>2026-03-22T10:17:30.625Z</time></trkpt><trkpt lat="42.5738228" lon="13.9122847"><ele>247.79999999999998</ele><time>2026-03-22T10:17:32.627Z</time></trkpt><trkpt lat="42.5739159" lon="13.9123534"><ele>248.39999999999998</ele><time>2026-03-22T10:17:34.626Z</time></trkpt><trkpt lat="42.5740083" lon="13.9124062"><ele>249.0</ele><time>2026-03-22T10:17:36.626Z</time></trkpt><trkpt lat="42.5740942" lon="13.9124577"><ele>249.0</ele><time>2026-03-22T10:17:38.627Z</time></trkpt><trkpt lat="42.5741624" lon="13.9124964"><ele>249.0</ele><time>2026-03-22T10:17:40.627Z</time></trkpt><trkpt lat="42.5742338" lon="13.9125281"><ele>249.0</ele><time>2026-03-22T10:17:42.627Z</time></trkpt><trkpt lat="42.5742973" lon="13.9125471"><ele>249.0</ele><time>2026-03-22T10:17:44.626Z</time></trkpt><trkpt lat="42.5743775" lon="13.9126043"><ele>249.0</ele><time>2026-03-22T10:17:47.627Z</time></trkpt><trkpt lat="42.5744361" lon="13.9126388"><ele>249.0</ele><time>2026-03-22T10:17:49.626Z</time></trkpt><trkpt lat="42.5745174" lon="13.9126945"><ele>249.83333333333334</ele><time>2026-03-22T10:17:52.626Z</time></trkpt><trkpt lat="42.5745977" lon="13.9127373"><ele>250.66666666666669</ele><time>2026-03-22T10:17:55.626Z</time></trkpt><trkpt lat="42.5746866" lon="13.9127055"><ele>251.5</ele><time>2026-03-22T10:17:58.626Z</time></trkpt><trkpt lat="42.5747377" lon="13.9126332"><ele>252.33333333333334</ele><time>2026-03-22T10:18:00.626Z</time></trkpt><trkpt lat="42.5747806" lon="13.9125522"><ele>253.16666666666669</ele><time>2026-03-22T10:18:02.626Z</time></trkpt><trkpt lat="42.5748203" lon="13.9124731"><ele>254.0</ele><time>2026-03-22T10:18:04.626Z</time></trkpt><trkpt lat="42.5748643" lon="13.9123974"><ele>254.14285714285717</ele><time>2026-03-22T10:18:06.626Z</time></trkpt><trkpt lat="42.5749067" lon="13.9123214"><ele>254.28571428571428</ele><time>2026-03-22T10:18:08.626Z</time></trkpt><trkpt lat="42.574951" lon="13.912245"><ele>254.42857142857144</ele><time>2026-03-22T10:18:10.627Z</time></trkpt><trkpt lat="42.5749928" lon="13.9121699"><ele>254.57142857142858</ele><time>2026-03-22T10:18:12.626Z</time></trkpt><trkpt lat="42.5750323" lon="13.912098"><ele>254.71428571428572</ele><time>2026-03-22T10:18:14.627Z</time></trkpt><trkpt lat="42.5750738" lon="13.9120308"><ele>254.85714285714286</ele><time>2026-03-22T10:18:16.626Z</time></trkpt><trkpt lat="42.5751365" lon="13.911939"><ele>255.0</ele><time>2026-03-22T10:18:19.627Z</time></trkpt><trkpt lat="42.5752036" lon="13.9118754"><ele>255.0</ele><time>2026-03-22T10:18:22.625Z</time></trkpt><trkpt lat="42.5752855" lon="13.911875"><ele>255.0</ele><time>2026-03-22T10:18:25.626Z</time></trkpt><trkpt lat="42.5753644" lon="13.9119121"><ele>255.0</ele><time>2026-03-22T10:18:28.627Z</time></trkpt><trkpt lat="42.5754254" lon="13.9119864"><ele>255.0</ele><time>2026-03-22T10:18:31.626Z</time></trkpt><trkpt lat="42.5754634" lon="13.9120994"><ele>255.0</ele><time>2026-03-22T10:18:34.627Z</time></trkpt><trkpt lat="42.5754874" lon="13.9122151"><ele>255.0</ele><time>2026-03-22T10:18:37.627Z</time></trkpt><trkpt lat="42.575514" lon="13.9123269"><ele>254.83333333333334</ele><time>2026-03-22T10:18:40.626Z</time></trkpt><trkpt lat="42.5755372" lon="13.9124362"><ele>254.66666666666669</ele><time>2026-03-22T10:18:43.627Z</time></trkpt><trkpt lat="42.5755596" lon="13.9125417"><ele>254.5</ele><time>2026-03-22T10:18:46.626Z</time></trkpt><trkpt lat="42.5755794" lon="13.9126413"><ele>254.33333333333334</ele><time>2026-03-22T10:18:49.627Z</time></trkpt><trkpt lat="42.5756001" lon="13.9127495"><ele>254.16666666666669</ele><time>2026-03-22T10:18:52.626Z</time></trkpt><trkpt lat="42.5756096" lon="13.9128626"><ele>254.0</ele><time>2026-03-22T10:18:55.626Z</time></trkpt><trkpt lat="42.5756131" lon="13.9129765"><ele>255.16666666666669</ele><time>2026-03-22T10:18:58.627Z</time></trkpt><trkpt lat="42.5756247" lon="13.9130894"><ele>256.33333333333337</ele><time>2026-03-22T10:19:01.627Z</time></trkpt><trkpt lat="42.5756517" lon="13.9131962"><ele>257.5</ele><time>2026-03-22T10:19:04.626Z</time></trkpt><trkpt lat="42.5756788" lon="13.9133009"><ele>258.6666666666667</ele><time>2026-03-22T10:19:07.627Z</time></trkpt><trkpt lat="42.575712" lon="13.9134029"><ele>259.8333333333333</ele><time>2026-03-22T10:19:10.626Z</time></trkpt><trkpt lat="42.5757408" lon="13.9135119"><ele>261.0</ele><time>2026-03-22T10:19:13.626Z</time></trkpt><trkpt lat="42.5757815" lon="13.9136077"><ele>261.8333333333333</ele><time>2026-03-22T10:19:16.626Z</time></trkpt><trkpt lat="42.5758113" lon="13.9136994"><ele>262.6666666666667</ele><time>2026-03-22T10:19:19.627Z</time></trkpt><trkpt lat="42.5758573" lon="13.9137918"><ele>263.5</ele><time>2026-03-22T10:19:22.626Z</time></trkpt><trkpt lat="42.5759154" lon="13.9138266"><ele>264.33333333333337</ele><time>2026-03-22T10:19:24.627Z</time></trkpt><trkpt lat="42.5759806" lon="13.9138447"><ele>265.1666666666667</ele><time>2026-03-22T10:19:26.626Z</time></trkpt><trkpt lat="42.5760598" lon="13.9138475"><ele>266.0</ele><time>2026-03-22T10:19:28.626Z</time></trkpt><trkpt lat="42.576152" lon="13.9138526"><ele>264.75</ele><time>2026-03-22T10:19:30.627Z</time></trkpt><trkpt lat="42.5762577" lon="13.9138583"><ele>263.5</ele><time>2026-03-22T10:19:32.626Z</time></trkpt><trkpt lat="42.5763656" lon="13.9138721"><ele>262.25</ele><time>2026-03-22T10:19:34.627Z</time></trkpt><trkpt lat="42.5764802" lon="13.9138852"><ele>261.0</ele><time>2026-03-22T10:19:36.627Z</time></trkpt><trkpt lat="42.5766009" lon="13.9139054"><ele>261.0</ele><time>2026-03-22T10:19:38.626Z</time></trkpt><trkpt lat="42.5766654" lon="13.9139165"><ele>261.0</ele><time>2026-03-22T10:19:39.626Z</time></trkpt><trkpt lat="42.5767316" lon="13.9139339"><ele>261.0</ele><time>2026-03-22T10:19:40.627Z</time></trkpt><trkpt lat="42.5767964" lon="13.9139469"><ele>261.0</ele><time>2026-03-22T10:19:41.627Z</time></trkpt><trkpt lat="42.5768684" lon="13.913964"><ele>261.0</ele><time>2026-03-22T10:19:42.627Z</time></trkpt><trkpt lat="42.576939" lon="13.9139789"><ele>261.0</ele><time>2026-03-22T10:19:43.626Z</time></trkpt><trkpt lat="42.5770109" lon="13.9139814"><ele>261.0</ele><time>2026-03-22T10:19:44.627Z</time></trkpt><trkpt lat="42.577084" lon="13.9139767"><ele>262.1666666666667</ele><time>2026-03-22T10:19:45.627Z</time></trkpt><trkpt lat="42.5771572" lon="13.9139535"><ele>263.3333333333333</ele><time>2026-03-22T10:19:46.627Z</time></trkpt><trkpt lat="42.5772318" lon="13.9139267"><ele>264.5</ele><time>2026-03-22T10:19:47.625Z</time></trkpt><trkpt lat="42.5773004" lon="13.913888"><ele>265.66666666666663</ele><time>2026-03-22T10:19:48.627Z</time></trkpt><trkpt lat="42.5773654" lon="13.9138376"><ele>266.8333333333333</ele><time>2026-03-22T10:19:49.626Z</time></trkpt><trkpt lat="42.5774293" lon="13.9137846"><ele>268.0</ele><time>2026-03-22T10:19:50.627Z</time></trkpt><trkpt lat="42.5774902" lon="13.913728"><ele>268.0</ele><time>2026-03-22T10:19:51.626Z</time></trkpt><trkpt lat="42.5775485" lon="13.9136712"><ele>268.0</ele><time>2026-03-22T10:19:52.627Z</time></trkpt><trkpt lat="42.5776079" lon="13.9136318"><ele>268.0</ele><time>2026-03-22T10:19:53.626Z</time></trkpt><trkpt lat="42.5776703" lon="13.9136033"><ele>268.0</ele><time>2026-03-22T10:19:54.627Z</time></trkpt><trkpt lat="42.5777321" lon="13.9135843"><ele>268.0</ele><time>2026-03-22T10:19:55.626Z</time></trkpt><trkpt lat="42.5778518" lon="13.9135753"><ele>268.0</ele><time>2026-03-22T10:19:57.625Z</time></trkpt><trkpt lat="42.5779624" lon="13.9135966"><ele>268.4</ele><time>2026-03-22T10:19:59.627Z</time></trkpt><trkpt lat="42.5780659" lon="13.9136317"><ele>268.8</ele><time>2026-03-22T10:20:01.627Z</time></trkpt><trkpt lat="42.5781659" lon="13.9136693"><ele>269.2</ele><time>2026-03-22T10:20:03.626Z</time></trkpt><trkpt lat="42.5782738" lon="13.9136986"><ele>269.6</ele><time>2026-03-22T10:20:05.625Z</time></trkpt><trkpt lat="42.5783884" lon="13.9136812"><ele>270.0</ele><time>2026-03-22T10:20:07.625Z</time></trkpt><trkpt lat="42.5784904" lon="13.9136181"><ele>270.0</ele><time>2026-03-22T10:20:09.625Z</time></trkpt><trkpt lat="42.5785626" lon="13.9134996"><ele>270.0</ele><time>2026-03-22T10:20:11.625Z</time></trkpt><trkpt lat="42.5786162" lon="13.9133783"><ele>270.0</ele><time>2026-03-22T10:20:13.626Z</time></trkpt><trkpt lat="42.578662" lon="13.9132665"><ele>270.0</ele><time>2026-03-22T10:20:15.626Z</time></trkpt><trkpt lat="42.5787092" lon="13.91315"><ele>270.0</ele><time>2026-03-22T10:20:17.625Z</time></trkpt><trkpt lat="42.5787514" lon="13.9130506"><ele>269.3333333333333</ele><time>2026-03-22T10:20:19.625Z</time></trkpt><trkpt lat="42.5787847" lon="13.9129587"><ele>268.6666666666667</ele><time>2026-03-22T10:20:21.625Z</time></trkpt><trkpt lat="42.5788298" lon="13.9128698"><ele>268.0</ele><time>2026-03-22T10:20:23.626Z</time></trkpt><trkpt lat="42.5788758" lon="13.9127804"><ele>267.33333333333337</ele><time>2026-03-22T10:20:25.626Z</time></trkpt><trkpt lat="42.5789256" lon="13.9126983"><ele>266.6666666666667</ele><time>2026-03-22T10:20:27.625Z</time></trkpt><trkpt lat="42.5789833" lon="13.9126383"><ele>266.0</ele><time>2026-03-22T10:20:29.625Z</time></trkpt><trkpt lat="42.5790479" lon="13.9126001"><ele>266.0</ele><time>2026-03-22T10:20:31.626Z</time></trkpt><trkpt lat="42.5791392" lon="13.9125753"><ele>266.0</ele><time>2026-03-22T10:20:33.626Z</time></trkpt><trkpt lat="42.5792386" lon="13.912554"><ele>266.0</ele><time>2026-03-22T10:20:35.626Z</time></trkpt><trkpt lat="42.5793506" lon="13.9125293"><ele>266.0</ele><time>2026-03-22T10:20:37.625Z</time></trkpt><trkpt lat="42.5794606" lon="13.9125042"><ele>266.0</ele><time>2026-03-22T10:20:39.625Z</time></trkpt><trkpt lat="42.5795635" lon="13.9124596"><ele>263.83333333333337</ele><time>2026-03-22T10:20:41.626Z</time></trkpt><trkpt lat="42.579654" lon="13.9124438"><ele>261.6666666666667</ele><time>2026-03-22T10:20:43.625Z</time></trkpt><trkpt lat="42.5797223" lon="13.9123987"><ele>259.5</ele><time>2026-03-22T10:20:45.625Z</time></trkpt><trkpt lat="42.579779" lon="13.9123312"><ele>257.3333333333333</ele><time>2026-03-22T10:20:47.625Z</time></trkpt><trkpt lat="42.579822" lon="13.9122394"><ele>255.16666666666666</ele><time>2026-03-22T10:20:49.625Z</time></trkpt><trkpt lat="42.5798548" lon="13.9121345"><ele>253.0</ele><time>2026-03-22T10:20:51.626Z</time></trkpt><trkpt lat="42.5798806" lon="13.9120251"><ele>252.99999999999997</ele><time>2026-03-22T10:20:53.625Z</time></trkpt><trkpt lat="42.5799005" lon="13.9119119"><ele>253.0</ele><time>2026-03-22T10:20:55.626Z</time></trkpt><trkpt lat="42.5799259" lon="13.9118032"><ele>253.0</ele><time>2026-03-22T10:20:57.626Z</time></trkpt><trkpt lat="42.579957" lon="13.9116904"><ele>253.0</ele><time>2026-03-22T10:20:59.626Z</time></trkpt><trkpt lat="42.5799832" lon="13.9115774"><ele>252.99999999999997</ele><time>2026-03-22T10:21:01.625Z</time></trkpt><trkpt lat="42.5800071" lon="13.911468"><ele>253.0</ele><time>2026-03-22T10:21:03.626Z</time></trkpt><trkpt lat="42.580022" lon="13.9113579"><ele>253.66666666666666</ele><time>2026-03-22T10:21:05.625Z</time></trkpt><trkpt lat="42.5800354" lon="13.9112468"><ele>254.33333333333331</ele><time>2026-03-22T10:21:07.626Z</time></trkpt><trkpt lat="42.5800417" lon="13.9111364"><ele>255.0</ele><time>2026-03-22T10:21:09.626Z</time></trkpt><trkpt lat="42.5800464" lon="13.9110254"><ele>255.66666666666669</ele><time>2026-03-22T10:21:11.625Z</time></trkpt><trkpt lat="42.580051" lon="13.9109139"><ele>256.33333333333337</ele><time>2026-03-22T10:21:13.626Z</time></trkpt><trkpt lat="42.5800551" lon="13.9108053"><ele>257.0</ele><time>2026-03-22T10:21:15.625Z</time></trkpt><trkpt lat="42.5800594" lon="13.9107018"><ele>257.0</ele><time>2026-03-22T10:21:17.625Z</time></trkpt><trkpt lat="42.5800658" lon="13.9106028"><ele>257.0</ele><time>2026-03-22T10:21:19.625Z</time></trkpt><trkpt lat="42.5800719" lon="13.910506"><ele>257.0</ele><time>2026-03-22T10:21:21.626Z</time></trkpt><trkpt lat="42.5800783" lon="13.9104124"><ele>257.0</ele><time>2026-03-22T10:21:23.626Z</time></trkpt><trkpt lat="42.5800812" lon="13.9103267"><ele>257.0</ele><time>2026-03-22T10:21:25.625Z</time></trkpt><trkpt lat="42.5800886" lon="13.9102008"><ele>257.0</ele><time>2026-03-22T10:21:28.625Z</time></trkpt><trkpt lat="42.5800998" lon="13.9100832"><ele>258.5</ele><time>2026-03-22T10:21:31.625Z</time></trkpt><trkpt lat="42.580103" lon="13.9099683"><ele>260.0</ele><time>2026-03-22T10:21:34.625Z</time></trkpt><trkpt lat="42.5801087" lon="13.9098511"><ele>261.5</ele><time>2026-03-22T10:21:37.626Z</time></trkpt><trkpt lat="42.5801142" lon="13.9097367"><ele>263.0</ele><time>2026-03-22T10:21:40.625Z</time></trkpt><trkpt lat="42.5801182" lon="13.9096215"><ele>264.5</ele><time>2026-03-22T10:21:43.625Z</time></trkpt><trkpt lat="42.5801222" lon="13.9095108"><ele>266.0</ele><time>2026-03-22T10:21:46.625Z</time></trkpt><trkpt lat="42.5801235" lon="13.9093953"><ele>266.0</ele><time>2026-03-22T10:21:49.625Z</time></trkpt><trkpt lat="42.5801318" lon="13.9092802"><ele>266.0</ele><time>2026-03-22T10:21:52.625Z</time></trkpt><trkpt lat="42.5801387" lon="13.909169"><ele>266.0</ele><time>2026-03-22T10:21:55.626Z</time></trkpt><trkpt lat="42.5801524" lon="13.9090615"><ele>266.0</ele><time>2026-03-22T10:21:58.625Z</time></trkpt><trkpt lat="42.5801611" lon="13.9089538"><ele>266.0</ele><time>2026-03-22T10:22:01.625Z</time></trkpt><trkpt lat="42.5801655" lon="13.9088481"><ele>266.0</ele><time>2026-03-22T10:22:04.625Z</time></trkpt><trkpt lat="42.580162" lon="13.908737"><ele>267.0</ele><time>2026-03-22T10:22:07.626Z</time></trkpt><trkpt lat="42.5801567" lon="13.9086215"><ele>268.0</ele><time>2026-03-22T10:22:10.626Z</time></trkpt><trkpt lat="42.5801501" lon="13.9085005"><ele>269.0</ele><time>2026-03-22T10:22:13.626Z</time></trkpt><trkpt lat="42.5801212" lon="13.9083842"><ele>270.0</ele><time>2026-03-22T10:22:16.626Z</time></trkpt><trkpt lat="42.5800907" lon="13.9083078"><ele>271.0</ele><time>2026-03-22T10:22:18.625Z</time></trkpt><trkpt lat="42.5800373" lon="13.9082082"><ele>272.0</ele><time>2026-03-22T10:22:21.626Z</time></trkpt><trkpt lat="42.5800065" lon="13.908131"><ele>273.33333333333337</ele><time>2026-03-22T10:22:23.625Z</time></trkpt><trkpt lat="42.5799665" lon="13.9080203"><ele>274.6666666666667</ele><time>2026-03-22T10:22:26.625Z</time></trkpt><trkpt lat="42.579922" lon="13.907915"><ele>276.0</ele><time>2026-03-22T10:22:29.626Z</time></trkpt><trkpt lat="42.579877" lon="13.9078096"><ele>277.3333333333333</ele><time>2026-03-22T10:22:32.625Z</time></trkpt><trkpt lat="42.5798439" lon="13.9077056"><ele>278.66666666666663</ele><time>2026-03-22T10:22:35.624Z</time></trkpt><trkpt lat="42.5798077" lon="13.9076058"><ele>280.0</ele><time>2026-03-22T10:22:38.626Z</time></trkpt><trkpt lat="42.5797646" lon="13.9074982"><ele>278.8333333333333</ele><time>2026-03-22T10:22:41.626Z</time></trkpt><trkpt lat="42.5797259" lon="13.9073977"><ele>277.66666666666663</ele><time>2026-03-22T10:22:44.625Z</time></trkpt><trkpt lat="42.5796802" lon="13.9073059"><ele>276.5</ele><time>2026-03-22T10:22:47.625Z</time></trkpt><trkpt lat="42.5796346" lon="13.9072106"><ele>275.3333333333333</ele><time>2026-03-22T10:22:50.626Z</time></trkpt><trkpt lat="42.5795872" lon="13.9071181"><ele>274.1666666666667</ele><time>2026-03-22T10:22:53.626Z</time></trkpt><trkpt lat="42.5795402" lon="13.9070245"><ele>273.0</ele><time>2026-03-22T10:22:56.625Z</time></trkpt><trkpt lat="42.5795007" lon="13.9069247"><ele>273.0</ele><time>2026-03-22T10:22:59.625Z</time></trkpt><trkpt lat="42.5794761" lon="13.9068064"><ele>273.0</ele><time>2026-03-22T10:23:02.625Z</time></trkpt><trkpt lat="42.5794708" lon="13.9066846"><ele>273.0</ele><time>2026-03-22T10:23:05.625Z</time></trkpt><trkpt lat="42.5794783" lon="13.906567"><ele>273.0</ele><time>2026-03-22T10:23:08.625Z</time></trkpt><trkpt lat="42.5795017" lon="13.9064542"><ele>273.0</ele><time>2026-03-22T10:23:11.626Z</time></trkpt><trkpt lat="42.5795295" lon="13.9063402"><ele>273.0</ele><time>2026-03-22T10:23:14.625Z</time></trkpt><trkpt lat="42.5795596" lon="13.9062262"><ele>278.4</ele><time>2026-03-22T10:23:17.625Z</time></trkpt><trkpt lat="42.5795872" lon="13.9061113"><ele>283.8</ele><time>2026-03-22T10:23:20.626Z</time></trkpt><trkpt lat="42.5796179" lon="13.9059918"><ele>289.2</ele><time>2026-03-22T10:23:23.626Z</time></trkpt><trkpt lat="42.5796454" lon="13.9058753"><ele>294.6</ele><time>2026-03-22T10:23:26.626Z</time></trkpt><trkpt lat="42.5796703" lon="13.9057583"><ele>300.0</ele><time>2026-03-22T10:23:29.625Z</time></trkpt><trkpt lat="42.5796891" lon="13.9056352"><ele>300.1666666666667</ele><time>2026-03-22T10:23:32.626Z</time></trkpt><trkpt lat="42.579702" lon="13.905519"><ele>300.3333333333333</ele><time>2026-03-22T10:23:35.626Z</time></trkpt><trkpt lat="42.5797079" lon="13.9053983"><ele>300.5</ele><time>2026-03-22T10:23:38.626Z</time></trkpt><trkpt lat="42.5797124" lon="13.9052877"><ele>300.66666666666663</ele><time>2026-03-22T10:23:41.625Z</time></trkpt><trkpt lat="42.5797178" lon="13.90518"><ele>300.8333333333333</ele><time>2026-03-22T10:23:44.626Z</time></trkpt><trkpt lat="42.5797405" lon="13.9050641"><ele>301.0</ele><time>2026-03-22T10:23:47.626Z</time></trkpt><trkpt lat="42.5797629" lon="13.9049483"><ele>301.3333333333333</ele><time>2026-03-22T10:23:50.626Z</time></trkpt><trkpt lat="42.5797851" lon="13.9048368"><ele>301.66666666666663</ele><time>2026-03-22T10:23:53.625Z</time></trkpt><trkpt lat="42.5798072" lon="13.9047253"><ele>302.0</ele><time>2026-03-22T10:23:56.626Z</time></trkpt><trkpt lat="42.5798311" lon="13.9046191"><ele>302.3333333333333</ele><time>2026-03-22T10:23:59.625Z</time></trkpt><trkpt lat="42.5798541" lon="13.9045105"><ele>302.6666666666667</ele><time>2026-03-22T10:24:02.626Z</time></trkpt><trkpt lat="42.5798829" lon="13.9044017"><ele>303.0</ele><time>2026-03-22T10:24:05.626Z</time></trkpt><trkpt lat="42.5799158" lon="13.9042923"><ele>302.6666666666667</ele><time>2026-03-22T10:24:08.625Z</time></trkpt><trkpt lat="42.5799377" lon="13.9041805"><ele>302.3333333333333</ele><time>2026-03-22T10:24:11.625Z</time></trkpt><trkpt lat="42.5799544" lon="13.9040666"><ele>302.0</ele><time>2026-03-22T10:24:14.626Z</time></trkpt><trkpt lat="42.5799757" lon="13.9039532"><ele>301.66666666666663</ele><time>2026-03-22T10:24:17.626Z</time></trkpt><trkpt lat="42.580007" lon="13.9038426"><ele>301.3333333333333</ele><time>2026-03-22T10:24:20.626Z</time></trkpt><trkpt lat="42.5800343" lon="13.9037338"><ele>301.0</ele><time>2026-03-22T10:24:23.625Z</time></trkpt><trkpt lat="42.5800622" lon="13.9036263"><ele>301.0</ele><time>2026-03-22T10:24:26.626Z</time></trkpt><trkpt lat="42.5800895" lon="13.9035111"><ele>301.0</ele><time>2026-03-22T10:24:29.626Z</time></trkpt><trkpt lat="42.5801146" lon="13.903399"><ele>301.0</ele><time>2026-03-22T10:24:32.624Z</time></trkpt><trkpt lat="42.5801301" lon="13.903279"><ele>301.0</ele><time>2026-03-22T10:24:35.625Z</time></trkpt><trkpt lat="42.5801525" lon="13.9031708"><ele>301.0</ele><time>2026-03-22T10:24:38.624Z</time></trkpt><trkpt lat="42.58017" lon="13.903068"><ele>301.0</ele><time>2026-03-22T10:24:41.624Z</time></trkpt><trkpt lat="42.5801868" lon="13.9029632"><ele>302.0</ele><time>2026-03-22T10:24:44.624Z</time></trkpt><trkpt lat="42.5801916" lon="13.9028533"><ele>303.0</ele><time>2026-03-22T10:24:47.624Z</time></trkpt><trkpt lat="42.580196" lon="13.9027443"><ele>304.0</ele><time>2026-03-22T10:24:50.625Z</time></trkpt><trkpt lat="42.5801921" lon="13.9026268"><ele>305.0</ele><time>2026-03-22T10:24:53.625Z</time></trkpt><trkpt lat="42.5801783" lon="13.9025155"><ele>306.0</ele><time>2026-03-22T10:24:56.625Z</time></trkpt><trkpt lat="42.5801643" lon="13.9024079"><ele>307.0</ele><time>2026-03-22T10:24:59.625Z</time></trkpt><trkpt lat="42.5801466" lon="13.9022956"><ele>308.3333333333333</ele><time>2026-03-22T10:25:02.624Z</time></trkpt><trkpt lat="42.5801276" lon="13.9021876"><ele>309.66666666666663</ele><time>2026-03-22T10:25:05.624Z</time></trkpt><trkpt lat="42.5801117" lon="13.9020779"><ele>311.0</ele><time>2026-03-22T10:25:08.625Z</time></trkpt><trkpt lat="42.580099" lon="13.9019617"><ele>312.3333333333333</ele><time>2026-03-22T10:25:11.623Z</time></trkpt><trkpt lat="42.5800876" lon="13.9018471"><ele>313.6666666666667</ele><time>2026-03-22T10:25:14.625Z</time></trkpt><trkpt lat="42.5800801" lon="13.9017328"><ele>315.0</ele><time>2026-03-22T10:25:17.625Z</time></trkpt><trkpt lat="42.5800718" lon="13.9016237"><ele>315.5</ele><time>2026-03-22T10:25:20.624Z</time></trkpt><trkpt lat="42.5800701" lon="13.9015071"><ele>316.0</ele><time>2026-03-22T10:25:23.624Z</time></trkpt><trkpt lat="42.5800689" lon="13.9013934"><ele>316.5</ele><time>2026-03-22T10:25:26.624Z</time></trkpt><trkpt lat="42.5800705" lon="13.9012781"><ele>317.0</ele><time>2026-03-22T10:25:29.624Z</time></trkpt><trkpt lat="42.5800792" lon="13.901163"><ele>317.5</ele><time>2026-03-22T10:25:32.625Z</time></trkpt><trkpt lat="42.5800921" lon="13.9010442"><ele>318.0</ele><time>2026-03-22T10:25:35.624Z</time></trkpt><trkpt lat="42.5801041" lon="13.9009337"><ele>318.3333333333333</ele><time>2026-03-22T10:25:38.624Z</time></trkpt><trkpt lat="42.5801108" lon="13.9008162"><ele>318.6666666666667</ele><time>2026-03-22T10:25:41.625Z</time></trkpt><trkpt lat="42.5801127" lon="13.900703"><ele>319.0</ele><time>2026-03-22T10:25:44.625Z</time></trkpt><trkpt lat="42.5801129" lon="13.9005857"><ele>319.33333333333337</ele><time>2026-03-22T10:25:47.624Z</time></trkpt><trkpt lat="42.580112" lon="13.9004662"><ele>319.6666666666667</ele><time>2026-03-22T10:25:50.624Z</time></trkpt><trkpt lat="42.5801217" lon="13.9003444"><ele>320.0</ele><time>2026-03-22T10:25:53.624Z</time></trkpt><trkpt lat="42.5801444" lon="13.9002271"><ele>320.0</ele><time>2026-03-22T10:25:56.625Z</time></trkpt><trkpt lat="42.5801726" lon="13.9001151"><ele>320.0</ele><time>2026-03-22T10:25:59.625Z</time></trkpt><trkpt lat="42.5802115" lon="13.9000007"><ele>320.0</ele><time>2026-03-22T10:26:02.624Z</time></trkpt><trkpt lat="42.5802535" lon="13.8998928"><ele>320.0</ele><time>2026-03-22T10:26:05.625Z</time></trkpt><trkpt lat="42.5803117" lon="13.8997963"><ele>320.0</ele><time>2026-03-22T10:26:08.625Z</time></trkpt><trkpt lat="42.5803664" lon="13.8996967"><ele>320.5</ele><time>2026-03-22T10:26:11.625Z</time></trkpt><trkpt lat="42.5804039" lon="13.8996278"><ele>321.0</ele><time>2026-03-22T10:26:13.625Z</time></trkpt><trkpt lat="42.5804589" lon="13.8995309"><ele>321.5</ele><time>2026-03-22T10:26:16.624Z</time></trkpt><trkpt lat="42.5805111" lon="13.8994293"><ele>322.0</ele><time>2026-03-22T10:26:19.624Z</time></trkpt><trkpt lat="42.5805567" lon="13.8993234"><ele>322.5</ele><time>2026-03-22T10:26:22.624Z</time></trkpt><trkpt lat="42.5805977" lon="13.8992139"><ele>323.0</ele><time>2026-03-22T10:26:25.624Z</time></trkpt><trkpt lat="42.5806385" lon="13.8991069"><ele>323.0</ele><time>2026-03-22T10:26:28.625Z</time></trkpt><trkpt lat="42.5806786" lon="13.8990033"><ele>323.0</ele><time>2026-03-22T10:26:31.624Z</time></trkpt><trkpt lat="42.5807181" lon="13.8988922"><ele>323.0</ele><time>2026-03-22T10:26:34.625Z</time></trkpt><trkpt lat="42.5807617" lon="13.8987814"><ele>323.0</ele><time>2026-03-22T10:26:37.625Z</time></trkpt><trkpt lat="42.5807863" lon="13.8987026"><ele>323.0</ele><time>2026-03-22T10:26:39.624Z</time></trkpt><trkpt lat="42.5808238" lon="13.8985911"><ele>323.0</ele><time>2026-03-22T10:26:42.625Z</time></trkpt><trkpt lat="42.580864" lon="13.8984777"><ele>324.83333333333337</ele><time>2026-03-22T10:26:45.624Z</time></trkpt><trkpt lat="42.5809025" lon="13.8983743"><ele>326.6666666666667</ele><time>2026-03-22T10:26:48.625Z</time></trkpt><trkpt lat="42.5809361" lon="13.8982701"><ele>328.5</ele><time>2026-03-22T10:26:51.625Z</time></trkpt><trkpt lat="42.5809709" lon="13.8981608"><ele>330.3333333333333</ele><time>2026-03-22T10:26:54.625Z</time></trkpt><trkpt lat="42.5810109" lon="13.8980508"><ele>332.16666666666663</ele><time>2026-03-22T10:26:57.625Z</time></trkpt><trkpt lat="42.5810485" lon="13.8979442"><ele>334.0</ele><time>2026-03-22T10:27:00.624Z</time></trkpt><trkpt lat="42.5810819" lon="13.897835"><ele>334.0</ele><time>2026-03-22T10:27:03.625Z</time></trkpt><trkpt lat="42.5811199" lon="13.8977355"><ele>334.0</ele><time>2026-03-22T10:27:06.624Z</time></trkpt><trkpt lat="42.5811597" lon="13.8976262"><ele>334.0</ele><time>2026-03-22T10:27:09.625Z</time></trkpt><trkpt lat="42.5812034" lon="13.8975202"><ele>334.0</ele><time>2026-03-22T10:27:12.625Z</time></trkpt><trkpt lat="42.5812415" lon="13.8974188"><ele>334.0</ele><time>2026-03-22T10:27:15.625Z</time></trkpt><trkpt lat="42.5812931" lon="13.8973151"><ele>334.0</ele><time>2026-03-22T10:27:18.624Z</time></trkpt><trkpt lat="42.5813298" lon="13.8972416"><ele>333.16666666666663</ele><time>2026-03-22T10:27:20.624Z</time></trkpt><trkpt lat="42.5813706" lon="13.8971711"><ele>332.3333333333333</ele><time>2026-03-22T10:27:22.625Z</time></trkpt><trkpt lat="42.5814321" lon="13.8970761"><ele>331.5</ele><time>2026-03-22T10:27:25.625Z</time></trkpt><trkpt lat="42.581493" lon="13.8969846"><ele>330.6666666666667</ele><time>2026-03-22T10:27:28.624Z</time></trkpt><trkpt lat="42.5815516" lon="13.8968931"><ele>329.83333333333337</ele><time>2026-03-22T10:27:31.625Z</time></trkpt><trkpt lat="42.5816038" lon="13.8967977"><ele>329.0</ele><time>2026-03-22T10:27:34.625Z</time></trkpt><trkpt lat="42.5816548" lon="13.8966964"><ele>331.6666666666667</ele><time>2026-03-22T10:27:37.624Z</time></trkpt><trkpt lat="42.5817021" lon="13.8966005"><ele>334.33333333333337</ele><time>2026-03-22T10:27:40.625Z</time></trkpt><trkpt lat="42.5817503" lon="13.8965074"><ele>337.0</ele><time>2026-03-22T10:27:43.624Z</time></trkpt><trkpt lat="42.5817984" lon="13.8964201"><ele>339.6666666666667</ele><time>2026-03-22T10:27:46.624Z</time></trkpt><trkpt lat="42.5818406" lon="13.8963199"><ele>342.3333333333333</ele><time>2026-03-22T10:27:49.624Z</time></trkpt><trkpt lat="42.5818688" lon="13.8962126"><ele>345.0</ele><time>2026-03-22T10:27:52.625Z</time></trkpt><trkpt lat="42.5818992" lon="13.8961085"><ele>345.0</ele><time>2026-03-22T10:27:55.623Z</time></trkpt><trkpt lat="42.5819249" lon="13.8960303"><ele>345.0</ele><time>2026-03-22T10:27:57.624Z</time></trkpt><trkpt lat="42.5819647" lon="13.8959299"><ele>345.0</ele><time>2026-03-22T10:28:00.624Z</time></trkpt><trkpt lat="42.5820173" lon="13.8958401"><ele>345.0</ele><time>2026-03-22T10:28:03.625Z</time></trkpt><trkpt lat="42.5820742" lon="13.8957604"><ele>345.0</ele><time>2026-03-22T10:28:06.624Z</time></trkpt><trkpt lat="42.58214" lon="13.8956983"><ele>345.0</ele><time>2026-03-22T10:28:09.624Z</time></trkpt><trkpt lat="42.5822144" lon="13.8956423"><ele>344.6666666666667</ele><time>2026-03-22T10:28:12.624Z</time></trkpt><trkpt lat="42.5822915" lon="13.8955838"><ele>344.3333333333333</ele><time>2026-03-22T10:28:15.625Z</time></trkpt><trkpt lat="42.5823596" lon="13.8955361"><ele>344.0</ele><time>2026-03-22T10:28:18.624Z</time></trkpt><trkpt lat="42.5824231" lon="13.8954857"><ele>343.66666666666663</ele><time>2026-03-22T10:28:21.625Z</time></trkpt><trkpt lat="42.5824961" lon="13.8954408"><ele>343.3333333333333</ele><time>2026-03-22T10:28:24.624Z</time></trkpt><trkpt lat="42.5825659" lon="13.8953848"><ele>343.0</ele><time>2026-03-22T10:28:27.625Z</time></trkpt><trkpt lat="42.5826396" lon="13.8953406"><ele>343.0</ele><time>2026-03-22T10:28:30.624Z</time></trkpt><trkpt lat="42.5827182" lon="13.8953055"><ele>343.0</ele><time>2026-03-22T10:28:33.624Z</time></trkpt><trkpt lat="42.5828022" lon="13.8952718"><ele>343.0</ele><time>2026-03-22T10:28:36.624Z</time></trkpt><trkpt lat="42.582886" lon="13.8952467"><ele>343.0</ele><time>2026-03-22T10:28:39.624Z</time></trkpt><trkpt lat="42.582974" lon="13.8952275"><ele>343.0</ele><time>2026-03-22T10:28:42.624Z</time></trkpt><trkpt lat="42.5830622" lon="13.8952183"><ele>343.0</ele><time>2026-03-22T10:28:45.624Z</time></trkpt><trkpt lat="42.5831514" lon="13.8952147"><ele>342.16666666666663</ele><time>2026-03-22T10:28:48.624Z</time></trkpt><trkpt lat="42.5832401" lon="13.8952138"><ele>341.3333333333333</ele><time>2026-03-22T10:28:51.623Z</time></trkpt><trkpt lat="42.5833272" lon="13.8952244"><ele>340.5</ele><time>2026-03-22T10:28:54.624Z</time></trkpt><trkpt lat="42.5834149" lon="13.8952517"><ele>339.6666666666667</ele><time>2026-03-22T10:28:57.624Z</time></trkpt><trkpt lat="42.5834996" lon="13.8952766"><ele>338.83333333333337</ele><time>2026-03-22T10:29:00.623Z</time></trkpt><trkpt lat="42.5835889" lon="13.8953069"><ele>338.0</ele><time>2026-03-22T10:29:03.623Z</time></trkpt><trkpt lat="42.5836691" lon="13.8953127"><ele>338.83333333333337</ele><time>2026-03-22T10:29:06.623Z</time></trkpt><trkpt lat="42.5837496" lon="13.8953077"><ele>339.6666666666667</ele><time>2026-03-22T10:29:09.623Z</time></trkpt><trkpt lat="42.5838278" lon="13.8952715"><ele>340.5</ele><time>2026-03-22T10:29:12.623Z</time></trkpt><trkpt lat="42.5839026" lon="13.8952162"><ele>341.3333333333333</ele><time>2026-03-22T10:29:15.623Z</time></trkpt><trkpt lat="42.5839672" lon="13.8951268"><ele>342.16666666666663</ele><time>2026-03-22T10:29:18.624Z</time></trkpt><trkpt lat="42.5840159" lon="13.8950425"><ele>343.0</ele><time>2026-03-22T10:29:21.623Z</time></trkpt><trkpt lat="42.5840422" lon="13.8949437"><ele>343.0</ele><time>2026-03-22T10:29:24.623Z</time></trkpt><trkpt lat="42.5840768" lon="13.8948564"><ele>343.0</ele><time>2026-03-22T10:29:27.623Z</time></trkpt><trkpt lat="42.5841025" lon="13.8947611"><ele>343.0</ele><time>2026-03-22T10:29:31.624Z</time></trkpt><trkpt lat="42.584175" lon="13.894789"><ele>343.0</ele><time>2026-03-22T10:29:35.624Z</time></trkpt><trkpt lat="42.5841331" lon="13.8949284"><ele>343.0</ele><time>2026-03-22T10:29:37.623Z</time></trkpt><trkpt lat="42.5841224" lon="13.895016"><ele>343.0</ele><time>2026-03-22T10:29:38.624Z</time></trkpt><trkpt lat="42.5840988" lon="13.8950967"><ele>343.0</ele><time>2026-03-22T10:29:39.623Z</time></trkpt><trkpt lat="42.5840708" lon="13.895177"><ele>343.0</ele><time>2026-03-22T10:29:40.624Z</time></trkpt><trkpt lat="42.5840446" lon="13.8952682"><ele>343.0</ele><time>2026-03-22T10:29:41.623Z</time></trkpt><trkpt lat="42.5840108" lon="13.8953558"><ele>343.0</ele><time>2026-03-22T10:29:42.624Z</time></trkpt><trkpt lat="42.5839684" lon="13.895428"><ele>343.0</ele><time>2026-03-22T10:29:43.623Z</time></trkpt><trkpt lat="42.5839184" lon="13.8954887"><ele>343.0</ele><time>2026-03-22T10:29:44.624Z</time></trkpt><trkpt lat="42.5838659" lon="13.8955394"><ele>343.0</ele><time>2026-03-22T10:29:45.623Z</time></trkpt><trkpt lat="42.5837875" lon="13.8956299"><ele>343.0</ele><time>2026-03-22T10:29:47.623Z</time></trkpt><trkpt lat="42.5837798" lon="13.8957617"><ele>343.0</ele><time>2026-03-22T10:29:49.624Z</time></trkpt><trkpt lat="42.583878" lon="13.8958436"><ele>343.0</ele><time>2026-03-22T10:29:51.624Z</time></trkpt><trkpt lat="42.5839469" lon="13.8958618"><ele>343.0</ele><time>2026-03-22T10:29:52.624Z</time></trkpt><trkpt lat="42.5840173" lon="13.8958757"><ele>343.0</ele><time>2026-03-22T10:29:53.624Z</time></trkpt><trkpt lat="42.5840893" lon="13.8958596"><ele>343.0</ele><time>2026-03-22T10:29:54.623Z</time></trkpt><trkpt lat="42.5841582" lon="13.8958519"><ele>343.0</ele><time>2026-03-22T10:29:55.622Z</time></trkpt><trkpt lat="42.5842212" lon="13.8958323"><ele>343.0</ele><time>2026-03-22T10:29:56.622Z</time></trkpt><trkpt lat="42.5843309" lon="13.8957772"><ele>343.0</ele><time>2026-03-22T10:29:58.623Z</time></trkpt><trkpt lat="42.5844302" lon="13.8957251"><ele>343.0</ele><time>2026-03-22T10:30:00.624Z</time></trkpt><trkpt lat="42.5845267" lon="13.8957443"><ele>343.0</ele><time>2026-03-22T10:30:02.623Z</time></trkpt><trkpt lat="42.5845383" lon="13.8958461"><ele>340.16666666666663</ele><time>2026-03-22T10:30:03.623Z</time></trkpt><trkpt lat="42.5845204" lon="13.8959287"><ele>337.3333333333333</ele><time>2026-03-22T10:30:04.624Z</time></trkpt><trkpt lat="42.5844861" lon="13.8960061"><ele>334.5</ele><time>2026-03-22T10:30:05.623Z</time></trkpt><trkpt lat="42.5844434" lon="13.8960859"><ele>331.6666666666667</ele><time>2026-03-22T10:30:06.622Z</time></trkpt><trkpt lat="42.5843869" lon="13.8961597"><ele>328.83333333333337</ele><time>2026-03-22T10:30:07.623Z</time></trkpt><trkpt lat="42.5843388" lon="13.8962166"><ele>326.0</ele><time>2026-03-22T10:30:08.624Z</time></trkpt><trkpt lat="42.5842483" lon="13.896292"><ele>326.0</ele><time>2026-03-22T10:30:10.622Z</time></trkpt><trkpt lat="42.5842081" lon="13.8964262"><ele>326.0</ele><time>2026-03-22T10:30:12.624Z</time></trkpt><trkpt lat="42.5842189" lon="13.8965204"><ele>326.0</ele><time>2026-03-22T10:30:13.624Z</time></trkpt><trkpt lat="42.5842529" lon="13.8966111"><ele>326.0</ele><time>2026-03-22T10:30:14.624Z</time></trkpt><trkpt lat="42.5843055" lon="13.8966868"><ele>326.0</ele><time>2026-03-22T10:30:15.624Z</time></trkpt><trkpt lat="42.5843802" lon="13.8967319"><ele>326.0</ele><time>2026-03-22T10:30:16.624Z</time></trkpt><trkpt lat="42.5844673" lon="13.8967446"><ele>323.2</ele><time>2026-03-22T10:30:17.624Z</time></trkpt><trkpt lat="42.584556" lon="13.8967344"><ele>320.40000000000003</ele><time>2026-03-22T10:30:18.624Z</time></trkpt><trkpt lat="42.584637" lon="13.8967024"><ele>317.6</ele><time>2026-03-22T10:30:19.624Z</time></trkpt><trkpt lat="42.5847044" lon="13.8966609"><ele>314.8</ele><time>2026-03-22T10:30:20.624Z</time></trkpt><trkpt lat="42.5848046" lon="13.8966013"><ele>312.0</ele><time>2026-03-22T10:30:22.624Z</time></trkpt><trkpt lat="42.5848944" lon="13.8966364"><ele>310.6</ele><time>2026-03-22T10:30:24.623Z</time></trkpt><trkpt lat="42.5848934" lon="13.8968006"><ele>309.2</ele><time>2026-03-22T10:30:26.624Z</time></trkpt><trkpt lat="42.584857" lon="13.8968869"><ele>307.8</ele><time>2026-03-22T10:30:27.623Z</time></trkpt><trkpt lat="42.5848106" lon="13.8969725"><ele>306.4</ele><time>2026-03-22T10:30:28.623Z</time></trkpt><trkpt lat="42.5847572" lon="13.8970623"><ele>305.0</ele><time>2026-03-22T10:30:29.623Z</time></trkpt><trkpt lat="42.5846825" lon="13.8971357"><ele>305.0</ele><time>2026-03-22T10:30:30.623Z</time></trkpt><trkpt lat="42.5846108" lon="13.8971917"><ele>305.0</ele><time>2026-03-22T10:30:31.623Z</time></trkpt><trkpt lat="42.5845416" lon="13.8972467"><ele>305.0</ele><time>2026-03-22T10:30:32.623Z</time></trkpt><trkpt lat="42.5844353" lon="13.8973081"><ele>305.0</ele><time>2026-03-22T10:30:34.624Z</time></trkpt><trkpt lat="42.5843853" lon="13.8973623"><ele>305.0</ele><time>2026-03-22T10:30:35.623Z</time></trkpt><trkpt lat="42.584366" lon="13.8975439"><ele>303.0</ele><time>2026-03-22T10:30:37.624Z</time></trkpt><trkpt lat="42.5843914" lon="13.8976456"><ele>301.0</ele><time>2026-03-22T10:30:38.623Z</time></trkpt><trkpt lat="42.5844395" lon="13.8977416"><ele>299.0</ele><time>2026-03-22T10:30:39.623Z</time></trkpt><trkpt lat="42.5845071" lon="13.8978483"><ele>297.0</ele><time>2026-03-22T10:30:40.623Z</time></trkpt><trkpt lat="42.5845762" lon="13.8979628"><ele>295.0</ele><time>2026-03-22T10:30:41.623Z</time></trkpt><trkpt lat="42.5846516" lon="13.8980786"><ele>295.0</ele><time>2026-03-22T10:30:42.623Z</time></trkpt><trkpt lat="42.5847344" lon="13.8981845"><ele>295.0</ele><time>2026-03-22T10:30:43.624Z</time></trkpt><trkpt lat="42.5848194" lon="13.8982792"><ele>295.0</ele><time>2026-03-22T10:30:44.623Z</time></trkpt><trkpt lat="42.5849132" lon="13.8983676"><ele>295.0</ele><time>2026-03-22T10:30:45.624Z</time></trkpt><trkpt lat="42.585014" lon="13.898448"><ele>291.4</ele><time>2026-03-22T10:30:46.623Z</time></trkpt><trkpt lat="42.5851164" lon="13.8985222"><ele>287.8</ele><time>2026-03-22T10:30:47.623Z</time></trkpt><trkpt lat="42.5852128" lon="13.8985893"><ele>284.2</ele><time>2026-03-22T10:30:48.624Z</time></trkpt><trkpt lat="42.5853083" lon="13.8986668"><ele>280.6</ele><time>2026-03-22T10:30:49.623Z</time></trkpt><trkpt lat="42.5853912" lon="13.8987621"><ele>277.0</ele><time>2026-03-22T10:30:50.624Z</time></trkpt><trkpt lat="42.5854713" lon="13.8988637"><ele>277.0</ele><time>2026-03-22T10:30:51.624Z</time></trkpt><trkpt lat="42.5855539" lon="13.898965"><ele>277.0</ele><time>2026-03-22T10:30:52.622Z</time></trkpt><trkpt lat="42.5856426" lon="13.8990699"><ele>277.0</ele><time>2026-03-22T10:30:53.623Z</time></trkpt><trkpt lat="42.5857323" lon="13.899177"><ele>277.0</ele><time>2026-03-22T10:30:54.623Z</time></trkpt><trkpt lat="42.5858164" lon="13.8993001"><ele>276.75</ele><time>2026-03-22T10:30:55.624Z</time></trkpt><trkpt lat="42.5858964" lon="13.8994282"><ele>276.5</ele><time>2026-03-22T10:30:56.623Z</time></trkpt><trkpt lat="42.5859732" lon="13.8995545"><ele>276.25</ele><time>2026-03-22T10:30:57.623Z</time></trkpt><trkpt lat="42.5860516" lon="13.899668"><ele>276.0</ele><time>2026-03-22T10:30:58.624Z</time></trkpt><trkpt lat="42.5861313" lon="13.8997672"><ele>275.8</ele><time>2026-03-22T10:30:59.624Z</time></trkpt><trkpt lat="42.586212" lon="13.8998575"><ele>275.6</ele><time>2026-03-22T10:31:00.623Z</time></trkpt><trkpt lat="42.5862925" lon="13.8999409"><ele>275.4</ele><time>2026-03-22T10:31:01.623Z</time></trkpt><trkpt lat="42.586375" lon="13.9000144"><ele>275.2</ele><time>2026-03-22T10:31:02.623Z</time></trkpt><trkpt lat="42.5864548" lon="13.9000837"><ele>275.0</ele><time>2026-03-22T10:31:03.624Z</time></trkpt><trkpt lat="42.5865327" lon="13.9001524"><ele>275.0</ele><time>2026-03-22T10:31:04.624Z</time></trkpt><trkpt lat="42.5866083" lon="13.9002151"><ele>275.0</ele><time>2026-03-22T10:31:05.623Z</time></trkpt><trkpt lat="42.5866814" lon="13.9002772"><ele>275.0</ele><time>2026-03-22T10:31:06.623Z</time></trkpt><trkpt lat="42.5867525" lon="13.9003395"><ele>275.0</ele><time>2026-03-22T10:31:07.624Z</time></trkpt><trkpt lat="42.5868271" lon="13.9003923"><ele>275.0</ele><time>2026-03-22T10:31:08.623Z</time></trkpt><trkpt lat="42.5868988" lon="13.9004451"><ele>275.0</ele><time>2026-03-22T10:31:09.624Z</time></trkpt><trkpt lat="42.5869638" lon="13.9005128"><ele>275.1666666666667</ele><time>2026-03-22T10:31:10.623Z</time></trkpt><trkpt lat="42.5870254" lon="13.90058"><ele>275.33333333333337</ele><time>2026-03-22T10:31:11.623Z</time></trkpt><trkpt lat="42.5870946" lon="13.9006415"><ele>275.5</ele><time>2026-03-22T10:31:12.623Z</time></trkpt><trkpt lat="42.5871654" lon="13.900707"><ele>275.6666666666667</ele><time>2026-03-22T10:31:13.624Z</time></trkpt><trkpt lat="42.5872327" lon="13.9007815"><ele>275.8333333333333</ele><time>2026-03-22T10:31:14.623Z</time></trkpt><trkpt lat="42.5873036" lon="13.9008551"><ele>276.0</ele><time>2026-03-22T10:31:15.624Z</time></trkpt><trkpt lat="42.5873779" lon="13.9009278"><ele>273.0</ele><time>2026-03-22T10:31:16.623Z</time></trkpt><trkpt lat="42.5874573" lon="13.9009984"><ele>270.0</ele><time>2026-03-22T10:31:17.624Z</time></trkpt><trkpt lat="42.5875375" lon="13.9010838"><ele>267.0</ele><time>2026-03-22T10:31:18.623Z</time></trkpt><trkpt lat="42.5876195" lon="13.9011661"><ele>264.0</ele><time>2026-03-22T10:31:19.623Z</time></trkpt><trkpt lat="42.5876993" lon="13.90125"><ele>261.0</ele><time>2026-03-22T10:31:20.623Z</time></trkpt><trkpt lat="42.587776" lon="13.9013407"><ele>261.0</ele><time>2026-03-22T10:31:21.624Z</time></trkpt><trkpt lat="42.5878484" lon="13.9014356"><ele>261.0</ele><time>2026-03-22T10:31:22.624Z</time></trkpt><trkpt lat="42.5879124" lon="13.9015441"><ele>261.0</ele><time>2026-03-22T10:31:23.623Z</time></trkpt><trkpt lat="42.5879677" lon="13.9016676"><ele>261.0</ele><time>2026-03-22T10:31:24.622Z</time></trkpt><trkpt lat="42.5880072" lon="13.9018072"><ele>261.0</ele><time>2026-03-22T10:31:25.623Z</time></trkpt><trkpt lat="42.5880368" lon="13.9019532"><ele>260.6</ele><time>2026-03-22T10:31:26.624Z</time></trkpt><trkpt lat="42.588056" lon="13.9020965"><ele>260.20000000000005</ele><time>2026-03-22T10:31:27.624Z</time></trkpt><trkpt lat="42.588064" lon="13.9022406"><ele>259.79999999999995</ele><time>2026-03-22T10:31:28.624Z</time></trkpt><trkpt lat="42.5880641" lon="13.9023928"><ele>259.4</ele><time>2026-03-22T10:31:29.623Z</time></trkpt><trkpt lat="42.5880625" lon="13.9025327"><ele>259.0</ele><time>2026-03-22T10:31:30.624Z</time></trkpt><trkpt lat="42.5880626" lon="13.902666"><ele>257.16666666666663</ele><time>2026-03-22T10:31:31.622Z</time></trkpt><trkpt lat="42.5880668" lon="13.9027897"><ele>255.33333333333331</ele><time>2026-03-22T10:31:32.624Z</time></trkpt><trkpt lat="42.5880789" lon="13.9029055"><ele>253.5</ele><time>2026-03-22T10:31:33.623Z</time></trkpt><trkpt lat="42.5880961" lon="13.903018"><ele>251.66666666666669</ele><time>2026-03-22T10:31:34.624Z</time></trkpt><trkpt lat="42.5881249" lon="13.9031343"><ele>249.83333333333334</ele><time>2026-03-22T10:31:35.623Z</time></trkpt><trkpt lat="42.5881677" lon="13.9032239"><ele>248.0</ele><time>2026-03-22T10:31:36.624Z</time></trkpt><trkpt lat="42.5882252" lon="13.9032994"><ele>248.00000000000003</ele><time>2026-03-22T10:31:37.624Z</time></trkpt><trkpt lat="42.5882867" lon="13.9033458"><ele>248.0</ele><time>2026-03-22T10:31:38.624Z</time></trkpt><trkpt lat="42.5883599" lon="13.9033651"><ele>248.0</ele><time>2026-03-22T10:31:39.623Z</time></trkpt><trkpt lat="42.5884345" lon="13.9033615"><ele>248.0</ele><time>2026-03-22T10:31:40.623Z</time></trkpt><trkpt lat="42.5885117" lon="13.9033408"><ele>248.00000000000003</ele><time>2026-03-22T10:31:41.623Z</time></trkpt><trkpt lat="42.588589" lon="13.9032955"><ele>248.0</ele><time>2026-03-22T10:31:42.623Z</time></trkpt><trkpt lat="42.588666" lon="13.9032295"><ele>243.60000000000002</ele><time>2026-03-22T10:31:43.624Z</time></trkpt><trkpt lat="42.5887393" lon="13.9031478"><ele>239.20000000000002</ele><time>2026-03-22T10:31:44.624Z</time></trkpt><trkpt lat="42.5888076" lon="13.9030483"><ele>234.8</ele><time>2026-03-22T10:31:45.623Z</time></trkpt><trkpt lat="42.5888712" lon="13.9029472"><ele>230.4</ele><time>2026-03-22T10:31:46.623Z</time></trkpt><trkpt lat="42.5889338" lon="13.9028314"><ele>226.0</ele><time>2026-03-22T10:31:47.623Z</time></trkpt><trkpt lat="42.5889895" lon="13.9027095"><ele>226.0</ele><time>2026-03-22T10:31:48.624Z</time></trkpt><trkpt lat="42.5890405" lon="13.9025828"><ele>226.00000000000003</ele><time>2026-03-22T10:31:49.623Z</time></trkpt><trkpt lat="42.5890899" lon="13.9024544"><ele>226.00000000000003</ele><time>2026-03-22T10:31:50.624Z</time></trkpt><trkpt lat="42.5891389" lon="13.9023384"><ele>226.0</ele><time>2026-03-22T10:31:51.623Z</time></trkpt><trkpt lat="42.5891776" lon="13.9022291"><ele>226.0</ele><time>2026-03-22T10:31:52.624Z</time></trkpt><trkpt lat="42.5892127" lon="13.9021204"><ele>225.0</ele><time>2026-03-22T10:31:53.623Z</time></trkpt><trkpt lat="42.5892579" lon="13.9020079"><ele>224.00000000000003</ele><time>2026-03-22T10:31:54.624Z</time></trkpt><trkpt lat="42.589296" lon="13.9019009"><ele>223.00000000000003</ele><time>2026-03-22T10:31:55.624Z</time></trkpt><trkpt lat="42.5893306" lon="13.9018161"><ele>222.0</ele><time>2026-03-22T10:31:56.624Z</time></trkpt><trkpt lat="42.5894202" lon="13.9017603"><ele>221.0</ele><time>2026-03-22T10:31:58.623Z</time></trkpt><trkpt lat="42.5895329" lon="13.9018375"><ele>221.0</ele><time>2026-03-22T10:32:00.623Z</time></trkpt><trkpt lat="42.5895851" lon="13.9019198"><ele>221.00000000000003</ele><time>2026-03-22T10:32:01.623Z</time></trkpt><trkpt lat="42.5896349" lon="13.9020175"><ele>221.00000000000003</ele><time>2026-03-22T10:32:02.624Z</time></trkpt><trkpt lat="42.5896845" lon="13.9021308"><ele>221.0</ele><time>2026-03-22T10:32:03.623Z</time></trkpt><trkpt lat="42.5897492" lon="13.9022409"><ele>221.0</ele><time>2026-03-22T10:32:04.623Z</time></trkpt><trkpt lat="42.5898278" lon="13.9023381"><ele>221.0</ele><time>2026-03-22T10:32:05.624Z</time></trkpt><trkpt lat="42.5899147" lon="13.9024269"><ele>221.00000000000003</ele><time>2026-03-22T10:32:06.624Z</time></trkpt><trkpt lat="42.5900206" lon="13.9024835"><ele>221.00000000000003</ele><time>2026-03-22T10:32:07.623Z</time></trkpt><trkpt lat="42.5901205" lon="13.9025507"><ele>221.0</ele><time>2026-03-22T10:32:08.624Z</time></trkpt><trkpt lat="42.5902202" lon="13.9026071"><ele>221.0</ele><time>2026-03-22T10:32:09.624Z</time></trkpt><trkpt lat="42.590318" lon="13.9026572"><ele>218.4</ele><time>2026-03-22T10:32:10.623Z</time></trkpt><trkpt lat="42.5904154" lon="13.9027083"><ele>215.8</ele><time>2026-03-22T10:32:11.624Z</time></trkpt><trkpt lat="42.5905061" lon="13.9027542"><ele>213.20000000000002</ele><time>2026-03-22T10:32:12.624Z</time></trkpt><trkpt lat="42.5905958" lon="13.9027998"><ele>210.60000000000002</ele><time>2026-03-22T10:32:13.624Z</time></trkpt><trkpt lat="42.590687" lon="13.9028362"><ele>208.0</ele><time>2026-03-22T10:32:14.623Z</time></trkpt><trkpt lat="42.5907771" lon="13.9028592"><ele>208.0</ele><time>2026-03-22T10:32:15.623Z</time></trkpt><trkpt lat="42.5908654" lon="13.9028695"><ele>208.0</ele><time>2026-03-22T10:32:16.624Z</time></trkpt><trkpt lat="42.5909565" lon="13.9028762"><ele>208.0</ele><time>2026-03-22T10:32:17.624Z</time></trkpt><trkpt lat="42.5910537" lon="13.9028817"><ele>208.0</ele><time>2026-03-22T10:32:18.624Z</time></trkpt><trkpt lat="42.5911493" lon="13.9028727"><ele>208.0</ele><time>2026-03-22T10:32:19.623Z</time></trkpt><trkpt lat="42.5912447" lon="13.9028772"><ele>208.8</ele><time>2026-03-22T10:32:20.623Z</time></trkpt><trkpt lat="42.5913447" lon="13.9028837"><ele>209.60000000000002</ele><time>2026-03-22T10:32:21.624Z</time></trkpt><trkpt lat="42.5914391" lon="13.9028871"><ele>210.39999999999998</ele><time>2026-03-22T10:32:22.624Z</time></trkpt><trkpt lat="42.5915272" lon="13.9028946"><ele>211.2</ele><time>2026-03-22T10:32:23.624Z</time></trkpt><trkpt lat="42.5916167" lon="13.902909"><ele>212.0</ele><time>2026-03-22T10:32:24.624Z</time></trkpt><trkpt lat="42.5916949" lon="13.9029314"><ele>212.00000000000003</ele><time>2026-03-22T10:32:25.624Z</time></trkpt><trkpt lat="42.5917665" lon="13.9029457"><ele>212.0</ele><time>2026-03-22T10:32:26.624Z</time></trkpt><trkpt lat="42.5918317" lon="13.902964"><ele>212.0</ele><time>2026-03-22T10:32:27.624Z</time></trkpt><trkpt lat="42.5918943" lon="13.9029796"><ele>212.0</ele><time>2026-03-22T10:32:28.623Z</time></trkpt><trkpt lat="42.5920144" lon="13.9030024"><ele>212.00000000000003</ele><time>2026-03-22T10:32:30.623Z</time></trkpt><trkpt lat="42.5921277" lon="13.9030415"><ele>212.0</ele><time>2026-03-22T10:32:32.624Z</time></trkpt><trkpt lat="42.5921976" lon="13.903042"><ele>211.66666666666669</ele><time>2026-03-22T10:32:33.623Z</time></trkpt><trkpt lat="42.5922621" lon="13.9030441"><ele>211.33333333333334</ele><time>2026-03-22T10:32:34.623Z</time></trkpt><trkpt lat="42.5923324" lon="13.9030254"><ele>211.0</ele><time>2026-03-22T10:32:35.624Z</time></trkpt><trkpt lat="42.5924064" lon="13.9030065"><ele>210.66666666666669</ele><time>2026-03-22T10:32:36.623Z</time></trkpt><trkpt lat="42.5924838" lon="13.9029829"><ele>210.33333333333334</ele><time>2026-03-22T10:32:37.623Z</time></trkpt><trkpt lat="42.5925691" lon="13.9029612"><ele>210.0</ele><time>2026-03-22T10:32:38.623Z</time></trkpt><trkpt lat="42.5926671" lon="13.9029423"><ele>210.0</ele><time>2026-03-22T10:32:39.624Z</time></trkpt><trkpt lat="42.5927736" lon="13.9029375"><ele>210.0</ele><time>2026-03-22T10:32:40.623Z</time></trkpt><trkpt lat="42.5928872" lon="13.9029513"><ele>210.0</ele><time>2026-03-22T10:32:41.623Z</time></trkpt><trkpt lat="42.5930043" lon="13.9029664"><ele>210.0</ele><time>2026-03-22T10:32:42.624Z</time></trkpt><trkpt lat="42.5931228" lon="13.9029949"><ele>208.25</ele><time>2026-03-22T10:32:43.623Z</time></trkpt><trkpt lat="42.5932427" lon="13.9030271"><ele>206.5</ele><time>2026-03-22T10:32:44.623Z</time></trkpt><trkpt lat="42.5933524" lon="13.9030728"><ele>204.75</ele><time>2026-03-22T10:32:45.623Z</time></trkpt><trkpt lat="42.5934565" lon="13.9031335"><ele>203.0</ele><time>2026-03-22T10:32:46.624Z</time></trkpt><trkpt lat="42.5935602" lon="13.9031816"><ele>203.0</ele><time>2026-03-22T10:32:47.624Z</time></trkpt><trkpt lat="42.5936537" lon="13.9032379"><ele>203.0</ele><time>2026-03-22T10:32:48.623Z</time></trkpt><trkpt lat="42.5937465" lon="13.9032947"><ele>203.0</ele><time>2026-03-22T10:32:49.623Z</time></trkpt><trkpt lat="42.5938377" lon="13.9033154"><ele>203.0</ele><time>2026-03-22T10:32:50.624Z</time></trkpt><trkpt lat="42.5939218" lon="13.9033401"><ele>203.0</ele><time>2026-03-22T10:32:51.624Z</time></trkpt><trkpt lat="42.593991" lon="13.9033143"><ele>202.60000000000002</ele><time>2026-03-22T10:32:52.624Z</time></trkpt><trkpt lat="42.5940544" lon="13.903297"><ele>202.20000000000002</ele><time>2026-03-22T10:32:53.624Z</time></trkpt><trkpt lat="42.5941788" lon="13.9032633"><ele>201.8</ele><time>2026-03-22T10:32:55.623Z</time></trkpt><trkpt lat="42.594292" lon="13.9031831"><ele>201.4</ele><time>2026-03-22T10:32:57.623Z</time></trkpt><trkpt lat="42.5943536" lon="13.9031272"><ele>201.0</ele><time>2026-03-22T10:32:58.623Z</time></trkpt><trkpt lat="42.5944164" lon="13.9030698"><ele>201.0</ele><time>2026-03-22T10:32:59.623Z</time></trkpt><trkpt lat="42.5944909" lon="13.9030031"><ele>201.0</ele><time>2026-03-22T10:33:00.623Z</time></trkpt><trkpt lat="42.5945614" lon="13.9029427"><ele>201.0</ele><time>2026-03-22T10:33:01.623Z</time></trkpt><trkpt lat="42.5946365" lon="13.9028835"><ele>201.0</ele><time>2026-03-22T10:33:02.624Z</time></trkpt><trkpt lat="42.5947182" lon="13.9028323"><ele>201.0</ele><time>2026-03-22T10:33:03.624Z</time></trkpt><trkpt lat="42.5948058" lon="13.9027879"><ele>201.0</ele><time>2026-03-22T10:33:04.623Z</time></trkpt><trkpt lat="42.5948937" lon="13.9027445"><ele>198.4</ele><time>2026-03-22T10:33:05.623Z</time></trkpt><trkpt lat="42.5949835" lon="13.9027135"><ele>195.8</ele><time>2026-03-22T10:33:06.624Z</time></trkpt><trkpt lat="42.5950743" lon="13.9027007"><ele>193.20000000000002</ele><time>2026-03-22T10:33:07.623Z</time></trkpt><trkpt lat="42.595169" lon="13.9026933"><ele>190.60000000000002</ele><time>2026-03-22T10:33:08.624Z</time></trkpt><trkpt lat="42.5952639" lon="13.9026797"><ele>188.0</ele><time>2026-03-22T10:33:09.623Z</time></trkpt><trkpt lat="42.5953515" lon="13.9026462"><ele>187.8</ele><time>2026-03-22T10:33:10.622Z</time></trkpt><trkpt lat="42.5954523" lon="13.9026358"><ele>187.60000000000002</ele><time>2026-03-22T10:33:11.624Z</time></trkpt><trkpt lat="42.5955555" lon="13.9026271"><ele>187.39999999999998</ele><time>2026-03-22T10:33:12.623Z</time></trkpt><trkpt lat="42.5956603" lon="13.9026225"><ele>187.2</ele><time>2026-03-22T10:33:13.623Z</time></trkpt><trkpt lat="42.5957668" lon="13.9026133"><ele>187.0</ele><time>2026-03-22T10:33:14.623Z</time></trkpt><trkpt lat="42.595869" lon="13.9025895"><ele>186.2</ele><time>2026-03-22T10:33:15.624Z</time></trkpt><trkpt lat="42.5959613" lon="13.9025592"><ele>185.39999999999998</ele><time>2026-03-22T10:33:16.624Z</time></trkpt><trkpt lat="42.5960531" lon="13.9025249"><ele>184.60000000000002</ele><time>2026-03-22T10:33:17.624Z</time></trkpt><trkpt lat="42.5961421" lon="13.9024858"><ele>183.8</ele><time>2026-03-22T10:33:18.624Z</time></trkpt><trkpt lat="42.5962337" lon="13.9024492"><ele>183.0</ele><time>2026-03-22T10:33:19.623Z</time></trkpt><trkpt lat="42.596338" lon="13.9024364"><ele>183.0</ele><time>2026-03-22T10:33:20.624Z</time></trkpt><trkpt lat="42.5964375" lon="13.9024367"><ele>183.0</ele><time>2026-03-22T10:33:21.624Z</time></trkpt><trkpt lat="42.5965468" lon="13.9024275"><ele>183.0</ele><time>2026-03-22T10:33:22.623Z</time></trkpt><trkpt lat="42.5966572" lon="13.9024244"><ele>183.0</ele><time>2026-03-22T10:33:23.624Z</time></trkpt><trkpt lat="42.5967676" lon="13.9024187"><ele>183.0</ele><time>2026-03-22T10:33:24.624Z</time></trkpt><trkpt lat="42.5968696" lon="13.9024124"><ele>183.0</ele><time>2026-03-22T10:33:25.624Z</time></trkpt><trkpt lat="42.5969734" lon="13.9024079"><ele>183.0</ele><time>2026-03-22T10:33:26.624Z</time></trkpt><trkpt lat="42.5970832" lon="13.9024098"><ele>183.0</ele><time>2026-03-22T10:33:27.623Z</time></trkpt><trkpt lat="42.597197" lon="13.9023721"><ele>183.0</ele><time>2026-03-22T10:33:28.624Z</time></trkpt><trkpt lat="42.597304" lon="13.9023379"><ele>183.0</ele><time>2026-03-22T10:33:29.624Z</time></trkpt><trkpt lat="42.5973994" lon="13.9022984"><ele>180.16666666666666</ele><time>2026-03-22T10:33:30.624Z</time></trkpt><trkpt lat="42.5974865" lon="13.9022623"><ele>177.33333333333334</ele><time>2026-03-22T10:33:31.624Z</time></trkpt><trkpt lat="42.5975724" lon="13.9022187"><ele>174.5</ele><time>2026-03-22T10:33:32.624Z</time></trkpt><trkpt lat="42.5976481" lon="13.9021798"><ele>171.66666666666669</ele><time>2026-03-22T10:33:33.624Z</time></trkpt><trkpt lat="42.5977159" lon="13.902145"><ele>168.83333333333334</ele><time>2026-03-22T10:33:34.623Z</time></trkpt><trkpt lat="42.5977819" lon="13.9021354"><ele>166.0</ele><time>2026-03-22T10:33:35.623Z</time></trkpt><trkpt lat="42.5978501" lon="13.9021514"><ele>163.5</ele><time>2026-03-22T10:33:36.624Z</time></trkpt><trkpt lat="42.5978961" lon="13.9022145"><ele>161.0</ele><time>2026-03-22T10:33:37.623Z</time></trkpt><trkpt lat="42.5979036" lon="13.9023114"><ele>158.5</ele><time>2026-03-22T10:33:38.623Z</time></trkpt><trkpt lat="42.5978912" lon="13.9024114"><ele>156.0</ele><time>2026-03-22T10:33:39.623Z</time></trkpt><trkpt lat="42.5978653" lon="13.9025176"><ele>153.5</ele><time>2026-03-22T10:33:40.623Z</time></trkpt><trkpt lat="42.5978359" lon="13.9026302"><ele>151.0</ele><time>2026-03-22T10:33:41.623Z</time></trkpt><trkpt lat="42.5977998" lon="13.9027263"><ele>150.83333333333334</ele><time>2026-03-22T10:33:42.624Z</time></trkpt><trkpt lat="42.5977647" lon="13.9028107"><ele>150.66666666666669</ele><time>2026-03-22T10:33:43.623Z</time></trkpt><trkpt lat="42.5977283" lon="13.9028953"><ele>150.5</ele><time>2026-03-22T10:33:44.624Z</time></trkpt><trkpt lat="42.5976963" lon="13.9029715"><ele>150.33333333333334</ele><time>2026-03-22T10:33:45.623Z</time></trkpt><trkpt lat="42.597697" lon="13.9030589"><ele>150.16666666666666</ele><time>2026-03-22T10:33:46.622Z</time></trkpt><trkpt lat="42.5978022" lon="13.9031695"><ele>150.0</ele><time>2026-03-22T10:33:48.621Z</time></trkpt><trkpt lat="42.597885" lon="13.9031768"><ele>147.4</ele><time>2026-03-22T10:33:49.622Z</time></trkpt><trkpt lat="42.5979819" lon="13.9031709"><ele>144.8</ele><time>2026-03-22T10:33:50.622Z</time></trkpt><trkpt lat="42.5980878" lon="13.9031785"><ele>142.2</ele><time>2026-03-22T10:33:51.622Z</time></trkpt><trkpt lat="42.5982065" lon="13.9031895"><ele>139.6</ele><time>2026-03-22T10:33:52.622Z</time></trkpt><trkpt lat="42.598327" lon="13.9032126"><ele>137.0</ele><time>2026-03-22T10:33:53.622Z</time></trkpt><trkpt lat="42.598452" lon="13.903245"><ele>137.0</ele><time>2026-03-22T10:33:54.623Z</time></trkpt><trkpt lat="42.5985766" lon="13.9032801"><ele>137.0</ele><time>2026-03-22T10:33:55.623Z</time></trkpt><trkpt lat="42.5987025" lon="13.9033232"><ele>137.0</ele><time>2026-03-22T10:33:56.623Z</time></trkpt><trkpt lat="42.598828" lon="13.9033718"><ele>137.0</ele><time>2026-03-22T10:33:57.622Z</time></trkpt><trkpt lat="42.598959" lon="13.9034086"><ele>132.0</ele><time>2026-03-22T10:33:58.622Z</time></trkpt><trkpt lat="42.5990939" lon="13.9034294"><ele>127.0</ele><time>2026-03-22T10:33:59.623Z</time></trkpt><trkpt lat="42.5992294" lon="13.9034386"><ele>122.0</ele><time>2026-03-22T10:34:00.623Z</time></trkpt><trkpt lat="42.5993655" lon="13.9034359"><ele>117.0</ele><time>2026-03-22T10:34:01.623Z</time></trkpt><trkpt lat="42.5994988" lon="13.9034312"><ele>117.0</ele><time>2026-03-22T10:34:02.622Z</time></trkpt><trkpt lat="42.5996346" lon="13.9034231"><ele>117.0</ele><time>2026-03-22T10:34:03.623Z</time></trkpt><trkpt lat="42.5997697" lon="13.9034148"><ele>117.0</ele><time>2026-03-22T10:34:04.622Z</time></trkpt><trkpt lat="42.5999042" lon="13.9034143"><ele>117.0</ele><time>2026-03-22T10:34:05.622Z</time></trkpt><trkpt lat="42.6000404" lon="13.9033929"><ele>117.0</ele><time>2026-03-22T10:34:06.623Z</time></trkpt><trkpt lat="42.6001713" lon="13.9033538"><ele>117.0</ele><time>2026-03-22T10:34:07.622Z</time></trkpt><trkpt lat="42.6002979" lon="13.9033072"><ele>117.0</ele><time>2026-03-22T10:34:08.622Z</time></trkpt><trkpt lat="42.6004186" lon="13.9032603"><ele>117.0</ele><time>2026-03-22T10:34:09.622Z</time></trkpt><trkpt lat="42.6005404" lon="13.9032104"><ele>114.0</ele><time>2026-03-22T10:34:10.623Z</time></trkpt><trkpt lat="42.6006586" lon="13.9031762"><ele>111.0</ele><time>2026-03-22T10:34:11.622Z</time></trkpt><trkpt lat="42.6007794" lon="13.9031617"><ele>108.0</ele><time>2026-03-22T10:34:12.623Z</time></trkpt><trkpt lat="42.6009004" lon="13.9031373"><ele>105.0</ele><time>2026-03-22T10:34:13.622Z</time></trkpt><trkpt lat="42.6010197" lon="13.9031129"><ele>105.0</ele><time>2026-03-22T10:34:14.623Z</time></trkpt><trkpt lat="42.6011392" lon="13.9030842"><ele>105.0</ele><time>2026-03-22T10:34:15.622Z</time></trkpt><trkpt lat="42.6012549" lon="13.903045"><ele>105.0</ele><time>2026-03-22T10:34:16.623Z</time></trkpt><trkpt lat="42.6013642" lon="13.9030104"><ele>105.0</ele><time>2026-03-22T10:34:17.623Z</time></trkpt><trkpt lat="42.6014691" lon="13.9029769"><ele>103.5</ele><time>2026-03-22T10:34:18.623Z</time></trkpt><trkpt lat="42.6015674" lon="13.9029501"><ele>102.0</ele><time>2026-03-22T10:34:19.623Z</time></trkpt><trkpt lat="42.6016546" lon="13.9029239"><ele>100.5</ele><time>2026-03-22T10:34:20.622Z</time></trkpt><trkpt lat="42.6017345" lon="13.9029072"><ele>99.0</ele><time>2026-03-22T10:34:21.623Z</time></trkpt><trkpt lat="42.6018087" lon="13.9028956"><ele>97.5</ele><time>2026-03-22T10:34:22.623Z</time></trkpt><trkpt lat="42.6018797" lon="13.9028897"><ele>96.0</ele><time>2026-03-22T10:34:23.622Z</time></trkpt><trkpt lat="42.6019991" lon="13.9028974"><ele>95.66666666666667</ele><time>2026-03-22T10:34:25.623Z</time></trkpt><trkpt lat="42.6021148" lon="13.9029051"><ele>95.33333333333333</ele><time>2026-03-22T10:34:27.622Z</time></trkpt><trkpt lat="42.6021762" lon="13.9028849"><ele>95.0</ele><time>2026-03-22T10:34:28.622Z</time></trkpt><trkpt lat="42.6021823" lon="13.9027969"><ele>94.66666666666666</ele><time>2026-03-22T10:34:29.623Z</time></trkpt><trkpt lat="42.6022239" lon="13.9026833"><ele>94.33333333333333</ele><time>2026-03-22T10:34:31.623Z</time></trkpt><trkpt lat="42.6022571" lon="13.9025674"><ele>94.0</ele><time>2026-03-22T10:34:33.622Z</time></trkpt><trkpt lat="42.6023163" lon="13.9024965"><ele>94.57142857142857</ele><time>2026-03-22T10:34:35.623Z</time></trkpt><trkpt lat="42.6023947" lon="13.9024731"><ele>95.14285714285714</ele><time>2026-03-22T10:34:37.622Z</time></trkpt><trkpt lat="42.6024598" lon="13.9024904"><ele>95.71428571428572</ele><time>2026-03-22T10:34:39.623Z</time></trkpt><trkpt lat="42.6025383" lon="13.9025371"><ele>96.28571428571428</ele><time>2026-03-22T10:34:42.622Z</time></trkpt><trkpt lat="42.6026033" lon="13.9025683"><ele>96.85714285714286</ele><time>2026-03-22T10:34:44.622Z</time></trkpt><trkpt lat="42.6026692" lon="13.9025405"><ele>97.42857142857143</ele><time>2026-03-22T10:34:46.623Z</time></trkpt><trkpt lat="42.6027108" lon="13.9024715"><ele>98.0</ele><time>2026-03-22T10:34:48.622Z</time></trkpt><trkpt lat="42.6027193" lon="13.9023844"><ele>98.0</ele><time>2026-03-22T10:34:50.622Z</time></trkpt><trkpt lat="42.602706" lon="13.9022683"><ele>98.0</ele><time>2026-03-22T10:34:53.622Z</time></trkpt><trkpt lat="42.6026931" lon="13.9021624"><ele>98.0</ele><time>2026-03-22T10:34:56.623Z</time></trkpt><trkpt lat="42.6026751" lon="13.902073"><ele>98.0</ele><time>2026-03-22T10:34:59.622Z</time></trkpt><trkpt lat="42.6026636" lon="13.9019827"><ele>98.0</ele><time>2026-03-22T10:35:02.622Z</time></trkpt><trkpt lat="42.6026593" lon="13.9018927"><ele>98.0</ele><time>2026-03-22T10:35:05.622Z</time></trkpt><trkpt lat="42.6026652" lon="13.9018024"><ele>98.0</ele><time>2026-03-22T10:35:08.622Z</time></trkpt><trkpt lat="42.6026806" lon="13.9017081"><ele>98.85714285714286</ele><time>2026-03-22T10:35:11.623Z</time></trkpt><trkpt lat="42.6027078" lon="13.9016147"><ele>99.71428571428572</ele><time>2026-03-22T10:35:14.623Z</time></trkpt><trkpt lat="42.6027403" lon="13.9015218"><ele>100.57142857142857</ele><time>2026-03-22T10:35:17.623Z</time></trkpt><trkpt lat="42.6027811" lon="13.901439"><ele>101.42857142857143</ele><time>2026-03-22T10:35:20.622Z</time></trkpt><trkpt lat="42.6028188" lon="13.9013614"><ele>102.28571428571429</ele><time>2026-03-22T10:35:23.623Z</time></trkpt><trkpt lat="42.6028577" lon="13.9012811"><ele>103.14285714285714</ele><time>2026-03-22T10:35:26.622Z</time></trkpt><trkpt lat="42.6029047" lon="13.9012047"><ele>104.0</ele><time>2026-03-22T10:35:29.622Z</time></trkpt><trkpt lat="42.6029549" lon="13.9011335"><ele>106.14285714285714</ele><time>2026-03-22T10:35:32.623Z</time></trkpt><trkpt lat="42.6030107" lon="13.9010729"><ele>108.28571428571429</ele><time>2026-03-22T10:35:35.622Z</time></trkpt><trkpt lat="42.6030688" lon="13.9010192"><ele>110.42857142857143</ele><time>2026-03-22T10:35:38.623Z</time></trkpt><trkpt lat="42.6031276" lon="13.9009631"><ele>112.57142857142857</ele><time>2026-03-22T10:35:41.622Z</time></trkpt><trkpt lat="42.6031982" lon="13.9009113"><ele>114.71428571428572</ele><time>2026-03-22T10:35:44.622Z</time></trkpt><trkpt lat="42.603262" lon="13.9008638"><ele>116.85714285714286</ele><time>2026-03-22T10:35:47.622Z</time></trkpt><trkpt lat="42.6033266" lon="13.9008256"><ele>119.0</ele><time>2026-03-22T10:35:50.622Z</time></trkpt><trkpt lat="42.6033926" lon="13.9007908"><ele>119.0</ele><time>2026-03-22T10:35:53.623Z</time></trkpt><trkpt lat="42.6034588" lon="13.9007561"><ele>119.0</ele><time>2026-03-22T10:35:56.623Z</time></trkpt><trkpt lat="42.6035274" lon="13.9007197"><ele>119.0</ele><time>2026-03-22T10:35:59.622Z</time></trkpt><trkpt lat="42.6035964" lon="13.9006855"><ele>119.0</ele><time>2026-03-22T10:36:02.622Z</time></trkpt><trkpt lat="42.6036641" lon="13.9006474"><ele>119.0</ele><time>2026-03-22T10:36:05.622Z</time></trkpt><trkpt lat="42.6037282" lon="13.9006086"><ele>119.0</ele><time>2026-03-22T10:36:08.622Z</time></trkpt><trkpt lat="42.6037919" lon="13.9005737"><ele>119.0</ele><time>2026-03-22T10:36:11.622Z</time></trkpt><trkpt lat="42.6038552" lon="13.9005337"><ele>120.71428571428572</ele><time>2026-03-22T10:36:14.622Z</time></trkpt><trkpt lat="42.603914" lon="13.9004845"><ele>122.42857142857143</ele><time>2026-03-22T10:36:17.622Z</time></trkpt><trkpt lat="42.6039743" lon="13.9004322"><ele>124.14285714285714</ele><time>2026-03-22T10:36:20.623Z</time></trkpt><trkpt lat="42.6040353" lon="13.9003747"><ele>125.85714285714286</ele><time>2026-03-22T10:36:23.622Z</time></trkpt><trkpt lat="42.6040957" lon="13.9003159"><ele>127.57142857142858</ele><time>2026-03-22T10:36:26.623Z</time></trkpt><trkpt lat="42.6041527" lon="13.9002477"><ele>129.28571428571428</ele><time>2026-03-22T10:36:29.623Z</time></trkpt><trkpt lat="42.6042069" lon="13.9001786"><ele>131.0</ele><time>2026-03-22T10:36:32.622Z</time></trkpt><trkpt lat="42.6042594" lon="13.9001152"><ele>130.71428571428572</ele><time>2026-03-22T10:36:35.622Z</time></trkpt><trkpt lat="42.6043128" lon="13.9000487"><ele>130.42857142857144</ele><time>2026-03-22T10:36:38.623Z</time></trkpt><trkpt lat="42.6043643" lon="13.8999815"><ele>130.14285714285714</ele><time>2026-03-22T10:36:41.623Z</time></trkpt><trkpt lat="42.6044199" lon="13.8999147"><ele>129.85714285714286</ele><time>2026-03-22T10:36:44.622Z</time></trkpt><trkpt lat="42.6044752" lon="13.8998421"><ele>129.57142857142856</ele><time>2026-03-22T10:36:47.623Z</time></trkpt><trkpt lat="42.6045335" lon="13.8997758"><ele>129.28571428571428</ele><time>2026-03-22T10:36:50.623Z</time></trkpt><trkpt lat="42.6045889" lon="13.8997082"><ele>129.0</ele><time>2026-03-22T10:36:53.622Z</time></trkpt><trkpt lat="42.6046435" lon="13.8996399"><ele>131.16666666666666</ele><time>2026-03-22T10:36:56.623Z</time></trkpt><trkpt lat="42.6046968" lon="13.8995701"><ele>133.33333333333334</ele><time>2026-03-22T10:36:59.621Z</time></trkpt><trkpt lat="42.604752" lon="13.8994952"><ele>135.5</ele><time>2026-03-22T10:37:02.623Z</time></trkpt><trkpt lat="42.6048045" lon="13.8994224"><ele>137.66666666666669</ele><time>2026-03-22T10:37:05.623Z</time></trkpt><trkpt lat="42.604859" lon="13.8993524"><ele>139.83333333333334</ele><time>2026-03-22T10:37:08.622Z</time></trkpt><trkpt lat="42.6049108" lon="13.8992757"><ele>142.0</ele><time>2026-03-22T10:37:11.623Z</time></trkpt><trkpt lat="42.6049515" lon="13.8991827"><ele>142.0</ele><time>2026-03-22T10:37:14.623Z</time></trkpt><trkpt lat="42.604959" lon="13.899073"><ele>142.0</ele><time>2026-03-22T10:37:17.623Z</time></trkpt><trkpt lat="42.6049249" lon="13.8989584"><ele>142.0</ele><time>2026-03-22T10:37:20.623Z</time></trkpt><trkpt lat="42.6048603" lon="13.898871"><ele>142.0</ele><time>2026-03-22T10:37:23.622Z</time></trkpt><trkpt lat="42.6047849" lon="13.8988084"><ele>142.0</ele><time>2026-03-22T10:37:26.623Z</time></trkpt><trkpt lat="42.6047104" lon="13.8987536"><ele>142.0</ele><time>2026-03-22T10:37:29.623Z</time></trkpt><trkpt lat="42.604656" lon="13.8987101"><ele>142.0</ele><time>2026-03-22T10:37:31.622Z</time></trkpt><trkpt lat="42.6045994" lon="13.8986667"><ele>142.0</ele><time>2026-03-22T10:37:33.622Z</time></trkpt><trkpt lat="42.6045204" lon="13.8986133"><ele>142.0</ele><time>2026-03-22T10:37:36.623Z</time></trkpt><trkpt lat="42.6044634" lon="13.8985739"><ele>142.0</ele><time>2026-03-22T10:37:38.623Z</time></trkpt><trkpt lat="42.6044084" lon="13.8985317"><ele>142.0</ele><time>2026-03-22T10:37:40.623Z</time></trkpt><trkpt lat="42.6043209" lon="13.8984909"><ele>142.0</ele><time>2026-03-22T10:37:43.623Z</time></trkpt><trkpt lat="42.6042591" lon="13.8984694"><ele>142.0</ele><time>2026-03-22T10:37:45.622Z</time></trkpt><trkpt lat="42.6041662" lon="13.8984594"><ele>140.33333333333334</ele><time>2026-03-22T10:37:48.622Z</time></trkpt><trkpt lat="42.6040786" lon="13.898467"><ele>138.66666666666669</ele><time>2026-03-22T10:37:51.623Z</time></trkpt><trkpt lat="42.6039946" lon="13.8984937"><ele>137.0</ele><time>2026-03-22T10:37:54.622Z</time></trkpt><trkpt lat="42.6039088" lon="13.8985187"><ele>135.33333333333334</ele><time>2026-03-22T10:37:57.622Z</time></trkpt><trkpt lat="42.6038255" lon="13.8985443"><ele>133.66666666666666</ele><time>2026-03-22T10:38:00.623Z</time></trkpt><trkpt lat="42.6037391" lon="13.8985772"><ele>132.0</ele><time>2026-03-22T10:38:03.622Z</time></trkpt><trkpt lat="42.6036505" lon="13.8986089"><ele>132.0</ele><time>2026-03-22T10:38:06.622Z</time></trkpt><trkpt lat="42.6035586" lon="13.8986357"><ele>132.0</ele><time>2026-03-22T10:38:09.623Z</time></trkpt><trkpt lat="42.6034682" lon="13.8986635"><ele>132.0</ele><time>2026-03-22T10:38:12.623Z</time></trkpt><trkpt lat="42.6033799" lon="13.8986925"><ele>132.0</ele><time>2026-03-22T10:38:15.623Z</time></trkpt><trkpt lat="42.6032893" lon="13.8987242"><ele>132.0</ele><time>2026-03-22T10:38:18.623Z</time></trkpt><trkpt lat="42.6032022" lon="13.8987544"><ele>132.0</ele><time>2026-03-22T10:38:21.622Z</time></trkpt><trkpt lat="42.6031375" lon="13.8987702"><ele>132.0</ele><time>2026-03-22T10:38:23.621Z</time></trkpt><trkpt lat="42.6030753" lon="13.898788"><ele>132.0</ele><time>2026-03-22T10:38:25.622Z</time></trkpt><trkpt lat="42.6029948" lon="13.8988128"><ele>132.0</ele><time>2026-03-22T10:38:28.623Z</time></trkpt><trkpt lat="42.6029085" lon="13.8988362"><ele>132.0</ele><time>2026-03-22T10:38:31.623Z</time></trkpt><trkpt lat="42.6028224" lon="13.8988529"><ele>132.0</ele><time>2026-03-22T10:38:34.623Z</time></trkpt><trkpt lat="42.6027395" lon="13.8988766"><ele>132.33333333333334</ele><time>2026-03-22T10:38:37.623Z</time></trkpt><trkpt lat="42.6026666" lon="13.898889"><ele>132.66666666666666</ele><time>2026-03-22T10:38:40.623Z</time></trkpt><trkpt lat="42.6025924" lon="13.8988837"><ele>133.0</ele><time>2026-03-22T10:38:43.623Z</time></trkpt><trkpt lat="42.6025366" lon="13.8988238"><ele>133.33333333333331</ele><time>2026-03-22T10:38:46.622Z</time></trkpt><trkpt lat="42.6024906" lon="13.8987272"><ele>133.66666666666666</ele><time>2026-03-22T10:38:49.623Z</time></trkpt><trkpt lat="42.6024924" lon="13.8986409"><ele>134.0</ele><time>2026-03-22T10:38:51.622Z</time></trkpt><trkpt lat="42.6024991" lon="13.8985191"><ele>135.83333333333331</ele><time>2026-03-22T10:38:54.622Z</time></trkpt><trkpt lat="42.6025092" lon="13.8984027"><ele>137.66666666666666</ele><time>2026-03-22T10:38:57.623Z</time></trkpt><trkpt lat="42.6025199" lon="13.8982902"><ele>139.5</ele><time>2026-03-22T10:39:00.621Z</time></trkpt><trkpt lat="42.602528" lon="13.8981781"><ele>141.33333333333334</ele><time>2026-03-22T10:39:03.622Z</time></trkpt><trkpt lat="42.6025345" lon="13.8980654"><ele>143.16666666666669</ele><time>2026-03-22T10:39:06.621Z</time></trkpt><trkpt lat="42.6025419" lon="13.8979572"><ele>145.0</ele><time>2026-03-22T10:39:09.622Z</time></trkpt><trkpt lat="42.6025502" lon="13.8978442"><ele>145.0</ele><time>2026-03-22T10:39:12.621Z</time></trkpt><trkpt lat="42.6025564" lon="13.8977331"><ele>145.0</ele><time>2026-03-22T10:39:15.621Z</time></trkpt><trkpt lat="42.6025611" lon="13.8976208"><ele>145.0</ele><time>2026-03-22T10:39:18.621Z</time></trkpt><trkpt lat="42.6025685" lon="13.8975091"><ele>145.0</ele><time>2026-03-22T10:39:21.622Z</time></trkpt><trkpt lat="42.6025712" lon="13.8973964"><ele>145.0</ele><time>2026-03-22T10:39:24.622Z</time></trkpt><trkpt lat="42.6025811" lon="13.8972826"><ele>145.0</ele><time>2026-03-22T10:39:27.622Z</time></trkpt><trkpt lat="42.6025852" lon="13.8971723"><ele>146.5</ele><time>2026-03-22T10:39:30.622Z</time></trkpt><trkpt lat="42.6025996" lon="13.8970612"><ele>148.0</ele><time>2026-03-22T10:39:33.621Z</time></trkpt><trkpt lat="42.6026075" lon="13.8969534"><ele>149.5</ele><time>2026-03-22T10:39:36.621Z</time></trkpt><trkpt lat="42.6026145" lon="13.8968503"><ele>151.0</ele><time>2026-03-22T10:39:39.621Z</time></trkpt><trkpt lat="42.602622" lon="13.8967466"><ele>152.5</ele><time>2026-03-22T10:39:42.622Z</time></trkpt><trkpt lat="42.6026292" lon="13.8966466"><ele>154.0</ele><time>2026-03-22T10:39:45.622Z</time></trkpt><trkpt lat="42.6026347" lon="13.8965442"><ele>154.83333333333334</ele><time>2026-03-22T10:39:48.622Z</time></trkpt><trkpt lat="42.6026405" lon="13.8964441"><ele>155.66666666666669</ele><time>2026-03-22T10:39:51.622Z</time></trkpt><trkpt lat="42.6026499" lon="13.896339"><ele>156.5</ele><time>2026-03-22T10:39:54.621Z</time></trkpt><trkpt lat="42.6026578" lon="13.8962304"><ele>157.33333333333334</ele><time>2026-03-22T10:39:57.622Z</time></trkpt><trkpt lat="42.6026714" lon="13.896121"><ele>158.16666666666666</ele><time>2026-03-22T10:40:00.622Z</time></trkpt><trkpt lat="42.6026807" lon="13.8960067"><ele>159.0</ele><time>2026-03-22T10:40:03.622Z</time></trkpt><trkpt lat="42.6026816" lon="13.8958961"><ele>159.5</ele><time>2026-03-22T10:40:06.621Z</time></trkpt><trkpt lat="42.6026833" lon="13.8957843"><ele>160.0</ele><time>2026-03-22T10:40:09.622Z</time></trkpt><trkpt lat="42.6026853" lon="13.8956657"><ele>160.5</ele><time>2026-03-22T10:40:12.622Z</time></trkpt><trkpt lat="42.6026826" lon="13.8955524"><ele>161.0</ele><time>2026-03-22T10:40:15.621Z</time></trkpt><trkpt lat="42.6026857" lon="13.8954367"><ele>161.5</ele><time>2026-03-22T10:40:18.622Z</time></trkpt><trkpt lat="42.6026863" lon="13.895317"><ele>162.0</ele><time>2026-03-22T10:40:21.622Z</time></trkpt><trkpt lat="42.6026955" lon="13.8952046"><ele>162.0</ele><time>2026-03-22T10:40:24.622Z</time></trkpt><trkpt lat="42.6027074" lon="13.8950895"><ele>162.0</ele><time>2026-03-22T10:40:27.621Z</time></trkpt><trkpt lat="42.6027072" lon="13.8949756"><ele>162.0</ele><time>2026-03-22T10:40:30.622Z</time></trkpt><trkpt lat="42.6026804" lon="13.8948811"><ele>162.0</ele><time>2026-03-22T10:40:32.621Z</time></trkpt><trkpt lat="42.6026305" lon="13.8947586"><ele>162.0</ele><time>2026-03-22T10:40:34.622Z</time></trkpt><trkpt lat="42.6025613" lon="13.8946194"><ele>162.0</ele><time>2026-03-22T10:40:36.621Z</time></trkpt><trkpt lat="42.6024841" lon="13.8944825"><ele>162.0</ele><time>2026-03-22T10:40:38.622Z</time></trkpt><trkpt lat="42.602445" lon="13.8944083"><ele>162.0</ele><time>2026-03-22T10:40:39.621Z</time></trkpt><trkpt lat="42.6024035" lon="13.8943335"><ele>162.0</ele><time>2026-03-22T10:40:40.621Z</time></trkpt><trkpt lat="42.6023598" lon="13.8942619"><ele>162.0</ele><time>2026-03-22T10:40:41.621Z</time></trkpt><trkpt lat="42.6023154" lon="13.8941856"><ele>162.0</ele><time>2026-03-22T10:40:42.621Z</time></trkpt><trkpt lat="42.602282" lon="13.8940972"><ele>162.28571428571428</ele><time>2026-03-22T10:40:43.621Z</time></trkpt><trkpt lat="42.6022489" lon="13.8940111"><ele>162.57142857142856</ele><time>2026-03-22T10:40:44.62Z</time></trkpt><trkpt lat="42.6022072" lon="13.8939304"><ele>162.85714285714283</ele><time>2026-03-22T10:40:45.621Z</time></trkpt><trkpt lat="42.6021651" lon="13.8938528"><ele>163.14285714285714</ele><time>2026-03-22T10:40:46.621Z</time></trkpt><trkpt lat="42.6021182" lon="13.8937773"><ele>163.42857142857142</ele><time>2026-03-22T10:40:47.622Z</time></trkpt><trkpt lat="42.602076" lon="13.8936964"><ele>163.7142857142857</ele><time>2026-03-22T10:40:48.621Z</time></trkpt><trkpt lat="42.6020356" lon="13.8936127"><ele>164.0</ele><time>2026-03-22T10:40:49.621Z</time></trkpt><trkpt lat="42.6019882" lon="13.8935342"><ele>163.0</ele><time>2026-03-22T10:40:50.622Z</time></trkpt><trkpt lat="42.6019452" lon="13.8934489"><ele>162.0</ele><time>2026-03-22T10:40:51.622Z</time></trkpt><trkpt lat="42.6018993" lon="13.8933629"><ele>161.0</ele><time>2026-03-22T10:40:52.622Z</time></trkpt><trkpt lat="42.6018558" lon="13.8932768"><ele>160.0</ele><time>2026-03-22T10:40:53.621Z</time></trkpt><trkpt lat="42.6018157" lon="13.8931887"><ele>159.0</ele><time>2026-03-22T10:40:54.621Z</time></trkpt><trkpt lat="42.6017759" lon="13.8930964"><ele>158.0</ele><time>2026-03-22T10:40:55.622Z</time></trkpt><trkpt lat="42.601739" lon="13.8930037"><ele>157.83333333333331</ele><time>2026-03-22T10:40:56.621Z</time></trkpt><trkpt lat="42.6017033" lon="13.8929105"><ele>157.66666666666666</ele><time>2026-03-22T10:40:57.621Z</time></trkpt><trkpt lat="42.6016702" lon="13.8928164"><ele>157.5</ele><time>2026-03-22T10:40:58.621Z</time></trkpt><trkpt lat="42.6016343" lon="13.8927271"><ele>157.33333333333334</ele><time>2026-03-22T10:40:59.622Z</time></trkpt><trkpt lat="42.6016024" lon="13.8926384"><ele>157.16666666666669</ele><time>2026-03-22T10:41:00.621Z</time></trkpt><trkpt lat="42.6015733" lon="13.8925563"><ele>157.0</ele><time>2026-03-22T10:41:01.622Z</time></trkpt><trkpt lat="42.6015273" lon="13.8924054"><ele>156.66666666666669</ele><time>2026-03-22T10:41:03.622Z</time></trkpt><trkpt lat="42.6015019" lon="13.8922834"><ele>156.33333333333334</ele><time>2026-03-22T10:41:05.621Z</time></trkpt><trkpt lat="42.6014811" lon="13.8921795"><ele>156.0</ele><time>2026-03-22T10:41:07.621Z</time></trkpt><trkpt lat="42.6014721" lon="13.8920785"><ele>155.66666666666666</ele><time>2026-03-22T10:41:09.621Z</time></trkpt><trkpt lat="42.6014658" lon="13.8919866"><ele>155.33333333333331</ele><time>2026-03-22T10:41:11.621Z</time></trkpt><trkpt lat="42.6014713" lon="13.8918928"><ele>155.0</ele><time>2026-03-22T10:41:13.621Z</time></trkpt><trkpt lat="42.6014751" lon="13.8917983"><ele>155.0</ele><time>2026-03-22T10:41:15.622Z</time></trkpt><trkpt lat="42.601487" lon="13.8917057"><ele>155.0</ele><time>2026-03-22T10:41:17.622Z</time></trkpt><trkpt lat="42.6014984" lon="13.8916129"><ele>155.0</ele><time>2026-03-22T10:41:19.621Z</time></trkpt><trkpt lat="42.6015017" lon="13.8915216"><ele>155.0</ele><time>2026-03-22T10:41:21.621Z</time></trkpt><trkpt lat="42.6015049" lon="13.891428"><ele>155.0</ele><time>2026-03-22T10:41:23.621Z</time></trkpt><trkpt lat="42.6015149" lon="13.8913369"><ele>155.0</ele><time>2026-03-22T10:41:25.621Z</time></trkpt><trkpt lat="42.6015139" lon="13.891249"><ele>155.0</ele><time>2026-03-22T10:41:27.621Z</time></trkpt><trkpt lat="42.6015126" lon="13.8911243"><ele>155.0</ele><time>2026-03-22T10:41:30.621Z</time></trkpt><trkpt lat="42.601517" lon="13.8909962"><ele>155.0</ele><time>2026-03-22T10:41:33.622Z</time></trkpt><trkpt lat="42.6015242" lon="13.8909021"><ele>155.0</ele><time>2026-03-22T10:41:35.621Z</time></trkpt><trkpt lat="42.6015362" lon="13.8908033"><ele>155.0</ele><time>2026-03-22T10:41:37.621Z</time></trkpt><trkpt lat="42.6015482" lon="13.8907068"><ele>155.0</ele><time>2026-03-22T10:41:39.622Z</time></trkpt><trkpt lat="42.6015594" lon="13.8906137"><ele>155.0</ele><time>2026-03-22T10:41:41.621Z</time></trkpt><trkpt lat="42.6015663" lon="13.8905231"><ele>155.0</ele><time>2026-03-22T10:41:43.621Z</time></trkpt><trkpt lat="42.601578" lon="13.8903966"><ele>155.57142857142858</ele><time>2026-03-22T10:41:46.622Z</time></trkpt><trkpt lat="42.6015811" lon="13.8903077"><ele>156.14285714285714</ele><time>2026-03-22T10:41:48.621Z</time></trkpt><trkpt lat="42.6015849" lon="13.8902121"><ele>156.71428571428572</ele><time>2026-03-22T10:41:50.621Z</time></trkpt><trkpt lat="42.6015876" lon="13.8901156"><ele>157.28571428571428</ele><time>2026-03-22T10:41:52.622Z</time></trkpt><trkpt lat="42.601593" lon="13.8900116"><ele>157.85714285714286</ele><time>2026-03-22T10:41:54.621Z</time></trkpt><trkpt lat="42.6016019" lon="13.8899179"><ele>158.42857142857142</ele><time>2026-03-22T10:41:56.622Z</time></trkpt><trkpt lat="42.6016161" lon="13.8898243"><ele>159.0</ele><time>2026-03-22T10:41:58.622Z</time></trkpt><trkpt lat="42.60163" lon="13.8897284"><ele>159.85714285714286</ele><time>2026-03-22T10:42:00.622Z</time></trkpt><trkpt lat="42.6016489" lon="13.889635"><ele>160.71428571428572</ele><time>2026-03-22T10:42:02.622Z</time></trkpt><trkpt lat="42.6016631" lon="13.8895433"><ele>161.57142857142858</ele><time>2026-03-22T10:42:04.62Z</time></trkpt><trkpt lat="42.6016766" lon="13.8894535"><ele>162.42857142857144</ele><time>2026-03-22T10:42:06.622Z</time></trkpt><trkpt lat="42.6016946" lon="13.889361"><ele>163.28571428571428</ele><time>2026-03-22T10:42:08.621Z</time></trkpt><trkpt lat="42.6017137" lon="13.8892723"><ele>164.14285714285717</ele><time>2026-03-22T10:42:10.621Z</time></trkpt><trkpt lat="42.601744" lon="13.889144"><ele>165.0</ele><time>2026-03-22T10:42:13.621Z</time></trkpt><trkpt lat="42.6017652" lon="13.8890522"><ele>166.5</ele><time>2026-03-22T10:42:15.621Z</time></trkpt><trkpt lat="42.601782" lon="13.8889655"><ele>168.0</ele><time>2026-03-22T10:42:17.621Z</time></trkpt><trkpt lat="42.6018045" lon="13.8888417"><ele>169.5</ele><time>2026-03-22T10:42:20.621Z</time></trkpt><trkpt lat="42.6018264" lon="13.8887192"><ele>171.0</ele><time>2026-03-22T10:42:23.622Z</time></trkpt><trkpt lat="42.601845" lon="13.8886"><ele>172.5</ele><time>2026-03-22T10:42:26.621Z</time></trkpt><trkpt lat="42.6018647" lon="13.8884784"><ele>174.0</ele><time>2026-03-22T10:42:29.621Z</time></trkpt><trkpt lat="42.6018858" lon="13.8883534"><ele>174.5</ele><time>2026-03-22T10:42:32.622Z</time></trkpt><trkpt lat="42.6018946" lon="13.888259"><ele>175.0</ele><time>2026-03-22T10:42:34.622Z</time></trkpt><trkpt lat="42.6019256" lon="13.8881536"><ele>175.5</ele><time>2026-03-22T10:42:36.621Z</time></trkpt><trkpt lat="42.6019999" lon="13.8880683"><ele>176.0</ele><time>2026-03-22T10:42:38.621Z</time></trkpt><trkpt lat="42.6020907" lon="13.8880352"><ele>176.5</ele><time>2026-03-22T10:42:40.621Z</time></trkpt><trkpt lat="42.6021855" lon="13.8880125"><ele>177.0</ele><time>2026-03-22T10:42:42.621Z</time></trkpt><trkpt lat="42.6023057" lon="13.8879729"><ele>175.83333333333334</ele><time>2026-03-22T10:42:44.622Z</time></trkpt><trkpt lat="42.6024405" lon="13.8879483"><ele>174.66666666666666</ele><time>2026-03-22T10:42:46.621Z</time></trkpt><trkpt lat="42.6025116" lon="13.8879342"><ele>173.5</ele><time>2026-03-22T10:42:47.621Z</time></trkpt><trkpt lat="42.6025837" lon="13.887916"><ele>172.33333333333331</ele><time>2026-03-22T10:42:48.622Z</time></trkpt><trkpt lat="42.6026513" lon="13.8878954"><ele>171.16666666666666</ele><time>2026-03-22T10:42:49.622Z</time></trkpt><trkpt lat="42.6027192" lon="13.8878708"><ele>170.0</ele><time>2026-03-22T10:42:50.621Z</time></trkpt><trkpt lat="42.6027782" lon="13.8878406"><ele>168.8</ele><time>2026-03-22T10:42:51.622Z</time></trkpt><trkpt lat="42.6028898" lon="13.8877584"><ele>167.6</ele><time>2026-03-22T10:42:53.621Z</time></trkpt><trkpt lat="42.6029396" lon="13.8877052"><ele>166.39999999999998</ele><time>2026-03-22T10:42:54.622Z</time></trkpt><trkpt lat="42.6030319" lon="13.8876138"><ele>165.2</ele><time>2026-03-22T10:42:56.621Z</time></trkpt><trkpt lat="42.6030836" lon="13.8875623"><ele>164.0</ele><time>2026-03-22T10:42:57.621Z</time></trkpt><trkpt lat="42.6031724" lon="13.8874584"><ele>164.0</ele><time>2026-03-22T10:42:59.622Z</time></trkpt><trkpt lat="42.6032417" lon="13.88737"><ele>164.0</ele><time>2026-03-22T10:43:01.622Z</time></trkpt><trkpt lat="42.6032989" lon="13.8872997"><ele>164.0</ele><time>2026-03-22T10:43:03.622Z</time></trkpt><trkpt lat="42.603351" lon="13.8872302"><ele>164.0</ele><time>2026-03-22T10:43:05.621Z</time></trkpt><trkpt lat="42.6034031" lon="13.8871618"><ele>164.0</ele><time>2026-03-22T10:43:07.621Z</time></trkpt><trkpt lat="42.6034646" lon="13.8870875"><ele>164.0</ele><time>2026-03-22T10:43:09.622Z</time></trkpt><trkpt lat="42.6035196" lon="13.8869817"><ele>163.99999999999997</ele><time>2026-03-22T10:43:11.622Z</time></trkpt><trkpt lat="42.6035689" lon="13.886893"><ele>164.0</ele><time>2026-03-22T10:43:13.621Z</time></trkpt><trkpt lat="42.6036165" lon="13.8868354"><ele>164.0</ele><time>2026-03-22T10:43:15.621Z</time></trkpt><trkpt lat="42.6036652" lon="13.8867624"><ele>164.0</ele><time>2026-03-22T10:43:17.621Z</time></trkpt><trkpt lat="42.6037143" lon="13.8866974"><ele>164.0</ele><time>2026-03-22T10:43:19.621Z</time></trkpt><trkpt lat="42.6037635" lon="13.8866293"><ele>163.99999999999997</ele><time>2026-03-22T10:43:21.622Z</time></trkpt><trkpt lat="42.6038198" lon="13.8865544"><ele>164.0</ele><time>2026-03-22T10:43:23.621Z</time></trkpt><trkpt lat="42.6038794" lon="13.8864622"><ele>163.79999999999998</ele><time>2026-03-22T10:43:25.622Z</time></trkpt><trkpt lat="42.6039438" lon="13.8863786"><ele>163.6</ele><time>2026-03-22T10:43:27.622Z</time></trkpt><trkpt lat="42.6040168" lon="13.8862834"><ele>163.4</ele><time>2026-03-22T10:43:29.621Z</time></trkpt><trkpt lat="42.6041048" lon="13.88617"><ele>163.2</ele><time>2026-03-22T10:43:31.622Z</time></trkpt><trkpt lat="42.6041936" lon="13.8860636"><ele>163.0</ele><time>2026-03-22T10:43:33.62Z</time></trkpt><trkpt lat="42.6042776" lon="13.8859432"><ele>162.5</ele><time>2026-03-22T10:43:35.621Z</time></trkpt><trkpt lat="42.6043454" lon="13.8858357"><ele>162.0</ele><time>2026-03-22T10:43:37.622Z</time></trkpt><trkpt lat="42.6044022" lon="13.8857365"><ele>161.5</ele><time>2026-03-22T10:43:39.622Z</time></trkpt><trkpt lat="42.6044665" lon="13.8856619"><ele>161.0</ele><time>2026-03-22T10:43:41.622Z</time></trkpt><trkpt lat="42.6045249" lon="13.8855858"><ele>160.5</ele><time>2026-03-22T10:43:43.621Z</time></trkpt><trkpt lat="42.6045772" lon="13.8855066"><ele>160.0</ele><time>2026-03-22T10:43:45.622Z</time></trkpt><trkpt lat="42.6046538" lon="13.8854536"><ele>160.0</ele><time>2026-03-22T10:43:47.621Z</time></trkpt><trkpt lat="42.60475" lon="13.8854212"><ele>160.0</ele><time>2026-03-22T10:43:49.622Z</time></trkpt><trkpt lat="42.6048488" lon="13.8854836"><ele>160.0</ele><time>2026-03-22T10:43:51.622Z</time></trkpt><trkpt lat="42.6049589" lon="13.8855572"><ele>160.0</ele><time>2026-03-22T10:43:53.622Z</time></trkpt><trkpt lat="42.6050185" lon="13.8856027"><ele>160.0</ele><time>2026-03-22T10:43:54.621Z</time></trkpt><trkpt lat="42.6050823" lon="13.8856503"><ele>160.0</ele><time>2026-03-22T10:43:55.622Z</time></trkpt><trkpt lat="42.6051481" lon="13.8857034"><ele>160.0</ele><time>2026-03-22T10:43:56.622Z</time></trkpt><trkpt lat="42.6052162" lon="13.8857665"><ele>160.0</ele><time>2026-03-22T10:43:57.622Z</time></trkpt><trkpt lat="42.6052844" lon="13.885836"><ele>160.0</ele><time>2026-03-22T10:43:58.622Z</time></trkpt><trkpt lat="42.6053624" lon="13.8859053"><ele>160.0</ele><time>2026-03-22T10:43:59.621Z</time></trkpt><trkpt lat="42.6054447" lon="13.8859764"><ele>160.0</ele><time>2026-03-22T10:44:00.62Z</time></trkpt><trkpt lat="42.6055308" lon="13.8860554"><ele>157.0</ele><time>2026-03-22T10:44:01.621Z</time></trkpt><trkpt lat="42.6056321" lon="13.8861085"><ele>154.0</ele><time>2026-03-22T10:44:02.621Z</time></trkpt><trkpt lat="42.6057389" lon="13.886142"><ele>151.0</ele><time>2026-03-22T10:44:03.62Z</time></trkpt><trkpt lat="42.6058505" lon="13.886142"><ele>148.0</ele><time>2026-03-22T10:44:04.62Z</time></trkpt><trkpt lat="42.6059635" lon="13.8861132"><ele>145.0</ele><time>2026-03-22T10:44:05.62Z</time></trkpt><trkpt lat="42.6060735" lon="13.8860698"><ele>143.25</ele><time>2026-03-22T10:44:06.621Z</time></trkpt><trkpt lat="42.6061836" lon="13.8860128"><ele>141.5</ele><time>2026-03-22T10:44:07.621Z</time></trkpt><trkpt lat="42.6062924" lon="13.8859464"><ele>139.75</ele><time>2026-03-22T10:44:08.62Z</time></trkpt><trkpt lat="42.6063997" lon="13.8858669"><ele>138.0</ele><time>2026-03-22T10:44:09.621Z</time></trkpt><trkpt lat="42.6065061" lon="13.8857833"><ele>138.0</ele><time>2026-03-22T10:44:10.621Z</time></trkpt><trkpt lat="42.6066119" lon="13.8856993"><ele>138.0</ele><time>2026-03-22T10:44:11.62Z</time></trkpt><trkpt lat="42.6067165" lon="13.8856149"><ele>138.0</ele><time>2026-03-22T10:44:12.62Z</time></trkpt><trkpt lat="42.6068106" lon="13.88553"><ele>138.0</ele><time>2026-03-22T10:44:13.62Z</time></trkpt><trkpt lat="42.6069009" lon="13.8854469"><ele>138.0</ele><time>2026-03-22T10:44:14.62Z</time></trkpt><trkpt lat="42.6069937" lon="13.8853619"><ele>138.0</ele><time>2026-03-22T10:44:15.621Z</time></trkpt><trkpt lat="42.6070911" lon="13.8852866"><ele>138.0</ele><time>2026-03-22T10:44:16.62Z</time></trkpt><trkpt lat="42.607189" lon="13.8852094"><ele>138.0</ele><time>2026-03-22T10:44:17.62Z</time></trkpt><trkpt lat="42.6072852" lon="13.8851381"><ele>138.0</ele><time>2026-03-22T10:44:18.621Z</time></trkpt><trkpt lat="42.6073847" lon="13.8850735"><ele>137.0</ele><time>2026-03-22T10:44:19.62Z</time></trkpt><trkpt lat="42.6074855" lon="13.8850038"><ele>136.0</ele><time>2026-03-22T10:44:20.621Z</time></trkpt><trkpt lat="42.6075821" lon="13.8849366"><ele>135.0</ele><time>2026-03-22T10:44:21.62Z</time></trkpt><trkpt lat="42.6076904" lon="13.8848753"><ele>134.0</ele><time>2026-03-22T10:44:22.621Z</time></trkpt><trkpt lat="42.607791" lon="13.8848092"><ele>132.25</ele><time>2026-03-22T10:44:23.62Z</time></trkpt><trkpt lat="42.6078946" lon="13.8847435"><ele>130.5</ele><time>2026-03-22T10:44:24.621Z</time></trkpt><trkpt lat="42.6079976" lon="13.8846773"><ele>128.75</ele><time>2026-03-22T10:44:25.62Z</time></trkpt><trkpt lat="42.6080998" lon="13.884614"><ele>127.0</ele><time>2026-03-22T10:44:26.62Z</time></trkpt><trkpt lat="42.6082023" lon="13.8845454"><ele>127.0</ele><time>2026-03-22T10:44:27.62Z</time></trkpt><trkpt lat="42.6083029" lon="13.8844731"><ele>126.99999999999999</ele><time>2026-03-22T10:44:28.621Z</time></trkpt><trkpt lat="42.6083989" lon="13.8844002"><ele>126.99999999999999</ele><time>2026-03-22T10:44:29.621Z</time></trkpt><trkpt lat="42.6084952" lon="13.8843279"><ele>127.0</ele><time>2026-03-22T10:44:30.621Z</time></trkpt><trkpt lat="42.6085869" lon="13.8842528"><ele>127.0</ele><time>2026-03-22T10:44:31.62Z</time></trkpt><trkpt lat="42.608677" lon="13.8841777"><ele>126.6</ele><time>2026-03-22T10:44:32.621Z</time></trkpt><trkpt lat="42.6087666" lon="13.884105"><ele>126.19999999999999</ele><time>2026-03-22T10:44:33.621Z</time></trkpt><trkpt lat="42.6088549" lon="13.8840299"><ele>125.8</ele><time>2026-03-22T10:44:34.621Z</time></trkpt><trkpt lat="42.6089405" lon="13.8839623"><ele>125.4</ele><time>2026-03-22T10:44:35.621Z</time></trkpt><trkpt lat="42.6090278" lon="13.8838971"><ele>125.0</ele><time>2026-03-22T10:44:36.621Z</time></trkpt><trkpt lat="42.6091124" lon="13.8838267"><ele>125.0</ele><time>2026-03-22T10:44:37.621Z</time></trkpt><trkpt lat="42.6091968" lon="13.8837487"><ele>125.0</ele><time>2026-03-22T10:44:38.62Z</time></trkpt><trkpt lat="42.6092835" lon="13.883674"><ele>125.0</ele><time>2026-03-22T10:44:39.62Z</time></trkpt><trkpt lat="42.6093718" lon="13.8836026"><ele>125.0</ele><time>2026-03-22T10:44:40.62Z</time></trkpt><trkpt lat="42.6094613" lon="13.8835326"><ele>125.0</ele><time>2026-03-22T10:44:41.62Z</time></trkpt><trkpt lat="42.6095516" lon="13.8834564"><ele>122.6</ele><time>2026-03-22T10:44:42.621Z</time></trkpt><trkpt lat="42.6096404" lon="13.8833705"><ele>120.2</ele><time>2026-03-22T10:44:43.621Z</time></trkpt><trkpt lat="42.6097268" lon="13.8832911"><ele>117.80000000000001</ele><time>2026-03-22T10:44:44.62Z</time></trkpt><trkpt lat="42.609806" lon="13.8832145"><ele>115.4</ele><time>2026-03-22T10:44:45.621Z</time></trkpt><trkpt lat="42.609887" lon="13.883125"><ele>113.0</ele><time>2026-03-22T10:44:46.62Z</time></trkpt><trkpt lat="42.6099724" lon="13.8830395"><ele>113.0</ele><time>2026-03-22T10:44:47.62Z</time></trkpt><trkpt lat="42.6100595" lon="13.882954"><ele>113.00000000000001</ele><time>2026-03-22T10:44:48.62Z</time></trkpt><trkpt lat="42.6101596" lon="13.8828991"><ele>113.00000000000001</ele><time>2026-03-22T10:44:49.62Z</time></trkpt><trkpt lat="42.6102712" lon="13.8828679"><ele>113.0</ele><time>2026-03-22T10:44:50.62Z</time></trkpt><trkpt lat="42.610389" lon="13.8828663"><ele>113.0</ele><time>2026-03-22T10:44:51.62Z</time></trkpt><trkpt lat="42.6105086" lon="13.8828701"><ele>111.0</ele><time>2026-03-22T10:44:52.62Z</time></trkpt><trkpt lat="42.6106291" lon="13.8828763"><ele>109.0</ele><time>2026-03-22T10:44:53.621Z</time></trkpt><trkpt lat="42.610751" lon="13.8828958"><ele>107.0</ele><time>2026-03-22T10:44:54.621Z</time></trkpt><trkpt lat="42.6108767" lon="13.8829147"><ele>105.0</ele><time>2026-03-22T10:44:55.62Z</time></trkpt><trkpt lat="42.6109964" lon="13.8829272"><ele>105.0</ele><time>2026-03-22T10:44:56.621Z</time></trkpt><trkpt lat="42.6111154" lon="13.8829459"><ele>105.0</ele><time>2026-03-22T10:44:57.62Z</time></trkpt><trkpt lat="42.6112291" lon="13.882964"><ele>105.0</ele><time>2026-03-22T10:44:58.62Z</time></trkpt><trkpt lat="42.6113331" lon="13.8829882"><ele>105.0</ele><time>2026-03-22T10:44:59.621Z</time></trkpt><trkpt lat="42.611429" lon="13.8830074"><ele>105.0</ele><time>2026-03-22T10:45:00.62Z</time></trkpt><trkpt lat="42.6115115" lon="13.8830163"><ele>104.0</ele><time>2026-03-22T10:45:01.62Z</time></trkpt><trkpt lat="42.6115811" lon="13.883014"><ele>103.0</ele><time>2026-03-22T10:45:02.621Z</time></trkpt><trkpt lat="42.6116885" lon="13.8830225"><ele>102.0</ele><time>2026-03-22T10:45:04.621Z</time></trkpt><trkpt lat="42.6117575" lon="13.8830064"><ele>101.0</ele><time>2026-03-22T10:45:06.619Z</time></trkpt><trkpt lat="42.6118336" lon="13.882959"><ele>100.0</ele><time>2026-03-22T10:45:08.621Z</time></trkpt><trkpt lat="42.6118707" lon="13.8828754"><ele>99.0</ele><time>2026-03-22T10:45:10.621Z</time></trkpt><trkpt lat="42.611894" lon="13.8827736"><ele>99.0</ele><time>2026-03-22T10:45:12.62Z</time></trkpt><trkpt lat="42.6119129" lon="13.8826682"><ele>99.0</ele><time>2026-03-22T10:45:14.621Z</time></trkpt><trkpt lat="42.6119363" lon="13.8825563"><ele>99.0</ele><time>2026-03-22T10:45:16.621Z</time></trkpt><trkpt lat="42.6119666" lon="13.8824344"><ele>99.0</ele><time>2026-03-22T10:45:18.62Z</time></trkpt><trkpt lat="42.6119905" lon="13.8823087"><ele>99.0</ele><time>2026-03-22T10:45:20.621Z</time></trkpt><trkpt lat="42.6120234" lon="13.8821806"><ele>99.0</ele><time>2026-03-22T10:45:22.62Z</time></trkpt><trkpt lat="42.6120517" lon="13.8820482"><ele>99.0</ele><time>2026-03-22T10:45:24.62Z</time></trkpt><trkpt lat="42.6120841" lon="13.8819156"><ele>99.0</ele><time>2026-03-22T10:45:26.621Z</time></trkpt><trkpt lat="42.6121181" lon="13.8817865"><ele>99.0</ele><time>2026-03-22T10:45:28.621Z</time></trkpt><trkpt lat="42.6121472" lon="13.8816625"><ele>99.0</ele><time>2026-03-22T10:45:30.62Z</time></trkpt><trkpt lat="42.6121783" lon="13.8815278"><ele>99.0</ele><time>2026-03-22T10:45:32.621Z</time></trkpt><trkpt lat="42.6122084" lon="13.8813908"><ele>99.0</ele><time>2026-03-22T10:45:34.62Z</time></trkpt><trkpt lat="42.6122375" lon="13.8812575"><ele>99.0</ele><time>2026-03-22T10:45:36.62Z</time></trkpt><trkpt lat="42.6122692" lon="13.8811296"><ele>99.0</ele><time>2026-03-22T10:45:38.62Z</time></trkpt><trkpt lat="42.6122972" lon="13.8810022"><ele>99.0</ele><time>2026-03-22T10:45:40.621Z</time></trkpt><trkpt lat="42.61232" lon="13.8808633"><ele>98.6</ele><time>2026-03-22T10:45:42.62Z</time></trkpt><trkpt lat="42.6123473" lon="13.8807202"><ele>98.2</ele><time>2026-03-22T10:45:44.62Z</time></trkpt><trkpt lat="42.6123736" lon="13.8805793"><ele>97.8</ele><time>2026-03-22T10:45:46.621Z</time></trkpt><trkpt lat="42.6124003" lon="13.8804357"><ele>97.39999999999999</ele><time>2026-03-22T10:45:48.62Z</time></trkpt><trkpt lat="42.6124114" lon="13.8802763"><ele>97.0</ele><time>2026-03-22T10:45:50.62Z</time></trkpt><trkpt lat="42.6124109" lon="13.8801098"><ele>96.42857142857143</ele><time>2026-03-22T10:45:52.621Z</time></trkpt><trkpt lat="42.6124009" lon="13.8800231"><ele>95.85714285714286</ele><time>2026-03-22T10:45:53.621Z</time></trkpt><trkpt lat="42.6123896" lon="13.8799359"><ele>95.28571428571429</ele><time>2026-03-22T10:45:54.62Z</time></trkpt><trkpt lat="42.6123744" lon="13.8798488"><ele>94.71428571428572</ele><time>2026-03-22T10:45:55.621Z</time></trkpt><trkpt lat="42.6123526" lon="13.8797626"><ele>94.14285714285714</ele><time>2026-03-22T10:45:56.621Z</time></trkpt><trkpt lat="42.6123235" lon="13.8796776"><ele>93.57142857142858</ele><time>2026-03-22T10:45:57.62Z</time></trkpt><trkpt lat="42.6122901" lon="13.8795987"><ele>93.0</ele><time>2026-03-22T10:45:58.62Z</time></trkpt><trkpt lat="42.6122542" lon="13.8795175"><ele>93.00000000000001</ele><time>2026-03-22T10:45:59.62Z</time></trkpt><trkpt lat="42.6122207" lon="13.8794355"><ele>93.0</ele><time>2026-03-22T10:46:00.62Z</time></trkpt><trkpt lat="42.6121854" lon="13.8793525"><ele>93.0</ele><time>2026-03-22T10:46:01.621Z</time></trkpt><trkpt lat="42.612149" lon="13.8792739"><ele>93.0</ele><time>2026-03-22T10:46:02.62Z</time></trkpt><trkpt lat="42.6121146" lon="13.8791936"><ele>93.0</ele><time>2026-03-22T10:46:03.621Z</time></trkpt><trkpt lat="42.6120807" lon="13.8791132"><ele>93.00000000000001</ele><time>2026-03-22T10:46:04.621Z</time></trkpt><trkpt lat="42.6120468" lon="13.8790357"><ele>93.0</ele><time>2026-03-22T10:46:05.621Z</time></trkpt><trkpt lat="42.612015" lon="13.878961"><ele>93.0</ele><time>2026-03-22T10:46:06.62Z</time></trkpt><trkpt lat="42.6119852" lon="13.8788827"><ele>93.0</ele><time>2026-03-22T10:46:07.621Z</time></trkpt><trkpt lat="42.611956" lon="13.8788027"><ele>93.0</ele><time>2026-03-22T10:46:08.62Z</time></trkpt><trkpt lat="42.6119274" lon="13.8787248"><ele>93.0</ele><time>2026-03-22T10:46:09.621Z</time></trkpt><trkpt lat="42.6118944" lon="13.8786515"><ele>93.0</ele><time>2026-03-22T10:46:10.621Z</time></trkpt><trkpt lat="42.611827" lon="13.8785022"><ele>93.0</ele><time>2026-03-22T10:46:12.621Z</time></trkpt><trkpt lat="42.6117931" lon="13.8784229"><ele>93.00000000000001</ele><time>2026-03-22T10:46:13.62Z</time></trkpt><trkpt lat="42.6117576" lon="13.8783458"><ele>93.0</ele><time>2026-03-22T10:46:14.621Z</time></trkpt><trkpt lat="42.6117218" lon="13.8782693"><ele>93.0</ele><time>2026-03-22T10:46:15.62Z</time></trkpt><trkpt lat="42.611687" lon="13.8781933"><ele>93.0</ele><time>2026-03-22T10:46:16.62Z</time></trkpt><trkpt lat="42.6116528" lon="13.8781175"><ele>93.0</ele><time>2026-03-22T10:46:17.62Z</time></trkpt><trkpt lat="42.611621" lon="13.8780388"><ele>93.00000000000001</ele><time>2026-03-22T10:46:18.621Z</time></trkpt><trkpt lat="42.6115885" lon="13.877959"><ele>93.0</ele><time>2026-03-22T10:46:19.62Z</time></trkpt><trkpt lat="42.6115551" lon="13.8778806"><ele>93.00000000000001</ele><time>2026-03-22T10:46:20.62Z</time></trkpt><trkpt lat="42.6115203" lon="13.8778008"><ele>93.0</ele><time>2026-03-22T10:46:21.62Z</time></trkpt><trkpt lat="42.6114864" lon="13.8777236"><ele>93.0</ele><time>2026-03-22T10:46:22.621Z</time></trkpt><trkpt lat="42.6114541" lon="13.8776459"><ele>93.0</ele><time>2026-03-22T10:46:23.619Z</time></trkpt><trkpt lat="42.6114216" lon="13.877569"><ele>93.0</ele><time>2026-03-22T10:46:24.621Z</time></trkpt><trkpt lat="42.6113889" lon="13.8774926"><ele>93.00000000000001</ele><time>2026-03-22T10:46:25.621Z</time></trkpt><trkpt lat="42.6113584" lon="13.8774167"><ele>93.0</ele><time>2026-03-22T10:46:26.62Z</time></trkpt><trkpt lat="42.6113306" lon="13.8773379"><ele>91.66666666666667</ele><time>2026-03-22T10:46:27.62Z</time></trkpt><trkpt lat="42.6112653" lon="13.8771915"><ele>90.33333333333333</ele><time>2026-03-22T10:46:29.621Z</time></trkpt><trkpt lat="42.6112328" lon="13.877111"><ele>89.0</ele><time>2026-03-22T10:46:30.62Z</time></trkpt><trkpt lat="42.6112001" lon="13.8770323"><ele>87.66666666666666</ele><time>2026-03-22T10:46:31.621Z</time></trkpt><trkpt lat="42.6111687" lon="13.8769514"><ele>86.33333333333333</ele><time>2026-03-22T10:46:32.62Z</time></trkpt><trkpt lat="42.6111356" lon="13.876876"><ele>85.0</ele><time>2026-03-22T10:46:33.621Z</time></trkpt><trkpt lat="42.6110984" lon="13.876798"><ele>85.71428571428572</ele><time>2026-03-22T10:46:34.621Z</time></trkpt><trkpt lat="42.6110634" lon="13.8767181"><ele>86.42857142857142</ele><time>2026-03-22T10:46:35.621Z</time></trkpt><trkpt lat="42.6110311" lon="13.8766342"><ele>87.14285714285714</ele><time>2026-03-22T10:46:36.62Z</time></trkpt><trkpt lat="42.6110068" lon="13.8765477"><ele>87.85714285714286</ele><time>2026-03-22T10:46:37.621Z</time></trkpt><trkpt lat="42.6109946" lon="13.8764518"><ele>88.57142857142858</ele><time>2026-03-22T10:46:38.62Z</time></trkpt><trkpt lat="42.6110035" lon="13.8763564"><ele>89.28571428571428</ele><time>2026-03-22T10:46:39.619Z</time></trkpt><trkpt lat="42.6110316" lon="13.8762695"><ele>90.0</ele><time>2026-03-22T10:46:40.62Z</time></trkpt><trkpt lat="42.6110647" lon="13.8761941"><ele>90.0</ele><time>2026-03-22T10:46:41.621Z</time></trkpt><trkpt lat="42.6111131" lon="13.8761369"><ele>90.0</ele><time>2026-03-22T10:46:42.62Z</time></trkpt><trkpt lat="42.611219" lon="13.8760686"><ele>90.0</ele><time>2026-03-22T10:46:44.621Z</time></trkpt><trkpt lat="42.6113025" lon="13.8760627"><ele>90.0</ele><time>2026-03-22T10:46:46.619Z</time></trkpt><trkpt lat="42.6113877" lon="13.8760494"><ele>90.0</ele><time>2026-03-22T10:46:48.62Z</time></trkpt><trkpt lat="42.6114656" lon="13.8760436"><ele>90.0</ele><time>2026-03-22T10:46:50.62Z</time></trkpt><trkpt lat="42.6115326" lon="13.8760343"><ele>88.66666666666667</ele><time>2026-03-22T10:46:52.621Z</time></trkpt><trkpt lat="42.6116268" lon="13.8760367"><ele>87.33333333333333</ele><time>2026-03-22T10:46:55.62Z</time></trkpt><trkpt lat="42.6117002" lon="13.8760445"><ele>86.0</ele><time>2026-03-22T10:46:57.621Z</time></trkpt><trkpt lat="42.6117757" lon="13.8760503"><ele>84.66666666666666</ele><time>2026-03-22T10:46:59.621Z</time></trkpt><trkpt lat="42.6118427" lon="13.8760546"><ele>83.33333333333333</ele><time>2026-03-22T10:47:01.62Z</time></trkpt><trkpt lat="42.6119139" lon="13.8760627"><ele>82.0</ele><time>2026-03-22T10:47:03.621Z</time></trkpt><trkpt lat="42.6119838" lon="13.8760717"><ele>82.28571428571428</ele><time>2026-03-22T10:47:05.62Z</time></trkpt><trkpt lat="42.6120756" lon="13.8760909"><ele>82.57142857142857</ele><time>2026-03-22T10:47:08.62Z</time></trkpt><trkpt lat="42.6121661" lon="13.8760969"><ele>82.85714285714286</ele><time>2026-03-22T10:47:11.621Z</time></trkpt><trkpt lat="42.6122305" lon="13.8760986"><ele>83.14285714285714</ele><time>2026-03-22T10:47:13.62Z</time></trkpt><trkpt lat="42.6122953" lon="13.8761001"><ele>83.42857142857143</ele><time>2026-03-22T10:47:15.62Z</time></trkpt><trkpt lat="42.6123595" lon="13.8761023"><ele>83.71428571428571</ele><time>2026-03-22T10:47:17.62Z</time></trkpt><trkpt lat="42.6124234" lon="13.8761041"><ele>84.0</ele><time>2026-03-22T10:47:19.621Z</time></trkpt><trkpt lat="42.6124869" lon="13.8760977"><ele>84.0</ele><time>2026-03-22T10:47:21.62Z</time></trkpt><trkpt lat="42.6125741" lon="13.8760627"><ele>84.0</ele><time>2026-03-22T10:47:24.62Z</time></trkpt><trkpt lat="42.6126534" lon="13.8759952"><ele>84.0</ele><time>2026-03-22T10:47:27.62Z</time></trkpt><trkpt lat="42.612704" lon="13.8759311"><ele>84.0</ele><time>2026-03-22T10:47:29.621Z</time></trkpt><trkpt lat="42.6127411" lon="13.8758522"><ele>84.0</ele><time>2026-03-22T10:47:31.62Z</time></trkpt><trkpt lat="42.6127663" lon="13.8757689"><ele>84.0</ele><time>2026-03-22T10:47:33.621Z</time></trkpt><trkpt lat="42.6127772" lon="13.8756806"><ele>85.71428571428571</ele><time>2026-03-22T10:47:35.62Z</time></trkpt><trkpt lat="42.6127763" lon="13.8755863"><ele>87.42857142857143</ele><time>2026-03-22T10:47:37.62Z</time></trkpt><trkpt lat="42.6127752" lon="13.8754851"><ele>89.14285714285714</ele><time>2026-03-22T10:47:39.62Z</time></trkpt><trkpt lat="42.6127757" lon="13.875378"><ele>90.85714285714286</ele><time>2026-03-22T10:47:41.621Z</time></trkpt><trkpt lat="42.6127763" lon="13.8752785"><ele>92.57142857142857</ele><time>2026-03-22T10:47:43.62Z</time></trkpt><trkpt lat="42.6127721" lon="13.8751832"><ele>94.28571428571428</ele><time>2026-03-22T10:47:45.62Z</time></trkpt><trkpt lat="42.6127694" lon="13.8750923"><ele>96.0</ele><time>2026-03-22T10:47:47.621Z</time></trkpt><trkpt lat="42.6127695" lon="13.8749942"><ele>96.57142857142857</ele><time>2026-03-22T10:47:49.619Z</time></trkpt><trkpt lat="42.6127696" lon="13.8748952"><ele>97.14285714285714</ele><time>2026-03-22T10:47:51.62Z</time></trkpt><trkpt lat="42.612768" lon="13.8748018"><ele>97.71428571428572</ele><time>2026-03-22T10:47:53.621Z</time></trkpt><trkpt lat="42.6127654" lon="13.8747069"><ele>98.28571428571428</ele><time>2026-03-22T10:47:55.62Z</time></trkpt><trkpt lat="42.6127648" lon="13.8746104"><ele>98.85714285714286</ele><time>2026-03-22T10:47:57.621Z</time></trkpt><trkpt lat="42.6127654" lon="13.8745103"><ele>99.42857142857143</ele><time>2026-03-22T10:47:59.619Z</time></trkpt><trkpt lat="42.6127633" lon="13.8744146"><ele>100.0</ele><time>2026-03-22T10:48:01.62Z</time></trkpt><trkpt lat="42.6127615" lon="13.8743145"><ele>100.28571428571429</ele><time>2026-03-22T10:48:03.621Z</time></trkpt><trkpt lat="42.6127592" lon="13.8742175"><ele>100.57142857142857</ele><time>2026-03-22T10:48:05.621Z</time></trkpt><trkpt lat="42.6127548" lon="13.8741268"><ele>100.85714285714286</ele><time>2026-03-22T10:48:07.62Z</time></trkpt><trkpt lat="42.612753" lon="13.8740321"><ele>101.14285714285714</ele><time>2026-03-22T10:48:09.62Z</time></trkpt><trkpt lat="42.6127517" lon="13.873931"><ele>101.42857142857143</ele><time>2026-03-22T10:48:11.621Z</time></trkpt><trkpt lat="42.612746" lon="13.8738291"><ele>101.71428571428572</ele><time>2026-03-22T10:48:13.619Z</time></trkpt><trkpt lat="42.6127421" lon="13.8737295"><ele>102.0</ele><time>2026-03-22T10:48:15.62Z</time></trkpt><trkpt lat="42.612739" lon="13.8736311"><ele>102.0</ele><time>2026-03-22T10:48:17.62Z</time></trkpt><trkpt lat="42.6127342" lon="13.8735293"><ele>102.0</ele><time>2026-03-22T10:48:19.62Z</time></trkpt><trkpt lat="42.6127297" lon="13.8734265"><ele>102.0</ele><time>2026-03-22T10:48:21.621Z</time></trkpt><trkpt lat="42.6127252" lon="13.8733234"><ele>102.0</ele><time>2026-03-22T10:48:23.619Z</time></trkpt><trkpt lat="42.6127264" lon="13.873222"><ele>102.0</ele><time>2026-03-22T10:48:25.62Z</time></trkpt><trkpt lat="42.6127255" lon="13.8731194"><ele>102.0</ele><time>2026-03-22T10:48:27.62Z</time></trkpt><trkpt lat="42.6127206" lon="13.8730164"><ele>101.66666666666667</ele><time>2026-03-22T10:48:29.62Z</time></trkpt><trkpt lat="42.6127232" lon="13.8729023"><ele>101.33333333333334</ele><time>2026-03-22T10:48:31.621Z</time></trkpt><trkpt lat="42.61272" lon="13.8727884"><ele>101.0</ele><time>2026-03-22T10:48:33.621Z</time></trkpt><trkpt lat="42.6127191" lon="13.8726791"><ele>100.66666666666667</ele><time>2026-03-22T10:48:35.62Z</time></trkpt><trkpt lat="42.6127191" lon="13.8725657"><ele>100.33333333333334</ele><time>2026-03-22T10:48:37.62Z</time></trkpt><trkpt lat="42.6127163" lon="13.8724576"><ele>100.0</ele><time>2026-03-22T10:48:39.62Z</time></trkpt><trkpt lat="42.612715" lon="13.872349"><ele>100.00000000000001</ele><time>2026-03-22T10:48:41.62Z</time></trkpt><trkpt lat="42.612711" lon="13.8722439"><ele>100.0</ele><time>2026-03-22T10:48:43.62Z</time></trkpt><trkpt lat="42.6127109" lon="13.8721404"><ele>100.0</ele><time>2026-03-22T10:48:45.62Z</time></trkpt><trkpt lat="42.6127115" lon="13.8720378"><ele>100.0</ele><time>2026-03-22T10:48:47.619Z</time></trkpt><trkpt lat="42.6127084" lon="13.8719308"><ele>100.00000000000001</ele><time>2026-03-22T10:48:49.62Z</time></trkpt><trkpt lat="42.612712" lon="13.871822"><ele>100.0</ele><time>2026-03-22T10:48:51.62Z</time></trkpt><trkpt lat="42.6127118" lon="13.8717206"><ele>100.16666666666667</ele><time>2026-03-22T10:48:53.62Z</time></trkpt><trkpt lat="42.6127106" lon="13.8716152"><ele>100.33333333333334</ele><time>2026-03-22T10:48:55.62Z</time></trkpt><trkpt lat="42.6127099" lon="13.8715165"><ele>100.5</ele><time>2026-03-22T10:48:57.621Z</time></trkpt><trkpt lat="42.6127084" lon="13.8714141"><ele>100.66666666666666</ele><time>2026-03-22T10:48:59.62Z</time></trkpt><trkpt lat="42.6127017" lon="13.8713054"><ele>100.83333333333333</ele><time>2026-03-22T10:49:01.62Z</time></trkpt><trkpt lat="42.612701" lon="13.8711949"><ele>101.0</ele><time>2026-03-22T10:49:03.621Z</time></trkpt><trkpt lat="42.6127001" lon="13.8710841"><ele>100.99999999999999</ele><time>2026-03-22T10:49:05.621Z</time></trkpt><trkpt lat="42.6126997" lon="13.8709759"><ele>101.0</ele><time>2026-03-22T10:49:07.621Z</time></trkpt><trkpt lat="42.6126949" lon="13.8708718"><ele>101.0</ele><time>2026-03-22T10:49:09.62Z</time></trkpt><trkpt lat="42.6126913" lon="13.8707648"><ele>101.0</ele><time>2026-03-22T10:49:11.62Z</time></trkpt><trkpt lat="42.6126882" lon="13.8706632"><ele>100.99999999999999</ele><time>2026-03-22T10:49:13.62Z</time></trkpt><trkpt lat="42.6126907" lon="13.8705584"><ele>101.0</ele><time>2026-03-22T10:49:15.621Z</time></trkpt><trkpt lat="42.6126892" lon="13.8704472"><ele>101.0</ele><time>2026-03-22T10:49:17.621Z</time></trkpt><trkpt lat="42.6126916" lon="13.8703371"><ele>101.0</ele><time>2026-03-22T10:49:19.621Z</time></trkpt><trkpt lat="42.6126917" lon="13.870231"><ele>101.0</ele><time>2026-03-22T10:49:21.619Z</time></trkpt><trkpt lat="42.6126891" lon="13.8701307"><ele>101.0</ele><time>2026-03-22T10:49:23.62Z</time></trkpt><trkpt lat="42.6126893" lon="13.8700346"><ele>101.0</ele><time>2026-03-22T10:49:25.618Z</time></trkpt><trkpt lat="42.6126877" lon="13.8699411"><ele>101.0</ele><time>2026-03-22T10:49:27.62Z</time></trkpt><trkpt lat="42.6126882" lon="13.8698513"><ele>101.0</ele><time>2026-03-22T10:49:29.619Z</time></trkpt><trkpt lat="42.6126905" lon="13.8697571"><ele>101.16666666666666</ele><time>2026-03-22T10:49:31.62Z</time></trkpt><trkpt lat="42.6126924" lon="13.86966"><ele>101.33333333333333</ele><time>2026-03-22T10:49:33.62Z</time></trkpt><trkpt lat="42.6126902" lon="13.8695561"><ele>101.5</ele><time>2026-03-22T10:49:35.62Z</time></trkpt><trkpt lat="42.6126885" lon="13.8694509"><ele>101.66666666666666</ele><time>2026-03-22T10:49:37.62Z</time></trkpt><trkpt lat="42.6126822" lon="13.8693465"><ele>101.83333333333333</ele><time>2026-03-22T10:49:39.62Z</time></trkpt><trkpt lat="42.6126775" lon="13.8692451"><ele>102.0</ele><time>2026-03-22T10:49:41.62Z</time></trkpt><trkpt lat="42.612674" lon="13.8691467"><ele>102.66666666666667</ele><time>2026-03-22T10:49:43.62Z</time></trkpt><trkpt lat="42.6126743" lon="13.8690443"><ele>103.33333333333334</ele><time>2026-03-22T10:49:45.619Z</time></trkpt><trkpt lat="42.6126756" lon="13.8689431"><ele>104.0</ele><time>2026-03-22T10:49:47.62Z</time></trkpt><trkpt lat="42.6126734" lon="13.8688301"><ele>104.66666666666667</ele><time>2026-03-22T10:49:49.619Z</time></trkpt><trkpt lat="42.6126752" lon="13.8687314"><ele>105.33333333333334</ele><time>2026-03-22T10:49:51.619Z</time></trkpt><trkpt lat="42.6126766" lon="13.8686302"><ele>106.0</ele><time>2026-03-22T10:49:53.62Z</time></trkpt><trkpt lat="42.6126714" lon="13.8685319"><ele>105.71428571428572</ele><time>2026-03-22T10:49:55.62Z</time></trkpt><trkpt lat="42.6126633" lon="13.8684381"><ele>105.42857142857142</ele><time>2026-03-22T10:49:57.619Z</time></trkpt><trkpt lat="42.6126525" lon="13.8683462"><ele>105.14285714285714</ele><time>2026-03-22T10:49:59.619Z</time></trkpt><trkpt lat="42.6126487" lon="13.8682542"><ele>104.85714285714286</ele><time>2026-03-22T10:50:01.62Z</time></trkpt><trkpt lat="42.6126509" lon="13.8681637"><ele>104.57142857142858</ele><time>2026-03-22T10:50:03.62Z</time></trkpt><trkpt lat="42.6126538" lon="13.8680679"><ele>104.28571428571428</ele><time>2026-03-22T10:50:05.62Z</time></trkpt><trkpt lat="42.6126514" lon="13.8679694"><ele>104.0</ele><time>2026-03-22T10:50:07.619Z</time></trkpt><trkpt lat="42.612646" lon="13.8678708"><ele>103.99999999999999</ele><time>2026-03-22T10:50:09.619Z</time></trkpt><trkpt lat="42.6126428" lon="13.8677707"><ele>104.0</ele><time>2026-03-22T10:50:11.62Z</time></trkpt><trkpt lat="42.6126332" lon="13.8676716"><ele>104.0</ele><time>2026-03-22T10:50:13.62Z</time></trkpt><trkpt lat="42.6126254" lon="13.8675736"><ele>104.0</ele><time>2026-03-22T10:50:15.619Z</time></trkpt><trkpt lat="42.6126285" lon="13.8674673"><ele>103.99999999999999</ele><time>2026-03-22T10:50:17.62Z</time></trkpt><trkpt lat="42.612627" lon="13.8673601"><ele>104.0</ele><time>2026-03-22T10:50:19.62Z</time></trkpt><trkpt lat="42.6126284" lon="13.86726"><ele>104.6</ele><time>2026-03-22T10:50:21.62Z</time></trkpt><trkpt lat="42.6126609" lon="13.8671517"><ele>105.2</ele><time>2026-03-22T10:50:23.62Z</time></trkpt><trkpt lat="42.6127328" lon="13.8670622"><ele>105.79999999999998</ele><time>2026-03-22T10:50:25.62Z</time></trkpt><trkpt lat="42.6128204" lon="13.8669758"><ele>106.39999999999999</ele><time>2026-03-22T10:50:27.62Z</time></trkpt><trkpt lat="42.6129235" lon="13.8668975"><ele>107.0</ele><time>2026-03-22T10:50:29.62Z</time></trkpt><trkpt lat="42.6129815" lon="13.8668555"><ele>105.85714285714286</ele><time>2026-03-22T10:50:30.619Z</time></trkpt><trkpt lat="42.6130407" lon="13.86681"><ele>104.71428571428572</ele><time>2026-03-22T10:50:31.62Z</time></trkpt><trkpt lat="42.6131029" lon="13.866768"><ele>103.57142857142858</ele><time>2026-03-22T10:50:32.619Z</time></trkpt><trkpt lat="42.6131667" lon="13.8667217"><ele>102.42857142857143</ele><time>2026-03-22T10:50:33.619Z</time></trkpt><trkpt lat="42.6132321" lon="13.866679"><ele>101.28571428571428</ele><time>2026-03-22T10:50:34.619Z</time></trkpt><trkpt lat="42.6132977" lon="13.8666371"><ele>100.14285714285715</ele><time>2026-03-22T10:50:35.619Z</time></trkpt><trkpt lat="42.6133631" lon="13.8665945"><ele>99.0</ele><time>2026-03-22T10:50:36.62Z</time></trkpt><trkpt lat="42.6134281" lon="13.8665507"><ele>99.0</ele><time>2026-03-22T10:50:37.618Z</time></trkpt><trkpt lat="42.6134879" lon="13.866501"><ele>99.0</ele><time>2026-03-22T10:50:38.62Z</time></trkpt><trkpt lat="42.6135491" lon="13.8664502"><ele>99.0</ele><time>2026-03-22T10:50:39.619Z</time></trkpt><trkpt lat="42.6136022" lon="13.8663807"><ele>99.0</ele><time>2026-03-22T10:50:40.62Z</time></trkpt><trkpt lat="42.6136539" lon="13.8663031"><ele>99.0</ele><time>2026-03-22T10:50:41.62Z</time></trkpt><trkpt lat="42.613708" lon="13.8662271"><ele>99.0</ele><time>2026-03-22T10:50:42.619Z</time></trkpt><trkpt lat="42.6137579" lon="13.866144"><ele>99.0</ele><time>2026-03-22T10:50:43.619Z</time></trkpt><trkpt lat="42.61381" lon="13.8660509"><ele>96.66666666666667</ele><time>2026-03-22T10:50:44.619Z</time></trkpt><trkpt lat="42.6138558" lon="13.8659586"><ele>94.33333333333333</ele><time>2026-03-22T10:50:45.619Z</time></trkpt><trkpt lat="42.6139007" lon="13.8658667"><ele>92.0</ele><time>2026-03-22T10:50:46.62Z</time></trkpt><trkpt lat="42.6139448" lon="13.8657692"><ele>89.66666666666666</ele><time>2026-03-22T10:50:47.62Z</time></trkpt><trkpt lat="42.6139922" lon="13.8656712"><ele>87.33333333333333</ele><time>2026-03-22T10:50:48.619Z</time></trkpt><trkpt lat="42.6140338" lon="13.8655809"><ele>85.0</ele><time>2026-03-22T10:50:49.62Z</time></trkpt><trkpt lat="42.6140771" lon="13.8654982"><ele>85.0</ele><time>2026-03-22T10:50:50.619Z</time></trkpt><trkpt lat="42.6141215" lon="13.8654129"><ele>85.0</ele><time>2026-03-22T10:50:51.62Z</time></trkpt><trkpt lat="42.6141622" lon="13.8653241"><ele>85.0</ele><time>2026-03-22T10:50:52.618Z</time></trkpt><trkpt lat="42.6142064" lon="13.8652358"><ele>85.0</ele><time>2026-03-22T10:50:53.62Z</time></trkpt><trkpt lat="42.6142553" lon="13.8651534"><ele>85.0</ele><time>2026-03-22T10:50:54.619Z</time></trkpt><trkpt lat="42.6143029" lon="13.8650693"><ele>85.0</ele><time>2026-03-22T10:50:55.62Z</time></trkpt><trkpt lat="42.6143521" lon="13.8649851"><ele>83.83333333333333</ele><time>2026-03-22T10:50:56.619Z</time></trkpt><trkpt lat="42.6144088" lon="13.8649041"><ele>82.66666666666666</ele><time>2026-03-22T10:50:57.619Z</time></trkpt><trkpt lat="42.6144688" lon="13.864829"><ele>81.5</ele><time>2026-03-22T10:50:58.62Z</time></trkpt><trkpt lat="42.6145286" lon="13.8647479"><ele>80.33333333333333</ele><time>2026-03-22T10:50:59.62Z</time></trkpt><trkpt lat="42.6145834" lon="13.8646679"><ele>79.16666666666667</ele><time>2026-03-22T10:51:00.62Z</time></trkpt><trkpt lat="42.6146453" lon="13.8645901"><ele>78.0</ele><time>2026-03-22T10:51:01.619Z</time></trkpt><trkpt lat="42.6147068" lon="13.8645074"><ele>78.0</ele><time>2026-03-22T10:51:02.619Z</time></trkpt><trkpt lat="42.6147637" lon="13.864423"><ele>78.0</ele><time>2026-03-22T10:51:03.62Z</time></trkpt><trkpt lat="42.6148102" lon="13.8643242"><ele>78.0</ele><time>2026-03-22T10:51:04.619Z</time></trkpt><trkpt lat="42.6148527" lon="13.8642294"><ele>78.0</ele><time>2026-03-22T10:51:05.62Z</time></trkpt><trkpt lat="42.6148858" lon="13.8641287"><ele>78.0</ele><time>2026-03-22T10:51:06.62Z</time></trkpt><trkpt lat="42.6149157" lon="13.8640251"><ele>78.0</ele><time>2026-03-22T10:51:07.619Z</time></trkpt><trkpt lat="42.6149427" lon="13.8639207"><ele>79.5</ele><time>2026-03-22T10:51:08.619Z</time></trkpt><trkpt lat="42.6149652" lon="13.8638118"><ele>81.0</ele><time>2026-03-22T10:51:09.62Z</time></trkpt><trkpt lat="42.6149888" lon="13.8637033"><ele>82.5</ele><time>2026-03-22T10:51:10.619Z</time></trkpt><trkpt lat="42.6150059" lon="13.8635963"><ele>84.0</ele><time>2026-03-22T10:51:11.619Z</time></trkpt><trkpt lat="42.6150223" lon="13.863493"><ele>85.5</ele><time>2026-03-22T10:51:12.62Z</time></trkpt><trkpt lat="42.615038" lon="13.8633927"><ele>87.0</ele><time>2026-03-22T10:51:13.62Z</time></trkpt><trkpt lat="42.6150545" lon="13.8633046"><ele>87.6</ele><time>2026-03-22T10:51:14.62Z</time></trkpt><trkpt lat="42.6150815" lon="13.8631488"><ele>88.19999999999999</ele><time>2026-03-22T10:51:16.619Z</time></trkpt><trkpt lat="42.6151074" lon="13.8629977"><ele>88.8</ele><time>2026-03-22T10:51:18.619Z</time></trkpt><trkpt lat="42.6151301" lon="13.8628541"><ele>89.4</ele><time>2026-03-22T10:51:20.62Z</time></trkpt><trkpt lat="42.6151581" lon="13.8627145"><ele>90.0</ele><time>2026-03-22T10:51:22.62Z</time></trkpt><trkpt lat="42.6151888" lon="13.8625672"><ele>89.4</ele><time>2026-03-22T10:51:24.619Z</time></trkpt><trkpt lat="42.6152161" lon="13.8624184"><ele>88.8</ele><time>2026-03-22T10:51:26.619Z</time></trkpt><trkpt lat="42.6152409" lon="13.8622711"><ele>88.19999999999999</ele><time>2026-03-22T10:51:28.619Z</time></trkpt><trkpt lat="42.6152655" lon="13.8621265"><ele>87.6</ele><time>2026-03-22T10:51:30.619Z</time></trkpt><trkpt lat="42.6152977" lon="13.8619791"><ele>87.0</ele><time>2026-03-22T10:51:32.62Z</time></trkpt><trkpt lat="42.615324" lon="13.8618329"><ele>87.19999999999999</ele><time>2026-03-22T10:51:34.619Z</time></trkpt><trkpt lat="42.6153433" lon="13.8616928"><ele>87.4</ele><time>2026-03-22T10:51:36.62Z</time></trkpt><trkpt lat="42.6153629" lon="13.8615543"><ele>87.6</ele><time>2026-03-22T10:51:38.619Z</time></trkpt><trkpt lat="42.6153795" lon="13.8614162"><ele>87.80000000000001</ele><time>2026-03-22T10:51:40.62Z</time></trkpt><trkpt lat="42.6154007" lon="13.8612857"><ele>88.0</ele><time>2026-03-22T10:51:42.619Z</time></trkpt><trkpt lat="42.6154564" lon="13.8611713"><ele>88.0</ele><time>2026-03-22T10:51:44.619Z</time></trkpt><trkpt lat="42.6155353" lon="13.8610699"><ele>88.0</ele><time>2026-03-22T10:51:46.619Z</time></trkpt><trkpt lat="42.615596" lon="13.8609309"><ele>88.0</ele><time>2026-03-22T10:51:48.62Z</time></trkpt><trkpt lat="42.6156273" lon="13.8608536"><ele>88.0</ele><time>2026-03-22T10:51:49.619Z</time></trkpt><trkpt lat="42.6156771" lon="13.8607956"><ele>88.0</ele><time>2026-03-22T10:51:50.619Z</time></trkpt><trkpt lat="42.6157425" lon="13.8607671"><ele>88.0</ele><time>2026-03-22T10:51:51.62Z</time></trkpt><trkpt lat="42.6158142" lon="13.8607609"><ele>88.0</ele><time>2026-03-22T10:51:52.619Z</time></trkpt><trkpt lat="42.6158856" lon="13.8607492"><ele>88.0</ele><time>2026-03-22T10:51:53.619Z</time></trkpt><trkpt lat="42.6159594" lon="13.8607587"><ele>88.0</ele><time>2026-03-22T10:51:54.618Z</time></trkpt><trkpt lat="42.6160264" lon="13.8607692"><ele>88.0</ele><time>2026-03-22T10:51:55.619Z</time></trkpt><trkpt lat="42.6160966" lon="13.8607894"><ele>88.0</ele><time>2026-03-22T10:51:56.62Z</time></trkpt><trkpt lat="42.6161643" lon="13.8607949"><ele>88.0</ele><time>2026-03-22T10:51:57.62Z</time></trkpt><trkpt lat="42.6162259" lon="13.8607688"><ele>88.0</ele><time>2026-03-22T10:51:58.62Z</time></trkpt><trkpt lat="42.6162798" lon="13.8607183"><ele>87.33333333333333</ele><time>2026-03-22T10:51:59.62Z</time></trkpt><trkpt lat="42.6163455" lon="13.8606819"><ele>86.66666666666666</ele><time>2026-03-22T10:52:00.62Z</time></trkpt><trkpt lat="42.6164108" lon="13.8606641"><ele>86.0</ele><time>2026-03-22T10:52:01.62Z</time></trkpt><trkpt lat="42.6164743" lon="13.860662"><ele>85.33333333333333</ele><time>2026-03-22T10:52:02.619Z</time></trkpt><trkpt lat="42.6165379" lon="13.8606728"><ele>84.66666666666667</ele><time>2026-03-22T10:52:03.62Z</time></trkpt><trkpt lat="42.6165999" lon="13.8606973"><ele>84.0</ele><time>2026-03-22T10:52:04.62Z</time></trkpt><trkpt lat="42.6167136" lon="13.8607517"><ele>84.0</ele><time>2026-03-22T10:52:06.618Z</time></trkpt><trkpt lat="42.6168299" lon="13.860813"><ele>84.0</ele><time>2026-03-22T10:52:08.62Z</time></trkpt><trkpt lat="42.6169455" lon="13.8608596"><ele>84.0</ele><time>2026-03-22T10:52:10.62Z</time></trkpt><trkpt lat="42.617049" lon="13.8609101"><ele>84.0</ele><time>2026-03-22T10:52:12.619Z</time></trkpt><trkpt lat="42.6171604" lon="13.8609468"><ele>83.80000000000001</ele><time>2026-03-22T10:52:14.619Z</time></trkpt><trkpt lat="42.6172686" lon="13.8609664"><ele>83.60000000000001</ele><time>2026-03-22T10:52:16.619Z</time></trkpt><trkpt lat="42.6173749" lon="13.860987"><ele>83.4</ele><time>2026-03-22T10:52:18.619Z</time></trkpt><trkpt lat="42.6174884" lon="13.8610025"><ele>83.2</ele><time>2026-03-22T10:52:20.618Z</time></trkpt><trkpt lat="42.6176009" lon="13.8610085"><ele>83.0</ele><time>2026-03-22T10:52:22.618Z</time></trkpt><trkpt lat="42.6177106" lon="13.861009"><ele>82.80000000000001</ele><time>2026-03-22T10:52:24.62Z</time></trkpt><trkpt lat="42.6178222" lon="13.8610086"><ele>82.6</ele><time>2026-03-22T10:52:26.62Z</time></trkpt><trkpt lat="42.617932" lon="13.861"><ele>82.4</ele><time>2026-03-22T10:52:28.619Z</time></trkpt><trkpt lat="42.6180427" lon="13.8609892"><ele>82.19999999999999</ele><time>2026-03-22T10:52:30.62Z</time></trkpt><trkpt lat="42.6181478" lon="13.8609753"><ele>82.0</ele><time>2026-03-22T10:52:32.619Z</time></trkpt><trkpt lat="42.6182496" lon="13.8609633"><ele>82.0</ele><time>2026-03-22T10:52:34.62Z</time></trkpt><trkpt lat="42.6183486" lon="13.8609503"><ele>82.0</ele><time>2026-03-22T10:52:36.619Z</time></trkpt><trkpt lat="42.6184505" lon="13.8609458"><ele>82.0</ele><time>2026-03-22T10:52:38.62Z</time></trkpt><trkpt lat="42.6185429" lon="13.860942"><ele>82.0</ele><time>2026-03-22T10:52:40.618Z</time></trkpt><trkpt lat="42.6186382" lon="13.8609551"><ele>82.0</ele><time>2026-03-22T10:52:42.619Z</time></trkpt><trkpt lat="42.6187455" lon="13.8609762"><ele>82.0</ele><time>2026-03-22T10:52:44.62Z</time></trkpt><trkpt lat="42.6188569" lon="13.8609888"><ele>82.0</ele><time>2026-03-22T10:52:46.62Z</time></trkpt><trkpt lat="42.6189588" lon="13.8610037"><ele>82.0</ele><time>2026-03-22T10:52:48.62Z</time></trkpt><trkpt lat="42.6190597" lon="13.8610235"><ele>82.0</ele><time>2026-03-22T10:52:50.619Z</time></trkpt><trkpt lat="42.6191629" lon="13.8610419"><ele>82.0</ele><time>2026-03-22T10:52:52.618Z</time></trkpt><trkpt lat="42.619271" lon="13.8610646"><ele>82.0</ele><time>2026-03-22T10:52:54.619Z</time></trkpt><trkpt lat="42.6193788" lon="13.8610949"><ele>82.0</ele><time>2026-03-22T10:52:56.62Z</time></trkpt><trkpt lat="42.6194793" lon="13.8611133"><ele>82.0</ele><time>2026-03-22T10:52:58.619Z</time></trkpt><trkpt lat="42.6195888" lon="13.8611347"><ele>82.0</ele><time>2026-03-22T10:53:00.62Z</time></trkpt><trkpt lat="42.6196991" lon="13.8611572"><ele>82.0</ele><time>2026-03-22T10:53:02.619Z</time></trkpt><trkpt lat="42.619795" lon="13.8611782"><ele>81.0</ele><time>2026-03-22T10:53:04.619Z</time></trkpt><trkpt lat="42.6198761" lon="13.8611981"><ele>80.0</ele><time>2026-03-22T10:53:06.619Z</time></trkpt><trkpt lat="42.619952" lon="13.8611958"><ele>79.0</ele><time>2026-03-22T10:53:08.62Z</time></trkpt><trkpt lat="42.6200302" lon="13.861216"><ele>78.0</ele><time>2026-03-22T10:53:10.619Z</time></trkpt><trkpt lat="42.6201087" lon="13.8612422"><ele>77.0</ele><time>2026-03-22T10:53:12.619Z</time></trkpt><trkpt lat="42.6202012" lon="13.861267"><ele>76.0</ele><time>2026-03-22T10:53:14.62Z</time></trkpt><trkpt lat="42.6202878" lon="13.8612911"><ele>76.33333333333333</ele><time>2026-03-22T10:53:16.618Z</time></trkpt><trkpt lat="42.6203765" lon="13.8613223"><ele>76.66666666666666</ele><time>2026-03-22T10:53:18.619Z</time></trkpt><trkpt lat="42.6204554" lon="13.8613581"><ele>77.0</ele><time>2026-03-22T10:53:20.62Z</time></trkpt><trkpt lat="42.6205267" lon="13.861383"><ele>77.33333333333333</ele><time>2026-03-22T10:53:22.619Z</time></trkpt><trkpt lat="42.6205968" lon="13.8613822"><ele>77.66666666666667</ele><time>2026-03-22T10:53:24.619Z</time></trkpt><trkpt lat="42.6206694" lon="13.8614021"><ele>78.0</ele><time>2026-03-22T10:53:27.619Z</time></trkpt><trkpt lat="42.6207396" lon="13.8614452"><ele>78.0</ele><time>2026-03-22T10:53:32.62Z</time></trkpt><trkpt lat="42.6208249" lon="13.8615092"><ele>78.0</ele><time>2026-03-22T10:53:35.619Z</time></trkpt><trkpt lat="42.620897" lon="13.8614887"><ele>78.0</ele><time>2026-03-22T10:53:37.619Z</time></trkpt><trkpt lat="42.6209414" lon="13.8613939"><ele>78.0</ele><time>2026-03-22T10:53:39.62Z</time></trkpt><trkpt lat="42.6209224" lon="13.8612884"><ele>78.0</ele><time>2026-03-22T10:53:41.62Z</time></trkpt><trkpt lat="42.6209253" lon="13.861181"><ele>78.0</ele><time>2026-03-22T10:53:43.619Z</time></trkpt><trkpt lat="42.620965" lon="13.8611098"><ele>78.0</ele><time>2026-03-22T10:53:45.62Z</time></trkpt><trkpt lat="42.6210232" lon="13.8610754"><ele>78.0</ele><time>2026-03-22T10:53:47.619Z</time></trkpt><trkpt lat="42.6211001" lon="13.8610468"><ele>78.0</ele><time>2026-03-22T10:53:50.62Z</time></trkpt><trkpt lat="42.6211775" lon="13.8610133"><ele>78.0</ele><time>2026-03-22T10:53:53.619Z</time></trkpt><trkpt lat="42.6212409" lon="13.8610419"><ele>78.0</ele><time>2026-03-22T10:54:06.62Z</time></trkpt><trkpt lat="42.6213107" lon="13.8610763"><ele>78.0</ele><time>2026-03-22T10:54:08.619Z</time></trkpt><trkpt lat="42.6213978" lon="13.8611037"><ele>78.8</ele><time>2026-03-22T10:54:10.619Z</time></trkpt><trkpt lat="42.6214953" lon="13.8611297"><ele>79.6</ele><time>2026-03-22T10:54:12.62Z</time></trkpt><trkpt lat="42.6215996" lon="13.8611533"><ele>80.39999999999999</ele><time>2026-03-22T10:54:14.62Z</time></trkpt><trkpt lat="42.6217053" lon="13.8611771"><ele>81.19999999999999</ele><time>2026-03-22T10:54:16.62Z</time></trkpt><trkpt lat="42.6218102" lon="13.8612008"><ele>82.0</ele><time>2026-03-22T10:54:18.619Z</time></trkpt><trkpt lat="42.6219129" lon="13.8612308"><ele>82.33333333333333</ele><time>2026-03-22T10:54:20.619Z</time></trkpt><trkpt lat="42.6220065" lon="13.8612746"><ele>82.66666666666666</ele><time>2026-03-22T10:54:22.619Z</time></trkpt><trkpt lat="42.6220955" lon="13.8612919"><ele>83.0</ele><time>2026-03-22T10:54:24.619Z</time></trkpt><trkpt lat="42.6221655" lon="13.8613053"><ele>83.33333333333333</ele><time>2026-03-22T10:54:26.62Z</time></trkpt><trkpt lat="42.6222544" lon="13.8613174"><ele>83.66666666666667</ele><time>2026-03-22T10:54:29.619Z</time></trkpt><trkpt lat="42.622317" lon="13.8613282"><ele>84.0</ele><time>2026-03-22T10:54:31.619Z</time></trkpt><trkpt lat="42.6223807" lon="13.8613467"><ele>84.0</ele><time>2026-03-22T10:54:33.62Z</time></trkpt><trkpt lat="42.6224494" lon="13.8613695"><ele>84.0</ele><time>2026-03-22T10:54:35.618Z</time></trkpt><trkpt lat="42.6225178" lon="13.8613843"><ele>84.0</ele><time>2026-03-22T10:54:37.619Z</time></trkpt><trkpt lat="42.622584" lon="13.8614027"><ele>84.0</ele><time>2026-03-22T10:54:39.618Z</time></trkpt><trkpt lat="42.6226456" lon="13.8614299"><ele>84.0</ele><time>2026-03-22T10:54:41.619Z</time></trkpt><trkpt lat="42.6227112" lon="13.8614553"><ele>84.0</ele><time>2026-03-22T10:54:43.618Z</time></trkpt><trkpt lat="42.6227803" lon="13.8614766"><ele>84.0</ele><time>2026-03-22T10:54:45.619Z</time></trkpt><trkpt lat="42.622854" lon="13.861491"><ele>84.66666666666667</ele><time>2026-03-22T10:54:47.618Z</time></trkpt><trkpt lat="42.6229455" lon="13.8615192"><ele>85.33333333333333</ele><time>2026-03-22T10:54:50.619Z</time></trkpt><trkpt lat="42.6230068" lon="13.8615401"><ele>86.0</ele><time>2026-03-22T10:54:52.618Z</time></trkpt><trkpt lat="42.6230955" lon="13.861559"><ele>86.66666666666666</ele><time>2026-03-22T10:54:55.618Z</time></trkpt><trkpt lat="42.6231853" lon="13.8615938"><ele>87.33333333333333</ele><time>2026-03-22T10:54:58.618Z</time></trkpt><trkpt lat="42.6232509" lon="13.8616243"><ele>88.0</ele><time>2026-03-22T10:55:00.619Z</time></trkpt><trkpt lat="42.6233165" lon="13.8616474"><ele>88.0</ele><time>2026-03-22T10:55:02.619Z</time></trkpt><trkpt lat="42.6233814" lon="13.8616676"><ele>88.0</ele><time>2026-03-22T10:55:04.618Z</time></trkpt><trkpt lat="42.6234452" lon="13.861691"><ele>88.0</ele><time>2026-03-22T10:55:06.618Z</time></trkpt><trkpt lat="42.6235357" lon="13.8617131"><ele>88.0</ele><time>2026-03-22T10:55:09.617Z</time></trkpt><trkpt lat="42.6236274" lon="13.8617229"><ele>88.0</ele><time>2026-03-22T10:55:12.619Z</time></trkpt><trkpt lat="42.6237136" lon="13.8617608"><ele>88.0</ele><time>2026-03-22T10:55:15.618Z</time></trkpt><trkpt lat="42.6237945" lon="13.8617985"><ele>89.0</ele><time>2026-03-22T10:55:18.619Z</time></trkpt><trkpt lat="42.6238858" lon="13.8618333"><ele>90.0</ele><time>2026-03-22T10:55:21.619Z</time></trkpt><trkpt lat="42.6239769" lon="13.861861"><ele>91.0</ele><time>2026-03-22T10:55:24.618Z</time></trkpt><trkpt lat="42.6240661" lon="13.8618854"><ele>92.0</ele><time>2026-03-22T10:55:27.619Z</time></trkpt><trkpt lat="42.6241578" lon="13.8619112"><ele>93.0</ele><time>2026-03-22T10:55:30.618Z</time></trkpt><trkpt lat="42.6242198" lon="13.8619277"><ele>94.0</ele><time>2026-03-22T10:55:32.618Z</time></trkpt><trkpt lat="42.6242816" lon="13.861946"><ele>94.0</ele><time>2026-03-22T10:55:34.618Z</time></trkpt><trkpt lat="42.6243601" lon="13.8619911"><ele>94.0</ele><time>2026-03-22T10:55:37.619Z</time></trkpt><trkpt lat="42.6244196" lon="13.8620263"><ele>94.0</ele><time>2026-03-22T10:55:39.618Z</time></trkpt><trkpt lat="42.6245071" lon="13.8620658"><ele>94.0</ele><time>2026-03-22T10:55:42.618Z</time></trkpt><trkpt lat="42.6245743" lon="13.8620856"><ele>94.0</ele><time>2026-03-22T10:55:44.619Z</time></trkpt><trkpt lat="42.6246409" lon="13.8621114"><ele>94.0</ele><time>2026-03-22T10:55:46.619Z</time></trkpt><trkpt lat="42.6247064" lon="13.8621352"><ele>94.0</ele><time>2026-03-22T10:55:48.619Z</time></trkpt><trkpt lat="42.6247732" lon="13.8621605"><ele>94.14285714285714</ele><time>2026-03-22T10:55:50.619Z</time></trkpt><trkpt lat="42.6248449" lon="13.8621777"><ele>94.28571428571428</ele><time>2026-03-22T10:55:52.619Z</time></trkpt><trkpt lat="42.6249154" lon="13.8622002"><ele>94.42857142857143</ele><time>2026-03-22T10:55:54.618Z</time></trkpt><trkpt lat="42.6249809" lon="13.8622252"><ele>94.57142857142857</ele><time>2026-03-22T10:55:56.619Z</time></trkpt><trkpt lat="42.6250459" lon="13.8622448"><ele>94.71428571428572</ele><time>2026-03-22T10:55:58.618Z</time></trkpt><trkpt lat="42.6251072" lon="13.8622689"><ele>94.85714285714286</ele><time>2026-03-22T10:56:00.618Z</time></trkpt><trkpt lat="42.6252061" lon="13.8622966"><ele>95.0</ele><time>2026-03-22T10:56:03.617Z</time></trkpt><trkpt lat="42.6252891" lon="13.8623138"><ele>95.16666666666667</ele><time>2026-03-22T10:56:05.619Z</time></trkpt><trkpt lat="42.6253708" lon="13.8623364"><ele>95.33333333333334</ele><time>2026-03-22T10:56:07.618Z</time></trkpt><trkpt lat="42.6254515" lon="13.8623609"><ele>95.5</ele><time>2026-03-22T10:56:09.619Z</time></trkpt><trkpt lat="42.6255319" lon="13.8623866"><ele>95.66666666666667</ele><time>2026-03-22T10:56:11.618Z</time></trkpt><trkpt lat="42.6256105" lon="13.8624038"><ele>95.83333333333333</ele><time>2026-03-22T10:56:13.619Z</time></trkpt><trkpt lat="42.6256876" lon="13.8624216"><ele>96.0</ele><time>2026-03-22T10:56:15.618Z</time></trkpt><trkpt lat="42.6257627" lon="13.8624398"><ele>96.0</ele><time>2026-03-22T10:56:17.618Z</time></trkpt><trkpt lat="42.6258356" lon="13.8624655"><ele>96.0</ele><time>2026-03-22T10:56:19.618Z</time></trkpt><trkpt lat="42.6259069" lon="13.8624797"><ele>96.0</ele><time>2026-03-22T10:56:21.619Z</time></trkpt><trkpt lat="42.6259933" lon="13.8625173"><ele>96.0</ele><time>2026-03-22T10:56:24.619Z</time></trkpt><trkpt lat="42.6260727" lon="13.8625635"><ele>96.0</ele><time>2026-03-22T10:56:27.619Z</time></trkpt><trkpt lat="42.6261583" lon="13.8626012"><ele>96.0</ele><time>2026-03-22T10:56:30.619Z</time></trkpt><trkpt lat="42.6262504" lon="13.8626186"><ele>95.99999999999999</ele><time>2026-03-22T10:56:33.619Z</time></trkpt><trkpt lat="42.6263125" lon="13.8626397"><ele>96.0</ele><time>2026-03-22T10:56:35.618Z</time></trkpt><trkpt lat="42.626379" lon="13.8626609"><ele>96.0</ele><time>2026-03-22T10:56:37.618Z</time></trkpt><trkpt lat="42.6264517" lon="13.8626831"><ele>96.0</ele><time>2026-03-22T10:56:39.619Z</time></trkpt><trkpt lat="42.626524" lon="13.8627052"><ele>96.0</ele><time>2026-03-22T10:56:41.617Z</time></trkpt><trkpt lat="42.6265957" lon="13.8627203"><ele>95.99999999999999</ele><time>2026-03-22T10:56:43.619Z</time></trkpt><trkpt lat="42.6266657" lon="13.8627442"><ele>96.0</ele><time>2026-03-22T10:56:45.618Z</time></trkpt><trkpt lat="42.6267337" lon="13.8627655"><ele>95.99999999999999</ele><time>2026-03-22T10:56:47.618Z</time></trkpt><trkpt lat="42.6267969" lon="13.8627827"><ele>96.0</ele><time>2026-03-22T10:56:49.619Z</time></trkpt><trkpt lat="42.6268625" lon="13.8627867"><ele>96.0</ele><time>2026-03-22T10:56:51.618Z</time></trkpt><trkpt lat="42.6269307" lon="13.8627771"><ele>96.0</ele><time>2026-03-22T10:56:53.619Z</time></trkpt><trkpt lat="42.6269985" lon="13.8627516"><ele>96.0</ele><time>2026-03-22T10:56:55.618Z</time></trkpt><trkpt lat="42.6270645" lon="13.8627301"><ele>95.99999999999999</ele><time>2026-03-22T10:56:57.619Z</time></trkpt><trkpt lat="42.6271303" lon="13.8627074"><ele>96.0</ele><time>2026-03-22T10:56:59.619Z</time></trkpt><trkpt lat="42.6271962" lon="13.862679"><ele>96.5</ele><time>2026-03-22T10:57:01.618Z</time></trkpt><trkpt lat="42.6272645" lon="13.8626517"><ele>97.0</ele><time>2026-03-22T10:57:03.619Z</time></trkpt><trkpt lat="42.6273409" lon="13.8626322"><ele>97.5</ele><time>2026-03-22T10:57:05.618Z</time></trkpt><trkpt lat="42.6274186" lon="13.8626044"><ele>98.0</ele><time>2026-03-22T10:57:07.618Z</time></trkpt><trkpt lat="42.6274918" lon="13.8625727"><ele>98.5</ele><time>2026-03-22T10:57:09.619Z</time></trkpt><trkpt lat="42.6275636" lon="13.8625398"><ele>99.0</ele><time>2026-03-22T10:57:11.619Z</time></trkpt><trkpt lat="42.6276352" lon="13.8625167"><ele>99.0</ele><time>2026-03-22T10:57:13.618Z</time></trkpt><trkpt lat="42.6277107" lon="13.8624827"><ele>99.0</ele><time>2026-03-22T10:57:15.619Z</time></trkpt><trkpt lat="42.6277892" lon="13.8624476"><ele>99.0</ele><time>2026-03-22T10:57:17.618Z</time></trkpt><trkpt lat="42.6278629" lon="13.8624118"><ele>99.0</ele><time>2026-03-22T10:57:19.619Z</time></trkpt><trkpt lat="42.6279358" lon="13.8623825"><ele>99.0</ele><time>2026-03-22T10:57:21.619Z</time></trkpt><trkpt lat="42.6280076" lon="13.8623421"><ele>99.0</ele><time>2026-03-22T10:57:23.619Z</time></trkpt><trkpt lat="42.6280817" lon="13.8623118"><ele>99.14285714285715</ele><time>2026-03-22T10:57:25.619Z</time></trkpt><trkpt lat="42.6281561" lon="13.8622832"><ele>99.28571428571428</ele><time>2026-03-22T10:57:27.618Z</time></trkpt><trkpt lat="42.6282277" lon="13.8622465"><ele>99.42857142857143</ele><time>2026-03-22T10:57:29.618Z</time></trkpt><trkpt lat="42.6283005" lon="13.8622188"><ele>99.57142857142858</ele><time>2026-03-22T10:57:31.618Z</time></trkpt><trkpt lat="42.6283701" lon="13.862187"><ele>99.71428571428572</ele><time>2026-03-22T10:57:33.619Z</time></trkpt><trkpt lat="42.6284373" lon="13.862157"><ele>99.85714285714286</ele><time>2026-03-22T10:57:35.619Z</time></trkpt><trkpt lat="42.6285078" lon="13.8621256"><ele>100.0</ele><time>2026-03-22T10:57:37.618Z</time></trkpt><trkpt lat="42.6285773" lon="13.8620923"><ele>100.28571428571429</ele><time>2026-03-22T10:57:39.619Z</time></trkpt><trkpt lat="42.6286442" lon="13.8620606"><ele>100.57142857142857</ele><time>2026-03-22T10:57:41.618Z</time></trkpt><trkpt lat="42.6287075" lon="13.8620355"><ele>100.85714285714286</ele><time>2026-03-22T10:57:43.619Z</time></trkpt><trkpt lat="42.6287692" lon="13.8620174"><ele>101.14285714285714</ele><time>2026-03-22T10:57:45.619Z</time></trkpt><trkpt lat="42.6288296" lon="13.8620722"><ele>101.42857142857143</ele><time>2026-03-22T10:57:48.618Z</time></trkpt><trkpt lat="42.6288421" lon="13.8621763"><ele>101.71428571428572</ele><time>2026-03-22T10:57:50.618Z</time></trkpt><trkpt lat="42.6288474" lon="13.8622825"><ele>102.0</ele><time>2026-03-22T10:57:52.617Z</time></trkpt><trkpt lat="42.6288559" lon="13.8623866"><ele>102.0</ele><time>2026-03-22T10:57:54.619Z</time></trkpt><trkpt lat="42.6288652" lon="13.8624893"><ele>102.0</ele><time>2026-03-22T10:57:56.618Z</time></trkpt><trkpt lat="42.6288744" lon="13.862594"><ele>102.0</ele><time>2026-03-22T10:57:58.619Z</time></trkpt><trkpt lat="42.6288822" lon="13.862709"><ele>102.0</ele><time>2026-03-22T10:58:00.619Z</time></trkpt><trkpt lat="42.6288924" lon="13.8628187"><ele>102.0</ele><time>2026-03-22T10:58:02.618Z</time></trkpt><trkpt lat="42.6288999" lon="13.862926"><ele>102.0</ele><time>2026-03-22T10:58:04.618Z</time></trkpt><trkpt lat="42.6288867" lon="13.8630319"><ele>102.66666666666667</ele><time>2026-03-22T10:58:06.617Z</time></trkpt><trkpt lat="42.6288834" lon="13.8631396"><ele>103.33333333333334</ele><time>2026-03-22T10:58:08.618Z</time></trkpt><trkpt lat="42.6288956" lon="13.8632411"><ele>104.0</ele><time>2026-03-22T10:58:10.619Z</time></trkpt><trkpt lat="42.6289338" lon="13.863324"><ele>104.66666666666667</ele><time>2026-03-22T10:58:12.619Z</time></trkpt><trkpt lat="42.6289647" lon="13.86342"><ele>105.33333333333334</ele><time>2026-03-22T10:58:14.619Z</time></trkpt><trkpt lat="42.6289884" lon="13.8635309"><ele>106.0</ele><time>2026-03-22T10:58:16.618Z</time></trkpt><trkpt lat="42.6290206" lon="13.8636442"><ele>106.00000000000001</ele><time>2026-03-22T10:58:19.618Z</time></trkpt><trkpt lat="42.6290223" lon="13.8637352"><ele>106.0</ele><time>2026-03-22T10:58:22.619Z</time></trkpt><trkpt lat="42.628941" lon="13.8637798"><ele>106.0</ele><time>2026-03-22T10:58:25.618Z</time></trkpt><trkpt lat="42.6288507" lon="13.8638072"><ele>106.0</ele><time>2026-03-22T10:58:28.619Z</time></trkpt><trkpt lat="42.6287781" lon="13.8638334"><ele>106.00000000000001</ele><time>2026-03-22T10:58:30.619Z</time></trkpt><trkpt lat="42.6286932" lon="13.863857"><ele>106.0</ele><time>2026-03-22T10:58:32.617Z</time></trkpt><trkpt lat="42.6286179" lon="13.8638978"><ele>103.0</ele><time>2026-03-22T10:58:34.618Z</time></trkpt><trkpt lat="42.6285476" lon="13.8639191"><ele>103.0</ele><time>2026-03-22T10:58:36.619Z</time></trkpt><trkpt lat="42.6284853" lon="13.8639422"><ele>103.0</ele><time>2026-03-22T10:58:38.619Z</time></trkpt><trkpt lat="42.6284317" lon="13.8640036"><ele>103.0</ele><time>2026-03-22T10:58:41.619Z</time></trkpt></trkseg></trk></gpx>